<?xml version='1.0' encoding='UTF-8'?><gpx version="1.1" creator="JPX - https://github.com/jenetics/jpx" xmlns="http://www.topografix.com/GPX/1/1"><trk><trkseg><trkpt lat="42.7409818" lon="12.4189068"><ele>319.0</ele><time>2026-04-25T11:54:47.13Z</time></trkpt><trkpt lat="42.74093" lon="12.4190084"><ele>319.0</ele><time>2026-04-25T11:55:11.105Z</time></trkpt><trkpt lat="42.7408665" lon="12.4190891"><ele>319.0</ele><time>2026-04-25T11:55:14.118Z</time></trkpt><trkpt lat="42.7407934" lon="12.4190618"><ele>319.0</ele><time>2026-04-25T11:55:17.111Z</time></trkpt><trkpt lat="42.7407447" lon="12.418981"><ele>319.0</ele><time>2026-04-25T11:55:20.106Z</time></trkpt><trkpt lat="42.7406631" lon="12.4189349"><ele>319.0</ele><time>2026-04-25T11:56:34.125Z</time></trkpt><trkpt lat="42.7405626" lon="12.4189689"><ele>319.0</ele><time>2026-04-25T11:56:36.123Z</time></trkpt><trkpt lat="42.7404687" lon="12.4190253"><ele>319.0</ele><time>2026-04-25T11:56:38.12Z</time></trkpt><trkpt lat="42.7403808" lon="12.4190797"><ele>319.0</ele><time>2026-04-25T11:56:40.104Z</time></trkpt><trkpt lat="42.740306" lon="12.4191365"><ele>319.0</ele><time>2026-04-25T11:56:42.103Z</time></trkpt><trkpt lat="42.7402505" lon="12.419212"><ele>319.0</ele><time>2026-04-25T11:56:44.135Z</time></trkpt><trkpt lat="42.7401505" lon="12.4192882"><ele>320.6</ele><time>2026-04-25T11:56:46.112Z</time></trkpt><trkpt lat="42.7400886" lon="12.4193324"><ele>322.2</ele><time>2026-04-25T11:56:47.104Z</time></trkpt><trkpt lat="42.7400249" lon="12.4193748"><ele>323.8</ele><time>2026-04-25T11:56:48.101Z</time></trkpt><trkpt lat="42.7399502" lon="12.4194242"><ele>325.40000000000003</ele><time>2026-04-25T11:56:49.113Z</time></trkpt><trkpt lat="42.7398543" lon="12.4194929"><ele>327.0</ele><time>2026-04-25T11:56:50.133Z</time></trkpt><trkpt lat="42.7397273" lon="12.4195717"><ele>327.75</ele><time>2026-04-25T11:56:51.117Z</time></trkpt><trkpt lat="42.7396004" lon="12.4196592"><ele>328.5</ele><time>2026-04-25T11:56:52.106Z</time></trkpt><trkpt lat="42.739502" lon="12.4197317"><ele>329.25</ele><time>2026-04-25T11:56:53.103Z</time></trkpt><trkpt lat="42.7394308" lon="12.4197773"><ele>330.0</ele><time>2026-04-25T11:56:54.1Z</time></trkpt><trkpt lat="42.7393125" lon="12.4197351"><ele>331.0</ele><time>2026-04-25T11:56:56.115Z</time></trkpt><trkpt lat="42.7392339" lon="12.4196666"><ele>332.0</ele><time>2026-04-25T11:56:57.113Z</time></trkpt><trkpt lat="42.739139" lon="12.4195757"><ele>333.0</ele><time>2026-04-25T11:56:58.108Z</time></trkpt><trkpt lat="42.7390265" lon="12.4194824"><ele>334.0</ele><time>2026-04-25T11:56:59.1Z</time></trkpt><trkpt lat="42.7388965" lon="12.4193811"><ele>334.0</ele><time>2026-04-25T11:57:00.112Z</time></trkpt><trkpt lat="42.7387455" lon="12.4193114"><ele>334.0</ele><time>2026-04-25T11:57:01.109Z</time></trkpt><trkpt lat="42.7385729" lon="12.4192661"><ele>334.0</ele><time>2026-04-25T11:57:02.109Z</time></trkpt><trkpt lat="42.7383694" lon="12.4192328"><ele>335.5</ele><time>2026-04-25T11:57:03.11Z</time></trkpt><trkpt lat="42.7381429" lon="12.4192064"><ele>337.0</ele><time>2026-04-25T11:57:04.099Z</time></trkpt><trkpt lat="42.7379179" lon="12.4191852"><ele>339.3333333333333</ele><time>2026-04-25T11:57:05.102Z</time></trkpt><trkpt lat="42.7376952" lon="12.4191586"><ele>341.6666666666667</ele><time>2026-04-25T11:57:06.111Z</time></trkpt><trkpt lat="42.7374745" lon="12.4191308"><ele>344.0</ele><time>2026-04-25T11:57:07.135Z</time></trkpt><trkpt lat="42.7372547" lon="12.4191088"><ele>344.0</ele><time>2026-04-25T11:57:08.121Z</time></trkpt><trkpt lat="42.7370278" lon="12.4190918"><ele>344.0</ele><time>2026-04-25T11:57:09.101Z</time></trkpt><trkpt lat="42.7367923" lon="12.4190766"><ele>345.0</ele><time>2026-04-25T11:57:10.115Z</time></trkpt><trkpt lat="42.736548" lon="12.4190634"><ele>346.0</ele><time>2026-04-25T11:57:11.121Z</time></trkpt><trkpt lat="42.7363029" lon="12.4190514"><ele>346.0</ele><time>2026-04-25T11:57:12.095Z</time></trkpt><trkpt lat="42.7360627" lon="12.4190454"><ele>346.0</ele><time>2026-04-25T11:57:13.129Z</time></trkpt><trkpt lat="42.735825" lon="12.4190375"><ele>349.66666666666663</ele><time>2026-04-25T11:57:14.113Z</time></trkpt><trkpt lat="42.7355966" lon="12.4190234"><ele>353.3333333333333</ele><time>2026-04-25T11:57:15.113Z</time></trkpt><trkpt lat="42.7353857" lon="12.4190083"><ele>357.0</ele><time>2026-04-25T11:57:16.114Z</time></trkpt><trkpt lat="42.7351825" lon="12.4189975"><ele>359.3333333333333</ele><time>2026-04-25T11:57:17.114Z</time></trkpt><trkpt lat="42.7349923" lon="12.4190233"><ele>361.66666666666663</ele><time>2026-04-25T11:57:18.112Z</time></trkpt><trkpt lat="42.734797" lon="12.4190821"><ele>364.0</ele><time>2026-04-25T11:57:19.111Z</time></trkpt><trkpt lat="42.7345794" lon="12.4191522"><ele>365.5</ele><time>2026-04-25T11:57:20.1Z</time></trkpt><trkpt lat="42.7343497" lon="12.419231"><ele>367.0</ele><time>2026-04-25T11:57:21.126Z</time></trkpt><trkpt lat="42.7341167" lon="12.4193074"><ele>367.0</ele><time>2026-04-25T11:57:22.11Z</time></trkpt><trkpt lat="42.7338983" lon="12.4193689"><ele>367.0</ele><time>2026-04-25T11:57:23.096Z</time></trkpt><trkpt lat="42.733705" lon="12.4194212"><ele>367.0</ele><time>2026-04-25T11:57:24.117Z</time></trkpt><trkpt lat="42.7335285" lon="12.4194912"><ele>367.3333333333333</ele><time>2026-04-25T11:57:25.13Z</time></trkpt><trkpt lat="42.7333743" lon="12.4195795"><ele>367.6666666666667</ele><time>2026-04-25T11:57:26.093Z</time></trkpt><trkpt lat="42.7332406" lon="12.4197041"><ele>368.0</ele><time>2026-04-25T11:57:27.108Z</time></trkpt><trkpt lat="42.7331102" lon="12.4198761"><ele>366.6666666666667</ele><time>2026-04-25T11:57:28.11Z</time></trkpt><trkpt lat="42.7329662" lon="12.4200477"><ele>365.3333333333333</ele><time>2026-04-25T11:57:29.101Z</time></trkpt><trkpt lat="42.7328076" lon="12.4202072"><ele>364.0</ele><time>2026-04-25T11:57:30.093Z</time></trkpt><trkpt lat="42.7326347" lon="12.4203407"><ele>364.0</ele><time>2026-04-25T11:57:31.1Z</time></trkpt><trkpt lat="42.7324568" lon="12.4204608"><ele>364.0</ele><time>2026-04-25T11:57:32.117Z</time></trkpt><trkpt lat="42.7322711" lon="12.4205756"><ele>364.0</ele><time>2026-04-25T11:57:33.097Z</time></trkpt><trkpt lat="42.7320781" lon="12.4206921"><ele>366.66666666666663</ele><time>2026-04-25T11:57:34.116Z</time></trkpt><trkpt lat="42.7318823" lon="12.4208057"><ele>369.3333333333333</ele><time>2026-04-25T11:57:35.111Z</time></trkpt><trkpt lat="42.7316746" lon="12.4209039"><ele>372.0</ele><time>2026-04-25T11:57:36.095Z</time></trkpt><trkpt lat="42.7314758" lon="12.4209906"><ele>372.0</ele><time>2026-04-25T11:57:37.111Z</time></trkpt><trkpt lat="42.7313048" lon="12.4210882"><ele>372.0</ele><time>2026-04-25T11:57:38.12Z</time></trkpt><trkpt lat="42.7311528" lon="12.421208"><ele>372.0</ele><time>2026-04-25T11:57:39.115Z</time></trkpt><trkpt lat="42.7310114" lon="12.4213617"><ele>373.6666666666667</ele><time>2026-04-25T11:57:40.098Z</time></trkpt><trkpt lat="42.730869" lon="12.4215116"><ele>375.33333333333337</ele><time>2026-04-25T11:57:41.119Z</time></trkpt><trkpt lat="42.7307215" lon="12.4216384"><ele>377.0</ele><time>2026-04-25T11:57:42.096Z</time></trkpt><trkpt lat="42.7305511" lon="12.4217363"><ele>377.0</ele><time>2026-04-25T11:57:43.099Z</time></trkpt><trkpt lat="42.7303816" lon="12.4218131"><ele>377.0</ele><time>2026-04-25T11:57:44.113Z</time></trkpt><trkpt lat="42.7302146" lon="12.4218968"><ele>377.0</ele><time>2026-04-25T11:57:45.119Z</time></trkpt><trkpt lat="42.73007" lon="12.4220107"><ele>375.6666666666667</ele><time>2026-04-25T11:57:46.125Z</time></trkpt><trkpt lat="42.7299352" lon="12.4221519"><ele>374.3333333333333</ele><time>2026-04-25T11:57:47.097Z</time></trkpt><trkpt lat="42.7298238" lon="12.4223114"><ele>373.0</ele><time>2026-04-25T11:57:48.089Z</time></trkpt><trkpt lat="42.7297272" lon="12.4224894"><ele>373.0</ele><time>2026-04-25T11:57:49.115Z</time></trkpt><trkpt lat="42.7296554" lon="12.4226816"><ele>373.0</ele><time>2026-04-25T11:57:50.115Z</time></trkpt><trkpt lat="42.729601" lon="12.4228963"><ele>373.0</ele><time>2026-04-25T11:57:51.101Z</time></trkpt><trkpt lat="42.7295668" lon="12.4231413"><ele>371.66666666666663</ele><time>2026-04-25T11:57:52.104Z</time></trkpt><trkpt lat="42.7295532" lon="12.4234023"><ele>370.3333333333333</ele><time>2026-04-25T11:57:53.111Z</time></trkpt><trkpt lat="42.7295547" lon="12.4236826"><ele>369.0</ele><time>2026-04-25T11:57:54.128Z</time></trkpt><trkpt lat="42.7295739" lon="12.4239657"><ele>368.0</ele><time>2026-04-25T11:57:55.109Z</time></trkpt><trkpt lat="42.7296003" lon="12.4242198"><ele>367.0</ele><time>2026-04-25T11:57:56.104Z</time></trkpt><trkpt lat="42.7296218" lon="12.4244563"><ele>366.0</ele><time>2026-04-25T11:57:57.101Z</time></trkpt><trkpt lat="42.7296498" lon="12.4246755"><ele>363.25</ele><time>2026-04-25T11:57:58.099Z</time></trkpt><trkpt lat="42.729674" lon="12.4248661"><ele>360.5</ele><time>2026-04-25T11:57:59.109Z</time></trkpt><trkpt lat="42.7296859" lon="12.4250438"><ele>357.75</ele><time>2026-04-25T11:58:00.13Z</time></trkpt><trkpt lat="42.729674" lon="12.4251994"><ele>355.0</ele><time>2026-04-25T11:58:01.122Z</time></trkpt><trkpt lat="42.7296314" lon="12.425332"><ele>355.0</ele><time>2026-04-25T11:58:02.126Z</time></trkpt><trkpt lat="42.7295504" lon="12.4254129"><ele>355.0</ele><time>2026-04-25T11:58:03.104Z</time></trkpt><trkpt lat="42.7294381" lon="12.4254168"><ele>355.0</ele><time>2026-04-25T11:58:04.094Z</time></trkpt><trkpt lat="42.7293095" lon="12.425368"><ele>355.0</ele><time>2026-04-25T11:58:05.116Z</time></trkpt><trkpt lat="42.7291531" lon="12.42531"><ele>353.0</ele><time>2026-04-25T11:58:06.113Z</time></trkpt><trkpt lat="42.7289743" lon="12.4252574"><ele>351.0</ele><time>2026-04-25T11:58:07.13Z</time></trkpt><trkpt lat="42.728779" lon="12.4252004"><ele>349.0</ele><time>2026-04-25T11:58:08.123Z</time></trkpt><trkpt lat="42.7285794" lon="12.4251458"><ele>346.3333333333333</ele><time>2026-04-25T11:58:09.12Z</time></trkpt><trkpt lat="42.7283811" lon="12.4251248"><ele>343.6666666666667</ele><time>2026-04-25T11:58:10.1Z</time></trkpt><trkpt lat="42.7281688" lon="12.4251597"><ele>341.0</ele><time>2026-04-25T11:58:11.131Z</time></trkpt><trkpt lat="42.7279582" lon="12.4252554"><ele>341.0</ele><time>2026-04-25T11:58:12.129Z</time></trkpt><trkpt lat="42.7277548" lon="12.4254111"><ele>341.0</ele><time>2026-04-25T11:58:13.1Z</time></trkpt><trkpt lat="42.7275545" lon="12.4256177"><ele>338.5</ele><time>2026-04-25T11:58:14.109Z</time></trkpt><trkpt lat="42.7273711" lon="12.4258688"><ele>336.0</ele><time>2026-04-25T11:58:15.103Z</time></trkpt><trkpt lat="42.7271915" lon="12.4261399"><ele>337.0</ele><time>2026-04-25T11:58:16.1Z</time></trkpt><trkpt lat="42.7269946" lon="12.426404"><ele>338.0</ele><time>2026-04-25T11:58:17.125Z</time></trkpt><trkpt lat="42.7267723" lon="12.426654"><ele>338.0</ele><time>2026-04-25T11:58:18.128Z</time></trkpt><trkpt lat="42.7265625" lon="12.4268874"><ele>338.0</ele><time>2026-04-25T11:58:19.093Z</time></trkpt><trkpt lat="42.7263652" lon="12.4271234"><ele>337.5</ele><time>2026-04-25T11:58:20.11Z</time></trkpt><trkpt lat="42.7261723" lon="12.4274053"><ele>337.0</ele><time>2026-04-25T11:58:21.099Z</time></trkpt><trkpt lat="42.7259831" lon="12.4276959"><ele>337.0</ele><time>2026-04-25T11:58:22.092Z</time></trkpt><trkpt lat="42.7258129" lon="12.4279649"><ele>337.0</ele><time>2026-04-25T11:58:23.107Z</time></trkpt><trkpt lat="42.7256477" lon="12.4282036"><ele>339.5</ele><time>2026-04-25T11:58:24.109Z</time></trkpt><trkpt lat="42.7254748" lon="12.4283968"><ele>342.0</ele><time>2026-04-25T11:58:25.103Z</time></trkpt><trkpt lat="42.7252721" lon="12.428545"><ele>343.0</ele><time>2026-04-25T11:58:26.128Z</time></trkpt><trkpt lat="42.7250513" lon="12.4286611"><ele>344.0</ele><time>2026-04-25T11:58:27.109Z</time></trkpt><trkpt lat="42.7248478" lon="12.4287838"><ele>346.5</ele><time>2026-04-25T11:58:28.118Z</time></trkpt><trkpt lat="42.7246631" lon="12.4289824"><ele>349.0</ele><time>2026-04-25T11:58:29.11Z</time></trkpt><trkpt lat="42.724512" lon="12.4292423"><ele>350.5</ele><time>2026-04-25T11:58:30.099Z</time></trkpt><trkpt lat="42.7243761" lon="12.4295194"><ele>352.0</ele><time>2026-04-25T11:58:31.107Z</time></trkpt><trkpt lat="42.7242498" lon="12.4297708"><ele>353.66666666666663</ele><time>2026-04-25T11:58:32.122Z</time></trkpt><trkpt lat="42.7241417" lon="12.4300006"><ele>355.3333333333333</ele><time>2026-04-25T11:58:33.107Z</time></trkpt><trkpt lat="42.7240468" lon="12.430215"><ele>357.0</ele><time>2026-04-25T11:58:34.116Z</time></trkpt><trkpt lat="42.7239646" lon="12.4304175"><ele>357.25</ele><time>2026-04-25T11:58:35.107Z</time></trkpt><trkpt lat="42.7238894" lon="12.4305997"><ele>357.5</ele><time>2026-04-25T11:58:36.121Z</time></trkpt><trkpt lat="42.7238144" lon="12.430773"><ele>357.75</ele><time>2026-04-25T11:58:37.101Z</time></trkpt><trkpt lat="42.7237436" lon="12.4309294"><ele>358.0</ele><time>2026-04-25T11:58:38.11Z</time></trkpt><trkpt lat="42.7236797" lon="12.4310672"><ele>358.0</ele><time>2026-04-25T11:58:39.099Z</time></trkpt><trkpt lat="42.7236224" lon="12.4312001"><ele>358.0</ele><time>2026-04-25T11:58:40.117Z</time></trkpt><trkpt lat="42.7235673" lon="12.4313238"><ele>358.0</ele><time>2026-04-25T11:58:41.098Z</time></trkpt><trkpt lat="42.7235191" lon="12.4314419"><ele>358.0</ele><time>2026-04-25T11:58:42.123Z</time></trkpt><trkpt lat="42.7234854" lon="12.431537"><ele>358.0</ele><time>2026-04-25T11:58:43.107Z</time></trkpt><trkpt lat="42.7234482" lon="12.4316434"><ele>359.59999999999997</ele><time>2026-04-25T11:58:45.108Z</time></trkpt><trkpt lat="42.7233844" lon="12.4316124"><ele>361.2</ele><time>2026-04-25T11:58:48.104Z</time></trkpt><trkpt lat="42.7233715" lon="12.4314598"><ele>362.8</ele><time>2026-04-25T11:58:50.11Z</time></trkpt><trkpt lat="42.723372" lon="12.4313495"><ele>364.4</ele><time>2026-04-25T11:58:51.096Z</time></trkpt><trkpt lat="42.7233603" lon="12.4312001"><ele>366.0</ele><time>2026-04-25T11:58:52.103Z</time></trkpt><trkpt lat="42.7233339" lon="12.4310242"><ele>366.0</ele><time>2026-04-25T11:58:53.099Z</time></trkpt><trkpt lat="42.7233038" lon="12.4308254"><ele>366.0</ele><time>2026-04-25T11:58:54.099Z</time></trkpt><trkpt lat="42.7232678" lon="12.430644"><ele>366.0</ele><time>2026-04-25T11:58:55.104Z</time></trkpt><trkpt lat="42.7232414" lon="12.4304709"><ele>366.0</ele><time>2026-04-25T11:58:56.111Z</time></trkpt><trkpt lat="42.7232147" lon="12.4302906"><ele>365.0</ele><time>2026-04-25T11:58:57.138Z</time></trkpt><trkpt lat="42.7231829" lon="12.4301065"><ele>364.0</ele><time>2026-04-25T11:58:58.132Z</time></trkpt><trkpt lat="42.723155" lon="12.429941"><ele>363.0</ele><time>2026-04-25T11:58:59.097Z</time></trkpt><trkpt lat="42.7231322" lon="12.4297924"><ele>362.0</ele><time>2026-04-25T11:59:00.117Z</time></trkpt><trkpt lat="42.7231033" lon="12.4296271"><ele>360.8</ele><time>2026-04-25T11:59:01.116Z</time></trkpt><trkpt lat="42.7230791" lon="12.4294695"><ele>359.6</ele><time>2026-04-25T11:59:02.097Z</time></trkpt><trkpt lat="42.723052" lon="12.429332"><ele>358.40000000000003</ele><time>2026-04-25T11:59:03.119Z</time></trkpt><trkpt lat="42.7230215" lon="12.4291981"><ele>357.20000000000005</ele><time>2026-04-25T11:59:04.106Z</time></trkpt><trkpt lat="42.7229987" lon="12.4290722"><ele>356.0</ele><time>2026-04-25T11:59:05.104Z</time></trkpt><trkpt lat="42.7229791" lon="12.4289387"><ele>354.4</ele><time>2026-04-25T11:59:06.113Z</time></trkpt><trkpt lat="42.7229592" lon="12.4287966"><ele>352.8</ele><time>2026-04-25T11:59:07.113Z</time></trkpt><trkpt lat="42.7229347" lon="12.4286492"><ele>351.2</ele><time>2026-04-25T11:59:08.095Z</time></trkpt><trkpt lat="42.7229127" lon="12.4285077"><ele>349.59999999999997</ele><time>2026-04-25T11:59:09.116Z</time></trkpt><trkpt lat="42.7228817" lon="12.4283849"><ele>348.0</ele><time>2026-04-25T11:59:10.1Z</time></trkpt><trkpt lat="42.7228438" lon="12.4282726"><ele>348.0</ele><time>2026-04-25T11:59:11.111Z</time></trkpt><trkpt lat="42.7228066" lon="12.4281821"><ele>348.0</ele><time>2026-04-25T11:59:12.111Z</time></trkpt><trkpt lat="42.7227279" lon="12.4280813"><ele>348.0</ele><time>2026-04-25T11:59:14.126Z</time></trkpt><trkpt lat="42.7226027" lon="12.4280742"><ele>348.0</ele><time>2026-04-25T11:59:16.107Z</time></trkpt><trkpt lat="42.7225314" lon="12.4280823"><ele>348.0</ele><time>2026-04-25T11:59:17.095Z</time></trkpt><trkpt lat="42.7224657" lon="12.4280824"><ele>348.0</ele><time>2026-04-25T11:59:18.097Z</time></trkpt><trkpt lat="42.7223836" lon="12.4279941"><ele>346.2</ele><time>2026-04-25T11:59:20.104Z</time></trkpt><trkpt lat="42.7223805" lon="12.4278848"><ele>344.4</ele><time>2026-04-25T11:59:21.149Z</time></trkpt><trkpt lat="42.7224082" lon="12.4277572"><ele>342.59999999999997</ele><time>2026-04-25T11:59:22.11Z</time></trkpt><trkpt lat="42.7224391" lon="12.4276143"><ele>340.79999999999995</ele><time>2026-04-25T11:59:23.098Z</time></trkpt><trkpt lat="42.7224635" lon="12.4274893"><ele>339.0</ele><time>2026-04-25T11:59:24.112Z</time></trkpt><trkpt lat="42.722489" lon="12.4273753"><ele>339.0</ele><time>2026-04-25T11:59:25.124Z</time></trkpt><trkpt lat="42.7225139" lon="12.4272743"><ele>339.0</ele><time>2026-04-25T11:59:26.1Z</time></trkpt><trkpt lat="42.7225517" lon="12.4271539"><ele>339.0</ele><time>2026-04-25T11:59:28.147Z</time></trkpt><trkpt lat="42.7224879" lon="12.4270446"><ele>339.0</ele><time>2026-04-25T11:59:30.102Z</time></trkpt><trkpt lat="42.7224281" lon="12.4269821"><ele>339.0</ele><time>2026-04-25T11:59:31.107Z</time></trkpt><trkpt lat="42.722359" lon="12.426918"><ele>339.0</ele><time>2026-04-25T11:59:32.124Z</time></trkpt><trkpt lat="42.7222954" lon="12.4268544"><ele>337.6666666666667</ele><time>2026-04-25T11:59:33.128Z</time></trkpt><trkpt lat="42.7222455" lon="12.4267744"><ele>336.3333333333333</ele><time>2026-04-25T11:59:34.115Z</time></trkpt><trkpt lat="42.7222172" lon="12.4266794"><ele>335.0</ele><time>2026-04-25T11:59:35.105Z</time></trkpt><trkpt lat="42.7222002" lon="12.4265612"><ele>333.66666666666663</ele><time>2026-04-25T11:59:36.119Z</time></trkpt><trkpt lat="42.7221941" lon="12.42643"><ele>332.3333333333333</ele><time>2026-04-25T11:59:37.099Z</time></trkpt><trkpt lat="42.7222047" lon="12.4263139"><ele>331.0</ele><time>2026-04-25T11:59:38.132Z</time></trkpt><trkpt lat="42.7222057" lon="12.4262217"><ele>329.20000000000005</ele><time>2026-04-25T11:59:39.113Z</time></trkpt><trkpt lat="42.7221557" lon="12.4261036"><ele>327.40000000000003</ele><time>2026-04-25T11:59:41.113Z</time></trkpt><trkpt lat="42.7220897" lon="12.4260517"><ele>325.6</ele><time>2026-04-25T11:59:42.11Z</time></trkpt><trkpt lat="42.7219786" lon="12.4259952"><ele>323.8</ele><time>2026-04-25T11:59:43.123Z</time></trkpt><trkpt lat="42.7218471" lon="12.4259337"><ele>322.0</ele><time>2026-04-25T11:59:44.117Z</time></trkpt><trkpt lat="42.7217149" lon="12.42587"><ele>320.5</ele><time>2026-04-25T11:59:45.109Z</time></trkpt><trkpt lat="42.7215827" lon="12.4258068"><ele>319.0</ele><time>2026-04-25T11:59:46.108Z</time></trkpt><trkpt lat="42.7214483" lon="12.4257444"><ele>317.5</ele><time>2026-04-25T11:59:47.128Z</time></trkpt><trkpt lat="42.7213198" lon="12.4256831"><ele>316.0</ele><time>2026-04-25T11:59:48.134Z</time></trkpt><trkpt lat="42.7212072" lon="12.4256191"><ele>316.0</ele><time>2026-04-25T11:59:49.104Z</time></trkpt><trkpt lat="42.7211037" lon="12.4255587"><ele>316.0</ele><time>2026-04-25T11:59:50.109Z</time></trkpt><trkpt lat="42.7210029" lon="12.4255068"><ele>316.0</ele><time>2026-04-25T11:59:51.1Z</time></trkpt><trkpt lat="42.7208895" lon="12.4254689"><ele>316.0</ele><time>2026-04-25T11:59:52.109Z</time></trkpt><trkpt lat="42.7207703" lon="12.4254487"><ele>314.6</ele><time>2026-04-25T11:59:53.108Z</time></trkpt><trkpt lat="42.7206559" lon="12.4254405"><ele>313.20000000000005</ele><time>2026-04-25T11:59:54.124Z</time></trkpt><trkpt lat="42.7205463" lon="12.4254281"><ele>311.79999999999995</ele><time>2026-04-25T11:59:55.109Z</time></trkpt><trkpt lat="42.7204414" lon="12.4254024"><ele>310.4</ele><time>2026-04-25T11:59:56.111Z</time></trkpt><trkpt lat="42.7203391" lon="12.4253722"><ele>309.0</ele><time>2026-04-25T11:59:57.117Z</time></trkpt><trkpt lat="42.7202437" lon="12.4253471"><ele>307.8333333333333</ele><time>2026-04-25T11:59:58.104Z</time></trkpt><trkpt lat="42.7201471" lon="12.4253203"><ele>306.6666666666667</ele><time>2026-04-25T11:59:59.124Z</time></trkpt><trkpt lat="42.7200529" lon="12.425292"><ele>305.5</ele><time>2026-04-25T12:00:00.108Z</time></trkpt><trkpt lat="42.7199681" lon="12.425262"><ele>304.33333333333337</ele><time>2026-04-25T12:00:01.123Z</time></trkpt><trkpt lat="42.7198913" lon="12.4252305"><ele>303.1666666666667</ele><time>2026-04-25T12:00:02.1Z</time></trkpt><trkpt lat="42.7198294" lon="12.425177"><ele>302.0</ele><time>2026-04-25T12:00:03.116Z</time></trkpt><trkpt lat="42.71978" lon="12.4251027"><ele>302.0</ele><time>2026-04-25T12:00:04.105Z</time></trkpt><trkpt lat="42.7197267" lon="12.4250039"><ele>302.0</ele><time>2026-04-25T12:00:05.112Z</time></trkpt><trkpt lat="42.7196722" lon="12.4248986"><ele>302.0</ele><time>2026-04-25T12:00:06.124Z</time></trkpt><trkpt lat="42.7196146" lon="12.4247927"><ele>302.0</ele><time>2026-04-25T12:00:07.091Z</time></trkpt><trkpt lat="42.719559" lon="12.4246898"><ele>302.0</ele><time>2026-04-25T12:00:08.117Z</time></trkpt><trkpt lat="42.7195064" lon="12.4245884"><ele>301.2</ele><time>2026-04-25T12:00:09.112Z</time></trkpt><trkpt lat="42.7194581" lon="12.4244908"><ele>300.4</ele><time>2026-04-25T12:00:10.112Z</time></trkpt><trkpt lat="42.7193993" lon="12.4244147"><ele>299.6</ele><time>2026-04-25T12:00:11.104Z</time></trkpt><trkpt lat="42.719316" lon="12.4243601"><ele>298.8</ele><time>2026-04-25T12:00:12.091Z</time></trkpt><trkpt lat="42.7191882" lon="12.424316"><ele>298.0</ele><time>2026-04-25T12:00:13.102Z</time></trkpt><trkpt lat="42.7190474" lon="12.4242761"><ele>295.75</ele><time>2026-04-25T12:00:14.118Z</time></trkpt><trkpt lat="42.7189188" lon="12.4242428"><ele>293.5</ele><time>2026-04-25T12:00:15.106Z</time></trkpt><trkpt lat="42.7188044" lon="12.4242066"><ele>291.25</ele><time>2026-04-25T12:00:16.12Z</time></trkpt><trkpt lat="42.7187081" lon="12.4241662"><ele>289.0</ele><time>2026-04-25T12:00:17.112Z</time></trkpt><trkpt lat="42.7186055" lon="12.4241276"><ele>287.0</ele><time>2026-04-25T12:00:18.108Z</time></trkpt><trkpt lat="42.7184996" lon="12.424095"><ele>285.0</ele><time>2026-04-25T12:00:19.093Z</time></trkpt><trkpt lat="42.7183979" lon="12.4240661"><ele>283.0</ele><time>2026-04-25T12:00:20.128Z</time></trkpt><trkpt lat="42.7183061" lon="12.424031"><ele>281.0</ele><time>2026-04-25T12:00:21.095Z</time></trkpt><trkpt lat="42.7182201" lon="12.4239931"><ele>279.0</ele><time>2026-04-25T12:00:22.099Z</time></trkpt><trkpt lat="42.7181512" lon="12.4239373"><ele>279.0</ele><time>2026-04-25T12:00:23.112Z</time></trkpt><trkpt lat="42.7180905" lon="12.4238618"><ele>279.0</ele><time>2026-04-25T12:00:24.115Z</time></trkpt><trkpt lat="42.7180413" lon="12.4237742"><ele>279.0</ele><time>2026-04-25T12:00:25.093Z</time></trkpt><trkpt lat="42.7180228" lon="12.4236793"><ele>279.0</ele><time>2026-04-25T12:00:26.111Z</time></trkpt><trkpt lat="42.7180322" lon="12.42357"><ele>279.0</ele><time>2026-04-25T12:00:27.098Z</time></trkpt><trkpt lat="42.7180542" lon="12.4234549"><ele>279.0</ele><time>2026-04-25T12:00:28.102Z</time></trkpt><trkpt lat="42.7180667" lon="12.423336"><ele>277.59999999999997</ele><time>2026-04-25T12:00:29.121Z</time></trkpt><trkpt lat="42.7180789" lon="12.4232248"><ele>276.2</ele><time>2026-04-25T12:00:30.122Z</time></trkpt><trkpt lat="42.7181078" lon="12.423128"><ele>274.79999999999995</ele><time>2026-04-25T12:00:31.109Z</time></trkpt><trkpt lat="42.7181406" lon="12.4230442"><ele>273.4</ele><time>2026-04-25T12:00:32.123Z</time></trkpt><trkpt lat="42.7182088" lon="12.4229137"><ele>272.0</ele><time>2026-04-25T12:00:34.132Z</time></trkpt><trkpt lat="42.7182133" lon="12.4227685"><ele>270.6</ele><time>2026-04-25T12:00:36.098Z</time></trkpt><trkpt lat="42.7181756" lon="12.4226654"><ele>269.2</ele><time>2026-04-25T12:00:37.122Z</time></trkpt><trkpt lat="42.7181272" lon="12.4225472"><ele>267.8</ele><time>2026-04-25T12:00:38.112Z</time></trkpt><trkpt lat="42.7180745" lon="12.4224267"><ele>266.4</ele><time>2026-04-25T12:00:39.111Z</time></trkpt><trkpt lat="42.7180054" lon="12.4222733"><ele>265.0</ele><time>2026-04-25T12:00:40.097Z</time></trkpt><trkpt lat="42.7179205" lon="12.4220865"><ele>263.66666666666663</ele><time>2026-04-25T12:00:41.098Z</time></trkpt><trkpt lat="42.7178273" lon="12.4218788"><ele>262.3333333333333</ele><time>2026-04-25T12:00:42.107Z</time></trkpt><trkpt lat="42.7177489" lon="12.4216757"><ele>261.0</ele><time>2026-04-25T12:00:43.122Z</time></trkpt><trkpt lat="42.7176773" lon="12.4215052"><ele>260.8</ele><time>2026-04-25T12:00:44.138Z</time></trkpt><trkpt lat="42.7176169" lon="12.4213718"><ele>260.6</ele><time>2026-04-25T12:00:45.11Z</time></trkpt><trkpt lat="42.7175694" lon="12.421269"><ele>260.4</ele><time>2026-04-25T12:00:46.096Z</time></trkpt><trkpt lat="42.7175307" lon="12.4211827"><ele>260.2</ele><time>2026-04-25T12:00:47.113Z</time></trkpt><trkpt lat="42.7174857" lon="12.4210638"><ele>260.0</ele><time>2026-04-25T12:00:49.11Z</time></trkpt><trkpt lat="42.7174421" lon="12.4209772"><ele>260.0</ele><time>2026-04-25T12:00:51.111Z</time></trkpt><trkpt lat="42.7173843" lon="12.4209426"><ele>260.0</ele><time>2026-04-25T12:00:53.112Z</time></trkpt><trkpt lat="42.7173075" lon="12.4209458"><ele>260.0</ele><time>2026-04-25T12:00:55.104Z</time></trkpt><trkpt lat="42.7171596" lon="12.42102"><ele>260.0</ele><time>2026-04-25T12:00:57.145Z</time></trkpt><trkpt lat="42.7169388" lon="12.4211488"><ele>260.0</ele><time>2026-04-25T12:00:59.096Z</time></trkpt><trkpt lat="42.7168262" lon="12.4212141"><ele>260.0</ele><time>2026-04-25T12:01:00.117Z</time></trkpt><trkpt lat="42.7167233" lon="12.4212664"><ele>260.0</ele><time>2026-04-25T12:01:01.107Z</time></trkpt><trkpt lat="42.7166341" lon="12.4213003"><ele>260.0</ele><time>2026-04-25T12:01:02.128Z</time></trkpt><trkpt lat="42.7165563" lon="12.4213354"><ele>260.0</ele><time>2026-04-25T12:01:03.105Z</time></trkpt><trkpt lat="42.7164899" lon="12.4213515"><ele>260.0</ele><time>2026-04-25T12:01:04.106Z</time></trkpt><trkpt lat="42.7163645" lon="12.4213138"><ele>260.0</ele><time>2026-04-25T12:01:06.101Z</time></trkpt><trkpt lat="42.7162627" lon="12.4212483"><ele>260.0</ele><time>2026-04-25T12:01:07.108Z</time></trkpt><trkpt lat="42.7161406" lon="12.4211685"><ele>260.0</ele><time>2026-04-25T12:01:08.106Z</time></trkpt><trkpt lat="42.7160216" lon="12.4210887"><ele>260.4</ele><time>2026-04-25T12:01:09.117Z</time></trkpt><trkpt lat="42.7159217" lon="12.4210202"><ele>260.8</ele><time>2026-04-25T12:01:10.101Z</time></trkpt><trkpt lat="42.7158251" lon="12.4209549"><ele>261.2</ele><time>2026-04-25T12:01:11.109Z</time></trkpt><trkpt lat="42.7157262" lon="12.4208857"><ele>261.6</ele><time>2026-04-25T12:01:12.099Z</time></trkpt><trkpt lat="42.7156293" lon="12.4208249"><ele>262.0</ele><time>2026-04-25T12:01:13.108Z</time></trkpt><trkpt lat="42.7155392" lon="12.420762"><ele>262.0</ele><time>2026-04-25T12:01:14.109Z</time></trkpt><trkpt lat="42.7154467" lon="12.420712"><ele>262.0</ele><time>2026-04-25T12:01:15.098Z</time></trkpt><trkpt lat="42.7153412" lon="12.420676"><ele>262.0</ele><time>2026-04-25T12:01:16.109Z</time></trkpt><trkpt lat="42.7152455" lon="12.4206438"><ele>262.0</ele><time>2026-04-25T12:01:17.105Z</time></trkpt><trkpt lat="42.7151743" lon="12.4206282"><ele>262.0</ele><time>2026-04-25T12:01:18.115Z</time></trkpt><trkpt lat="42.7151051" lon="12.4205661"><ele>262.3333333333333</ele><time>2026-04-25T12:01:21.106Z</time></trkpt><trkpt lat="42.7150797" lon="12.4204863"><ele>262.66666666666663</ele><time>2026-04-25T12:01:23.107Z</time></trkpt><trkpt lat="42.7150511" lon="12.4203952"><ele>263.0</ele><time>2026-04-25T12:01:25.121Z</time></trkpt><trkpt lat="42.7150181" lon="12.4203067"><ele>263.3333333333333</ele><time>2026-04-25T12:01:27.103Z</time></trkpt><trkpt lat="42.7149905" lon="12.4201868"><ele>263.6666666666667</ele><time>2026-04-25T12:01:29.1Z</time></trkpt><trkpt lat="42.7149199" lon="12.4200679"><ele>264.0</ele><time>2026-04-25T12:01:31.114Z</time></trkpt><trkpt lat="42.7148431" lon="12.4200187"><ele>264.0</ele><time>2026-04-25T12:01:32.109Z</time></trkpt><trkpt lat="42.7147408" lon="12.419956"><ele>264.0</ele><time>2026-04-25T12:01:33.124Z</time></trkpt><trkpt lat="42.7146443" lon="12.419887"><ele>264.0</ele><time>2026-04-25T12:01:34.097Z</time></trkpt><trkpt lat="42.7145635" lon="12.4198217"><ele>264.0</ele><time>2026-04-25T12:01:35.101Z</time></trkpt><trkpt lat="42.7144983" lon="12.4197883"><ele>264.0</ele><time>2026-04-25T12:01:36.109Z</time></trkpt><trkpt lat="42.7144627" lon="12.4198766"><ele>264.0</ele><time>2026-04-25T12:01:58.137Z</time></trkpt><trkpt lat="42.7144093" lon="12.4199595"><ele>264.0</ele><time>2026-04-25T12:02:01.112Z</time></trkpt><trkpt lat="42.7143392" lon="12.4198936"><ele>264.0</ele><time>2026-04-25T12:02:03.1Z</time></trkpt><trkpt lat="42.7142731" lon="12.4198051"><ele>264.0</ele><time>2026-04-25T12:02:04.11Z</time></trkpt><trkpt lat="42.7141932" lon="12.4197038"><ele>264.0</ele><time>2026-04-25T12:02:05.092Z</time></trkpt><trkpt lat="42.7141033" lon="12.4196206"><ele>267.0</ele><time>2026-04-25T12:02:06.09Z</time></trkpt><trkpt lat="42.7140002" lon="12.4195639"><ele>270.0</ele><time>2026-04-25T12:02:07.12Z</time></trkpt><trkpt lat="42.7138859" lon="12.4195286"><ele>273.0</ele><time>2026-04-25T12:02:08.101Z</time></trkpt><trkpt lat="42.7137564" lon="12.4194915"><ele>276.0</ele><time>2026-04-25T12:02:09.093Z</time></trkpt><trkpt lat="42.7136382" lon="12.4194499"><ele>275.6</ele><time>2026-04-25T12:02:10.109Z</time></trkpt><trkpt lat="42.7135355" lon="12.4194068"><ele>275.20000000000005</ele><time>2026-04-25T12:02:11.103Z</time></trkpt><trkpt lat="42.7134433" lon="12.4193596"><ele>274.79999999999995</ele><time>2026-04-25T12:02:12.108Z</time></trkpt><trkpt lat="42.7133582" lon="12.4193085"><ele>274.4</ele><time>2026-04-25T12:02:13.094Z</time></trkpt><trkpt lat="42.7132714" lon="12.4192547"><ele>274.0</ele><time>2026-04-25T12:02:14.11Z</time></trkpt><trkpt lat="42.7131786" lon="12.4191984"><ele>274.0</ele><time>2026-04-25T12:02:15.116Z</time></trkpt><trkpt lat="42.7130662" lon="12.4191401"><ele>274.0</ele><time>2026-04-25T12:02:16.103Z</time></trkpt><trkpt lat="42.7129435" lon="12.4190832"><ele>274.0</ele><time>2026-04-25T12:02:17.102Z</time></trkpt><trkpt lat="42.7128177" lon="12.4190328"><ele>274.0</ele><time>2026-04-25T12:02:18.097Z</time></trkpt><trkpt lat="42.7127059" lon="12.4189757"><ele>273.4</ele><time>2026-04-25T12:02:19.105Z</time></trkpt><trkpt lat="42.7126021" lon="12.4188988"><ele>272.79999999999995</ele><time>2026-04-25T12:02:20.11Z</time></trkpt><trkpt lat="42.7125106" lon="12.4188219"><ele>272.20000000000005</ele><time>2026-04-25T12:02:21.089Z</time></trkpt><trkpt lat="42.712423" lon="12.4187463"><ele>271.6</ele><time>2026-04-25T12:02:22.104Z</time></trkpt><trkpt lat="42.7123317" lon="12.4186803"><ele>271.0</ele><time>2026-04-25T12:02:23.118Z</time></trkpt><trkpt lat="42.7122313" lon="12.4186489"><ele>272.25</ele><time>2026-04-25T12:02:24.108Z</time></trkpt><trkpt lat="42.712125" lon="12.4186235"><ele>273.5</ele><time>2026-04-25T12:02:25.089Z</time></trkpt><trkpt lat="42.7119991" lon="12.4185932"><ele>274.75</ele><time>2026-04-25T12:02:26.105Z</time></trkpt><trkpt lat="42.7118628" lon="12.4185578"><ele>276.0</ele><time>2026-04-25T12:02:27.103Z</time></trkpt><trkpt lat="42.7117378" lon="12.4185269"><ele>276.0</ele><time>2026-04-25T12:02:28.115Z</time></trkpt><trkpt lat="42.7116276" lon="12.418498"><ele>276.0</ele><time>2026-04-25T12:02:29.113Z</time></trkpt><trkpt lat="42.711522" lon="12.4184937"><ele>276.0</ele><time>2026-04-25T12:02:30.123Z</time></trkpt><trkpt lat="42.7114228" lon="12.418522"><ele>276.0</ele><time>2026-04-25T12:02:31.099Z</time></trkpt><trkpt lat="42.711321" lon="12.4185592"><ele>276.0</ele><time>2026-04-25T12:02:32.098Z</time></trkpt><trkpt lat="42.7112016" lon="12.4185934"><ele>276.0</ele><time>2026-04-25T12:02:33.103Z</time></trkpt><trkpt lat="42.7111068" lon="12.418607"><ele>276.0</ele><time>2026-04-25T12:02:34.105Z</time></trkpt><trkpt lat="42.7109977" lon="12.4185847"><ele>276.0</ele><time>2026-04-25T12:02:36.088Z</time></trkpt><trkpt lat="42.7109145" lon="12.4184692"><ele>276.0</ele><time>2026-04-25T12:02:38.091Z</time></trkpt><trkpt lat="42.710866" lon="12.4184029"><ele>276.0</ele><time>2026-04-25T12:02:39.086Z</time></trkpt><trkpt lat="42.7107994" lon="12.4183642"><ele>276.2</ele><time>2026-04-25T12:02:40.109Z</time></trkpt><trkpt lat="42.710714" lon="12.4183454"><ele>276.40000000000003</ele><time>2026-04-25T12:02:41.1Z</time></trkpt><trkpt lat="42.7106233" lon="12.41833"><ele>276.6</ele><time>2026-04-25T12:02:42.1Z</time></trkpt><trkpt lat="42.7105256" lon="12.4183004"><ele>276.8</ele><time>2026-04-25T12:02:43.095Z</time></trkpt><trkpt lat="42.7104254" lon="12.4182663"><ele>277.0</ele><time>2026-04-25T12:02:44.097Z</time></trkpt><trkpt lat="42.7103441" lon="12.4182337"><ele>277.0</ele><time>2026-04-25T12:02:45.112Z</time></trkpt><trkpt lat="42.7102731" lon="12.4181352"><ele>277.0</ele><time>2026-04-25T12:02:47.118Z</time></trkpt><trkpt lat="42.7102026" lon="12.418049"><ele>277.0</ele><time>2026-04-25T12:02:49.091Z</time></trkpt><trkpt lat="42.7101294" lon="12.4180392"><ele>277.0</ele><time>2026-04-25T12:02:50.106Z</time></trkpt><trkpt lat="42.7100336" lon="12.4180198"><ele>277.0</ele><time>2026-04-25T12:02:51.128Z</time></trkpt><trkpt lat="42.709929" lon="12.4179703"><ele>279.8</ele><time>2026-04-25T12:02:52.112Z</time></trkpt><trkpt lat="42.709824" lon="12.417904"><ele>282.6</ele><time>2026-04-25T12:02:53.086Z</time></trkpt><trkpt lat="42.7097247" lon="12.4178352"><ele>285.40000000000003</ele><time>2026-04-25T12:02:54.122Z</time></trkpt><trkpt lat="42.7096508" lon="12.4177615"><ele>288.2</ele><time>2026-04-25T12:02:55.114Z</time></trkpt><trkpt lat="42.7096168" lon="12.4176786"><ele>291.0</ele><time>2026-04-25T12:02:56.101Z</time></trkpt><trkpt lat="42.7096663" lon="12.4175335"><ele>291.0</ele><time>2026-04-25T12:02:58.114Z</time></trkpt><trkpt lat="42.70972" lon="12.4174691"><ele>291.0</ele><time>2026-04-25T12:02:59.098Z</time></trkpt><trkpt lat="42.709767" lon="12.4174024"><ele>291.0</ele><time>2026-04-25T12:03:00.15Z</time></trkpt><trkpt lat="42.7097981" lon="12.4172388"><ele>291.0</ele><time>2026-04-25T12:03:02.099Z</time></trkpt><trkpt lat="42.7097766" lon="12.4171356"><ele>291.0</ele><time>2026-04-25T12:03:03.128Z</time></trkpt><trkpt lat="42.7097373" lon="12.417015"><ele>291.0</ele><time>2026-04-25T12:03:04.098Z</time></trkpt><trkpt lat="42.7097011" lon="12.4168798"><ele>294.0</ele><time>2026-04-25T12:03:05.087Z</time></trkpt><trkpt lat="42.7096786" lon="12.4167473"><ele>297.0</ele><time>2026-04-25T12:03:06.093Z</time></trkpt><trkpt lat="42.7096501" lon="12.41662"><ele>300.0</ele><time>2026-04-25T12:03:07.11Z</time></trkpt><trkpt lat="42.7096109" lon="12.4164961"><ele>303.0</ele><time>2026-04-25T12:03:08.088Z</time></trkpt><trkpt lat="42.7095764" lon="12.4163666"><ele>306.0</ele><time>2026-04-25T12:03:09.095Z</time></trkpt><trkpt lat="42.7095591" lon="12.4162469"><ele>308.2</ele><time>2026-04-25T12:03:10.088Z</time></trkpt><trkpt lat="42.7095514" lon="12.416125"><ele>310.40000000000003</ele><time>2026-04-25T12:03:11.093Z</time></trkpt><trkpt lat="42.7095462" lon="12.4159982"><ele>312.6</ele><time>2026-04-25T12:03:12.096Z</time></trkpt><trkpt lat="42.7095427" lon="12.415851"><ele>314.8</ele><time>2026-04-25T12:03:13.103Z</time></trkpt><trkpt lat="42.7095435" lon="12.4157161"><ele>317.0</ele><time>2026-04-25T12:03:14.101Z</time></trkpt><trkpt lat="42.7095648" lon="12.4155986"><ele>317.0</ele><time>2026-04-25T12:03:15.105Z</time></trkpt><trkpt lat="42.7096062" lon="12.4154978"><ele>317.0</ele><time>2026-04-25T12:03:16.104Z</time></trkpt><trkpt lat="42.7096661" lon="12.4154078"><ele>317.0</ele><time>2026-04-25T12:03:17.098Z</time></trkpt><trkpt lat="42.7097332" lon="12.4152922"><ele>317.0</ele><time>2026-04-25T12:03:18.096Z</time></trkpt><trkpt lat="42.7097841" lon="12.4151924"><ele>317.0</ele><time>2026-04-25T12:03:19.11Z</time></trkpt><trkpt lat="42.7098341" lon="12.4151056"><ele>317.75</ele><time>2026-04-25T12:03:20.097Z</time></trkpt><trkpt lat="42.7098871" lon="12.415001"><ele>318.5</ele><time>2026-04-25T12:03:21.096Z</time></trkpt><trkpt lat="42.7099537" lon="12.4148583"><ele>319.25</ele><time>2026-04-25T12:03:22.092Z</time></trkpt><trkpt lat="42.7100137" lon="12.414684"><ele>320.0</ele><time>2026-04-25T12:03:23.103Z</time></trkpt><trkpt lat="42.7100726" lon="12.414525"><ele>321.2</ele><time>2026-04-25T12:03:24.113Z</time></trkpt><trkpt lat="42.7101286" lon="12.4144138"><ele>322.4</ele><time>2026-04-25T12:03:25.099Z</time></trkpt><trkpt lat="42.7101855" lon="12.4143367"><ele>323.6</ele><time>2026-04-25T12:03:26.12Z</time></trkpt><trkpt lat="42.7102741" lon="12.4142862"><ele>324.8</ele><time>2026-04-25T12:03:27.106Z</time></trkpt><trkpt lat="42.7103943" lon="12.4142569"><ele>326.0</ele><time>2026-04-25T12:03:28.088Z</time></trkpt><trkpt lat="42.7105049" lon="12.4142061"><ele>326.0</ele><time>2026-04-25T12:03:29.105Z</time></trkpt><trkpt lat="42.7106025" lon="12.4141322"><ele>326.0</ele><time>2026-04-25T12:03:30.101Z</time></trkpt><trkpt lat="42.7106916" lon="12.4140565"><ele>326.0</ele><time>2026-04-25T12:03:31.096Z</time></trkpt><trkpt lat="42.7107662" lon="12.4140069"><ele>326.0</ele><time>2026-04-25T12:03:32.084Z</time></trkpt><trkpt lat="42.7108913" lon="12.4139902"><ele>326.0</ele><time>2026-04-25T12:03:34.109Z</time></trkpt><trkpt lat="42.7109754" lon="12.41398"><ele>326.0</ele><time>2026-04-25T12:03:35.096Z</time></trkpt><trkpt lat="42.7110686" lon="12.4139666"><ele>326.0</ele><time>2026-04-25T12:03:36.103Z</time></trkpt><trkpt lat="42.7111695" lon="12.4139579"><ele>326.0</ele><time>2026-04-25T12:03:37.118Z</time></trkpt><trkpt lat="42.7112682" lon="12.4139521"><ele>326.0</ele><time>2026-04-25T12:03:38.11Z</time></trkpt><trkpt lat="42.7113522" lon="12.4139432"><ele>326.0</ele><time>2026-04-25T12:03:39.11Z</time></trkpt><trkpt lat="42.7114353" lon="12.4139502"><ele>327.33333333333337</ele><time>2026-04-25T12:03:40.132Z</time></trkpt><trkpt lat="42.7115163" lon="12.41394"><ele>328.6666666666667</ele><time>2026-04-25T12:03:41.099Z</time></trkpt><trkpt lat="42.7115977" lon="12.4139121"><ele>330.0</ele><time>2026-04-25T12:03:42.104Z</time></trkpt><trkpt lat="42.7116715" lon="12.4139046"><ele>331.3333333333333</ele><time>2026-04-25T12:03:43.104Z</time></trkpt><trkpt lat="42.7117419" lon="12.4139262"><ele>332.66666666666663</ele><time>2026-04-25T12:03:44.122Z</time></trkpt><trkpt lat="42.7118142" lon="12.4139526"><ele>334.0</ele><time>2026-04-25T12:03:45.113Z</time></trkpt><trkpt lat="42.7118853" lon="12.4139454"><ele>335.6</ele><time>2026-04-25T12:03:46.124Z</time></trkpt><trkpt lat="42.7119738" lon="12.4139354"><ele>337.2</ele><time>2026-04-25T12:03:47.088Z</time></trkpt><trkpt lat="42.7120815" lon="12.41393"><ele>338.8</ele><time>2026-04-25T12:03:48.112Z</time></trkpt><trkpt lat="42.7121955" lon="12.4139223"><ele>340.40000000000003</ele><time>2026-04-25T12:03:49.115Z</time></trkpt><trkpt lat="42.7123061" lon="12.4139183"><ele>342.0</ele><time>2026-04-25T12:03:50.114Z</time></trkpt><trkpt lat="42.7124078" lon="12.4139102"><ele>342.0</ele><time>2026-04-25T12:03:51.11Z</time></trkpt><trkpt lat="42.712483" lon="12.4138823"><ele>342.0</ele><time>2026-04-25T12:03:52.116Z</time></trkpt><trkpt lat="42.7125575" lon="12.4138587"><ele>342.0</ele><time>2026-04-25T12:03:53.104Z</time></trkpt><trkpt lat="42.7126389" lon="12.4138333"><ele>342.0</ele><time>2026-04-25T12:03:54.119Z</time></trkpt><trkpt lat="42.7127198" lon="12.4138203"><ele>342.0</ele><time>2026-04-25T12:03:55.107Z</time></trkpt><trkpt lat="42.7127859" lon="12.413834"><ele>342.0</ele><time>2026-04-25T12:03:56.102Z</time></trkpt><trkpt lat="42.7127795" lon="12.4139306"><ele>342.0</ele><time>2026-04-25T12:04:04.129Z</time></trkpt><trkpt lat="42.7127595" lon="12.4140395"><ele>342.0</ele><time>2026-04-25T12:04:06.105Z</time></trkpt><trkpt lat="42.7127452" lon="12.4141376"><ele>342.0</ele><time>2026-04-25T12:04:08.119Z</time></trkpt><trkpt lat="42.7127156" lon="12.4142759"><ele>342.0</ele><time>2026-04-25T12:04:10.094Z</time></trkpt><trkpt lat="42.712694" lon="12.4143676"><ele>342.0</ele><time>2026-04-25T12:04:11.133Z</time></trkpt><trkpt lat="42.7126875" lon="12.4144713"><ele>342.0</ele><time>2026-04-25T12:04:12.136Z</time></trkpt><trkpt lat="42.7126875" lon="12.4145955"><ele>342.0</ele><time>2026-04-25T12:04:13.13Z</time></trkpt><trkpt lat="42.7126808" lon="12.4147203"><ele>342.0</ele><time>2026-04-25T12:04:14.106Z</time></trkpt><trkpt lat="42.7126709" lon="12.4148379"><ele>342.0</ele><time>2026-04-25T12:04:15.104Z</time></trkpt><trkpt lat="42.7126532" lon="12.4149455"><ele>342.0</ele><time>2026-04-25T12:04:16.119Z</time></trkpt><trkpt lat="42.7125919" lon="12.415076"><ele>342.0</ele><time>2026-04-25T12:04:18.097Z</time></trkpt><trkpt lat="42.7125388" lon="12.4151345"><ele>342.0</ele><time>2026-04-25T12:04:19.106Z</time></trkpt><trkpt lat="42.7124661" lon="12.4152048"><ele>342.0</ele><time>2026-04-25T12:04:20.091Z</time></trkpt><trkpt lat="42.7123851" lon="12.4152772"><ele>342.0</ele><time>2026-04-25T12:04:21.1Z</time></trkpt><trkpt lat="42.7122998" lon="12.4153478"><ele>342.0</ele><time>2026-04-25T12:04:22.112Z</time></trkpt><trkpt lat="42.7122224" lon="12.4154084"><ele>342.0</ele><time>2026-04-25T12:04:23.124Z</time></trkpt><trkpt lat="42.7121571" lon="12.4154622"><ele>342.0</ele><time>2026-04-25T12:04:24.105Z</time></trkpt><trkpt lat="42.7121036" lon="12.4155177"><ele>342.0</ele><time>2026-04-25T12:04:25.103Z</time></trkpt><trkpt lat="42.7120556" lon="12.415577"><ele>341.1666666666667</ele><time>2026-04-25T12:04:26.105Z</time></trkpt><trkpt lat="42.7120209" lon="12.415649"><ele>340.3333333333333</ele><time>2026-04-25T12:04:27.109Z</time></trkpt><trkpt lat="42.712028" lon="12.4157981"><ele>339.5</ele><time>2026-04-25T12:04:29.1Z</time></trkpt><trkpt lat="42.7121232" lon="12.415877"><ele>338.66666666666663</ele><time>2026-04-25T12:04:31.113Z</time></trkpt><trkpt lat="42.7121964" lon="12.4158615"><ele>337.8333333333333</ele><time>2026-04-25T12:04:32.091Z</time></trkpt><trkpt lat="42.7122833" lon="12.4158392"><ele>337.0</ele><time>2026-04-25T12:04:33.092Z</time></trkpt><trkpt lat="42.7123629" lon="12.4158192"><ele>337.00000000000006</ele><time>2026-04-25T12:04:34.094Z</time></trkpt><trkpt lat="42.7124386" lon="12.4158175"><ele>337.0</ele><time>2026-04-25T12:04:35.111Z</time></trkpt><trkpt lat="42.7125035" lon="12.41583"><ele>337.0</ele><time>2026-04-25T12:04:36.098Z</time></trkpt><trkpt lat="42.7125637" lon="12.415866"><ele>337.0</ele><time>2026-04-25T12:04:37.102Z</time></trkpt><trkpt lat="42.7126216" lon="12.415903"><ele>337.0</ele><time>2026-04-25T12:04:38.115Z</time></trkpt><trkpt lat="42.7126785" lon="12.4159456"><ele>337.00000000000006</ele><time>2026-04-25T12:04:39.128Z</time></trkpt><trkpt lat="42.7127354" lon="12.4159895"><ele>337.0</ele><time>2026-04-25T12:04:40.12Z</time></trkpt><trkpt lat="42.712822" lon="12.4160879"><ele>336.20000000000005</ele><time>2026-04-25T12:04:42.099Z</time></trkpt><trkpt lat="42.7128451" lon="12.4162163"><ele>335.4</ele><time>2026-04-25T12:04:44.094Z</time></trkpt><trkpt lat="42.7127744" lon="12.4163405"><ele>334.6</ele><time>2026-04-25T12:04:46.116Z</time></trkpt><trkpt lat="42.7127194" lon="12.4163907"><ele>333.79999999999995</ele><time>2026-04-25T12:04:47.116Z</time></trkpt><trkpt lat="42.7126058" lon="12.416421"><ele>333.0</ele><time>2026-04-25T12:04:49.111Z</time></trkpt><trkpt lat="42.712545" lon="12.4163751"><ele>333.79999999999995</ele><time>2026-04-25T12:04:50.109Z</time></trkpt><trkpt lat="42.7124829" lon="12.4163132"><ele>334.6</ele><time>2026-04-25T12:04:51.119Z</time></trkpt><trkpt lat="42.7124156" lon="12.4162532"><ele>335.4</ele><time>2026-04-25T12:04:52.097Z</time></trkpt><trkpt lat="42.7123086" lon="12.4162418"><ele>336.20000000000005</ele><time>2026-04-25T12:04:54.104Z</time></trkpt><trkpt lat="42.7122672" lon="12.4163621"><ele>337.0</ele><time>2026-04-25T12:04:56.099Z</time></trkpt><trkpt lat="42.7123318" lon="12.4165268"><ele>335.00000000000006</ele><time>2026-04-25T12:04:58.101Z</time></trkpt><trkpt lat="42.7123732" lon="12.4166173"><ele>333.0</ele><time>2026-04-25T12:04:59.102Z</time></trkpt><trkpt lat="42.7124178" lon="12.4167038"><ele>331.0</ele><time>2026-04-25T12:05:00.103Z</time></trkpt><trkpt lat="42.7124623" lon="12.4167841"><ele>329.0</ele><time>2026-04-25T12:05:01.113Z</time></trkpt><trkpt lat="42.7125175" lon="12.4168364"><ele>327.0</ele><time>2026-04-25T12:05:02.108Z</time></trkpt><trkpt lat="42.7125766" lon="12.41688"><ele>325.00000000000006</ele><time>2026-04-25T12:05:03.096Z</time></trkpt><trkpt lat="42.7126394" lon="12.416926"><ele>323.0</ele><time>2026-04-25T12:05:04.112Z</time></trkpt><trkpt lat="42.7127028" lon="12.4169807"><ele>325.0</ele><time>2026-04-25T12:05:05.121Z</time></trkpt><trkpt lat="42.7127487" lon="12.4170585"><ele>327.0</ele><time>2026-04-25T12:05:06.092Z</time></trkpt><trkpt lat="42.7127879" lon="12.4171471"><ele>329.0</ele><time>2026-04-25T12:05:07.102Z</time></trkpt><trkpt lat="42.7128238" lon="12.4172245"><ele>331.0</ele><time>2026-04-25T12:05:08.116Z</time></trkpt><trkpt lat="42.7129074" lon="12.4173392"><ele>333.0</ele><time>2026-04-25T12:05:10.119Z</time></trkpt><trkpt lat="42.7130298" lon="12.4173966"><ele>329.6666666666667</ele><time>2026-04-25T12:05:12.101Z</time></trkpt><trkpt lat="42.7131049" lon="12.4174008"><ele>326.3333333333333</ele><time>2026-04-25T12:05:13.105Z</time></trkpt><trkpt lat="42.7131772" lon="12.4174094"><ele>323.0</ele><time>2026-04-25T12:05:14.088Z</time></trkpt><trkpt lat="42.7132347" lon="12.4174455"><ele>319.66666666666663</ele><time>2026-04-25T12:05:15.095Z</time></trkpt><trkpt lat="42.7133071" lon="12.417577"><ele>316.3333333333333</ele><time>2026-04-25T12:05:17.088Z</time></trkpt><trkpt lat="42.7133564" lon="12.4176325"><ele>313.0</ele><time>2026-04-25T12:05:18.11Z</time></trkpt><trkpt lat="42.7134205" lon="12.4176797"><ele>313.0</ele><time>2026-04-25T12:05:19.13Z</time></trkpt><trkpt lat="42.713501" lon="12.4177395"><ele>313.0</ele><time>2026-04-25T12:05:20.13Z</time></trkpt><trkpt lat="42.7135737" lon="12.4178074"><ele>313.0</ele><time>2026-04-25T12:05:21.107Z</time></trkpt><trkpt lat="42.7136346" lon="12.4178759"><ele>313.0</ele><time>2026-04-25T12:05:22.111Z</time></trkpt><trkpt lat="42.7137024" lon="12.4179336"><ele>313.0</ele><time>2026-04-25T12:05:23.106Z</time></trkpt><trkpt lat="42.7137657" lon="12.4179807"><ele>313.0</ele><time>2026-04-25T12:05:24.108Z</time></trkpt><trkpt lat="42.7138275" lon="12.4180119"><ele>309.5</ele><time>2026-04-25T12:05:25.121Z</time></trkpt><trkpt lat="42.713897" lon="12.4180399"><ele>306.0</ele><time>2026-04-25T12:05:26.105Z</time></trkpt><trkpt lat="42.7139782" lon="12.4180689"><ele>302.5</ele><time>2026-04-25T12:05:27.118Z</time></trkpt><trkpt lat="42.7140637" lon="12.4180838"><ele>299.0</ele><time>2026-04-25T12:05:28.102Z</time></trkpt><trkpt lat="42.714155" lon="12.4180945"><ele>295.5</ele><time>2026-04-25T12:05:29.092Z</time></trkpt><trkpt lat="42.7142537" lon="12.4181119"><ele>292.0</ele><time>2026-04-25T12:05:30.121Z</time></trkpt><trkpt lat="42.7143552" lon="12.4181425"><ele>291.0</ele><time>2026-04-25T12:05:31.11Z</time></trkpt><trkpt lat="42.7144493" lon="12.4181696"><ele>290.0</ele><time>2026-04-25T12:05:32.094Z</time></trkpt><trkpt lat="42.714532" lon="12.4181883"><ele>289.0</ele><time>2026-04-25T12:05:33.108Z</time></trkpt><trkpt lat="42.7145988" lon="12.4182026"><ele>288.0</ele><time>2026-04-25T12:05:34.109Z</time></trkpt><trkpt lat="42.7146609" lon="12.4182219"><ele>287.0</ele><time>2026-04-25T12:05:35.133Z</time></trkpt><trkpt lat="42.7147827" lon="12.4182488"><ele>286.0</ele><time>2026-04-25T12:05:37.091Z</time></trkpt><trkpt lat="42.7148946" lon="12.4182765"><ele>286.0</ele><time>2026-04-25T12:05:39.095Z</time></trkpt><trkpt lat="42.7150477" lon="12.4183225"><ele>286.0</ele><time>2026-04-25T12:05:42.133Z</time></trkpt><trkpt lat="42.715068" lon="12.4184164"><ele>286.0</ele><time>2026-04-25T12:05:44.092Z</time></trkpt><trkpt lat="42.7150239" lon="12.4185347"><ele>286.0</ele><time>2026-04-25T12:05:46.095Z</time></trkpt><trkpt lat="42.7149334" lon="12.4185658"><ele>286.0</ele><time>2026-04-25T12:05:48.096Z</time></trkpt><trkpt lat="42.714857" lon="12.4185614"><ele>286.0</ele><time>2026-04-25T12:05:49.107Z</time></trkpt><trkpt lat="42.7147643" lon="12.4185474"><ele>286.0</ele><time>2026-04-25T12:05:50.092Z</time></trkpt><trkpt lat="42.7146791" lon="12.4185211"><ele>286.0</ele><time>2026-04-25T12:05:51.093Z</time></trkpt><trkpt lat="42.7146023" lon="12.4185027"><ele>286.0</ele><time>2026-04-25T12:05:52.113Z</time></trkpt><trkpt lat="42.7145327" lon="12.4184936"><ele>286.0</ele><time>2026-04-25T12:05:53.099Z</time></trkpt><trkpt lat="42.7144299" lon="12.4185301"><ele>286.0</ele><time>2026-04-25T12:05:55.097Z</time></trkpt><trkpt lat="42.7143841" lon="12.4186346"><ele>285.99999999999994</ele><time>2026-04-25T12:05:57.093Z</time></trkpt><trkpt lat="42.7143975" lon="12.4187205"><ele>286.0</ele><time>2026-04-25T12:05:58.114Z</time></trkpt><trkpt lat="42.7144519" lon="12.4188023"><ele>286.0</ele><time>2026-04-25T12:06:00.106Z</time></trkpt><trkpt lat="42.7145183" lon="12.4188346"><ele>286.0</ele><time>2026-04-25T12:06:01.092Z</time></trkpt><trkpt lat="42.7145914" lon="12.4188649"><ele>286.0</ele><time>2026-04-25T12:06:02.093Z</time></trkpt><trkpt lat="42.7146632" lon="12.4188881"><ele>285.99999999999994</ele><time>2026-04-25T12:06:03.101Z</time></trkpt><trkpt lat="42.7147356" lon="12.4189338"><ele>286.0</ele><time>2026-04-25T12:06:04.094Z</time></trkpt><trkpt lat="42.7147985" lon="12.4189744"><ele>283.5</ele><time>2026-04-25T12:06:05.095Z</time></trkpt><trkpt lat="42.7148558" lon="12.4190136"><ele>281.0</ele><time>2026-04-25T12:06:06.109Z</time></trkpt><trkpt lat="42.7149201" lon="12.4190924"><ele>278.5</ele><time>2026-04-25T12:06:08.107Z</time></trkpt><trkpt lat="42.7148765" lon="12.4192187"><ele>276.0</ele><time>2026-04-25T12:06:10.112Z</time></trkpt><trkpt lat="42.7148267" lon="12.4192943"><ele>273.5</ele><time>2026-04-25T12:06:11.112Z</time></trkpt><trkpt lat="42.7147723" lon="12.4193745"><ele>271.0</ele><time>2026-04-25T12:06:12.097Z</time></trkpt><trkpt lat="42.7147135" lon="12.4194567"><ele>271.0</ele><time>2026-04-25T12:06:13.102Z</time></trkpt><trkpt lat="42.7146583" lon="12.4195315"><ele>271.0</ele><time>2026-04-25T12:06:14.122Z</time></trkpt><trkpt lat="42.7146054" lon="12.4196005"><ele>271.0</ele><time>2026-04-25T12:06:15.1Z</time></trkpt><trkpt lat="42.714556" lon="12.4196699"><ele>271.0</ele><time>2026-04-25T12:06:16.094Z</time></trkpt><trkpt lat="42.7145153" lon="12.4197499"><ele>271.0</ele><time>2026-04-25T12:06:17.116Z</time></trkpt><trkpt lat="42.7144732" lon="12.4198176"><ele>271.0</ele><time>2026-04-25T12:06:18.11Z</time></trkpt><trkpt lat="42.7144091" lon="12.4199236"><ele>270.2</ele><time>2026-04-25T12:06:20.103Z</time></trkpt><trkpt lat="42.7143447" lon="12.4199336"><ele>269.40000000000003</ele><time>2026-04-25T12:06:22.112Z</time></trkpt><trkpt lat="42.7142653" lon="12.4197927"><ele>268.6</ele><time>2026-04-25T12:06:24.096Z</time></trkpt><trkpt lat="42.7141879" lon="12.4196993"><ele>267.8</ele><time>2026-04-25T12:06:25.092Z</time></trkpt><trkpt lat="42.714092" lon="12.4196168"><ele>267.0</ele><time>2026-04-25T12:06:26.095Z</time></trkpt><trkpt lat="42.7139835" lon="12.4195554"><ele>268.75</ele><time>2026-04-25T12:06:27.093Z</time></trkpt><trkpt lat="42.7138563" lon="12.4195252"><ele>270.5</ele><time>2026-04-25T12:06:28.096Z</time></trkpt><trkpt lat="42.7137326" lon="12.4194938"><ele>272.25</ele><time>2026-04-25T12:06:29.107Z</time></trkpt><trkpt lat="42.713629" lon="12.4194542"><ele>274.0</ele><time>2026-04-25T12:06:30.109Z</time></trkpt><trkpt lat="42.7135295" lon="12.4194138"><ele>274.0</ele><time>2026-04-25T12:06:31.121Z</time></trkpt><trkpt lat="42.7134308" lon="12.419374"><ele>274.0</ele><time>2026-04-25T12:06:32.106Z</time></trkpt><trkpt lat="42.7133283" lon="12.4193337"><ele>274.0</ele><time>2026-04-25T12:06:33.107Z</time></trkpt><trkpt lat="42.7132316" lon="12.4192799"><ele>274.0</ele><time>2026-04-25T12:06:34.117Z</time></trkpt><trkpt lat="42.7131329" lon="12.4192056"><ele>274.0</ele><time>2026-04-25T12:06:35.094Z</time></trkpt><trkpt lat="42.7130263" lon="12.4191449"><ele>274.0</ele><time>2026-04-25T12:06:36.109Z</time></trkpt><trkpt lat="42.7129131" lon="12.419098"><ele>274.0</ele><time>2026-04-25T12:06:37.105Z</time></trkpt><trkpt lat="42.7127974" lon="12.419053"><ele>274.0</ele><time>2026-04-25T12:06:38.11Z</time></trkpt><trkpt lat="42.7126763" lon="12.4190001"><ele>274.0</ele><time>2026-04-25T12:06:39.111Z</time></trkpt><trkpt lat="42.7125661" lon="12.418933"><ele>273.4</ele><time>2026-04-25T12:06:40.108Z</time></trkpt><trkpt lat="42.7124774" lon="12.418848"><ele>272.79999999999995</ele><time>2026-04-25T12:06:41.092Z</time></trkpt><trkpt lat="42.7123921" lon="12.4187675"><ele>272.20000000000005</ele><time>2026-04-25T12:06:42.113Z</time></trkpt><trkpt lat="42.7123007" lon="12.4187142"><ele>271.6</ele><time>2026-04-25T12:06:43.108Z</time></trkpt><trkpt lat="42.7121913" lon="12.4186722"><ele>271.0</ele><time>2026-04-25T12:06:44.104Z</time></trkpt><trkpt lat="42.7120701" lon="12.4186185"><ele>272.25</ele><time>2026-04-25T12:06:45.111Z</time></trkpt><trkpt lat="42.711934" lon="12.4185784"><ele>273.5</ele><time>2026-04-25T12:06:46.108Z</time></trkpt><trkpt lat="42.7117925" lon="12.418537"><ele>274.75</ele><time>2026-04-25T12:06:47.094Z</time></trkpt><trkpt lat="42.7116669" lon="12.4185034"><ele>276.0</ele><time>2026-04-25T12:06:48.099Z</time></trkpt><trkpt lat="42.7115654" lon="12.4184763"><ele>276.0</ele><time>2026-04-25T12:06:49.101Z</time></trkpt><trkpt lat="42.7114841" lon="12.4184787"><ele>276.0</ele><time>2026-04-25T12:06:50.107Z</time></trkpt><trkpt lat="42.7113979" lon="12.4185005"><ele>276.0</ele><time>2026-04-25T12:06:51.108Z</time></trkpt><trkpt lat="42.7112907" lon="12.4185315"><ele>276.0</ele><time>2026-04-25T12:06:52.095Z</time></trkpt><trkpt lat="42.7111925" lon="12.4185578"><ele>276.0</ele><time>2026-04-25T12:06:53.093Z</time></trkpt><trkpt lat="42.7111071" lon="12.4185755"><ele>276.1666666666667</ele><time>2026-04-25T12:06:54.11Z</time></trkpt><trkpt lat="42.7110435" lon="12.4185815"><ele>276.3333333333333</ele><time>2026-04-25T12:06:55.096Z</time></trkpt><trkpt lat="42.7109538" lon="12.4185243"><ele>276.5</ele><time>2026-04-25T12:06:57.09Z</time></trkpt><trkpt lat="42.7108818" lon="12.418411"><ele>276.66666666666663</ele><time>2026-04-25T12:06:59.09Z</time></trkpt><trkpt lat="42.7108301" lon="12.4183598"><ele>276.8333333333333</ele><time>2026-04-25T12:07:00.087Z</time></trkpt><trkpt lat="42.7107715" lon="12.418327"><ele>277.0</ele><time>2026-04-25T12:07:01.103Z</time></trkpt><trkpt lat="42.7107052" lon="12.4183294"><ele>277.0</ele><time>2026-04-25T12:07:02.093Z</time></trkpt><trkpt lat="42.7106273" lon="12.4183383"><ele>277.0</ele><time>2026-04-25T12:07:03.09Z</time></trkpt><trkpt lat="42.7105414" lon="12.418359"><ele>277.0</ele><time>2026-04-25T12:07:04.123Z</time></trkpt><trkpt lat="42.7104525" lon="12.4183899"><ele>277.0</ele><time>2026-04-25T12:07:05.099Z</time></trkpt><trkpt lat="42.7103672" lon="12.4184214"><ele>277.0</ele><time>2026-04-25T12:07:06.091Z</time></trkpt><trkpt lat="42.7102817" lon="12.418444"><ele>277.0</ele><time>2026-04-25T12:07:07.092Z</time></trkpt><trkpt lat="42.7102032" lon="12.4184521"><ele>276.75</ele><time>2026-04-25T12:07:08.102Z</time></trkpt><trkpt lat="42.7100992" lon="12.4184411"><ele>276.5</ele><time>2026-04-25T12:07:09.106Z</time></trkpt><trkpt lat="42.7099725" lon="12.4184334"><ele>276.25</ele><time>2026-04-25T12:07:10.097Z</time></trkpt><trkpt lat="42.7098519" lon="12.4184417"><ele>276.0</ele><time>2026-04-25T12:07:11.093Z</time></trkpt><trkpt lat="42.7097367" lon="12.4184469"><ele>276.0</ele><time>2026-04-25T12:07:12.092Z</time></trkpt><trkpt lat="42.7096519" lon="12.4184527"><ele>276.0</ele><time>2026-04-25T12:07:13.095Z</time></trkpt><trkpt lat="42.7095827" lon="12.4184338"><ele>276.0</ele><time>2026-04-25T12:07:14.093Z</time></trkpt><trkpt lat="42.7094858" lon="12.418368"><ele>276.0</ele><time>2026-04-25T12:07:16.101Z</time></trkpt><trkpt lat="42.7094005" lon="12.4182787"><ele>276.0</ele><time>2026-04-25T12:07:18.094Z</time></trkpt><trkpt lat="42.7093459" lon="12.4182197"><ele>276.0</ele><time>2026-04-25T12:07:20.1Z</time></trkpt><trkpt lat="42.7092901" lon="12.4180893"><ele>276.8333333333333</ele><time>2026-04-25T12:07:23.124Z</time></trkpt><trkpt lat="42.7092464" lon="12.4179311"><ele>277.6666666666667</ele><time>2026-04-25T12:07:25.091Z</time></trkpt><trkpt lat="42.7092181" lon="12.4178455"><ele>278.5</ele><time>2026-04-25T12:07:26.101Z</time></trkpt><trkpt lat="42.709168" lon="12.4177719"><ele>279.33333333333337</ele><time>2026-04-25T12:07:27.104Z</time></trkpt><trkpt lat="42.7091058" lon="12.4177107"><ele>280.1666666666667</ele><time>2026-04-25T12:07:28.112Z</time></trkpt><trkpt lat="42.709042" lon="12.4176684"><ele>281.0</ele><time>2026-04-25T12:07:29.097Z</time></trkpt><trkpt lat="42.7089722" lon="12.4176168"><ele>281.0</ele><time>2026-04-25T12:07:30.108Z</time></trkpt><trkpt lat="42.7089061" lon="12.4175615"><ele>281.0</ele><time>2026-04-25T12:07:31.124Z</time></trkpt><trkpt lat="42.708842" lon="12.4175133"><ele>281.0</ele><time>2026-04-25T12:07:32.096Z</time></trkpt><trkpt lat="42.7087702" lon="12.4174698"><ele>281.0</ele><time>2026-04-25T12:07:33.104Z</time></trkpt><trkpt lat="42.7087009" lon="12.4174233"><ele>281.0</ele><time>2026-04-25T12:07:34.121Z</time></trkpt><trkpt lat="42.7086372" lon="12.4173575"><ele>281.0</ele><time>2026-04-25T12:07:35.111Z</time></trkpt><trkpt lat="42.7085712" lon="12.417272"><ele>282.6</ele><time>2026-04-25T12:07:36.104Z</time></trkpt><trkpt lat="42.7084984" lon="12.4171728"><ele>284.20000000000005</ele><time>2026-04-25T12:07:37.127Z</time></trkpt><trkpt lat="42.7084153" lon="12.4170793"><ele>285.79999999999995</ele><time>2026-04-25T12:07:38.106Z</time></trkpt><trkpt lat="42.7083284" lon="12.4169832"><ele>287.4</ele><time>2026-04-25T12:07:39.11Z</time></trkpt><trkpt lat="42.7082449" lon="12.4168891"><ele>289.0</ele><time>2026-04-25T12:07:40.102Z</time></trkpt><trkpt lat="42.708161" lon="12.4167925"><ele>289.2</ele><time>2026-04-25T12:07:41.112Z</time></trkpt><trkpt lat="42.7080769" lon="12.4167048"><ele>289.4</ele><time>2026-04-25T12:07:42.106Z</time></trkpt><trkpt lat="42.7080028" lon="12.4166297"><ele>289.6</ele><time>2026-04-25T12:07:43.117Z</time></trkpt><trkpt lat="42.7079338" lon="12.4165712"><ele>289.8</ele><time>2026-04-25T12:07:44.11Z</time></trkpt><trkpt lat="42.707829" lon="12.4165266"><ele>290.0</ele><time>2026-04-25T12:07:46.092Z</time></trkpt><trkpt lat="42.7077304" lon="12.41652"><ele>290.0</ele><time>2026-04-25T12:07:48.121Z</time></trkpt><trkpt lat="42.7076637" lon="12.4165424"><ele>290.0</ele><time>2026-04-25T12:07:50.112Z</time></trkpt><trkpt lat="42.7077666" lon="12.4165571"><ele>290.0</ele><time>2026-04-25T12:08:09.101Z</time></trkpt><trkpt lat="42.7078413" lon="12.4165419"><ele>290.0</ele><time>2026-04-25T12:08:11.109Z</time></trkpt><trkpt lat="42.7079003" lon="12.4164963"><ele>290.0</ele><time>2026-04-25T12:08:15.081Z</time></trkpt><trkpt lat="42.7079166" lon="12.41637"><ele>290.0</ele><time>2026-04-25T12:08:18.105Z</time></trkpt><trkpt lat="42.7078876" lon="12.4162442"><ele>289.33333333333337</ele><time>2026-04-25T12:08:20.102Z</time></trkpt><trkpt lat="42.7079118" lon="12.4160657"><ele>288.6666666666667</ele><time>2026-04-25T12:08:22.107Z</time></trkpt><trkpt lat="42.7079299" lon="12.4159651"><ele>288.0</ele><time>2026-04-25T12:08:23.127Z</time></trkpt><trkpt lat="42.7079381" lon="12.4158688"><ele>287.3333333333333</ele><time>2026-04-25T12:08:24.132Z</time></trkpt><trkpt lat="42.7079353" lon="12.4157729"><ele>286.66666666666663</ele><time>2026-04-25T12:08:25.12Z</time></trkpt><trkpt lat="42.7079298" lon="12.4156823"><ele>286.0</ele><time>2026-04-25T12:08:26.103Z</time></trkpt><trkpt lat="42.7078785" lon="12.4155321"><ele>286.0</ele><time>2026-04-25T12:08:28.12Z</time></trkpt><trkpt lat="42.7078123" lon="12.4154064"><ele>286.0</ele><time>2026-04-25T12:08:30.108Z</time></trkpt><trkpt lat="42.7078159" lon="12.4152387"><ele>286.0</ele><time>2026-04-25T12:08:32.108Z</time></trkpt><trkpt lat="42.7078219" lon="12.4151301"><ele>286.0</ele><time>2026-04-25T12:08:33.109Z</time></trkpt><trkpt lat="42.7078304" lon="12.4150012"><ele>286.0</ele><time>2026-04-25T12:08:34.093Z</time></trkpt><trkpt lat="42.7078334" lon="12.4148781"><ele>286.0</ele><time>2026-04-25T12:08:35.1Z</time></trkpt><trkpt lat="42.7078289" lon="12.4147773"><ele>286.0</ele><time>2026-04-25T12:08:36.102Z</time></trkpt><trkpt lat="42.7078004" lon="12.4146148"><ele>286.0</ele><time>2026-04-25T12:08:38.1Z</time></trkpt><trkpt lat="42.7077721" lon="12.4145245"><ele>286.0</ele><time>2026-04-25T12:08:39.106Z</time></trkpt><trkpt lat="42.7077461" lon="12.4144298"><ele>286.0</ele><time>2026-04-25T12:08:40.091Z</time></trkpt><trkpt lat="42.7077063" lon="12.4142932"><ele>287.16666666666663</ele><time>2026-04-25T12:08:42.09Z</time></trkpt><trkpt lat="42.7076948" lon="12.4141965"><ele>288.3333333333333</ele><time>2026-04-25T12:08:44.109Z</time></trkpt><trkpt lat="42.7076693" lon="12.4141126"><ele>289.5</ele><time>2026-04-25T12:08:47.094Z</time></trkpt><trkpt lat="42.7076792" lon="12.4140018"><ele>290.6666666666667</ele><time>2026-04-25T12:08:59.115Z</time></trkpt><trkpt lat="42.7077102" lon="12.4139226"><ele>291.83333333333337</ele><time>2026-04-25T12:09:01.111Z</time></trkpt><trkpt lat="42.7077908" lon="12.4137818"><ele>293.0</ele><time>2026-04-25T12:09:03.12Z</time></trkpt><trkpt lat="42.7078282" lon="12.4137107"><ele>293.0</ele><time>2026-04-25T12:09:04.1Z</time></trkpt><trkpt lat="42.7078532" lon="12.4136282"><ele>293.0</ele><time>2026-04-25T12:09:05.103Z</time></trkpt><trkpt lat="42.70785" lon="12.4134921"><ele>293.0</ele><time>2026-04-25T12:09:07.092Z</time></trkpt><trkpt lat="42.7078496" lon="12.4133699"><ele>293.0</ele><time>2026-04-25T12:09:10.091Z</time></trkpt><trkpt lat="42.7078405" lon="12.4132619"><ele>293.0</ele><time>2026-04-25T12:09:13.119Z</time></trkpt><trkpt lat="42.7078416" lon="12.4131696"><ele>293.0</ele><time>2026-04-25T12:09:16.101Z</time></trkpt><trkpt lat="42.7078569" lon="12.4130844"><ele>293.83333333333337</ele><time>2026-04-25T12:09:21.096Z</time></trkpt><trkpt lat="42.7078372" lon="12.4129673"><ele>294.6666666666667</ele><time>2026-04-25T12:09:25.103Z</time></trkpt><trkpt lat="42.7078373" lon="12.412873"><ele>295.5</ele><time>2026-04-25T12:09:27.103Z</time></trkpt><trkpt lat="42.7078442" lon="12.4127469"><ele>296.3333333333333</ele><time>2026-04-25T12:09:30.129Z</time></trkpt><trkpt lat="42.7078589" lon="12.4126566"><ele>297.16666666666663</ele><time>2026-04-25T12:09:32.1Z</time></trkpt><trkpt lat="42.7078737" lon="12.4125515"><ele>298.0</ele><time>2026-04-25T12:09:34.109Z</time></trkpt><trkpt lat="42.7078845" lon="12.412435"><ele>298.0</ele><time>2026-04-25T12:09:36.1Z</time></trkpt><trkpt lat="42.7078836" lon="12.4123462"><ele>298.0</ele><time>2026-04-25T12:09:37.107Z</time></trkpt><trkpt lat="42.7078715" lon="12.4122391"><ele>298.0</ele><time>2026-04-25T12:09:39.108Z</time></trkpt><trkpt lat="42.7078449" lon="12.4121301"><ele>298.0</ele><time>2026-04-25T12:09:41.095Z</time></trkpt><trkpt lat="42.7078104" lon="12.4120423"><ele>298.0</ele><time>2026-04-25T12:09:42.11Z</time></trkpt><trkpt lat="42.7077868" lon="12.4119607"><ele>298.0</ele><time>2026-04-25T12:09:43.104Z</time></trkpt><trkpt lat="42.7077683" lon="12.4118122"><ele>298.3333333333333</ele><time>2026-04-25T12:09:45.113Z</time></trkpt><trkpt lat="42.7077514" lon="12.4116782"><ele>298.66666666666663</ele><time>2026-04-25T12:09:47.104Z</time></trkpt><trkpt lat="42.7077305" lon="12.411566"><ele>299.0</ele><time>2026-04-25T12:09:49.118Z</time></trkpt><trkpt lat="42.7077024" lon="12.4114555"><ele>299.3333333333333</ele><time>2026-04-25T12:09:51.117Z</time></trkpt><trkpt lat="42.7076473" lon="12.4113914"><ele>299.6666666666667</ele><time>2026-04-25T12:09:53.125Z</time></trkpt><trkpt lat="42.7075683" lon="12.4113706"><ele>300.0</ele><time>2026-04-25T12:09:55.102Z</time></trkpt><trkpt lat="42.7074717" lon="12.4113651"><ele>302.6666666666667</ele><time>2026-04-25T12:09:57.116Z</time></trkpt><trkpt lat="42.7074001" lon="12.4113564"><ele>305.3333333333333</ele><time>2026-04-25T12:09:59.107Z</time></trkpt><trkpt lat="42.7073389" lon="12.4113161"><ele>308.0</ele><time>2026-04-25T12:10:01.12Z</time></trkpt><trkpt lat="42.7072935" lon="12.4112339"><ele>310.66666666666663</ele><time>2026-04-25T12:10:03.114Z</time></trkpt><trkpt lat="42.7072473" lon="12.4111348"><ele>313.3333333333333</ele><time>2026-04-25T12:10:05.094Z</time></trkpt><trkpt lat="42.707223" lon="12.411036"><ele>316.0</ele><time>2026-04-25T12:10:07.092Z</time></trkpt><trkpt lat="42.707167" lon="12.4109308"><ele>316.0</ele><time>2026-04-25T12:10:09.108Z</time></trkpt><trkpt lat="42.7071006" lon="12.4108832"><ele>316.0</ele><time>2026-04-25T12:10:11.1Z</time></trkpt><trkpt lat="42.7070045" lon="12.4108642"><ele>316.0</ele><time>2026-04-25T12:10:14.101Z</time></trkpt><trkpt lat="42.7069371" lon="12.4108658"><ele>316.0</ele><time>2026-04-25T12:10:16.121Z</time></trkpt><trkpt lat="42.7068743" lon="12.4108456"><ele>316.0</ele><time>2026-04-25T12:10:18.094Z</time></trkpt><trkpt lat="42.7068098" lon="12.4107967"><ele>316.0</ele><time>2026-04-25T12:10:21.11Z</time></trkpt><trkpt lat="42.7067397" lon="12.4107115"><ele>318.3333333333333</ele><time>2026-04-25T12:10:24.118Z</time></trkpt><trkpt lat="42.706686" lon="12.4106197"><ele>320.66666666666663</ele><time>2026-04-25T12:10:26.088Z</time></trkpt><trkpt lat="42.7066479" lon="12.4105262"><ele>323.0</ele><time>2026-04-25T12:10:28.103Z</time></trkpt><trkpt lat="42.706641" lon="12.4103962"><ele>325.3333333333333</ele><time>2026-04-25T12:10:31.113Z</time></trkpt><trkpt lat="42.7066384" lon="12.4102836"><ele>327.6666666666667</ele><time>2026-04-25T12:10:33.085Z</time></trkpt><trkpt lat="42.7066191" lon="12.4101866"><ele>330.0</ele><time>2026-04-25T12:10:35.107Z</time></trkpt><trkpt lat="42.7065888" lon="12.4100851"><ele>330.0</ele><time>2026-04-25T12:10:37.113Z</time></trkpt><trkpt lat="42.7065479" lon="12.4100039"><ele>330.0</ele><time>2026-04-25T12:10:39.127Z</time></trkpt><trkpt lat="42.7065015" lon="12.4099307"><ele>330.0</ele><time>2026-04-25T12:10:41.091Z</time></trkpt><trkpt lat="42.7064503" lon="12.4098413"><ele>330.0</ele><time>2026-04-25T12:10:43.105Z</time></trkpt><trkpt lat="42.7064039" lon="12.4097692"><ele>330.0</ele><time>2026-04-25T12:10:44.1Z</time></trkpt><trkpt lat="42.7063393" lon="12.4096469"><ele>330.0</ele><time>2026-04-25T12:10:46.111Z</time></trkpt><trkpt lat="42.7062638" lon="12.4095266"><ele>330.0</ele><time>2026-04-25T12:10:48.098Z</time></trkpt><trkpt lat="42.7061778" lon="12.4094055"><ele>330.0</ele><time>2026-04-25T12:10:50.107Z</time></trkpt><trkpt lat="42.706131" lon="12.4093432"><ele>330.0</ele><time>2026-04-25T12:10:51.098Z</time></trkpt><trkpt lat="42.7060392" lon="12.4092148"><ele>330.0</ele><time>2026-04-25T12:10:53.096Z</time></trkpt><trkpt lat="42.7059909" lon="12.4091503"><ele>330.0</ele><time>2026-04-25T12:10:54.087Z</time></trkpt><trkpt lat="42.7059405" lon="12.4090847"><ele>334.0</ele><time>2026-04-25T12:10:55.11Z</time></trkpt><trkpt lat="42.7058541" lon="12.4089879"><ele>338.0</ele><time>2026-04-25T12:10:57.089Z</time></trkpt><trkpt lat="42.7057643" lon="12.4088739"><ele>342.0</ele><time>2026-04-25T12:10:59.102Z</time></trkpt><trkpt lat="42.7056871" lon="12.4087365"><ele>346.0</ele><time>2026-04-25T12:11:01.107Z</time></trkpt><trkpt lat="42.7056042" lon="12.4086077"><ele>346.0</ele><time>2026-04-25T12:11:03.112Z</time></trkpt><trkpt lat="42.7055506" lon="12.4085525"><ele>346.0</ele><time>2026-04-25T12:11:04.101Z</time></trkpt><trkpt lat="42.7054933" lon="12.4085141"><ele>346.0</ele><time>2026-04-25T12:11:05.096Z</time></trkpt><trkpt lat="42.7054213" lon="12.4084544"><ele>346.0</ele><time>2026-04-25T12:11:07.087Z</time></trkpt><trkpt lat="42.7053627" lon="12.4084123"><ele>346.0</ele><time>2026-04-25T12:11:14.104Z</time></trkpt><trkpt lat="42.7053006" lon="12.4083632"><ele>346.0</ele><time>2026-04-25T12:11:16.108Z</time></trkpt><trkpt lat="42.7052215" lon="12.4082671"><ele>346.20000000000005</ele><time>2026-04-25T12:11:18.108Z</time></trkpt><trkpt lat="42.7051585" lon="12.4081614"><ele>346.40000000000003</ele><time>2026-04-25T12:11:20.1Z</time></trkpt><trkpt lat="42.7051006" lon="12.4080485"><ele>346.6</ele><time>2026-04-25T12:11:22.102Z</time></trkpt><trkpt lat="42.7050241" lon="12.4079593"><ele>346.8</ele><time>2026-04-25T12:11:24.096Z</time></trkpt><trkpt lat="42.7049451" lon="12.4078945"><ele>347.0</ele><time>2026-04-25T12:11:26.104Z</time></trkpt><trkpt lat="42.7048814" lon="12.4078382"><ele>347.0</ele><time>2026-04-25T12:11:28.096Z</time></trkpt><trkpt lat="42.7048104" lon="12.4077773"><ele>347.0</ele><time>2026-04-25T12:11:31.121Z</time></trkpt><trkpt lat="42.7047493" lon="12.4077543"><ele>347.0</ele><time>2026-04-25T12:11:34.096Z</time></trkpt><trkpt lat="42.704691" lon="12.4076817"><ele>347.0</ele><time>2026-04-25T12:11:44.089Z</time></trkpt><trkpt lat="42.704658" lon="12.4076081"><ele>347.0</ele><time>2026-04-25T12:11:46.116Z</time></trkpt><trkpt lat="42.7046058" lon="12.4075288"><ele>347.0</ele><time>2026-04-25T12:11:48.092Z</time></trkpt><trkpt lat="42.7045374" lon="12.4074312"><ele>347.0</ele><time>2026-04-25T12:11:50.102Z</time></trkpt><trkpt lat="42.7045058" lon="12.4073231"><ele>347.0</ele><time>2026-04-25T12:11:52.084Z</time></trkpt><trkpt lat="42.7044955" lon="12.407198"><ele>347.0</ele><time>2026-04-25T12:11:54.097Z</time></trkpt><trkpt lat="42.7044874" lon="12.4070737"><ele>347.0</ele><time>2026-04-25T12:11:56.109Z</time></trkpt><trkpt lat="42.7044584" lon="12.4069845"><ele>347.0</ele><time>2026-04-25T12:11:58.091Z</time></trkpt><trkpt lat="42.7043956" lon="12.4068896"><ele>347.0</ele><time>2026-04-25T12:12:00.102Z</time></trkpt><trkpt lat="42.7043328" lon="12.4067648"><ele>348.6</ele><time>2026-04-25T12:12:02.103Z</time></trkpt><trkpt lat="42.7042519" lon="12.4066443"><ele>350.20000000000005</ele><time>2026-04-25T12:12:04.1Z</time></trkpt><trkpt lat="42.7041545" lon="12.40654"><ele>351.8</ele><time>2026-04-25T12:12:06.107Z</time></trkpt><trkpt lat="42.7041067" lon="12.4064775"><ele>353.4</ele><time>2026-04-25T12:12:07.101Z</time></trkpt><trkpt lat="42.7040575" lon="12.4064023"><ele>355.0</ele><time>2026-04-25T12:12:08.108Z</time></trkpt><trkpt lat="42.7039633" lon="12.4062967"><ele>355.8</ele><time>2026-04-25T12:12:10.1Z</time></trkpt><trkpt lat="42.7038733" lon="12.4062218"><ele>356.6</ele><time>2026-04-25T12:12:12.119Z</time></trkpt><trkpt lat="42.703794" lon="12.4061423"><ele>357.4</ele><time>2026-04-25T12:12:14.113Z</time></trkpt><trkpt lat="42.703717" lon="12.4060342"><ele>358.2</ele><time>2026-04-25T12:12:16.1Z</time></trkpt><trkpt lat="42.7036651" lon="12.4058924"><ele>359.0</ele><time>2026-04-25T12:12:18.113Z</time></trkpt><trkpt lat="42.703609" lon="12.4057769"><ele>357.79999999999995</ele><time>2026-04-25T12:12:20.089Z</time></trkpt><trkpt lat="42.7035518" lon="12.4056689"><ele>356.59999999999997</ele><time>2026-04-25T12:12:22.103Z</time></trkpt><trkpt lat="42.7034815" lon="12.4055254"><ele>355.4</ele><time>2026-04-25T12:12:24.11Z</time></trkpt><trkpt lat="42.7034424" lon="12.405437"><ele>354.2</ele><time>2026-04-25T12:12:25.093Z</time></trkpt><trkpt lat="42.7033976" lon="12.4053463"><ele>353.0</ele><time>2026-04-25T12:12:26.101Z</time></trkpt><trkpt lat="42.70335" lon="12.4052504"><ele>353.0</ele><time>2026-04-25T12:12:27.103Z</time></trkpt><trkpt lat="42.7033112" lon="12.4051596"><ele>353.0</ele><time>2026-04-25T12:12:28.101Z</time></trkpt><trkpt lat="42.7032911" lon="12.4050062"><ele>353.0</ele><time>2026-04-25T12:12:30.099Z</time></trkpt><trkpt lat="42.7033352" lon="12.4048726"><ele>353.0</ele><time>2026-04-25T12:12:32.099Z</time></trkpt><trkpt lat="42.7034249" lon="12.4048155"><ele>353.0</ele><time>2026-04-25T12:12:34.116Z</time></trkpt><trkpt lat="42.7034902" lon="12.4048149"><ele>353.0</ele><time>2026-04-25T12:12:35.13Z</time></trkpt><trkpt lat="42.7035625" lon="12.4048193"><ele>353.0</ele><time>2026-04-25T12:12:36.098Z</time></trkpt><trkpt lat="42.7036344" lon="12.4048269"><ele>353.0</ele><time>2026-04-25T12:12:37.109Z</time></trkpt><trkpt lat="42.7037081" lon="12.4048307"><ele>353.0</ele><time>2026-04-25T12:12:38.108Z</time></trkpt><trkpt lat="42.7037798" lon="12.4048291"><ele>353.0</ele><time>2026-04-25T12:12:39.103Z</time></trkpt><trkpt lat="42.7038505" lon="12.4048243"><ele>353.0</ele><time>2026-04-25T12:12:40.108Z</time></trkpt><trkpt lat="42.7039214" lon="12.4048123"><ele>353.0</ele><time>2026-04-25T12:12:41.106Z</time></trkpt><trkpt lat="42.7039879" lon="12.4048048"><ele>354.59999999999997</ele><time>2026-04-25T12:12:42.122Z</time></trkpt><trkpt lat="42.7040584" lon="12.4047965"><ele>356.2</ele><time>2026-04-25T12:12:43.088Z</time></trkpt><trkpt lat="42.7041338" lon="12.4047851"><ele>357.8</ele><time>2026-04-25T12:12:44.116Z</time></trkpt><trkpt lat="42.7042209" lon="12.404767"><ele>359.4</ele><time>2026-04-25T12:12:45.103Z</time></trkpt><trkpt lat="42.7043269" lon="12.4047361"><ele>361.0</ele><time>2026-04-25T12:12:46.116Z</time></trkpt><trkpt lat="42.704447" lon="12.4046935"><ele>359.75</ele><time>2026-04-25T12:12:47.099Z</time></trkpt><trkpt lat="42.7045794" lon="12.4046527"><ele>358.5</ele><time>2026-04-25T12:12:48.101Z</time></trkpt><trkpt lat="42.7047187" lon="12.4046067"><ele>357.25</ele><time>2026-04-25T12:12:49.121Z</time></trkpt><trkpt lat="42.7048524" lon="12.4045658"><ele>356.0</ele><time>2026-04-25T12:12:50.111Z</time></trkpt><trkpt lat="42.7049839" lon="12.404524"><ele>356.0</ele><time>2026-04-25T12:12:51.11Z</time></trkpt><trkpt lat="42.7051122" lon="12.4044705"><ele>356.0</ele><time>2026-04-25T12:12:52.101Z</time></trkpt><trkpt lat="42.705235" lon="12.4043923"><ele>356.0</ele><time>2026-04-25T12:12:53.116Z</time></trkpt><trkpt lat="42.7053655" lon="12.4042917"><ele>356.0</ele><time>2026-04-25T12:12:54.099Z</time></trkpt><trkpt lat="42.7054867" lon="12.4041753"><ele>356.6666666666667</ele><time>2026-04-25T12:12:55.131Z</time></trkpt><trkpt lat="42.705601" lon="12.4040397"><ele>357.3333333333333</ele><time>2026-04-25T12:12:56.106Z</time></trkpt><trkpt lat="42.7057246" lon="12.4038758"><ele>358.0</ele><time>2026-04-25T12:12:57.098Z</time></trkpt><trkpt lat="42.7058651" lon="12.4036883"><ele>358.66666666666663</ele><time>2026-04-25T12:12:58.131Z</time></trkpt><trkpt lat="42.7060052" lon="12.4034908"><ele>359.3333333333333</ele><time>2026-04-25T12:12:59.103Z</time></trkpt><trkpt lat="42.7061552" lon="12.403286"><ele>360.0</ele><time>2026-04-25T12:13:00.09Z</time></trkpt><trkpt lat="42.706322" lon="12.4030748"><ele>363.5</ele><time>2026-04-25T12:13:01.111Z</time></trkpt><trkpt lat="42.7064916" lon="12.4028622"><ele>367.0</ele><time>2026-04-25T12:13:02.113Z</time></trkpt><trkpt lat="42.7066531" lon="12.4026548"><ele>367.0</ele><time>2026-04-25T12:13:03.108Z</time></trkpt><trkpt lat="42.7068102" lon="12.4024653"><ele>367.0</ele><time>2026-04-25T12:13:04.101Z</time></trkpt><trkpt lat="42.7069641" lon="12.4022776"><ele>367.0</ele><time>2026-04-25T12:13:05.103Z</time></trkpt><trkpt lat="42.7071123" lon="12.4020974"><ele>368.66666666666663</ele><time>2026-04-25T12:13:06.102Z</time></trkpt><trkpt lat="42.7072674" lon="12.4019147"><ele>370.3333333333333</ele><time>2026-04-25T12:13:07.105Z</time></trkpt><trkpt lat="42.7074369" lon="12.4017048"><ele>372.0</ele><time>2026-04-25T12:13:08.094Z</time></trkpt><trkpt lat="42.7076219" lon="12.4014681"><ele>376.0</ele><time>2026-04-25T12:13:09.126Z</time></trkpt><trkpt lat="42.7078026" lon="12.4012452"><ele>380.0</ele><time>2026-04-25T12:13:10.115Z</time></trkpt><trkpt lat="42.7079617" lon="12.4010449"><ele>380.0</ele><time>2026-04-25T12:13:11.093Z</time></trkpt><trkpt lat="42.7080998" lon="12.4008686"><ele>380.0</ele><time>2026-04-25T12:13:12.125Z</time></trkpt><trkpt lat="42.7082242" lon="12.4007195"><ele>380.0</ele><time>2026-04-25T12:13:13.106Z</time></trkpt><trkpt lat="42.7083399" lon="12.4005807"><ele>380.5</ele><time>2026-04-25T12:13:14.094Z</time></trkpt><trkpt lat="42.7084417" lon="12.4004448"><ele>381.0</ele><time>2026-04-25T12:13:15.1Z</time></trkpt><trkpt lat="42.7085307" lon="12.400321"><ele>381.5</ele><time>2026-04-25T12:13:16.099Z</time></trkpt><trkpt lat="42.7086084" lon="12.4002146"><ele>382.0</ele><time>2026-04-25T12:13:17.109Z</time></trkpt><trkpt lat="42.7086753" lon="12.4001218"><ele>383.40000000000003</ele><time>2026-04-25T12:13:18.111Z</time></trkpt><trkpt lat="42.708736" lon="12.4000285"><ele>384.8</ele><time>2026-04-25T12:13:19.113Z</time></trkpt><trkpt lat="42.7087902" lon="12.399921"><ele>386.2</ele><time>2026-04-25T12:13:20.111Z</time></trkpt><trkpt lat="42.708843" lon="12.3997948"><ele>387.6</ele><time>2026-04-25T12:13:21.091Z</time></trkpt><trkpt lat="42.7088998" lon="12.3996535"><ele>389.0</ele><time>2026-04-25T12:13:22.109Z</time></trkpt><trkpt lat="42.7089554" lon="12.3995031"><ele>390.75</ele><time>2026-04-25T12:13:23.119Z</time></trkpt><trkpt lat="42.7090043" lon="12.3993406"><ele>392.5</ele><time>2026-04-25T12:13:24.103Z</time></trkpt><trkpt lat="42.7090436" lon="12.3991565"><ele>394.25</ele><time>2026-04-25T12:13:25.096Z</time></trkpt><trkpt lat="42.7090855" lon="12.3989573"><ele>396.0</ele><time>2026-04-25T12:13:26.108Z</time></trkpt><trkpt lat="42.7091314" lon="12.398737"><ele>397.33333333333337</ele><time>2026-04-25T12:13:27.097Z</time></trkpt><trkpt lat="42.7091796" lon="12.3985122"><ele>398.6666666666667</ele><time>2026-04-25T12:13:28.106Z</time></trkpt><trkpt lat="42.7092274" lon="12.398305"><ele>400.0</ele><time>2026-04-25T12:13:29.149Z</time></trkpt><trkpt lat="42.7092768" lon="12.3981116"><ele>401.6666666666667</ele><time>2026-04-25T12:13:30.111Z</time></trkpt><trkpt lat="42.7093241" lon="12.39792"><ele>403.33333333333337</ele><time>2026-04-25T12:13:31.1Z</time></trkpt><trkpt lat="42.7093681" lon="12.3977301"><ele>405.0</ele><time>2026-04-25T12:13:32.092Z</time></trkpt><trkpt lat="42.7094064" lon="12.3975203"><ele>407.0</ele><time>2026-04-25T12:13:33.1Z</time></trkpt><trkpt lat="42.7094368" lon="12.3973305"><ele>409.0</ele><time>2026-04-25T12:13:34.112Z</time></trkpt><trkpt lat="42.7094505" lon="12.3971538"><ele>411.0</ele><time>2026-04-25T12:13:35.103Z</time></trkpt><trkpt lat="42.7094687" lon="12.3969969"><ele>413.0</ele><time>2026-04-25T12:13:36.109Z</time></trkpt><trkpt lat="42.7094966" lon="12.3968421"><ele>414.4</ele><time>2026-04-25T12:13:37.11Z</time></trkpt><trkpt lat="42.7095367" lon="12.3966997"><ele>415.79999999999995</ele><time>2026-04-25T12:13:38.11Z</time></trkpt><trkpt lat="42.7095915" lon="12.3965847"><ele>417.2</ele><time>2026-04-25T12:13:39.101Z</time></trkpt><trkpt lat="42.7096462" lon="12.3964696"><ele>418.6</ele><time>2026-04-25T12:13:40.104Z</time></trkpt><trkpt lat="42.709709" lon="12.3963587"><ele>420.0</ele><time>2026-04-25T12:13:41.111Z</time></trkpt><trkpt lat="42.7097774" lon="12.3962502"><ele>420.75</ele><time>2026-04-25T12:13:42.128Z</time></trkpt><trkpt lat="42.709862" lon="12.3961324"><ele>421.5</ele><time>2026-04-25T12:13:43.1Z</time></trkpt><trkpt lat="42.7099598" lon="12.3960026"><ele>422.25</ele><time>2026-04-25T12:13:44.099Z</time></trkpt><trkpt lat="42.710063" lon="12.3958688"><ele>423.0</ele><time>2026-04-25T12:13:45.112Z</time></trkpt><trkpt lat="42.7101708" lon="12.3957399"><ele>425.0</ele><time>2026-04-25T12:13:46.119Z</time></trkpt><trkpt lat="42.7102754" lon="12.3956138"><ele>427.0</ele><time>2026-04-25T12:13:47.111Z</time></trkpt><trkpt lat="42.710378" lon="12.3954949"><ele>429.0</ele><time>2026-04-25T12:13:48.089Z</time></trkpt><trkpt lat="42.7104748" lon="12.3953908"><ele>431.0</ele><time>2026-04-25T12:13:49.126Z</time></trkpt><trkpt lat="42.7105712" lon="12.3952921"><ele>432.75</ele><time>2026-04-25T12:13:50.113Z</time></trkpt><trkpt lat="42.710669" lon="12.3951963"><ele>434.5</ele><time>2026-04-25T12:13:51.101Z</time></trkpt><trkpt lat="42.7107678" lon="12.3951006"><ele>436.25</ele><time>2026-04-25T12:13:52.102Z</time></trkpt><trkpt lat="42.710868" lon="12.3950031"><ele>438.0</ele><time>2026-04-25T12:13:53.107Z</time></trkpt><trkpt lat="42.71096" lon="12.3948955"><ele>438.0</ele><time>2026-04-25T12:13:54.101Z</time></trkpt><trkpt lat="42.7110548" lon="12.3947863"><ele>438.0</ele><time>2026-04-25T12:13:55.09Z</time></trkpt><trkpt lat="42.7111452" lon="12.3946744"><ele>438.0</ele><time>2026-04-25T12:13:56.108Z</time></trkpt><trkpt lat="42.7112356" lon="12.3945633"><ele>438.0</ele><time>2026-04-25T12:13:57.101Z</time></trkpt><trkpt lat="42.7113245" lon="12.3944498"><ele>441.79999999999995</ele><time>2026-04-25T12:13:58.108Z</time></trkpt><trkpt lat="42.711403" lon="12.3943491"><ele>445.59999999999997</ele><time>2026-04-25T12:13:59.109Z</time></trkpt><trkpt lat="42.7114697" lon="12.3942729"><ele>449.40000000000003</ele><time>2026-04-25T12:14:00.097Z</time></trkpt><trkpt lat="42.7115238" lon="12.3942201"><ele>453.20000000000005</ele><time>2026-04-25T12:14:01.108Z</time></trkpt><trkpt lat="42.7116139" lon="12.3942703"><ele>457.0</ele><time>2026-04-25T12:14:04.109Z</time></trkpt><trkpt lat="42.7117065" lon="12.3943604"><ele>457.0</ele><time>2026-04-25T12:14:06.113Z</time></trkpt><trkpt lat="42.7117624" lon="12.3944115"><ele>457.00000000000006</ele><time>2026-04-25T12:14:07.093Z</time></trkpt><trkpt lat="42.7118269" lon="12.3944766"><ele>457.00000000000006</ele><time>2026-04-25T12:14:08.11Z</time></trkpt><trkpt lat="42.7118997" lon="12.3945497"><ele>457.0</ele><time>2026-04-25T12:14:09.106Z</time></trkpt><trkpt lat="42.7119851" lon="12.394629"><ele>457.0</ele><time>2026-04-25T12:14:10.106Z</time></trkpt><trkpt lat="42.7120774" lon="12.3947153"><ele>457.8</ele><time>2026-04-25T12:14:11.088Z</time></trkpt><trkpt lat="42.7121822" lon="12.3948066"><ele>458.6</ele><time>2026-04-25T12:14:12.103Z</time></trkpt><trkpt lat="42.7122818" lon="12.3949013"><ele>459.40000000000003</ele><time>2026-04-25T12:14:13.101Z</time></trkpt><trkpt lat="42.7123716" lon="12.3949821"><ele>460.20000000000005</ele><time>2026-04-25T12:14:14.112Z</time></trkpt><trkpt lat="42.712449" lon="12.3950534"><ele>461.0</ele><time>2026-04-25T12:14:15.103Z</time></trkpt><trkpt lat="42.7125171" lon="12.3951349"><ele>461.0</ele><time>2026-04-25T12:14:16.089Z</time></trkpt><trkpt lat="42.7125721" lon="12.3952432"><ele>461.0</ele><time>2026-04-25T12:14:17.114Z</time></trkpt><trkpt lat="42.712622" lon="12.3953703"><ele>461.0</ele><time>2026-04-25T12:14:18.106Z</time></trkpt><trkpt lat="42.7126712" lon="12.3954897"><ele>461.0</ele><time>2026-04-25T12:14:19.107Z</time></trkpt><trkpt lat="42.7127231" lon="12.3955994"><ele>461.0</ele><time>2026-04-25T12:14:20.083Z</time></trkpt><trkpt lat="42.7127671" lon="12.3956935"><ele>462.66666666666663</ele><time>2026-04-25T12:14:21.094Z</time></trkpt><trkpt lat="42.7128003" lon="12.3957813"><ele>464.3333333333333</ele><time>2026-04-25T12:14:22.112Z</time></trkpt><trkpt lat="42.7128295" lon="12.3958593"><ele>466.0</ele><time>2026-04-25T12:14:23.102Z</time></trkpt><trkpt lat="42.7128717" lon="12.3959761"><ele>467.66666666666663</ele><time>2026-04-25T12:14:25.121Z</time></trkpt><trkpt lat="42.7129281" lon="12.3960248"><ele>469.3333333333333</ele><time>2026-04-25T12:14:28.106Z</time></trkpt><trkpt lat="42.7130191" lon="12.3960179"><ele>471.0</ele><time>2026-04-25T12:14:30.098Z</time></trkpt><trkpt lat="42.713121" lon="12.3960671"><ele>471.0</ele><time>2026-04-25T12:14:32.103Z</time></trkpt><trkpt lat="42.7132048" lon="12.396191"><ele>471.0</ele><time>2026-04-25T12:14:34.096Z</time></trkpt><trkpt lat="42.7132918" lon="12.3962889"><ele>471.0</ele><time>2026-04-25T12:14:36.103Z</time></trkpt><trkpt lat="42.7133533" lon="12.396318"><ele>471.0</ele><time>2026-04-25T12:14:37.104Z</time></trkpt><trkpt lat="42.7134192" lon="12.396344"><ele>471.0</ele><time>2026-04-25T12:14:38.096Z</time></trkpt><trkpt lat="42.7135324" lon="12.3963663"><ele>474.20000000000005</ele><time>2026-04-25T12:14:40.1Z</time></trkpt><trkpt lat="42.7136444" lon="12.3963628"><ele>477.40000000000003</ele><time>2026-04-25T12:14:42.097Z</time></trkpt><trkpt lat="42.7137711" lon="12.3963319"><ele>480.6</ele><time>2026-04-25T12:14:44.1Z</time></trkpt><trkpt lat="42.7138335" lon="12.3963166"><ele>483.8</ele><time>2026-04-25T12:14:45.104Z</time></trkpt><trkpt lat="42.7139384" lon="12.3963081"><ele>487.0</ele><time>2026-04-25T12:14:47.089Z</time></trkpt><trkpt lat="42.7140316" lon="12.3963787"><ele>487.0</ele><time>2026-04-25T12:14:49.101Z</time></trkpt><trkpt lat="42.7140956" lon="12.3964361"><ele>487.00000000000006</ele><time>2026-04-25T12:14:50.091Z</time></trkpt><trkpt lat="42.714172" lon="12.3964934"><ele>487.00000000000006</ele><time>2026-04-25T12:14:51.088Z</time></trkpt><trkpt lat="42.7142608" lon="12.3965449"><ele>487.0</ele><time>2026-04-25T12:14:52.119Z</time></trkpt><trkpt lat="42.7143608" lon="12.3965952"><ele>487.0</ele><time>2026-04-25T12:14:53.117Z</time></trkpt><trkpt lat="42.714456" lon="12.3966496"><ele>489.50000000000006</ele><time>2026-04-25T12:14:54.117Z</time></trkpt><trkpt lat="42.7145404" lon="12.3967054"><ele>492.0</ele><time>2026-04-25T12:14:55.117Z</time></trkpt><trkpt lat="42.7146081" lon="12.396762"><ele>494.5</ele><time>2026-04-25T12:14:56.1Z</time></trkpt><trkpt lat="42.7146679" lon="12.3968119"><ele>497.0</ele><time>2026-04-25T12:14:57.107Z</time></trkpt><trkpt lat="42.714786" lon="12.3968518"><ele>499.50000000000006</ele><time>2026-04-25T12:14:59.107Z</time></trkpt><trkpt lat="42.7148524" lon="12.396855"><ele>502.0</ele><time>2026-04-25T12:15:00.093Z</time></trkpt><trkpt lat="42.7149623" lon="12.3968669"><ele>502.00000000000006</ele><time>2026-04-25T12:15:02.109Z</time></trkpt><trkpt lat="42.7150742" lon="12.3969069"><ele>502.0</ele><time>2026-04-25T12:15:04.093Z</time></trkpt><trkpt lat="42.7151345" lon="12.396949"><ele>502.0</ele><time>2026-04-25T12:15:05.103Z</time></trkpt><trkpt lat="42.7151916" lon="12.3970055"><ele>502.0</ele><time>2026-04-25T12:15:06.104Z</time></trkpt><trkpt lat="42.7152523" lon="12.3970505"><ele>502.00000000000006</ele><time>2026-04-25T12:15:07.095Z</time></trkpt><trkpt lat="42.7153564" lon="12.3970754"><ele>502.0</ele><time>2026-04-25T12:15:09.107Z</time></trkpt><trkpt lat="42.7154627" lon="12.3970563"><ele>501.20000000000005</ele><time>2026-04-25T12:15:11.103Z</time></trkpt><trkpt lat="42.7155542" lon="12.397101"><ele>500.40000000000003</ele><time>2026-04-25T12:15:13.131Z</time></trkpt><trkpt lat="42.7156438" lon="12.3971641"><ele>499.59999999999997</ele><time>2026-04-25T12:15:16.14Z</time></trkpt><trkpt lat="42.7156798" lon="12.3970745"><ele>498.79999999999995</ele><time>2026-04-25T12:15:21.101Z</time></trkpt><trkpt lat="42.7156628" lon="12.3969886"><ele>498.0</ele><time>2026-04-25T12:15:23.1Z</time></trkpt><trkpt lat="42.7155876" lon="12.3968057"><ele>498.0</ele><time>2026-04-25T12:15:25.107Z</time></trkpt><trkpt lat="42.7155373" lon="12.3966757"><ele>498.0</ele><time>2026-04-25T12:15:26.098Z</time></trkpt><trkpt lat="42.7154838" lon="12.3965339"><ele>498.0</ele><time>2026-04-25T12:15:27.103Z</time></trkpt><trkpt lat="42.715416" lon="12.3963823"><ele>498.0</ele><time>2026-04-25T12:15:28.09Z</time></trkpt><trkpt lat="42.7153431" lon="12.3962201"><ele>497.75</ele><time>2026-04-25T12:15:29.098Z</time></trkpt><trkpt lat="42.7152734" lon="12.3960513"><ele>497.5</ele><time>2026-04-25T12:15:30.117Z</time></trkpt><trkpt lat="42.7152105" lon="12.3958943"><ele>497.25</ele><time>2026-04-25T12:15:31.123Z</time></trkpt><trkpt lat="42.7151547" lon="12.3957452"><ele>497.0</ele><time>2026-04-25T12:15:32.109Z</time></trkpt><trkpt lat="42.7151157" lon="12.3955921"><ele>500.0</ele><time>2026-04-25T12:15:33.107Z</time></trkpt><trkpt lat="42.7150901" lon="12.3953934"><ele>503.0</ele><time>2026-04-25T12:15:34.09Z</time></trkpt><trkpt lat="42.7150621" lon="12.3951489"><ele>506.0</ele><time>2026-04-25T12:15:35.126Z</time></trkpt><trkpt lat="42.7150378" lon="12.3948655"><ele>507.0</ele><time>2026-04-25T12:15:36.12Z</time></trkpt><trkpt lat="42.7150111" lon="12.3945485"><ele>508.0</ele><time>2026-04-25T12:15:37.108Z</time></trkpt><trkpt lat="42.7149792" lon="12.3942175"><ele>508.0</ele><time>2026-04-25T12:15:38.121Z</time></trkpt><trkpt lat="42.7149502" lon="12.393919"><ele>508.0</ele><time>2026-04-25T12:15:39.092Z</time></trkpt><trkpt lat="42.714928" lon="12.3936575"><ele>508.0</ele><time>2026-04-25T12:15:40.111Z</time></trkpt><trkpt lat="42.7149078" lon="12.3934261"><ele>509.0</ele><time>2026-04-25T12:15:41.109Z</time></trkpt><trkpt lat="42.7148902" lon="12.3932066"><ele>510.0</ele><time>2026-04-25T12:15:42.106Z</time></trkpt><trkpt lat="42.7148759" lon="12.3930134"><ele>511.0</ele><time>2026-04-25T12:15:43.112Z</time></trkpt><trkpt lat="42.7148594" lon="12.3928436"><ele>512.0</ele><time>2026-04-25T12:15:44.103Z</time></trkpt><trkpt lat="42.7148311" lon="12.3926693"><ele>513.5</ele><time>2026-04-25T12:15:45.105Z</time></trkpt><trkpt lat="42.7147863" lon="12.3924895"><ele>515.0</ele><time>2026-04-25T12:15:46.106Z</time></trkpt><trkpt lat="42.7147302" lon="12.3923268"><ele>516.5</ele><time>2026-04-25T12:15:47.103Z</time></trkpt><trkpt lat="42.7146767" lon="12.3921879"><ele>518.0</ele><time>2026-04-25T12:15:48.101Z</time></trkpt><trkpt lat="42.7146117" lon="12.3920817"><ele>520.75</ele><time>2026-04-25T12:15:49.107Z</time></trkpt><trkpt lat="42.7145126" lon="12.3919902"><ele>523.5</ele><time>2026-04-25T12:15:50.104Z</time></trkpt><trkpt lat="42.7143801" lon="12.3918945"><ele>526.25</ele><time>2026-04-25T12:15:51.108Z</time></trkpt><trkpt lat="42.7142602" lon="12.391829"><ele>529.0</ele><time>2026-04-25T12:15:52.114Z</time></trkpt><trkpt lat="42.7141727" lon="12.3917818"><ele>529.0</ele><time>2026-04-25T12:15:53.104Z</time></trkpt><trkpt lat="42.7141" lon="12.3917363"><ele>529.0</ele><time>2026-04-25T12:15:54.105Z</time></trkpt><trkpt lat="42.7140469" lon="12.3916796"><ele>529.0</ele><time>2026-04-25T12:15:55.099Z</time></trkpt><trkpt lat="42.7140147" lon="12.3916025"><ele>529.0</ele><time>2026-04-25T12:15:56.107Z</time></trkpt><trkpt lat="42.7140352" lon="12.3914403"><ele>529.0</ele><time>2026-04-25T12:15:58.121Z</time></trkpt><trkpt lat="42.7140856" lon="12.3913712"><ele>529.0</ele><time>2026-04-25T12:15:59.101Z</time></trkpt><trkpt lat="42.7141535" lon="12.3913437"><ele>529.0</ele><time>2026-04-25T12:16:00.122Z</time></trkpt><trkpt lat="42.7142333" lon="12.3913576"><ele>529.0</ele><time>2026-04-25T12:16:01.107Z</time></trkpt><trkpt lat="42.7143326" lon="12.3914075"><ele>529.0</ele><time>2026-04-25T12:16:02.099Z</time></trkpt><trkpt lat="42.7144535" lon="12.3914728"><ele>529.0</ele><time>2026-04-25T12:16:03.104Z</time></trkpt><trkpt lat="42.7145663" lon="12.3915378"><ele>529.0</ele><time>2026-04-25T12:16:04.108Z</time></trkpt><trkpt lat="42.7146686" lon="12.3915896"><ele>530.0</ele><time>2026-04-25T12:16:05.11Z</time></trkpt><trkpt lat="42.7147683" lon="12.3916161"><ele>531.0</ele><time>2026-04-25T12:16:06.113Z</time></trkpt><trkpt lat="42.7148582" lon="12.3916217"><ele>532.0</ele><time>2026-04-25T12:16:07.105Z</time></trkpt><trkpt lat="42.7149364" lon="12.3916056"><ele>533.0</ele><time>2026-04-25T12:16:08.103Z</time></trkpt><trkpt lat="42.7150189" lon="12.3915598"><ele>534.0</ele><time>2026-04-25T12:16:09.103Z</time></trkpt><trkpt lat="42.7151009" lon="12.3914902"><ele>534.0</ele><time>2026-04-25T12:16:10.104Z</time></trkpt><trkpt lat="42.715171" lon="12.3914063"><ele>534.0</ele><time>2026-04-25T12:16:11.112Z</time></trkpt><trkpt lat="42.7152275" lon="12.3913171"><ele>534.0</ele><time>2026-04-25T12:16:12.119Z</time></trkpt><trkpt lat="42.7152643" lon="12.3912239"><ele>534.0</ele><time>2026-04-25T12:16:13.09Z</time></trkpt><trkpt lat="42.7152901" lon="12.3911124"><ele>534.0</ele><time>2026-04-25T12:16:14.108Z</time></trkpt><trkpt lat="42.7153009" lon="12.390966"><ele>533.75</ele><time>2026-04-25T12:16:15.103Z</time></trkpt><trkpt lat="42.7153097" lon="12.3907847"><ele>533.5</ele><time>2026-04-25T12:16:16.11Z</time></trkpt><trkpt lat="42.7153247" lon="12.3905777"><ele>533.25</ele><time>2026-04-25T12:16:17.094Z</time></trkpt><trkpt lat="42.7153368" lon="12.3903691"><ele>533.0</ele><time>2026-04-25T12:16:18.114Z</time></trkpt><trkpt lat="42.7153457" lon="12.3901797"><ele>535.0</ele><time>2026-04-25T12:16:19.104Z</time></trkpt><trkpt lat="42.7153537" lon="12.3900195"><ele>537.0</ele><time>2026-04-25T12:16:20.093Z</time></trkpt><trkpt lat="42.715362" lon="12.3898781"><ele>539.0</ele><time>2026-04-25T12:16:21.111Z</time></trkpt><trkpt lat="42.7153789" lon="12.3897419"><ele>541.0</ele><time>2026-04-25T12:16:22.091Z</time></trkpt><trkpt lat="42.7154095" lon="12.3896053"><ele>543.0</ele><time>2026-04-25T12:16:23.108Z</time></trkpt><trkpt lat="42.7154504" lon="12.3894809"><ele>544.1428571428571</ele><time>2026-04-25T12:16:24.124Z</time></trkpt><trkpt lat="42.7154959" lon="12.3893718"><ele>545.2857142857142</ele><time>2026-04-25T12:16:25.116Z</time></trkpt><trkpt lat="42.7155286" lon="12.3892754"><ele>546.4285714285713</ele><time>2026-04-25T12:16:26.096Z</time></trkpt><trkpt lat="42.7155381" lon="12.3891828"><ele>547.5714285714286</ele><time>2026-04-25T12:16:27.107Z</time></trkpt><trkpt lat="42.715534" lon="12.3890876"><ele>548.7142857142857</ele><time>2026-04-25T12:16:28.117Z</time></trkpt><trkpt lat="42.7155211" lon="12.3889999"><ele>549.8571428571428</ele><time>2026-04-25T12:16:29.108Z</time></trkpt><trkpt lat="42.7154871" lon="12.3889231"><ele>551.0</ele><time>2026-04-25T12:16:30.11Z</time></trkpt><trkpt lat="42.7153701" lon="12.3888773"><ele>551.0</ele><time>2026-04-25T12:16:32.104Z</time></trkpt><trkpt lat="42.7153077" lon="12.3889124"><ele>551.0</ele><time>2026-04-25T12:16:33.103Z</time></trkpt><trkpt lat="42.7152501" lon="12.388978"><ele>551.0</ele><time>2026-04-25T12:16:34.134Z</time></trkpt><trkpt lat="42.7151928" lon="12.389066"><ele>551.0</ele><time>2026-04-25T12:16:35.106Z</time></trkpt><trkpt lat="42.715137" lon="12.3891504"><ele>551.0</ele><time>2026-04-25T12:16:36.096Z</time></trkpt><trkpt lat="42.7150396" lon="12.3891892"><ele>551.0</ele><time>2026-04-25T12:16:38.117Z</time></trkpt><trkpt lat="42.7149519" lon="12.3890752"><ele>552.5</ele><time>2026-04-25T12:16:40.111Z</time></trkpt><trkpt lat="42.7149235" lon="12.3889787"><ele>554.0</ele><time>2026-04-25T12:16:41.138Z</time></trkpt><trkpt lat="42.714906" lon="12.3888263"><ele>555.5</ele><time>2026-04-25T12:16:42.1Z</time></trkpt><trkpt lat="42.7148903" lon="12.3886271"><ele>557.0</ele><time>2026-04-25T12:16:43.102Z</time></trkpt><trkpt lat="42.7148693" lon="12.3883895"><ele>557.6666666666666</ele><time>2026-04-25T12:16:44.108Z</time></trkpt><trkpt lat="42.7148389" lon="12.3881205"><ele>558.3333333333334</ele><time>2026-04-25T12:16:45.123Z</time></trkpt><trkpt lat="42.7148002" lon="12.3878368"><ele>559.0</ele><time>2026-04-25T12:16:46.108Z</time></trkpt><trkpt lat="42.7147673" lon="12.3875753"><ele>559.75</ele><time>2026-04-25T12:16:47.105Z</time></trkpt><trkpt lat="42.7147442" lon="12.3873515"><ele>560.5</ele><time>2026-04-25T12:16:48.116Z</time></trkpt><trkpt lat="42.7147357" lon="12.3871643"><ele>561.25</ele><time>2026-04-25T12:16:49.099Z</time></trkpt><trkpt lat="42.7147306" lon="12.3869867"><ele>562.0</ele><time>2026-04-25T12:16:50.111Z</time></trkpt><trkpt lat="42.7147427" lon="12.3867645"><ele>563.0</ele><time>2026-04-25T12:16:51.108Z</time></trkpt><trkpt lat="42.7147559" lon="12.3865364"><ele>564.0</ele><time>2026-04-25T12:16:52.093Z</time></trkpt><trkpt lat="42.7147623" lon="12.3863244"><ele>565.0</ele><time>2026-04-25T12:16:53.112Z</time></trkpt><trkpt lat="42.714758" lon="12.3861151"><ele>565.6666666666667</ele><time>2026-04-25T12:16:54.103Z</time></trkpt><trkpt lat="42.7147469" lon="12.3858947"><ele>566.3333333333334</ele><time>2026-04-25T12:16:55.101Z</time></trkpt><trkpt lat="42.7147208" lon="12.3856438"><ele>567.0</ele><time>2026-04-25T12:16:56.124Z</time></trkpt><trkpt lat="42.7146868" lon="12.3853532"><ele>567.0</ele><time>2026-04-25T12:16:57.106Z</time></trkpt><trkpt lat="42.7146525" lon="12.3850264"><ele>567.0</ele><time>2026-04-25T12:16:58.101Z</time></trkpt><trkpt lat="42.7146137" lon="12.384661"><ele>567.0</ele><time>2026-04-25T12:16:59.092Z</time></trkpt><trkpt lat="42.7145741" lon="12.3842851"><ele>567.0</ele><time>2026-04-25T12:17:00.095Z</time></trkpt><trkpt lat="42.7145356" lon="12.3839571"><ele>566.6666666666666</ele><time>2026-04-25T12:17:01.104Z</time></trkpt><trkpt lat="42.7145114" lon="12.3836839"><ele>566.3333333333333</ele><time>2026-04-25T12:17:02.103Z</time></trkpt><trkpt lat="42.7144811" lon="12.3834444"><ele>566.0</ele><time>2026-04-25T12:17:03.102Z</time></trkpt><trkpt lat="42.7144618" lon="12.3832313"><ele>566.0</ele><time>2026-04-25T12:17:04.106Z</time></trkpt><trkpt lat="42.7144417" lon="12.3830374"><ele>566.0</ele><time>2026-04-25T12:17:05.103Z</time></trkpt><trkpt lat="42.7144226" lon="12.3828613"><ele>566.0</ele><time>2026-04-25T12:17:06.129Z</time></trkpt><trkpt lat="42.7144047" lon="12.3826889"><ele>566.0</ele><time>2026-04-25T12:17:07.09Z</time></trkpt><trkpt lat="42.7143973" lon="12.3825113"><ele>566.0</ele><time>2026-04-25T12:17:08.109Z</time></trkpt><trkpt lat="42.7144078" lon="12.3823307"><ele>566.0</ele><time>2026-04-25T12:17:09.102Z</time></trkpt><trkpt lat="42.7144431" lon="12.3821141"><ele>566.0</ele><time>2026-04-25T12:17:10.098Z</time></trkpt><trkpt lat="42.7144896" lon="12.3818737"><ele>566.0</ele><time>2026-04-25T12:17:11.092Z</time></trkpt><trkpt lat="42.7145217" lon="12.3816759"><ele>566.0</ele><time>2026-04-25T12:17:12.1Z</time></trkpt><trkpt lat="42.7145466" lon="12.3814981"><ele>566.0</ele><time>2026-04-25T12:17:13.113Z</time></trkpt><trkpt lat="42.7145752" lon="12.3813347"><ele>566.0</ele><time>2026-04-25T12:17:14.1Z</time></trkpt><trkpt lat="42.7146064" lon="12.3811906"><ele>565.0</ele><time>2026-04-25T12:17:15.095Z</time></trkpt><trkpt lat="42.7146474" lon="12.3810626"><ele>564.0</ele><time>2026-04-25T12:17:16.114Z</time></trkpt><trkpt lat="42.7147051" lon="12.3809459"><ele>563.0</ele><time>2026-04-25T12:17:17.112Z</time></trkpt><trkpt lat="42.7147953" lon="12.3808301"><ele>562.0</ele><time>2026-04-25T12:17:18.119Z</time></trkpt><trkpt lat="42.7149116" lon="12.3806925"><ele>562.0</ele><time>2026-04-25T12:17:19.099Z</time></trkpt><trkpt lat="42.7150192" lon="12.3805578"><ele>562.0</ele><time>2026-04-25T12:17:20.103Z</time></trkpt><trkpt lat="42.7151049" lon="12.3804379"><ele>562.0</ele><time>2026-04-25T12:17:21.111Z</time></trkpt><trkpt lat="42.7151843" lon="12.3803518"><ele>562.0</ele><time>2026-04-25T12:17:22.104Z</time></trkpt><trkpt lat="42.7152496" lon="12.3802729"><ele>561.0</ele><time>2026-04-25T12:17:23.108Z</time></trkpt><trkpt lat="42.7153194" lon="12.380196"><ele>560.0</ele><time>2026-04-25T12:17:24.123Z</time></trkpt><trkpt lat="42.7153882" lon="12.3801273"><ele>559.0</ele><time>2026-04-25T12:17:25.099Z</time></trkpt><trkpt lat="42.7154488" lon="12.380066"><ele>558.0</ele><time>2026-04-25T12:17:26.096Z</time></trkpt><trkpt lat="42.715531" lon="12.3799876"><ele>557.0</ele><time>2026-04-25T12:17:28.117Z</time></trkpt><trkpt lat="42.7155259" lon="12.3798862"><ele>556.0</ele><time>2026-04-25T12:19:05.1Z</time></trkpt><trkpt lat="42.7154462" lon="12.3798495"><ele>556.0</ele><time>2026-04-25T12:19:07.1Z</time></trkpt><trkpt lat="42.7153809" lon="12.3798503"><ele>556.0</ele><time>2026-04-25T12:19:08.104Z</time></trkpt><trkpt lat="42.7152912" lon="12.3798562"><ele>556.0</ele><time>2026-04-25T12:19:09.109Z</time></trkpt><trkpt lat="42.7151848" lon="12.3798611"><ele>556.0</ele><time>2026-04-25T12:19:10.09Z</time></trkpt><trkpt lat="42.7150664" lon="12.3798628"><ele>556.0</ele><time>2026-04-25T12:19:11.107Z</time></trkpt><trkpt lat="42.7149339" lon="12.3798578"><ele>555.25</ele><time>2026-04-25T12:19:12.108Z</time></trkpt><trkpt lat="42.7148073" lon="12.3798565"><ele>554.5</ele><time>2026-04-25T12:19:13.096Z</time></trkpt><trkpt lat="42.7146835" lon="12.3798592"><ele>553.75</ele><time>2026-04-25T12:19:14.108Z</time></trkpt><trkpt lat="42.714563" lon="12.3798606"><ele>553.0</ele><time>2026-04-25T12:19:15.094Z</time></trkpt><trkpt lat="42.7144458" lon="12.3798603"><ele>552.5</ele><time>2026-04-25T12:19:16.106Z</time></trkpt><trkpt lat="42.7143318" lon="12.3798641"><ele>552.0</ele><time>2026-04-25T12:19:17.097Z</time></trkpt><trkpt lat="42.7142172" lon="12.3798684"><ele>551.5</ele><time>2026-04-25T12:19:18.093Z</time></trkpt><trkpt lat="42.7141007" lon="12.3798801"><ele>551.0</ele><time>2026-04-25T12:19:19.1Z</time></trkpt><trkpt lat="42.713983" lon="12.3798902"><ele>551.0</ele><time>2026-04-25T12:19:20.11Z</time></trkpt><trkpt lat="42.7138626" lon="12.3798861"><ele>551.0</ele><time>2026-04-25T12:19:21.094Z</time></trkpt><trkpt lat="42.7137438" lon="12.3798469"><ele>551.0</ele><time>2026-04-25T12:19:22.107Z</time></trkpt><trkpt lat="42.7136328" lon="12.3797847"><ele>551.0</ele><time>2026-04-25T12:19:23.106Z</time></trkpt><trkpt lat="42.71352" lon="12.3796802"><ele>547.3333333333333</ele><time>2026-04-25T12:19:24.098Z</time></trkpt><trkpt lat="42.7134081" lon="12.3795462"><ele>543.6666666666666</ele><time>2026-04-25T12:19:25.098Z</time></trkpt><trkpt lat="42.7132915" lon="12.3793966"><ele>540.0</ele><time>2026-04-25T12:19:26.093Z</time></trkpt><trkpt lat="42.7131691" lon="12.3792512"><ele>540.0</ele><time>2026-04-25T12:19:27.099Z</time></trkpt><trkpt lat="42.7130408" lon="12.3791103"><ele>540.0</ele><time>2026-04-25T12:19:28.094Z</time></trkpt><trkpt lat="42.7129053" lon="12.3789694"><ele>540.0</ele><time>2026-04-25T12:19:29.098Z</time></trkpt><trkpt lat="42.7127531" lon="12.3788503"><ele>540.6666666666666</ele><time>2026-04-25T12:19:30.117Z</time></trkpt><trkpt lat="42.7125877" lon="12.3787643"><ele>541.3333333333333</ele><time>2026-04-25T12:19:31.11Z</time></trkpt><trkpt lat="42.7124158" lon="12.3786865"><ele>542.0</ele><time>2026-04-25T12:19:32.088Z</time></trkpt><trkpt lat="42.7122595" lon="12.3786181"><ele>542.0</ele><time>2026-04-25T12:19:33.101Z</time></trkpt><trkpt lat="42.712119" lon="12.3785564"><ele>542.0</ele><time>2026-04-25T12:19:34.105Z</time></trkpt><trkpt lat="42.7120009" lon="12.3784972"><ele>542.0</ele><time>2026-04-25T12:19:35.098Z</time></trkpt><trkpt lat="42.7118988" lon="12.3784467"><ele>542.0</ele><time>2026-04-25T12:19:36.105Z</time></trkpt><trkpt lat="42.7118089" lon="12.3784005"><ele>543.3333333333333</ele><time>2026-04-25T12:19:37.111Z</time></trkpt><trkpt lat="42.7117191" lon="12.378357"><ele>544.6666666666666</ele><time>2026-04-25T12:19:38.112Z</time></trkpt><trkpt lat="42.711628" lon="12.3783116"><ele>546.0</ele><time>2026-04-25T12:19:39.094Z</time></trkpt><trkpt lat="42.711544" lon="12.3782727"><ele>547.3333333333334</ele><time>2026-04-25T12:19:40.111Z</time></trkpt><trkpt lat="42.7114676" lon="12.3782434"><ele>548.6666666666667</ele><time>2026-04-25T12:19:41.143Z</time></trkpt><trkpt lat="42.711398" lon="12.3782127"><ele>550.0</ele><time>2026-04-25T12:19:42.117Z</time></trkpt><trkpt lat="42.7113306" lon="12.3781897"><ele>550.0</ele><time>2026-04-25T12:19:43.092Z</time></trkpt><trkpt lat="42.7112588" lon="12.3781784"><ele>550.0</ele><time>2026-04-25T12:19:44.111Z</time></trkpt><trkpt lat="42.7111778" lon="12.3781739"><ele>550.0</ele><time>2026-04-25T12:19:45.112Z</time></trkpt><trkpt lat="42.7110868" lon="12.3781776"><ele>550.0</ele><time>2026-04-25T12:19:46.1Z</time></trkpt><trkpt lat="42.7109854" lon="12.3781883"><ele>550.0</ele><time>2026-04-25T12:19:47.091Z</time></trkpt><trkpt lat="42.7108836" lon="12.3781954"><ele>550.0</ele><time>2026-04-25T12:19:48.1Z</time></trkpt><trkpt lat="42.7107896" lon="12.3781934"><ele>551.6</ele><time>2026-04-25T12:19:49.106Z</time></trkpt><trkpt lat="42.7106994" lon="12.3781837"><ele>553.2</ele><time>2026-04-25T12:19:50.102Z</time></trkpt><trkpt lat="42.7106066" lon="12.3781773"><ele>554.8</ele><time>2026-04-25T12:19:51.087Z</time></trkpt><trkpt lat="42.7105135" lon="12.3781708"><ele>556.4</ele><time>2026-04-25T12:19:52.098Z</time></trkpt><trkpt lat="42.7104122" lon="12.3781711"><ele>558.0</ele><time>2026-04-25T12:19:53.1Z</time></trkpt><trkpt lat="42.7103118" lon="12.3781804"><ele>559.8</ele><time>2026-04-25T12:19:54.088Z</time></trkpt><trkpt lat="42.7102139" lon="12.3781973"><ele>561.5999999999999</ele><time>2026-04-25T12:19:55.099Z</time></trkpt><trkpt lat="42.7101199" lon="12.3782278"><ele>563.4000000000001</ele><time>2026-04-25T12:19:56.111Z</time></trkpt><trkpt lat="42.710032" lon="12.3782731"><ele>565.2</ele><time>2026-04-25T12:19:57.098Z</time></trkpt><trkpt lat="42.7099452" lon="12.3783334"><ele>567.0</ele><time>2026-04-25T12:19:58.103Z</time></trkpt><trkpt lat="42.7098569" lon="12.3783846"><ele>567.0</ele><time>2026-04-25T12:19:59.115Z</time></trkpt><trkpt lat="42.709768" lon="12.3784211"><ele>567.0</ele><time>2026-04-25T12:20:00.097Z</time></trkpt><trkpt lat="42.709678" lon="12.3784536"><ele>567.0</ele><time>2026-04-25T12:20:01.104Z</time></trkpt><trkpt lat="42.7095842" lon="12.3784723"><ele>567.0</ele><time>2026-04-25T12:20:02.096Z</time></trkpt><trkpt lat="42.7094797" lon="12.3784732"><ele>567.0</ele><time>2026-04-25T12:20:03.089Z</time></trkpt><trkpt lat="42.7093685" lon="12.3784687"><ele>567.8000000000001</ele><time>2026-04-25T12:20:04.126Z</time></trkpt><trkpt lat="42.7092728" lon="12.3784553"><ele>568.6</ele><time>2026-04-25T12:20:05.116Z</time></trkpt><trkpt lat="42.7091868" lon="12.3784338"><ele>569.4000000000001</ele><time>2026-04-25T12:20:06.097Z</time></trkpt><trkpt lat="42.7091135" lon="12.3784021"><ele>570.2</ele><time>2026-04-25T12:20:07.115Z</time></trkpt><trkpt lat="42.7090193" lon="12.3783561"><ele>571.0</ele><time>2026-04-25T12:20:08.107Z</time></trkpt><trkpt lat="42.7089217" lon="12.3783063"><ele>571.0</ele><time>2026-04-25T12:20:09.101Z</time></trkpt><trkpt lat="42.7088484" lon="12.3782564"><ele>571.0</ele><time>2026-04-25T12:20:10.094Z</time></trkpt><trkpt lat="42.7087929" lon="12.3781972"><ele>571.0</ele><time>2026-04-25T12:20:11.101Z</time></trkpt><trkpt lat="42.7087582" lon="12.3781129"><ele>571.0</ele><time>2026-04-25T12:20:12.103Z</time></trkpt><trkpt lat="42.7087123" lon="12.3779898"><ele>571.0</ele><time>2026-04-25T12:20:13.105Z</time></trkpt><trkpt lat="42.7086574" lon="12.3778668"><ele>571.0</ele><time>2026-04-25T12:20:14.104Z</time></trkpt><trkpt lat="42.7086028" lon="12.377767"><ele>570.4285714285714</ele><time>2026-04-25T12:20:15.098Z</time></trkpt><trkpt lat="42.7085499" lon="12.3776828"><ele>569.8571428571429</ele><time>2026-04-25T12:20:16.11Z</time></trkpt><trkpt lat="42.7084962" lon="12.3776"><ele>569.2857142857142</ele><time>2026-04-25T12:20:17.095Z</time></trkpt><trkpt lat="42.7084442" lon="12.3775305"><ele>568.7142857142858</ele><time>2026-04-25T12:20:18.098Z</time></trkpt><trkpt lat="42.7083909" lon="12.3774696"><ele>568.1428571428571</ele><time>2026-04-25T12:20:19.125Z</time></trkpt><trkpt lat="42.708335" lon="12.3774164"><ele>567.5714285714286</ele><time>2026-04-25T12:20:20.107Z</time></trkpt><trkpt lat="42.7082726" lon="12.3773638"><ele>567.0</ele><time>2026-04-25T12:20:21.102Z</time></trkpt><trkpt lat="42.7082112" lon="12.3773231"><ele>567.0</ele><time>2026-04-25T12:20:22.107Z</time></trkpt><trkpt lat="42.7081436" lon="12.3772806"><ele>567.0</ele><time>2026-04-25T12:20:23.116Z</time></trkpt><trkpt lat="42.7080715" lon="12.3772242"><ele>567.0</ele><time>2026-04-25T12:20:24.097Z</time></trkpt><trkpt lat="42.7080003" lon="12.3771616"><ele>567.0</ele><time>2026-04-25T12:20:25.109Z</time></trkpt><trkpt lat="42.7079346" lon="12.3771017"><ele>567.0</ele><time>2026-04-25T12:20:26.094Z</time></trkpt><trkpt lat="42.7078719" lon="12.3770396"><ele>567.0</ele><time>2026-04-25T12:20:27.094Z</time></trkpt><trkpt lat="42.7078114" lon="12.3769887"><ele>566.1428571428571</ele><time>2026-04-25T12:20:28.112Z</time></trkpt><trkpt lat="42.7077454" lon="12.3769458"><ele>565.2857142857142</ele><time>2026-04-25T12:20:29.106Z</time></trkpt><trkpt lat="42.7076773" lon="12.3769079"><ele>564.4285714285714</ele><time>2026-04-25T12:20:30.09Z</time></trkpt><trkpt lat="42.7076175" lon="12.3768756"><ele>563.5714285714286</ele><time>2026-04-25T12:20:31.096Z</time></trkpt><trkpt lat="42.7075577" lon="12.3768436"><ele>562.7142857142857</ele><time>2026-04-25T12:20:32.09Z</time></trkpt><trkpt lat="42.7074951" lon="12.3767931"><ele>561.8571428571429</ele><time>2026-04-25T12:20:33.106Z</time></trkpt><trkpt lat="42.7074299" lon="12.3767325"><ele>561.0</ele><time>2026-04-25T12:20:34.105Z</time></trkpt><trkpt lat="42.7073594" lon="12.3766612"><ele>561.0</ele><time>2026-04-25T12:20:35.097Z</time></trkpt><trkpt lat="42.7072889" lon="12.3765894"><ele>561.0</ele><time>2026-04-25T12:20:36.101Z</time></trkpt><trkpt lat="42.7072225" lon="12.3765258"><ele>561.0</ele><time>2026-04-25T12:20:37.11Z</time></trkpt><trkpt lat="42.7071611" lon="12.3764552"><ele>561.0</ele><time>2026-04-25T12:20:38.128Z</time></trkpt><trkpt lat="42.7070993" lon="12.3763842"><ele>561.0</ele><time>2026-04-25T12:20:39.106Z</time></trkpt><trkpt lat="42.707035" lon="12.3763027"><ele>561.0</ele><time>2026-04-25T12:20:40.095Z</time></trkpt><trkpt lat="42.7069733" lon="12.376214"><ele>562.0</ele><time>2026-04-25T12:20:41.112Z</time></trkpt><trkpt lat="42.7069192" lon="12.3761317"><ele>563.0</ele><time>2026-04-25T12:20:42.124Z</time></trkpt><trkpt lat="42.7068674" lon="12.3760522"><ele>564.0</ele><time>2026-04-25T12:20:43.099Z</time></trkpt><trkpt lat="42.7068155" lon="12.3759736"><ele>565.0</ele><time>2026-04-25T12:20:44.09Z</time></trkpt><trkpt lat="42.7067665" lon="12.3758924"><ele>566.0</ele><time>2026-04-25T12:20:45.101Z</time></trkpt><trkpt lat="42.7067144" lon="12.3758172"><ele>567.0</ele><time>2026-04-25T12:20:46.109Z</time></trkpt><trkpt lat="42.7066654" lon="12.3757383"><ele>565.0</ele><time>2026-04-25T12:20:47.096Z</time></trkpt><trkpt lat="42.7066188" lon="12.3756451"><ele>563.0</ele><time>2026-04-25T12:20:48.094Z</time></trkpt><trkpt lat="42.7065685" lon="12.3755514"><ele>561.0</ele><time>2026-04-25T12:20:49.096Z</time></trkpt><trkpt lat="42.7065141" lon="12.3754523"><ele>559.0</ele><time>2026-04-25T12:20:50.117Z</time></trkpt><trkpt lat="42.7064613" lon="12.3753505"><ele>557.0</ele><time>2026-04-25T12:20:51.094Z</time></trkpt><trkpt lat="42.7064145" lon="12.3752353"><ele>555.0</ele><time>2026-04-25T12:20:52.104Z</time></trkpt><trkpt lat="42.706373" lon="12.3751211"><ele>555.0</ele><time>2026-04-25T12:20:53.111Z</time></trkpt><trkpt lat="42.7063317" lon="12.3750092"><ele>555.0</ele><time>2026-04-25T12:20:54.088Z</time></trkpt><trkpt lat="42.7062837" lon="12.3749092"><ele>555.0</ele><time>2026-04-25T12:20:55.12Z</time></trkpt><trkpt lat="42.7062435" lon="12.3748168"><ele>555.0</ele><time>2026-04-25T12:20:56.092Z</time></trkpt><trkpt lat="42.7061725" lon="12.3746698"><ele>555.0</ele><time>2026-04-25T12:20:58.118Z</time></trkpt><trkpt lat="42.7061352" lon="12.3745833"><ele>554.4285714285714</ele><time>2026-04-25T12:20:59.106Z</time></trkpt><trkpt lat="42.7060987" lon="12.3744915"><ele>553.8571428571429</ele><time>2026-04-25T12:21:00.095Z</time></trkpt><trkpt lat="42.7060605" lon="12.3744006"><ele>553.2857142857142</ele><time>2026-04-25T12:21:01.091Z</time></trkpt><trkpt lat="42.7060237" lon="12.3743233"><ele>552.7142857142858</ele><time>2026-04-25T12:21:02.104Z</time></trkpt><trkpt lat="42.7059894" lon="12.3742513"><ele>552.1428571428571</ele><time>2026-04-25T12:21:03.108Z</time></trkpt><trkpt lat="42.7059535" lon="12.3741724"><ele>551.5714285714286</ele><time>2026-04-25T12:21:04.099Z</time></trkpt><trkpt lat="42.705919" lon="12.3740933"><ele>551.0</ele><time>2026-04-25T12:21:05.113Z</time></trkpt><trkpt lat="42.7058991" lon="12.3740059"><ele>548.6666666666666</ele><time>2026-04-25T12:21:06.102Z</time></trkpt><trkpt lat="42.7058792" lon="12.373919"><ele>546.3333333333333</ele><time>2026-04-25T12:21:07.097Z</time></trkpt><trkpt lat="42.7058485" lon="12.3738337"><ele>544.0</ele><time>2026-04-25T12:21:08.108Z</time></trkpt><trkpt lat="42.7058055" lon="12.3737437"><ele>541.6666666666666</ele><time>2026-04-25T12:21:09.099Z</time></trkpt><trkpt lat="42.7057592" lon="12.3736717"><ele>539.3333333333334</ele><time>2026-04-25T12:21:10.099Z</time></trkpt><trkpt lat="42.7056544" lon="12.3735658"><ele>537.0</ele><time>2026-04-25T12:21:12.109Z</time></trkpt><trkpt lat="42.7055779" lon="12.3735049"><ele>536.3333333333334</ele><time>2026-04-25T12:21:13.089Z</time></trkpt><trkpt lat="42.7054959" lon="12.3734391"><ele>535.6666666666666</ele><time>2026-04-25T12:21:14.101Z</time></trkpt><trkpt lat="42.7054195" lon="12.3733753"><ele>535.0</ele><time>2026-04-25T12:21:15.087Z</time></trkpt><trkpt lat="42.7053463" lon="12.3733157"><ele>534.3333333333333</ele><time>2026-04-25T12:21:16.094Z</time></trkpt><trkpt lat="42.7052698" lon="12.3732772"><ele>533.6666666666666</ele><time>2026-04-25T12:21:17.12Z</time></trkpt><trkpt lat="42.7051988" lon="12.3732557"><ele>533.0</ele><time>2026-04-25T12:21:18.099Z</time></trkpt><trkpt lat="42.7051346" lon="12.3732366"><ele>531.4</ele><time>2026-04-25T12:21:19.088Z</time></trkpt><trkpt lat="42.7050724" lon="12.3732199"><ele>529.8</ele><time>2026-04-25T12:21:20.094Z</time></trkpt><trkpt lat="42.7049967" lon="12.3732016"><ele>528.2</ele><time>2026-04-25T12:21:21.093Z</time></trkpt><trkpt lat="42.7049089" lon="12.373183"><ele>526.6</ele><time>2026-04-25T12:21:22.107Z</time></trkpt><trkpt lat="42.7047959" lon="12.3731581"><ele>525.0</ele><time>2026-04-25T12:21:23.091Z</time></trkpt><trkpt lat="42.7046683" lon="12.3731325"><ele>525.0</ele><time>2026-04-25T12:21:24.087Z</time></trkpt><trkpt lat="42.7045276" lon="12.3731004"><ele>525.0</ele><time>2026-04-25T12:21:25.104Z</time></trkpt><trkpt lat="42.7043737" lon="12.3730693"><ele>525.0</ele><time>2026-04-25T12:21:26.093Z</time></trkpt><trkpt lat="42.7042124" lon="12.3730415"><ele>523.6666666666666</ele><time>2026-04-25T12:21:27.112Z</time></trkpt><trkpt lat="42.7040362" lon="12.3730177"><ele>522.3333333333333</ele><time>2026-04-25T12:21:28.107Z</time></trkpt><trkpt lat="42.7038523" lon="12.3729914"><ele>521.0</ele><time>2026-04-25T12:21:29.107Z</time></trkpt><trkpt lat="42.7036624" lon="12.3729608"><ele>521.6666666666666</ele><time>2026-04-25T12:21:30.111Z</time></trkpt><trkpt lat="42.7034686" lon="12.3729222"><ele>522.3333333333334</ele><time>2026-04-25T12:21:31.104Z</time></trkpt><trkpt lat="42.7032682" lon="12.3728817"><ele>523.0</ele><time>2026-04-25T12:21:32.087Z</time></trkpt><trkpt lat="42.7030695" lon="12.3728443"><ele>523.0</ele><time>2026-04-25T12:21:33.127Z</time></trkpt><trkpt lat="42.7028802" lon="12.3727993"><ele>523.0</ele><time>2026-04-25T12:21:34.1Z</time></trkpt><trkpt lat="42.7027071" lon="12.3727566"><ele>523.0</ele><time>2026-04-25T12:21:35.105Z</time></trkpt><trkpt lat="42.7025465" lon="12.3727154"><ele>523.6666666666667</ele><time>2026-04-25T12:21:36.104Z</time></trkpt><trkpt lat="42.7023925" lon="12.3726641"><ele>524.3333333333334</ele><time>2026-04-25T12:21:37.093Z</time></trkpt><trkpt lat="42.7022406" lon="12.3726105"><ele>525.0</ele><time>2026-04-25T12:21:38.121Z</time></trkpt><trkpt lat="42.7020841" lon="12.37256"><ele>525.0</ele><time>2026-04-25T12:21:39.099Z</time></trkpt><trkpt lat="42.7019282" lon="12.3725134"><ele>525.0</ele><time>2026-04-25T12:21:40.083Z</time></trkpt><trkpt lat="42.7017741" lon="12.3724707"><ele>525.0</ele><time>2026-04-25T12:21:41.122Z</time></trkpt><trkpt lat="42.7016147" lon="12.3724449"><ele>525.6666666666666</ele><time>2026-04-25T12:21:42.108Z</time></trkpt><trkpt lat="42.7014451" lon="12.3724426"><ele>526.3333333333333</ele><time>2026-04-25T12:21:43.116Z</time></trkpt><trkpt lat="42.7012714" lon="12.3724595"><ele>527.0</ele><time>2026-04-25T12:21:44.124Z</time></trkpt><trkpt lat="42.7010893" lon="12.3724759"><ele>528.0</ele><time>2026-04-25T12:21:45.116Z</time></trkpt><trkpt lat="42.7009152" lon="12.3724926"><ele>529.0</ele><time>2026-04-25T12:21:46.098Z</time></trkpt><trkpt lat="42.7007557" lon="12.3725052"><ele>530.0</ele><time>2026-04-25T12:21:47.105Z</time></trkpt><trkpt lat="42.7006067" lon="12.372521"><ele>530.0</ele><time>2026-04-25T12:21:48.116Z</time></trkpt><trkpt lat="42.7004749" lon="12.3725362"><ele>530.0</ele><time>2026-04-25T12:21:49.103Z</time></trkpt><trkpt lat="42.7003496" lon="12.3725497"><ele>530.0</ele><time>2026-04-25T12:21:50.098Z</time></trkpt><trkpt lat="42.7002252" lon="12.3725744"><ele>530.0</ele><time>2026-04-25T12:21:51.111Z</time></trkpt><trkpt lat="42.7001025" lon="12.3726271"><ele>530.0</ele><time>2026-04-25T12:21:52.121Z</time></trkpt><trkpt lat="42.6999822" lon="12.3727138"><ele>530.0</ele><time>2026-04-25T12:21:53.091Z</time></trkpt><trkpt lat="42.6998622" lon="12.3728376"><ele>530.0</ele><time>2026-04-25T12:21:54.108Z</time></trkpt><trkpt lat="42.6997499" lon="12.3729907"><ele>530.0</ele><time>2026-04-25T12:21:55.094Z</time></trkpt><trkpt lat="42.6996494" lon="12.3731749"><ele>530.0</ele><time>2026-04-25T12:21:56.099Z</time></trkpt><trkpt lat="42.699559" lon="12.3733657"><ele>530.0</ele><time>2026-04-25T12:21:57.11Z</time></trkpt><trkpt lat="42.6994722" lon="12.3735702"><ele>530.0</ele><time>2026-04-25T12:21:58.108Z</time></trkpt><trkpt lat="42.6993849" lon="12.3737696"><ele>532.6666666666666</ele><time>2026-04-25T12:21:59.102Z</time></trkpt><trkpt lat="42.6992963" lon="12.3739762"><ele>535.3333333333334</ele><time>2026-04-25T12:22:00.113Z</time></trkpt><trkpt lat="42.6992021" lon="12.3741721"><ele>538.0</ele><time>2026-04-25T12:22:01.101Z</time></trkpt><trkpt lat="42.699112" lon="12.3743518"><ele>538.0</ele><time>2026-04-25T12:22:02.096Z</time></trkpt><trkpt lat="42.6990274" lon="12.3745176"><ele>538.0</ele><time>2026-04-25T12:22:03.105Z</time></trkpt><trkpt lat="42.6989466" lon="12.3746695"><ele>538.0</ele><time>2026-04-25T12:22:04.114Z</time></trkpt><trkpt lat="42.6988704" lon="12.3748189"><ele>538.0</ele><time>2026-04-25T12:22:05.106Z</time></trkpt><trkpt lat="42.6987905" lon="12.3749716"><ele>536.3333333333334</ele><time>2026-04-25T12:22:06.096Z</time></trkpt><trkpt lat="42.6987033" lon="12.3751333"><ele>534.6666666666666</ele><time>2026-04-25T12:22:07.105Z</time></trkpt><trkpt lat="42.6986106" lon="12.3753007"><ele>533.0</ele><time>2026-04-25T12:22:08.095Z</time></trkpt><trkpt lat="42.6985123" lon="12.3754753"><ele>534.3333333333333</ele><time>2026-04-25T12:22:09.107Z</time></trkpt><trkpt lat="42.6984113" lon="12.3756647"><ele>535.6666666666666</ele><time>2026-04-25T12:22:10.106Z</time></trkpt><trkpt lat="42.6983028" lon="12.3758647"><ele>537.0</ele><time>2026-04-25T12:22:11.105Z</time></trkpt><trkpt lat="42.698184" lon="12.3760803"><ele>537.0</ele><time>2026-04-25T12:22:12.086Z</time></trkpt><trkpt lat="42.6980633" lon="12.3762957"><ele>537.0</ele><time>2026-04-25T12:22:13.109Z</time></trkpt><trkpt lat="42.6979493" lon="12.3764977"><ele>537.0</ele><time>2026-04-25T12:22:14.111Z</time></trkpt><trkpt lat="42.697836" lon="12.376678"><ele>537.0</ele><time>2026-04-25T12:22:15.098Z</time></trkpt><trkpt lat="42.6977103" lon="12.3768486"><ele>537.0</ele><time>2026-04-25T12:22:16.112Z</time></trkpt><trkpt lat="42.6975796" lon="12.3770008"><ele>537.0</ele><time>2026-04-25T12:22:17.1Z</time></trkpt><trkpt lat="42.6974272" lon="12.3771594"><ele>531.6666666666666</ele><time>2026-04-25T12:22:18.123Z</time></trkpt><trkpt lat="42.6972761" lon="12.3773175"><ele>526.3333333333333</ele><time>2026-04-25T12:22:19.116Z</time></trkpt><trkpt lat="42.6971351" lon="12.377466"><ele>521.0</ele><time>2026-04-25T12:22:20.092Z</time></trkpt><trkpt lat="42.6969862" lon="12.3776023"><ele>524.6666666666666</ele><time>2026-04-25T12:22:21.102Z</time></trkpt><trkpt lat="42.6968361" lon="12.3777215"><ele>528.3333333333334</ele><time>2026-04-25T12:22:22.122Z</time></trkpt><trkpt lat="42.6966865" lon="12.3778259"><ele>532.0</ele><time>2026-04-25T12:22:23.109Z</time></trkpt><trkpt lat="42.6965511" lon="12.3779366"><ele>529.0</ele><time>2026-04-25T12:22:24.091Z</time></trkpt><trkpt lat="42.6964304" lon="12.3780649"><ele>526.0</ele><time>2026-04-25T12:22:25.111Z</time></trkpt><trkpt lat="42.6963547" lon="12.3782295"><ele>523.0</ele><time>2026-04-25T12:22:26.106Z</time></trkpt><trkpt lat="42.6963233" lon="12.378426"><ele>520.0</ele><time>2026-04-25T12:22:27.116Z</time></trkpt><trkpt lat="42.6963248" lon="12.3786311"><ele>520.0</ele><time>2026-04-25T12:22:28.101Z</time></trkpt><trkpt lat="42.6963366" lon="12.3788484"><ele>520.0</ele><time>2026-04-25T12:22:29.109Z</time></trkpt><trkpt lat="42.6963415" lon="12.379056"><ele>520.0</ele><time>2026-04-25T12:22:30.104Z</time></trkpt><trkpt lat="42.6963302" lon="12.3792574"><ele>517.6666666666667</ele><time>2026-04-25T12:22:31.093Z</time></trkpt><trkpt lat="42.6962922" lon="12.3794529"><ele>515.3333333333334</ele><time>2026-04-25T12:22:32.113Z</time></trkpt><trkpt lat="42.6962383" lon="12.3796456"><ele>513.0</ele><time>2026-04-25T12:22:33.101Z</time></trkpt><trkpt lat="42.6961714" lon="12.3798345"><ele>513.25</ele><time>2026-04-25T12:22:34.107Z</time></trkpt><trkpt lat="42.6960882" lon="12.3800014"><ele>513.5</ele><time>2026-04-25T12:22:35.108Z</time></trkpt><trkpt lat="42.695992" lon="12.3801484"><ele>513.75</ele><time>2026-04-25T12:22:36.111Z</time></trkpt><trkpt lat="42.6958895" lon="12.3802854"><ele>514.0</ele><time>2026-04-25T12:22:37.101Z</time></trkpt><trkpt lat="42.6957894" lon="12.3804318"><ele>512.0</ele><time>2026-04-25T12:22:38.09Z</time></trkpt><trkpt lat="42.6956896" lon="12.3805823"><ele>510.0</ele><time>2026-04-25T12:22:39.104Z</time></trkpt><trkpt lat="42.6955918" lon="12.3807275"><ele>508.0</ele><time>2026-04-25T12:22:40.093Z</time></trkpt><trkpt lat="42.695496" lon="12.3808624"><ele>506.0</ele><time>2026-04-25T12:22:41.111Z</time></trkpt><trkpt lat="42.6954049" lon="12.3809857"><ele>506.0</ele><time>2026-04-25T12:22:42.106Z</time></trkpt><trkpt lat="42.6953192" lon="12.3810976"><ele>506.0</ele><time>2026-04-25T12:22:43.104Z</time></trkpt><trkpt lat="42.6952304" lon="12.3811958"><ele>506.0</ele><time>2026-04-25T12:22:44.1Z</time></trkpt><trkpt lat="42.695126" lon="12.3812627"><ele>506.0</ele><time>2026-04-25T12:22:45.1Z</time></trkpt><trkpt lat="42.6950156" lon="12.381292"><ele>505.8333333333333</ele><time>2026-04-25T12:22:46.099Z</time></trkpt><trkpt lat="42.6949111" lon="12.3812762"><ele>505.66666666666663</ele><time>2026-04-25T12:22:47.096Z</time></trkpt><trkpt lat="42.6948152" lon="12.3812361"><ele>505.5</ele><time>2026-04-25T12:22:48.104Z</time></trkpt><trkpt lat="42.6947376" lon="12.3811778"><ele>505.33333333333337</ele><time>2026-04-25T12:22:49.099Z</time></trkpt><trkpt lat="42.6946799" lon="12.3811383"><ele>505.1666666666667</ele><time>2026-04-25T12:22:50.105Z</time></trkpt><trkpt lat="42.6946146" lon="12.3811675"><ele>505.0</ele><time>2026-04-25T12:22:53.104Z</time></trkpt><trkpt lat="42.6946721" lon="12.381208"><ele>505.00000000000006</ele><time>2026-04-25T12:24:18.096Z</time></trkpt><trkpt lat="42.6946417" lon="12.3811025"><ele>505.0</ele><time>2026-04-25T12:24:21.104Z</time></trkpt><trkpt lat="42.6945569" lon="12.3810327"><ele>505.0</ele><time>2026-04-25T12:24:23.114Z</time></trkpt><trkpt lat="42.694501" lon="12.3809801"><ele>505.0</ele><time>2026-04-25T12:24:24.124Z</time></trkpt><trkpt lat="42.6944345" lon="12.3809012"><ele>505.00000000000006</ele><time>2026-04-25T12:24:25.1Z</time></trkpt><trkpt lat="42.6943603" lon="12.380819"><ele>505.0</ele><time>2026-04-25T12:24:26.093Z</time></trkpt><trkpt lat="42.6942758" lon="12.3807382"><ele>505.2</ele><time>2026-04-25T12:24:27.097Z</time></trkpt><trkpt lat="42.6941934" lon="12.380656"><ele>505.4</ele><time>2026-04-25T12:24:28.096Z</time></trkpt><trkpt lat="42.6941138" lon="12.3805778"><ele>505.6</ele><time>2026-04-25T12:24:29.099Z</time></trkpt><trkpt lat="42.6940294" lon="12.3804862"><ele>505.8</ele><time>2026-04-25T12:24:30.101Z</time></trkpt><trkpt lat="42.6939323" lon="12.3803912"><ele>506.0</ele><time>2026-04-25T12:24:31.102Z</time></trkpt><trkpt lat="42.6938371" lon="12.3802917"><ele>506.0</ele><time>2026-04-25T12:24:32.087Z</time></trkpt><trkpt lat="42.6937405" lon="12.3801964"><ele>506.0</ele><time>2026-04-25T12:24:33.105Z</time></trkpt><trkpt lat="42.6936417" lon="12.3801125"><ele>506.0</ele><time>2026-04-25T12:24:34.128Z</time></trkpt><trkpt lat="42.6935337" lon="12.3800344"><ele>506.0</ele><time>2026-04-25T12:24:35.096Z</time></trkpt><trkpt lat="42.6934152" lon="12.3799712"><ele>502.5</ele><time>2026-04-25T12:24:36.086Z</time></trkpt><trkpt lat="42.6932789" lon="12.379934"><ele>499.0</ele><time>2026-04-25T12:24:37.112Z</time></trkpt><trkpt lat="42.6931374" lon="12.3799113"><ele>495.5</ele><time>2026-04-25T12:24:38.113Z</time></trkpt><trkpt lat="42.6929793" lon="12.3799038"><ele>492.0</ele><time>2026-04-25T12:24:39.111Z</time></trkpt><trkpt lat="42.6928162" lon="12.379914"><ele>491.33333333333337</ele><time>2026-04-25T12:24:40.101Z</time></trkpt><trkpt lat="42.6926423" lon="12.3799226"><ele>490.6666666666667</ele><time>2026-04-25T12:24:41.096Z</time></trkpt><trkpt lat="42.6924641" lon="12.3799256"><ele>490.0</ele><time>2026-04-25T12:24:42.103Z</time></trkpt><trkpt lat="42.6922847" lon="12.3799237"><ele>490.0</ele><time>2026-04-25T12:24:43.099Z</time></trkpt><trkpt lat="42.6921029" lon="12.3799207"><ele>490.0</ele><time>2026-04-25T12:24:44.108Z</time></trkpt><trkpt lat="42.6919113" lon="12.3799183"><ele>490.0</ele><time>2026-04-25T12:24:45.113Z</time></trkpt><trkpt lat="42.6917118" lon="12.3799171"><ele>488.0</ele><time>2026-04-25T12:24:46.097Z</time></trkpt><trkpt lat="42.6915138" lon="12.3799136"><ele>486.0</ele><time>2026-04-25T12:24:47.096Z</time></trkpt><trkpt lat="42.6913186" lon="12.3799095"><ele>484.0</ele><time>2026-04-25T12:24:48.104Z</time></trkpt><trkpt lat="42.691128" lon="12.3799102"><ele>480.0</ele><time>2026-04-25T12:24:49.106Z</time></trkpt><trkpt lat="42.6909372" lon="12.3799098"><ele>476.0</ele><time>2026-04-25T12:24:50.089Z</time></trkpt><trkpt lat="42.6907485" lon="12.3799086"><ele>472.0</ele><time>2026-04-25T12:24:51.11Z</time></trkpt><trkpt lat="42.6905561" lon="12.3799121"><ele>472.0</ele><time>2026-04-25T12:24:52.112Z</time></trkpt><trkpt lat="42.6903652" lon="12.3799153"><ele>472.0</ele><time>2026-04-25T12:24:53.095Z</time></trkpt><trkpt lat="42.6901763" lon="12.3799176"><ele>472.0</ele><time>2026-04-25T12:24:54.111Z</time></trkpt><trkpt lat="42.689995" lon="12.37992"><ele>469.6666666666667</ele><time>2026-04-25T12:24:55.12Z</time></trkpt><trkpt lat="42.6898207" lon="12.3799329"><ele>467.33333333333337</ele><time>2026-04-25T12:24:56.099Z</time></trkpt><trkpt lat="42.689646" lon="12.3799569"><ele>465.0</ele><time>2026-04-25T12:24:57.102Z</time></trkpt><trkpt lat="42.6894685" lon="12.3799924"><ele>464.0</ele><time>2026-04-25T12:24:58.101Z</time></trkpt><trkpt lat="42.68928" lon="12.3800317"><ele>463.0</ele><time>2026-04-25T12:24:59.099Z</time></trkpt><trkpt lat="42.6890762" lon="12.380076"><ele>462.0</ele><time>2026-04-25T12:25:00.097Z</time></trkpt><trkpt lat="42.688865" lon="12.3801196"><ele>462.0</ele><time>2026-04-25T12:25:01.123Z</time></trkpt><trkpt lat="42.688653" lon="12.380164"><ele>462.0</ele><time>2026-04-25T12:25:02.097Z</time></trkpt><trkpt lat="42.6884395" lon="12.3802094"><ele>462.0</ele><time>2026-04-25T12:25:03.114Z</time></trkpt><trkpt lat="42.6882336" lon="12.3802605"><ele>460.66666666666663</ele><time>2026-04-25T12:25:04.104Z</time></trkpt><trkpt lat="42.6880331" lon="12.3803359"><ele>459.3333333333333</ele><time>2026-04-25T12:25:05.11Z</time></trkpt><trkpt lat="42.6878313" lon="12.3804343"><ele>458.0</ele><time>2026-04-25T12:25:06.117Z</time></trkpt><trkpt lat="42.6876212" lon="12.380553"><ele>455.5</ele><time>2026-04-25T12:25:07.091Z</time></trkpt><trkpt lat="42.6874056" lon="12.380683"><ele>453.0</ele><time>2026-04-25T12:25:08.106Z</time></trkpt><trkpt lat="42.6871906" lon="12.3808144"><ele>453.0</ele><time>2026-04-25T12:25:09.1Z</time></trkpt><trkpt lat="42.686983" lon="12.3809482"><ele>453.0</ele><time>2026-04-25T12:25:10.094Z</time></trkpt><trkpt lat="42.6867892" lon="12.3810771"><ele>453.0</ele><time>2026-04-25T12:25:11.103Z</time></trkpt><trkpt lat="42.6866047" lon="12.3811943"><ele>453.0</ele><time>2026-04-25T12:25:12.114Z</time></trkpt><trkpt lat="42.6864268" lon="12.3812998"><ele>453.0</ele><time>2026-04-25T12:25:13.103Z</time></trkpt><trkpt lat="42.6862496" lon="12.3813865"><ele>453.0</ele><time>2026-04-25T12:25:14.109Z</time></trkpt><trkpt lat="42.6860672" lon="12.3814517"><ele>452.66666666666663</ele><time>2026-04-25T12:25:15.093Z</time></trkpt><trkpt lat="42.6858773" lon="12.3814876"><ele>452.3333333333333</ele><time>2026-04-25T12:25:16.091Z</time></trkpt><trkpt lat="42.6856774" lon="12.3815041"><ele>452.0</ele><time>2026-04-25T12:25:17.102Z</time></trkpt><trkpt lat="42.6854678" lon="12.3815062"><ele>452.3333333333333</ele><time>2026-04-25T12:25:18.093Z</time></trkpt><trkpt lat="42.6852522" lon="12.3815066"><ele>452.66666666666663</ele><time>2026-04-25T12:25:19.135Z</time></trkpt><trkpt lat="42.6850271" lon="12.3815036"><ele>453.0</ele><time>2026-04-25T12:25:20.101Z</time></trkpt><trkpt lat="42.684807" lon="12.3815026"><ele>453.0</ele><time>2026-04-25T12:25:21.096Z</time></trkpt><trkpt lat="42.6846013" lon="12.38151"><ele>453.0</ele><time>2026-04-25T12:25:22.098Z</time></trkpt><trkpt lat="42.6844042" lon="12.381518"><ele>453.0</ele><time>2026-04-25T12:25:23.103Z</time></trkpt><trkpt lat="42.6842206" lon="12.3815237"><ele>452.0</ele><time>2026-04-25T12:25:24.097Z</time></trkpt><trkpt lat="42.6840521" lon="12.3815187"><ele>451.0</ele><time>2026-04-25T12:25:25.108Z</time></trkpt><trkpt lat="42.6838941" lon="12.3815"><ele>450.0</ele><time>2026-04-25T12:25:26.105Z</time></trkpt><trkpt lat="42.6837385" lon="12.3814664"><ele>449.33333333333337</ele><time>2026-04-25T12:25:27.092Z</time></trkpt><trkpt lat="42.6835811" lon="12.381405"><ele>448.6666666666667</ele><time>2026-04-25T12:25:28.118Z</time></trkpt><trkpt lat="42.6834301" lon="12.3813262"><ele>448.0</ele><time>2026-04-25T12:25:29.112Z</time></trkpt><trkpt lat="42.6832887" lon="12.3812456"><ele>448.0</ele><time>2026-04-25T12:25:30.101Z</time></trkpt><trkpt lat="42.6831476" lon="12.381173"><ele>448.0</ele><time>2026-04-25T12:25:31.096Z</time></trkpt><trkpt lat="42.6830113" lon="12.381098"><ele>448.0</ele><time>2026-04-25T12:25:32.11Z</time></trkpt><trkpt lat="42.6828787" lon="12.3810238"><ele>448.0</ele><time>2026-04-25T12:25:33.116Z</time></trkpt><trkpt lat="42.6827521" lon="12.3809549"><ele>446.25</ele><time>2026-04-25T12:25:34.114Z</time></trkpt><trkpt lat="42.6826242" lon="12.3808838"><ele>444.5</ele><time>2026-04-25T12:25:35.099Z</time></trkpt><trkpt lat="42.6824902" lon="12.3808098"><ele>442.75</ele><time>2026-04-25T12:25:36.116Z</time></trkpt><trkpt lat="42.6823375" lon="12.3807458"><ele>441.0</ele><time>2026-04-25T12:25:37.097Z</time></trkpt><trkpt lat="42.6821715" lon="12.3806964"><ele>441.0</ele><time>2026-04-25T12:25:38.114Z</time></trkpt><trkpt lat="42.6819991" lon="12.38068"><ele>441.0</ele><time>2026-04-25T12:25:39.111Z</time></trkpt><trkpt lat="42.6818204" lon="12.3806913"><ele>441.0</ele><time>2026-04-25T12:25:40.11Z</time></trkpt><trkpt lat="42.6816369" lon="12.3807233"><ele>439.0</ele><time>2026-04-25T12:25:41.099Z</time></trkpt><trkpt lat="42.6814484" lon="12.380755"><ele>437.0</ele><time>2026-04-25T12:25:42.113Z</time></trkpt><trkpt lat="42.6812456" lon="12.3807736"><ele>435.0</ele><time>2026-04-25T12:25:43.106Z</time></trkpt><trkpt lat="42.6810369" lon="12.380797"><ele>433.66666666666663</ele><time>2026-04-25T12:25:44.125Z</time></trkpt><trkpt lat="42.6808176" lon="12.3808239"><ele>432.3333333333333</ele><time>2026-04-25T12:25:45.107Z</time></trkpt><trkpt lat="42.6805898" lon="12.3808476"><ele>431.0</ele><time>2026-04-25T12:25:46.094Z</time></trkpt><trkpt lat="42.6803492" lon="12.3808715"><ele>430.0</ele><time>2026-04-25T12:25:47.107Z</time></trkpt><trkpt lat="42.6800975" lon="12.3808952"><ele>429.0</ele><time>2026-04-25T12:25:48.108Z</time></trkpt><trkpt lat="42.6798285" lon="12.380924"><ele>429.0</ele><time>2026-04-25T12:25:49.117Z</time></trkpt><trkpt lat="42.6795403" lon="12.3809533"><ele>429.0</ele><time>2026-04-25T12:25:50.106Z</time></trkpt><trkpt lat="42.6792329" lon="12.3809856"><ele>429.5</ele><time>2026-04-25T12:25:51.09Z</time></trkpt><trkpt lat="42.6789135" lon="12.3810233"><ele>430.0</ele><time>2026-04-25T12:25:52.116Z</time></trkpt><trkpt lat="42.6786041" lon="12.3810574"><ele>429.0</ele><time>2026-04-25T12:25:53.108Z</time></trkpt><trkpt lat="42.678318" lon="12.3810916"><ele>428.0</ele><time>2026-04-25T12:25:54.101Z</time></trkpt><trkpt lat="42.6780501" lon="12.3811258"><ele>428.0</ele><time>2026-04-25T12:25:55.105Z</time></trkpt><trkpt lat="42.6777962" lon="12.3811509"><ele>428.0</ele><time>2026-04-25T12:25:56.115Z</time></trkpt><trkpt lat="42.6775555" lon="12.3811712"><ele>427.0</ele><time>2026-04-25T12:25:57.094Z</time></trkpt><trkpt lat="42.6773251" lon="12.3811912"><ele>426.0</ele><time>2026-04-25T12:25:58.111Z</time></trkpt><trkpt lat="42.6771076" lon="12.3812046"><ele>425.0</ele><time>2026-04-25T12:25:59.11Z</time></trkpt><trkpt lat="42.6768908" lon="12.3812091"><ele>425.0</ele><time>2026-04-25T12:26:00.1Z</time></trkpt><trkpt lat="42.6766662" lon="12.3812144"><ele>425.0</ele><time>2026-04-25T12:26:01.097Z</time></trkpt><trkpt lat="42.6764317" lon="12.381223"><ele>425.0</ele><time>2026-04-25T12:26:02.083Z</time></trkpt><trkpt lat="42.6761823" lon="12.3812522"><ele>425.0</ele><time>2026-04-25T12:26:03.105Z</time></trkpt><trkpt lat="42.6759207" lon="12.3813037"><ele>426.0</ele><time>2026-04-25T12:26:04.108Z</time></trkpt><trkpt lat="42.6756545" lon="12.3813606"><ele>427.0</ele><time>2026-04-25T12:26:05.091Z</time></trkpt><trkpt lat="42.6753973" lon="12.38141"><ele>426.5</ele><time>2026-04-25T12:26:06.097Z</time></trkpt><trkpt lat="42.6751564" lon="12.3814459"><ele>426.0</ele><time>2026-04-25T12:26:07.094Z</time></trkpt><trkpt lat="42.6749228" lon="12.381477"><ele>426.0</ele><time>2026-04-25T12:26:08.1Z</time></trkpt><trkpt lat="42.6747041" lon="12.3815106"><ele>426.0</ele><time>2026-04-25T12:26:09.108Z</time></trkpt><trkpt lat="42.6744957" lon="12.3815418"><ele>426.0</ele><time>2026-04-25T12:26:10.097Z</time></trkpt><trkpt lat="42.6742808" lon="12.3815587"><ele>424.5</ele><time>2026-04-25T12:26:11.1Z</time></trkpt><trkpt lat="42.6740533" lon="12.3815491"><ele>423.0</ele><time>2026-04-25T12:26:12.137Z</time></trkpt><trkpt lat="42.6738168" lon="12.3815308"><ele>421.5</ele><time>2026-04-25T12:26:13.098Z</time></trkpt><trkpt lat="42.6735817" lon="12.3815127"><ele>420.0</ele><time>2026-04-25T12:26:14.091Z</time></trkpt><trkpt lat="42.6733576" lon="12.3814958"><ele>420.0</ele><time>2026-04-25T12:26:15.111Z</time></trkpt><trkpt lat="42.6731369" lon="12.3815004"><ele>420.0</ele><time>2026-04-25T12:26:16.096Z</time></trkpt><trkpt lat="42.6729235" lon="12.3815257"><ele>420.0</ele><time>2026-04-25T12:26:17.111Z</time></trkpt><trkpt lat="42.6727101" lon="12.3815603"><ele>421.0</ele><time>2026-04-25T12:26:18.11Z</time></trkpt><trkpt lat="42.6724879" lon="12.3816019"><ele>422.0</ele><time>2026-04-25T12:26:19.106Z</time></trkpt><trkpt lat="42.6722576" lon="12.3816483"><ele>422.0</ele><time>2026-04-25T12:26:20.115Z</time></trkpt><trkpt lat="42.6720288" lon="12.3816941"><ele>422.0</ele><time>2026-04-25T12:26:21.101Z</time></trkpt><trkpt lat="42.671814" lon="12.3817351"><ele>422.0</ele><time>2026-04-25T12:26:22.107Z</time></trkpt><trkpt lat="42.671613" lon="12.3817744"><ele>423.0</ele><time>2026-04-25T12:26:23.099Z</time></trkpt><trkpt lat="42.671424" lon="12.3818241"><ele>424.0</ele><time>2026-04-25T12:26:24.12Z</time></trkpt><trkpt lat="42.6712345" lon="12.3818934"><ele>425.0</ele><time>2026-04-25T12:26:25.114Z</time></trkpt><trkpt lat="42.6710455" lon="12.3819971"><ele>426.0</ele><time>2026-04-25T12:26:26.094Z</time></trkpt><trkpt lat="42.6708625" lon="12.3821147"><ele>427.0</ele><time>2026-04-25T12:26:27.087Z</time></trkpt><trkpt lat="42.6706914" lon="12.3822307"><ele>428.0</ele><time>2026-04-25T12:26:28.105Z</time></trkpt><trkpt lat="42.6705249" lon="12.3823489"><ele>426.0</ele><time>2026-04-25T12:26:29.104Z</time></trkpt><trkpt lat="42.670375" lon="12.3824946"><ele>424.0</ele><time>2026-04-25T12:26:30.117Z</time></trkpt><trkpt lat="42.6702322" lon="12.3826992"><ele>422.0</ele><time>2026-04-25T12:26:31.096Z</time></trkpt><trkpt lat="42.6700858" lon="12.382938"><ele>419.0</ele><time>2026-04-25T12:26:32.104Z</time></trkpt><trkpt lat="42.6699287" lon="12.3831968"><ele>416.0</ele><time>2026-04-25T12:26:33.115Z</time></trkpt><trkpt lat="42.669769" lon="12.38346"><ele>416.0</ele><time>2026-04-25T12:26:34.101Z</time></trkpt><trkpt lat="42.6696132" lon="12.383707"><ele>416.0</ele><time>2026-04-25T12:26:35.088Z</time></trkpt><trkpt lat="42.6694684" lon="12.3839378"><ele>415.3333333333333</ele><time>2026-04-25T12:26:36.105Z</time></trkpt><trkpt lat="42.669338" lon="12.3841487"><ele>414.66666666666663</ele><time>2026-04-25T12:26:37.132Z</time></trkpt><trkpt lat="42.6692102" lon="12.3843453"><ele>414.0</ele><time>2026-04-25T12:26:38.113Z</time></trkpt><trkpt lat="42.6690797" lon="12.384531"><ele>413.0</ele><time>2026-04-25T12:26:39.092Z</time></trkpt><trkpt lat="42.6689497" lon="12.3847033"><ele>412.0</ele><time>2026-04-25T12:26:40.111Z</time></trkpt><trkpt lat="42.6688015" lon="12.3848562"><ele>411.0</ele><time>2026-04-25T12:26:41.099Z</time></trkpt><trkpt lat="42.6686215" lon="12.3849762"><ele>412.0</ele><time>2026-04-25T12:26:42.087Z</time></trkpt><trkpt lat="42.6684233" lon="12.3850813"><ele>413.0</ele><time>2026-04-25T12:26:43.105Z</time></trkpt><trkpt lat="42.6682241" lon="12.3851829"><ele>414.0</ele><time>2026-04-25T12:26:44.113Z</time></trkpt><trkpt lat="42.6680439" lon="12.385271"><ele>414.0</ele><time>2026-04-25T12:26:45.107Z</time></trkpt><trkpt lat="42.6678821" lon="12.3853404"><ele>414.0</ele><time>2026-04-25T12:26:46.116Z</time></trkpt><trkpt lat="42.6677342" lon="12.3853715"><ele>414.0</ele><time>2026-04-25T12:26:47.101Z</time></trkpt><trkpt lat="42.6675819" lon="12.3853435"><ele>413.66666666666663</ele><time>2026-04-25T12:26:48.099Z</time></trkpt><trkpt lat="42.6674151" lon="12.3852637"><ele>413.3333333333333</ele><time>2026-04-25T12:26:49.106Z</time></trkpt><trkpt lat="42.667252" lon="12.3851765"><ele>413.0</ele><time>2026-04-25T12:26:50.11Z</time></trkpt><trkpt lat="42.6671027" lon="12.3850915"><ele>413.0</ele><time>2026-04-25T12:26:51.101Z</time></trkpt><trkpt lat="42.6669625" lon="12.3850072"><ele>413.0</ele><time>2026-04-25T12:26:52.106Z</time></trkpt><trkpt lat="42.666829" lon="12.3848942"><ele>413.0</ele><time>2026-04-25T12:26:53.089Z</time></trkpt><trkpt lat="42.666718" lon="12.3847524"><ele>413.3333333333333</ele><time>2026-04-25T12:26:54.113Z</time></trkpt><trkpt lat="42.6666114" lon="12.384605"><ele>413.66666666666663</ele><time>2026-04-25T12:26:55.103Z</time></trkpt><trkpt lat="42.6664962" lon="12.3844486"><ele>414.0</ele><time>2026-04-25T12:26:56.098Z</time></trkpt><trkpt lat="42.6663851" lon="12.3842966"><ele>414.0</ele><time>2026-04-25T12:26:57.092Z</time></trkpt><trkpt lat="42.66627" lon="12.3841483"><ele>414.0</ele><time>2026-04-25T12:26:58.103Z</time></trkpt><trkpt lat="42.6661588" lon="12.3840144"><ele>414.0</ele><time>2026-04-25T12:26:59.108Z</time></trkpt><trkpt lat="42.6660564" lon="12.3838842"><ele>414.0</ele><time>2026-04-25T12:27:00.098Z</time></trkpt><trkpt lat="42.6659494" lon="12.383757"><ele>413.0</ele><time>2026-04-25T12:27:01.098Z</time></trkpt><trkpt lat="42.66583" lon="12.3836293"><ele>412.0</ele><time>2026-04-25T12:27:02.105Z</time></trkpt><trkpt lat="42.6657118" lon="12.3834972"><ele>411.0</ele><time>2026-04-25T12:27:03.103Z</time></trkpt><trkpt lat="42.6655994" lon="12.3833689"><ele>411.0</ele><time>2026-04-25T12:27:04.115Z</time></trkpt><trkpt lat="42.6654865" lon="12.383245"><ele>411.0</ele><time>2026-04-25T12:27:05.096Z</time></trkpt><trkpt lat="42.6653785" lon="12.3831232"><ele>411.0</ele><time>2026-04-25T12:27:06.09Z</time></trkpt><trkpt lat="42.6652741" lon="12.3830033"><ele>411.0</ele><time>2026-04-25T12:27:07.089Z</time></trkpt><trkpt lat="42.6651751" lon="12.3828854"><ele>407.75</ele><time>2026-04-25T12:27:08.101Z</time></trkpt><trkpt lat="42.6650781" lon="12.3827845"><ele>404.5</ele><time>2026-04-25T12:27:09.114Z</time></trkpt><trkpt lat="42.66497" lon="12.3827211"><ele>401.25</ele><time>2026-04-25T12:27:10.094Z</time></trkpt><trkpt lat="42.6648572" lon="12.3827187"><ele>398.0</ele><time>2026-04-25T12:27:11.108Z</time></trkpt><trkpt lat="42.6647395" lon="12.3827477"><ele>398.0</ele><time>2026-04-25T12:27:12.107Z</time></trkpt><trkpt lat="42.6646239" lon="12.3828289"><ele>398.0</ele><time>2026-04-25T12:27:13.088Z</time></trkpt><trkpt lat="42.6645181" lon="12.3829358"><ele>398.0</ele><time>2026-04-25T12:27:14.097Z</time></trkpt><trkpt lat="42.6644183" lon="12.3830377"><ele>398.0</ele><time>2026-04-25T12:27:15.105Z</time></trkpt><trkpt lat="42.6643221" lon="12.3831374"><ele>396.25</ele><time>2026-04-25T12:27:16.108Z</time></trkpt><trkpt lat="42.6642267" lon="12.3832292"><ele>394.5</ele><time>2026-04-25T12:27:17.092Z</time></trkpt><trkpt lat="42.6641216" lon="12.3833004"><ele>392.75</ele><time>2026-04-25T12:27:18.095Z</time></trkpt><trkpt lat="42.6640105" lon="12.3833347"><ele>391.0</ele><time>2026-04-25T12:27:19.107Z</time></trkpt><trkpt lat="42.6638888" lon="12.3833337"><ele>391.0</ele><time>2026-04-25T12:27:20.091Z</time></trkpt><trkpt lat="42.6637721" lon="12.3832894"><ele>391.0</ele><time>2026-04-25T12:27:21.12Z</time></trkpt><trkpt lat="42.6636548" lon="12.3832212"><ele>391.0</ele><time>2026-04-25T12:27:22.095Z</time></trkpt><trkpt lat="42.6635375" lon="12.3831358"><ele>391.0</ele><time>2026-04-25T12:27:23.108Z</time></trkpt><trkpt lat="42.6634274" lon="12.383043"><ele>387.25</ele><time>2026-04-25T12:27:24.092Z</time></trkpt><trkpt lat="42.6633172" lon="12.3829512"><ele>383.5</ele><time>2026-04-25T12:27:25.119Z</time></trkpt><trkpt lat="42.6632012" lon="12.3828625"><ele>379.75</ele><time>2026-04-25T12:27:26.103Z</time></trkpt><trkpt lat="42.6630894" lon="12.3827757"><ele>376.0</ele><time>2026-04-25T12:27:27.102Z</time></trkpt><trkpt lat="42.662986" lon="12.3826916"><ele>376.0</ele><time>2026-04-25T12:27:28.109Z</time></trkpt><trkpt lat="42.6628881" lon="12.3826052"><ele>376.0</ele><time>2026-04-25T12:27:29.098Z</time></trkpt><trkpt lat="42.662791" lon="12.3825228"><ele>376.0</ele><time>2026-04-25T12:27:30.09Z</time></trkpt><trkpt lat="42.6626932" lon="12.3824553"><ele>376.0</ele><time>2026-04-25T12:27:31.103Z</time></trkpt><trkpt lat="42.6625918" lon="12.382408"><ele>376.0</ele><time>2026-04-25T12:27:32.107Z</time></trkpt><trkpt lat="42.6624814" lon="12.3823754"><ele>374.75</ele><time>2026-04-25T12:27:33.12Z</time></trkpt><trkpt lat="42.662366" lon="12.3823634"><ele>373.5</ele><time>2026-04-25T12:27:34.103Z</time></trkpt><trkpt lat="42.6622484" lon="12.3823706"><ele>372.25</ele><time>2026-04-25T12:27:35.088Z</time></trkpt><trkpt lat="42.6621313" lon="12.3823942"><ele>371.0</ele><time>2026-04-25T12:27:36.104Z</time></trkpt><trkpt lat="42.6620155" lon="12.3824143"><ele>369.75</ele><time>2026-04-25T12:27:37.113Z</time></trkpt><trkpt lat="42.661896" lon="12.3824352"><ele>368.5</ele><time>2026-04-25T12:27:38.088Z</time></trkpt><trkpt lat="42.6617719" lon="12.3824584"><ele>367.25</ele><time>2026-04-25T12:27:39.107Z</time></trkpt><trkpt lat="42.6616364" lon="12.3824806"><ele>366.0</ele><time>2026-04-25T12:27:40.118Z</time></trkpt><trkpt lat="42.6614923" lon="12.3825094"><ele>366.0</ele><time>2026-04-25T12:27:41.102Z</time></trkpt><trkpt lat="42.6613477" lon="12.382539"><ele>366.0</ele><time>2026-04-25T12:27:42.106Z</time></trkpt><trkpt lat="42.6612069" lon="12.3825684"><ele>366.0</ele><time>2026-04-25T12:27:43.105Z</time></trkpt><trkpt lat="42.6610705" lon="12.3825926"><ele>366.0</ele><time>2026-04-25T12:27:44.088Z</time></trkpt><trkpt lat="42.6609422" lon="12.3826175"><ele>365.4</ele><time>2026-04-25T12:27:45.112Z</time></trkpt><trkpt lat="42.6608191" lon="12.3826404"><ele>364.8</ele><time>2026-04-25T12:27:46.12Z</time></trkpt><trkpt lat="42.6607029" lon="12.3826618"><ele>364.2</ele><time>2026-04-25T12:27:47.109Z</time></trkpt><trkpt lat="42.6606002" lon="12.3826834"><ele>363.59999999999997</ele><time>2026-04-25T12:27:48.093Z</time></trkpt><trkpt lat="42.6605116" lon="12.3826919"><ele>363.0</ele><time>2026-04-25T12:27:49.097Z</time></trkpt><trkpt lat="42.6604429" lon="12.3826848"><ele>363.0</ele><time>2026-04-25T12:27:50.099Z</time></trkpt><trkpt lat="42.6603861" lon="12.3826472"><ele>363.0</ele><time>2026-04-25T12:27:52.11Z</time></trkpt><trkpt lat="42.660313" lon="12.3825648"><ele>363.0</ele><time>2026-04-25T12:28:21.13Z</time></trkpt><trkpt lat="42.6602299" lon="12.3824468"><ele>363.0</ele><time>2026-04-25T12:28:23.104Z</time></trkpt><trkpt lat="42.6602038" lon="12.38236"><ele>363.0</ele><time>2026-04-25T12:28:24.096Z</time></trkpt><trkpt lat="42.6601853" lon="12.3822095"><ele>362.59999999999997</ele><time>2026-04-25T12:28:26.103Z</time></trkpt><trkpt lat="42.6601693" lon="12.3820848"><ele>362.2</ele><time>2026-04-25T12:28:28.11Z</time></trkpt><trkpt lat="42.6601798" lon="12.3819081"><ele>361.8</ele><time>2026-04-25T12:28:30.124Z</time></trkpt><trkpt lat="42.6601989" lon="12.3817928"><ele>361.4</ele><time>2026-04-25T12:28:31.093Z</time></trkpt><trkpt lat="42.6602328" lon="12.381655"><ele>361.0</ele><time>2026-04-25T12:28:32.119Z</time></trkpt><trkpt lat="42.6602772" lon="12.3814998"><ele>361.25</ele><time>2026-04-25T12:28:33.124Z</time></trkpt><trkpt lat="42.6603253" lon="12.3813465"><ele>361.5</ele><time>2026-04-25T12:28:34.09Z</time></trkpt><trkpt lat="42.6603742" lon="12.3811777"><ele>361.75</ele><time>2026-04-25T12:28:35.109Z</time></trkpt><trkpt lat="42.6604275" lon="12.3809967"><ele>362.0</ele><time>2026-04-25T12:28:36.119Z</time></trkpt><trkpt lat="42.6604849" lon="12.3808049"><ele>362.0</ele><time>2026-04-25T12:28:37.106Z</time></trkpt><trkpt lat="42.6605466" lon="12.3806067"><ele>362.0</ele><time>2026-04-25T12:28:38.108Z</time></trkpt><trkpt lat="42.6606139" lon="12.380398"><ele>362.0</ele><time>2026-04-25T12:28:39.099Z</time></trkpt><trkpt lat="42.6606827" lon="12.3801841"><ele>363.6666666666667</ele><time>2026-04-25T12:28:40.104Z</time></trkpt><trkpt lat="42.6607534" lon="12.3799716"><ele>365.3333333333333</ele><time>2026-04-25T12:28:41.115Z</time></trkpt><trkpt lat="42.6608181" lon="12.3797546"><ele>367.0</ele><time>2026-04-25T12:28:42.118Z</time></trkpt><trkpt lat="42.6608648" lon="12.3795264"><ele>369.3333333333333</ele><time>2026-04-25T12:28:43.104Z</time></trkpt><trkpt lat="42.6608928" lon="12.3792959"><ele>371.6666666666667</ele><time>2026-04-25T12:28:44.099Z</time></trkpt><trkpt lat="42.6609125" lon="12.3790645"><ele>374.0</ele><time>2026-04-25T12:28:45.105Z</time></trkpt><trkpt lat="42.6609337" lon="12.378843"><ele>376.0</ele><time>2026-04-25T12:28:46.093Z</time></trkpt><trkpt lat="42.6609562" lon="12.3786472"><ele>378.0</ele><time>2026-04-25T12:28:47.117Z</time></trkpt><trkpt lat="42.6609566" lon="12.3784601"><ele>380.0</ele><time>2026-04-25T12:28:48.104Z</time></trkpt><trkpt lat="42.660936" lon="12.3782798"><ele>382.0</ele><time>2026-04-25T12:28:49.118Z</time></trkpt><trkpt lat="42.6609039" lon="12.3781053"><ele>383.6</ele><time>2026-04-25T12:28:50.101Z</time></trkpt><trkpt lat="42.6608641" lon="12.3779339"><ele>385.20000000000005</ele><time>2026-04-25T12:28:51.099Z</time></trkpt><trkpt lat="42.6608244" lon="12.3777721"><ele>386.8</ele><time>2026-04-25T12:28:52.097Z</time></trkpt><trkpt lat="42.6607964" lon="12.3776379"><ele>388.4</ele><time>2026-04-25T12:28:53.099Z</time></trkpt><trkpt lat="42.6607838" lon="12.3775215"><ele>390.0</ele><time>2026-04-25T12:28:54.108Z</time></trkpt><trkpt lat="42.6607896" lon="12.377406"><ele>390.0</ele><time>2026-04-25T12:28:55.09Z</time></trkpt><trkpt lat="42.6608117" lon="12.3772878"><ele>390.0</ele><time>2026-04-25T12:28:56.104Z</time></trkpt><trkpt lat="42.6608421" lon="12.3771621"><ele>390.0</ele><time>2026-04-25T12:28:57.104Z</time></trkpt><trkpt lat="42.6608845" lon="12.3770305"><ele>390.0</ele><time>2026-04-25T12:28:58.102Z</time></trkpt><trkpt lat="42.6609425" lon="12.3768949"><ele>390.0</ele><time>2026-04-25T12:28:59.111Z</time></trkpt><trkpt lat="42.6610139" lon="12.3767594"><ele>390.6</ele><time>2026-04-25T12:29:00.118Z</time></trkpt><trkpt lat="42.6610803" lon="12.3766362"><ele>391.2</ele><time>2026-04-25T12:29:01.118Z</time></trkpt><trkpt lat="42.6611528" lon="12.3765269"><ele>391.79999999999995</ele><time>2026-04-25T12:29:02.102Z</time></trkpt><trkpt lat="42.6612398" lon="12.3764419"><ele>392.4</ele><time>2026-04-25T12:29:03.127Z</time></trkpt><trkpt lat="42.6613481" lon="12.3763858"><ele>393.0</ele><time>2026-04-25T12:29:04.099Z</time></trkpt><trkpt lat="42.6614788" lon="12.3763628"><ele>393.75</ele><time>2026-04-25T12:29:05.103Z</time></trkpt><trkpt lat="42.6616296" lon="12.3763415"><ele>394.5</ele><time>2026-04-25T12:29:06.11Z</time></trkpt><trkpt lat="42.6617547" lon="12.3763244"><ele>395.25</ele><time>2026-04-25T12:29:07.119Z</time></trkpt><trkpt lat="42.661867" lon="12.3763014"><ele>396.0</ele><time>2026-04-25T12:29:08.097Z</time></trkpt><trkpt lat="42.6619617" lon="12.3762336"><ele>396.0</ele><time>2026-04-25T12:29:09.102Z</time></trkpt><trkpt lat="42.6620597" lon="12.3761224"><ele>396.0</ele><time>2026-04-25T12:29:10.106Z</time></trkpt><trkpt lat="42.662141" lon="12.3759924"><ele>396.0</ele><time>2026-04-25T12:29:11.099Z</time></trkpt><trkpt lat="42.6622157" lon="12.3758779"><ele>396.0</ele><time>2026-04-25T12:29:12.122Z</time></trkpt><trkpt lat="42.6622817" lon="12.3757802"><ele>396.0</ele><time>2026-04-25T12:29:13.09Z</time></trkpt><trkpt lat="42.6623397" lon="12.3756955"><ele>396.0</ele><time>2026-04-25T12:29:14.124Z</time></trkpt><trkpt lat="42.6623906" lon="12.3756083"><ele>396.0</ele><time>2026-04-25T12:29:15.102Z</time></trkpt><trkpt lat="42.6624347" lon="12.3755179"><ele>396.0</ele><time>2026-04-25T12:29:16.104Z</time></trkpt><trkpt lat="42.6624753" lon="12.3754181"><ele>396.0</ele><time>2026-04-25T12:29:17.103Z</time></trkpt><trkpt lat="42.6625139" lon="12.3752965"><ele>396.0</ele><time>2026-04-25T12:29:18.121Z</time></trkpt><trkpt lat="42.662568" lon="12.3751436"><ele>396.0</ele><time>2026-04-25T12:29:19.101Z</time></trkpt><trkpt lat="42.6626471" lon="12.3749587"><ele>396.0</ele><time>2026-04-25T12:29:20.094Z</time></trkpt><trkpt lat="42.6627373" lon="12.3747516"><ele>396.0</ele><time>2026-04-25T12:29:21.095Z</time></trkpt><trkpt lat="42.6628517" lon="12.3745244"><ele>396.0</ele><time>2026-04-25T12:29:22.099Z</time></trkpt><trkpt lat="42.6630013" lon="12.3742978"><ele>396.0</ele><time>2026-04-25T12:29:23.115Z</time></trkpt><trkpt lat="42.6631522" lon="12.3740705"><ele>396.0</ele><time>2026-04-25T12:29:24.117Z</time></trkpt><trkpt lat="42.663291" lon="12.3738282"><ele>396.0</ele><time>2026-04-25T12:29:25.13Z</time></trkpt><trkpt lat="42.6633951" lon="12.3735917"><ele>396.0</ele><time>2026-04-25T12:29:26.118Z</time></trkpt><trkpt lat="42.6634788" lon="12.3733736"><ele>396.0</ele><time>2026-04-25T12:29:27.094Z</time></trkpt><trkpt lat="42.6635488" lon="12.3731749"><ele>397.75</ele><time>2026-04-25T12:29:28.101Z</time></trkpt><trkpt lat="42.6636153" lon="12.3729995"><ele>399.5</ele><time>2026-04-25T12:29:29.09Z</time></trkpt><trkpt lat="42.6636929" lon="12.3728543"><ele>401.25</ele><time>2026-04-25T12:29:30.101Z</time></trkpt><trkpt lat="42.6637736" lon="12.3727108"><ele>403.0</ele><time>2026-04-25T12:29:31.105Z</time></trkpt><trkpt lat="42.663863" lon="12.3725774"><ele>403.0</ele><time>2026-04-25T12:29:32.103Z</time></trkpt><trkpt lat="42.6639585" lon="12.3724413"><ele>403.0</ele><time>2026-04-25T12:29:33.104Z</time></trkpt><trkpt lat="42.6640588" lon="12.3722941"><ele>403.0</ele><time>2026-04-25T12:29:34.101Z</time></trkpt><trkpt lat="42.6641503" lon="12.3721236"><ele>403.0</ele><time>2026-04-25T12:29:35.105Z</time></trkpt><trkpt lat="42.6642335" lon="12.3719327"><ele>402.6666666666667</ele><time>2026-04-25T12:29:36.109Z</time></trkpt><trkpt lat="42.6643182" lon="12.3717119"><ele>402.33333333333337</ele><time>2026-04-25T12:29:37.112Z</time></trkpt><trkpt lat="42.664403" lon="12.3714717"><ele>402.0</ele><time>2026-04-25T12:29:38.104Z</time></trkpt><trkpt lat="42.6644853" lon="12.3712255"><ele>404.0</ele><time>2026-04-25T12:29:39.091Z</time></trkpt><trkpt lat="42.6645589" lon="12.3709611"><ele>406.0</ele><time>2026-04-25T12:29:40.097Z</time></trkpt><trkpt lat="42.6646235" lon="12.3707059"><ele>408.0</ele><time>2026-04-25T12:29:41.104Z</time></trkpt><trkpt lat="42.6646847" lon="12.3704754"><ele>409.0</ele><time>2026-04-25T12:29:42.114Z</time></trkpt><trkpt lat="42.6647478" lon="12.3702707"><ele>410.0</ele><time>2026-04-25T12:29:43.104Z</time></trkpt><trkpt lat="42.664806" lon="12.3700798"><ele>411.0</ele><time>2026-04-25T12:29:44.098Z</time></trkpt><trkpt lat="42.6648438" lon="12.3698666"><ele>411.33333333333337</ele><time>2026-04-25T12:29:45.097Z</time></trkpt><trkpt lat="42.6648583" lon="12.3696291"><ele>411.6666666666667</ele><time>2026-04-25T12:29:46.091Z</time></trkpt><trkpt lat="42.6648542" lon="12.3693958"><ele>412.0</ele><time>2026-04-25T12:29:47.102Z</time></trkpt><trkpt lat="42.6648514" lon="12.3691703"><ele>412.0</ele><time>2026-04-25T12:29:48.103Z</time></trkpt><trkpt lat="42.6648587" lon="12.3689686"><ele>412.0</ele><time>2026-04-25T12:29:49.118Z</time></trkpt><trkpt lat="42.6648735" lon="12.3688127"><ele>412.0</ele><time>2026-04-25T12:29:50.103Z</time></trkpt><trkpt lat="42.664891" lon="12.3686834"><ele>412.0</ele><time>2026-04-25T12:29:51.106Z</time></trkpt><trkpt lat="42.6649042" lon="12.3685905"><ele>412.0</ele><time>2026-04-25T12:29:52.12Z</time></trkpt><trkpt lat="42.6649145" lon="12.3684151"><ele>411.83333333333337</ele><time>2026-04-25T12:29:54.103Z</time></trkpt><trkpt lat="42.6649285" lon="12.3683125"><ele>411.6666666666667</ele><time>2026-04-25T12:29:55.099Z</time></trkpt><trkpt lat="42.6649504" lon="12.3681999"><ele>411.5</ele><time>2026-04-25T12:29:56.103Z</time></trkpt><trkpt lat="42.6649726" lon="12.3680829"><ele>411.33333333333337</ele><time>2026-04-25T12:29:57.103Z</time></trkpt><trkpt lat="42.6649915" lon="12.3679722"><ele>411.1666666666667</ele><time>2026-04-25T12:29:58.12Z</time></trkpt><trkpt lat="42.6650094" lon="12.3678742"><ele>411.0</ele><time>2026-04-25T12:29:59.101Z</time></trkpt><trkpt lat="42.6650301" lon="12.367776"><ele>412.0</ele><time>2026-04-25T12:30:00.103Z</time></trkpt><trkpt lat="42.6650596" lon="12.3676718"><ele>413.0</ele><time>2026-04-25T12:30:01.103Z</time></trkpt><trkpt lat="42.6650944" lon="12.3675493"><ele>414.0</ele><time>2026-04-25T12:30:02.122Z</time></trkpt><trkpt lat="42.6651332" lon="12.3674129"><ele>415.0</ele><time>2026-04-25T12:30:03.12Z</time></trkpt><trkpt lat="42.6651827" lon="12.3672635"><ele>416.0</ele><time>2026-04-25T12:30:04.098Z</time></trkpt><trkpt lat="42.6652412" lon="12.3671163"><ele>416.25</ele><time>2026-04-25T12:30:05.098Z</time></trkpt><trkpt lat="42.6653058" lon="12.3669661"><ele>416.5</ele><time>2026-04-25T12:30:06.116Z</time></trkpt><trkpt lat="42.665373" lon="12.3668146"><ele>416.75</ele><time>2026-04-25T12:30:07.111Z</time></trkpt><trkpt lat="42.6654134" lon="12.3666744"><ele>417.0</ele><time>2026-04-25T12:30:08.117Z</time></trkpt><trkpt lat="42.6654247" lon="12.366539"><ele>417.0</ele><time>2026-04-25T12:30:09.112Z</time></trkpt><trkpt lat="42.665435" lon="12.3663999"><ele>417.0</ele><time>2026-04-25T12:30:10.095Z</time></trkpt><trkpt lat="42.6654562" lon="12.366254"><ele>417.0</ele><time>2026-04-25T12:30:11.1Z</time></trkpt><trkpt lat="42.6654946" lon="12.3661053"><ele>417.0</ele><time>2026-04-25T12:30:12.106Z</time></trkpt><trkpt lat="42.665546" lon="12.3659494"><ele>417.5</ele><time>2026-04-25T12:30:13.113Z</time></trkpt><trkpt lat="42.6655948" lon="12.3658088"><ele>418.0</ele><time>2026-04-25T12:30:14.097Z</time></trkpt><trkpt lat="42.6656315" lon="12.3656746"><ele>418.5</ele><time>2026-04-25T12:30:15.106Z</time></trkpt><trkpt lat="42.6656673" lon="12.3655238"><ele>419.0</ele><time>2026-04-25T12:30:16.105Z</time></trkpt><trkpt lat="42.6656929" lon="12.3653496"><ele>419.0</ele><time>2026-04-25T12:30:17.103Z</time></trkpt><trkpt lat="42.6657157" lon="12.3651596"><ele>419.0</ele><time>2026-04-25T12:30:18.1Z</time></trkpt><trkpt lat="42.6657558" lon="12.3649746"><ele>419.0</ele><time>2026-04-25T12:30:19.11Z</time></trkpt><trkpt lat="42.6657911" lon="12.3648082"><ele>419.0</ele><time>2026-04-25T12:30:20.105Z</time></trkpt><trkpt lat="42.6658207" lon="12.3646578"><ele>418.6</ele><time>2026-04-25T12:30:21.106Z</time></trkpt><trkpt lat="42.6658509" lon="12.3645151"><ele>418.2</ele><time>2026-04-25T12:30:22.101Z</time></trkpt><trkpt lat="42.6658887" lon="12.3643822"><ele>417.8</ele><time>2026-04-25T12:30:23.125Z</time></trkpt><trkpt lat="42.665934" lon="12.3642595"><ele>417.40000000000003</ele><time>2026-04-25T12:30:24.117Z</time></trkpt><trkpt lat="42.6659884" lon="12.3641307"><ele>417.0</ele><time>2026-04-25T12:30:25.103Z</time></trkpt><trkpt lat="42.6660683" lon="12.3639933"><ele>417.0</ele><time>2026-04-25T12:30:26.101Z</time></trkpt><trkpt lat="42.6661556" lon="12.3638499"><ele>417.0</ele><time>2026-04-25T12:30:27.104Z</time></trkpt><trkpt lat="42.6662528" lon="12.3637057"><ele>417.0</ele><time>2026-04-25T12:30:28.099Z</time></trkpt><trkpt lat="42.6663545" lon="12.363558"><ele>417.0</ele><time>2026-04-25T12:30:29.105Z</time></trkpt><trkpt lat="42.666458" lon="12.3634055"><ele>417.0</ele><time>2026-04-25T12:30:30.108Z</time></trkpt><trkpt lat="42.6665549" lon="12.3632691"><ele>417.0</ele><time>2026-04-25T12:30:31.097Z</time></trkpt><trkpt lat="42.6666391" lon="12.3631372"><ele>417.0</ele><time>2026-04-25T12:30:32.1Z</time></trkpt><trkpt lat="42.6667281" lon="12.3630105"><ele>417.0</ele><time>2026-04-25T12:30:33.118Z</time></trkpt><trkpt lat="42.666818" lon="12.3628969"><ele>416.5</ele><time>2026-04-25T12:30:34.1Z</time></trkpt><trkpt lat="42.6669141" lon="12.3627923"><ele>416.0</ele><time>2026-04-25T12:30:35.118Z</time></trkpt><trkpt lat="42.667027" lon="12.3626836"><ele>415.5</ele><time>2026-04-25T12:30:36.105Z</time></trkpt><trkpt lat="42.6671493" lon="12.3625638"><ele>415.0</ele><time>2026-04-25T12:30:37.109Z</time></trkpt><trkpt lat="42.6672611" lon="12.3624567"><ele>415.00000000000006</ele><time>2026-04-25T12:30:38.127Z</time></trkpt><trkpt lat="42.6673513" lon="12.3623669"><ele>415.0</ele><time>2026-04-25T12:30:39.109Z</time></trkpt><trkpt lat="42.6674226" lon="12.3622936"><ele>415.0</ele><time>2026-04-25T12:30:40.094Z</time></trkpt><trkpt lat="42.6674783" lon="12.3622183"><ele>415.0</ele><time>2026-04-25T12:30:41.105Z</time></trkpt><trkpt lat="42.6675334" lon="12.3621434"><ele>415.00000000000006</ele><time>2026-04-25T12:30:42.113Z</time></trkpt><trkpt lat="42.6675906" lon="12.3620697"><ele>415.0</ele><time>2026-04-25T12:30:43.091Z</time></trkpt><trkpt lat="42.6676389" lon="12.3619974"><ele>415.0</ele><time>2026-04-25T12:30:44.12Z</time></trkpt><trkpt lat="42.6676865" lon="12.3619258"><ele>415.0</ele><time>2026-04-25T12:30:45.119Z</time></trkpt><trkpt lat="42.6677264" lon="12.3618563"><ele>415.0</ele><time>2026-04-25T12:30:46.093Z</time></trkpt><trkpt lat="42.6677989" lon="12.3617155"><ele>415.0</ele><time>2026-04-25T12:30:48.114Z</time></trkpt><trkpt lat="42.6678632" lon="12.3615532"><ele>415.0</ele><time>2026-04-25T12:30:50.102Z</time></trkpt><trkpt lat="42.6678795" lon="12.361444"><ele>414.4</ele><time>2026-04-25T12:30:51.098Z</time></trkpt><trkpt lat="42.6678942" lon="12.3613205"><ele>413.8</ele><time>2026-04-25T12:30:52.133Z</time></trkpt><trkpt lat="42.6679035" lon="12.361181"><ele>413.20000000000005</ele><time>2026-04-25T12:30:53.102Z</time></trkpt><trkpt lat="42.6679175" lon="12.3610198"><ele>412.6</ele><time>2026-04-25T12:30:54.098Z</time></trkpt><trkpt lat="42.6679298" lon="12.3608554"><ele>412.0</ele><time>2026-04-25T12:30:55.099Z</time></trkpt><trkpt lat="42.6679366" lon="12.3606961"><ele>412.0</ele><time>2026-04-25T12:30:56.1Z</time></trkpt><trkpt lat="42.6679466" lon="12.3605468"><ele>412.0</ele><time>2026-04-25T12:30:57.097Z</time></trkpt><trkpt lat="42.6679543" lon="12.3604029"><ele>412.0</ele><time>2026-04-25T12:30:58.1Z</time></trkpt><trkpt lat="42.6679566" lon="12.3602669"><ele>412.0</ele><time>2026-04-25T12:30:59.1Z</time></trkpt><trkpt lat="42.6679543" lon="12.360142"><ele>412.0</ele><time>2026-04-25T12:31:00.101Z</time></trkpt><trkpt lat="42.6679451" lon="12.3600239"><ele>412.1666666666667</ele><time>2026-04-25T12:31:01.095Z</time></trkpt><trkpt lat="42.6679214" lon="12.3599187"><ele>412.33333333333337</ele><time>2026-04-25T12:31:02.098Z</time></trkpt><trkpt lat="42.6678922" lon="12.3598279"><ele>412.5</ele><time>2026-04-25T12:31:03.102Z</time></trkpt><trkpt lat="42.6678647" lon="12.3597346"><ele>412.66666666666663</ele><time>2026-04-25T12:31:04.113Z</time></trkpt><trkpt lat="42.6678295" lon="12.359626"><ele>412.8333333333333</ele><time>2026-04-25T12:31:05.102Z</time></trkpt><trkpt lat="42.6677894" lon="12.3595166"><ele>413.0</ele><time>2026-04-25T12:31:06.119Z</time></trkpt><trkpt lat="42.6677496" lon="12.3594157"><ele>412.4</ele><time>2026-04-25T12:31:07.109Z</time></trkpt><trkpt lat="42.6677024" lon="12.359314"><ele>411.79999999999995</ele><time>2026-04-25T12:31:08.126Z</time></trkpt><trkpt lat="42.6676552" lon="12.359202"><ele>411.2</ele><time>2026-04-25T12:31:09.112Z</time></trkpt><trkpt lat="42.6676021" lon="12.3591006"><ele>410.6</ele><time>2026-04-25T12:31:10.108Z</time></trkpt><trkpt lat="42.6675506" lon="12.3590026"><ele>410.0</ele><time>2026-04-25T12:31:11.108Z</time></trkpt><trkpt lat="42.667495" lon="12.3589113"><ele>411.0</ele><time>2026-04-25T12:31:12.102Z</time></trkpt><trkpt lat="42.6674278" lon="12.3588338"><ele>412.0</ele><time>2026-04-25T12:31:13.103Z</time></trkpt><trkpt lat="42.6673417" lon="12.3587638"><ele>413.0</ele><time>2026-04-25T12:31:14.109Z</time></trkpt><trkpt lat="42.6672425" lon="12.3587017"><ele>414.0</ele><time>2026-04-25T12:31:15.113Z</time></trkpt><trkpt lat="42.6671311" lon="12.3586606"><ele>415.0</ele><time>2026-04-25T12:31:16.098Z</time></trkpt><trkpt lat="42.6670188" lon="12.3586482"><ele>416.6</ele><time>2026-04-25T12:31:17.102Z</time></trkpt><trkpt lat="42.6669017" lon="12.3586368"><ele>418.2</ele><time>2026-04-25T12:31:18.094Z</time></trkpt><trkpt lat="42.6667859" lon="12.358625"><ele>419.79999999999995</ele><time>2026-04-25T12:31:19.112Z</time></trkpt><trkpt lat="42.6666787" lon="12.3586033"><ele>421.4</ele><time>2026-04-25T12:31:20.111Z</time></trkpt><trkpt lat="42.6665749" lon="12.3585867"><ele>423.0</ele><time>2026-04-25T12:31:21.092Z</time></trkpt><trkpt lat="42.6664705" lon="12.358567"><ele>423.0</ele><time>2026-04-25T12:31:22.119Z</time></trkpt><trkpt lat="42.6663638" lon="12.3585467"><ele>423.0</ele><time>2026-04-25T12:31:23.117Z</time></trkpt><trkpt lat="42.6662495" lon="12.3585261"><ele>423.0</ele><time>2026-04-25T12:31:24.105Z</time></trkpt><trkpt lat="42.6661317" lon="12.3585055"><ele>423.0</ele><time>2026-04-25T12:31:25.103Z</time></trkpt><trkpt lat="42.6660109" lon="12.3584839"><ele>425.0</ele><time>2026-04-25T12:31:26.11Z</time></trkpt><trkpt lat="42.6658949" lon="12.3584529"><ele>427.0</ele><time>2026-04-25T12:31:27.096Z</time></trkpt><trkpt lat="42.6657898" lon="12.3584112"><ele>429.0</ele><time>2026-04-25T12:31:28.1Z</time></trkpt><trkpt lat="42.6656852" lon="12.3583514"><ele>431.0</ele><time>2026-04-25T12:31:29.1Z</time></trkpt><trkpt lat="42.6655715" lon="12.3582775"><ele>431.0</ele><time>2026-04-25T12:31:30.101Z</time></trkpt><trkpt lat="42.6654494" lon="12.3582117"><ele>431.0</ele><time>2026-04-25T12:31:31.109Z</time></trkpt><trkpt lat="42.6653305" lon="12.3581408"><ele>431.0</ele><time>2026-04-25T12:31:32.103Z</time></trkpt><trkpt lat="42.6652147" lon="12.3580713"><ele>431.0</ele><time>2026-04-25T12:31:33.099Z</time></trkpt><trkpt lat="42.6651034" lon="12.3580004"><ele>434.75</ele><time>2026-04-25T12:31:34.112Z</time></trkpt><trkpt lat="42.6650072" lon="12.3579099"><ele>438.5</ele><time>2026-04-25T12:31:35.119Z</time></trkpt><trkpt lat="42.6649149" lon="12.3577848"><ele>442.25</ele><time>2026-04-25T12:31:36.097Z</time></trkpt><trkpt lat="42.6648231" lon="12.3576372"><ele>446.0</ele><time>2026-04-25T12:31:37.1Z</time></trkpt><trkpt lat="42.6647332" lon="12.3574859"><ele>446.0</ele><time>2026-04-25T12:31:38.1Z</time></trkpt><trkpt lat="42.6646515" lon="12.3573559"><ele>446.0</ele><time>2026-04-25T12:31:39.096Z</time></trkpt><trkpt lat="42.664574" lon="12.3572351"><ele>446.0</ele><time>2026-04-25T12:31:40.118Z</time></trkpt><trkpt lat="42.6645055" lon="12.3571187"><ele>446.0</ele><time>2026-04-25T12:31:41.11Z</time></trkpt><trkpt lat="42.6644405" lon="12.3570087"><ele>445.6</ele><time>2026-04-25T12:31:42.106Z</time></trkpt><trkpt lat="42.66438" lon="12.356894"><ele>445.20000000000005</ele><time>2026-04-25T12:31:43.112Z</time></trkpt><trkpt lat="42.6643277" lon="12.356767"><ele>444.79999999999995</ele><time>2026-04-25T12:31:44.115Z</time></trkpt><trkpt lat="42.6642836" lon="12.3566351"><ele>444.4</ele><time>2026-04-25T12:31:45.141Z</time></trkpt><trkpt lat="42.664242" lon="12.3564976"><ele>444.0</ele><time>2026-04-25T12:31:46.098Z</time></trkpt><trkpt lat="42.6642038" lon="12.3563541"><ele>446.75</ele><time>2026-04-25T12:31:47.1Z</time></trkpt><trkpt lat="42.6641633" lon="12.3561971"><ele>449.5</ele><time>2026-04-25T12:31:48.108Z</time></trkpt><trkpt lat="42.6641149" lon="12.356042"><ele>452.25</ele><time>2026-04-25T12:31:49.096Z</time></trkpt><trkpt lat="42.6640464" lon="12.3558945"><ele>455.0</ele><time>2026-04-25T12:31:50.11Z</time></trkpt><trkpt lat="42.6639694" lon="12.3557387"><ele>455.0</ele><time>2026-04-25T12:31:51.116Z</time></trkpt><trkpt lat="42.6638766" lon="12.3555626"><ele>455.0</ele><time>2026-04-25T12:31:52.118Z</time></trkpt><trkpt lat="42.6637744" lon="12.3553775"><ele>455.0</ele><time>2026-04-25T12:31:53.102Z</time></trkpt><trkpt lat="42.6636766" lon="12.3551972"><ele>456.3333333333333</ele><time>2026-04-25T12:31:54.1Z</time></trkpt><trkpt lat="42.6635773" lon="12.3550233"><ele>457.66666666666663</ele><time>2026-04-25T12:31:55.111Z</time></trkpt><trkpt lat="42.6634701" lon="12.3548601"><ele>459.0</ele><time>2026-04-25T12:31:56.096Z</time></trkpt><trkpt lat="42.6633559" lon="12.3547032"><ele>464.0</ele><time>2026-04-25T12:31:57.113Z</time></trkpt><trkpt lat="42.6632524" lon="12.3545574"><ele>469.0</ele><time>2026-04-25T12:31:58.114Z</time></trkpt><trkpt lat="42.663162" lon="12.3544216"><ele>474.0</ele><time>2026-04-25T12:31:59.162Z</time></trkpt><trkpt lat="42.6630766" lon="12.3542981"><ele>479.0</ele><time>2026-04-25T12:32:00.138Z</time></trkpt><trkpt lat="42.6629802" lon="12.3541848"><ele>479.0</ele><time>2026-04-25T12:32:01.129Z</time></trkpt><trkpt lat="42.6628742" lon="12.3540925"><ele>479.0</ele><time>2026-04-25T12:32:02.105Z</time></trkpt><trkpt lat="42.6627627" lon="12.3540079"><ele>479.0</ele><time>2026-04-25T12:32:03.128Z</time></trkpt><trkpt lat="42.6626536" lon="12.3539349"><ele>479.0</ele><time>2026-04-25T12:32:04.089Z</time></trkpt><trkpt lat="42.6625445" lon="12.3538542"><ele>484.25</ele><time>2026-04-25T12:32:05.15Z</time></trkpt><trkpt lat="42.6624305" lon="12.3537868"><ele>489.5</ele><time>2026-04-25T12:32:06.132Z</time></trkpt><trkpt lat="42.6623102" lon="12.3537399"><ele>494.75</ele><time>2026-04-25T12:32:07.117Z</time></trkpt><trkpt lat="42.6621887" lon="12.3536857"><ele>500.0</ele><time>2026-04-25T12:32:08.111Z</time></trkpt><trkpt lat="42.6620708" lon="12.3536275"><ele>500.0</ele><time>2026-04-25T12:32:09.1Z</time></trkpt><trkpt lat="42.6619589" lon="12.3535693"><ele>500.0</ele><time>2026-04-25T12:32:10.125Z</time></trkpt><trkpt lat="42.6618534" lon="12.3535189"><ele>500.0</ele><time>2026-04-25T12:32:11.14Z</time></trkpt><trkpt lat="42.661764" lon="12.3534904"><ele>500.0</ele><time>2026-04-25T12:32:12.102Z</time></trkpt><trkpt lat="42.6616757" lon="12.3534952"><ele>500.0</ele><time>2026-04-25T12:32:13.109Z</time></trkpt><trkpt lat="42.6615798" lon="12.3535353"><ele>499.49999999999994</ele><time>2026-04-25T12:32:14.126Z</time></trkpt><trkpt lat="42.6614876" lon="12.3535741"><ele>499.0</ele><time>2026-04-25T12:32:15.13Z</time></trkpt><trkpt lat="42.6614223" lon="12.3536029"><ele>498.5</ele><time>2026-04-25T12:32:16.128Z</time></trkpt><trkpt lat="42.6613265" lon="12.3536624"><ele>498.0</ele><time>2026-04-25T12:32:18.14Z</time></trkpt><trkpt lat="42.661298" lon="12.3537486"><ele>497.49999999999994</ele><time>2026-04-25T12:32:21.1Z</time></trkpt><trkpt lat="42.6613352" lon="12.3538201"><ele>497.0</ele><time>2026-04-25T12:32:23.143Z</time></trkpt><trkpt lat="42.6613772" lon="12.3539044"><ele>497.0</ele><time>2026-04-25T12:32:25.131Z</time></trkpt><trkpt lat="42.6613998" lon="12.3539962"><ele>497.00000000000006</ele><time>2026-04-25T12:32:27.117Z</time></trkpt><trkpt lat="42.6613843" lon="12.3538664"><ele>497.00000000000006</ele><time>2026-04-25T12:33:02.089Z</time></trkpt><trkpt lat="42.6613277" lon="12.3537489"><ele>497.0</ele><time>2026-04-25T12:33:04.089Z</time></trkpt><trkpt lat="42.6612626" lon="12.3536619"><ele>497.0</ele><time>2026-04-25T12:33:06.087Z</time></trkpt><trkpt lat="42.6611536" lon="12.3535901"><ele>497.99999999999994</ele><time>2026-04-25T12:33:08.116Z</time></trkpt><trkpt lat="42.661092" lon="12.3535392"><ele>499.0</ele><time>2026-04-25T12:33:09.097Z</time></trkpt><trkpt lat="42.6610297" lon="12.3534789"><ele>500.0</ele><time>2026-04-25T12:33:10.093Z</time></trkpt><trkpt lat="42.6609536" lon="12.3534013"><ele>501.0</ele><time>2026-04-25T12:33:11.095Z</time></trkpt><trkpt lat="42.6608739" lon="12.3533172"><ele>501.99999999999994</ele><time>2026-04-25T12:33:12.126Z</time></trkpt><trkpt lat="42.6607948" lon="12.3532295"><ele>503.0</ele><time>2026-04-25T12:33:13.105Z</time></trkpt><trkpt lat="42.6607212" lon="12.3531423"><ele>503.0</ele><time>2026-04-25T12:33:14.097Z</time></trkpt><trkpt lat="42.6606539" lon="12.353054"><ele>502.99999999999994</ele><time>2026-04-25T12:33:15.083Z</time></trkpt><trkpt lat="42.6605873" lon="12.3529654"><ele>502.99999999999994</ele><time>2026-04-25T12:33:16.109Z</time></trkpt><trkpt lat="42.6605148" lon="12.3528739"><ele>503.0</ele><time>2026-04-25T12:33:17.094Z</time></trkpt><trkpt lat="42.6604174" lon="12.352781"><ele>503.0</ele><time>2026-04-25T12:33:18.126Z</time></trkpt><trkpt lat="42.6603164" lon="12.3526868"><ele>504.5</ele><time>2026-04-25T12:33:19.094Z</time></trkpt><trkpt lat="42.6602214" lon="12.3525898"><ele>506.0</ele><time>2026-04-25T12:33:20.087Z</time></trkpt><trkpt lat="42.6601334" lon="12.3524888"><ele>507.5</ele><time>2026-04-25T12:33:21.11Z</time></trkpt><trkpt lat="42.660049" lon="12.3523745"><ele>509.0</ele><time>2026-04-25T12:33:22.095Z</time></trkpt><trkpt lat="42.6599823" lon="12.3522501"><ele>512.0</ele><time>2026-04-25T12:33:23.109Z</time></trkpt><trkpt lat="42.6599218" lon="12.3521183"><ele>515.0</ele><time>2026-04-25T12:33:24.095Z</time></trkpt><trkpt lat="42.6598682" lon="12.3519894"><ele>518.0</ele><time>2026-04-25T12:33:25.109Z</time></trkpt><trkpt lat="42.6598172" lon="12.3518688"><ele>521.0</ele><time>2026-04-25T12:33:26.117Z</time></trkpt><trkpt lat="42.6597871" lon="12.3517343"><ele>524.0</ele><time>2026-04-25T12:33:27.099Z</time></trkpt><trkpt lat="42.6597889" lon="12.3515706"><ele>524.0</ele><time>2026-04-25T12:33:28.118Z</time></trkpt><trkpt lat="42.659792" lon="12.3513906"><ele>524.0</ele><time>2026-04-25T12:33:29.116Z</time></trkpt><trkpt lat="42.6597806" lon="12.3512017"><ele>524.0</ele><time>2026-04-25T12:33:30.093Z</time></trkpt><trkpt lat="42.6597588" lon="12.3510202"><ele>524.0</ele><time>2026-04-25T12:33:31.113Z</time></trkpt><trkpt lat="42.6597322" lon="12.3508396"><ele>527.25</ele><time>2026-04-25T12:33:32.098Z</time></trkpt><trkpt lat="42.6597089" lon="12.3506687"><ele>530.5</ele><time>2026-04-25T12:33:33.129Z</time></trkpt><trkpt lat="42.6596977" lon="12.3505002"><ele>533.75</ele><time>2026-04-25T12:33:34.114Z</time></trkpt><trkpt lat="42.6596837" lon="12.3503458"><ele>537.0</ele><time>2026-04-25T12:33:35.113Z</time></trkpt><trkpt lat="42.6596745" lon="12.3502064"><ele>539.5</ele><time>2026-04-25T12:33:36.093Z</time></trkpt><trkpt lat="42.6596718" lon="12.3500666"><ele>542.0</ele><time>2026-04-25T12:33:37.101Z</time></trkpt><trkpt lat="42.6596712" lon="12.3499142"><ele>544.5</ele><time>2026-04-25T12:33:38.113Z</time></trkpt><trkpt lat="42.6596649" lon="12.349749"><ele>547.0</ele><time>2026-04-25T12:33:39.097Z</time></trkpt><trkpt lat="42.6596479" lon="12.349577"><ele>548.25</ele><time>2026-04-25T12:33:40.098Z</time></trkpt><trkpt lat="42.6596277" lon="12.3494088"><ele>549.5</ele><time>2026-04-25T12:33:41.107Z</time></trkpt><trkpt lat="42.6596034" lon="12.3492427"><ele>550.75</ele><time>2026-04-25T12:33:42.095Z</time></trkpt><trkpt lat="42.6595788" lon="12.3490812"><ele>552.0</ele><time>2026-04-25T12:33:43.127Z</time></trkpt><trkpt lat="42.65956" lon="12.3489259"><ele>551.5</ele><time>2026-04-25T12:33:44.12Z</time></trkpt><trkpt lat="42.6595348" lon="12.3487977"><ele>551.0</ele><time>2026-04-25T12:33:45.104Z</time></trkpt><trkpt lat="42.6594992" lon="12.3486859"><ele>550.5</ele><time>2026-04-25T12:33:46.142Z</time></trkpt><trkpt lat="42.6594557" lon="12.3485743"><ele>550.0</ele><time>2026-04-25T12:33:47.125Z</time></trkpt><trkpt lat="42.6594082" lon="12.3484739"><ele>549.5</ele><time>2026-04-25T12:33:48.097Z</time></trkpt><trkpt lat="42.6593609" lon="12.3483916"><ele>549.0</ele><time>2026-04-25T12:33:49.117Z</time></trkpt><trkpt lat="42.659274" lon="12.3483001"><ele>549.0</ele><time>2026-04-25T12:33:51.091Z</time></trkpt><trkpt lat="42.6592153" lon="12.348269"><ele>549.0</ele><time>2026-04-25T12:33:52.093Z</time></trkpt><trkpt lat="42.6591489" lon="12.3482328"><ele>549.0</ele><time>2026-04-25T12:33:53.121Z</time></trkpt><trkpt lat="42.6590792" lon="12.3482277"><ele>549.0</ele><time>2026-04-25T12:33:54.113Z</time></trkpt><trkpt lat="42.6589991" lon="12.3482348"><ele>549.0</ele><time>2026-04-25T12:33:55.091Z</time></trkpt><trkpt lat="42.6589202" lon="12.3482491"><ele>549.0</ele><time>2026-04-25T12:33:56.112Z</time></trkpt><trkpt lat="42.6588471" lon="12.3482751"><ele>549.0</ele><time>2026-04-25T12:33:57.126Z</time></trkpt><trkpt lat="42.6587654" lon="12.3482902"><ele>549.0</ele><time>2026-04-25T12:33:58.112Z</time></trkpt><trkpt lat="42.6586754" lon="12.348303"><ele>549.0</ele><time>2026-04-25T12:33:59.095Z</time></trkpt><trkpt lat="42.6585798" lon="12.3483131"><ele>549.0</ele><time>2026-04-25T12:34:00.089Z</time></trkpt><trkpt lat="42.6584862" lon="12.3483146"><ele>549.0</ele><time>2026-04-25T12:34:01.107Z</time></trkpt><trkpt lat="42.6583964" lon="12.348317"><ele>549.0</ele><time>2026-04-25T12:34:02.113Z</time></trkpt><trkpt lat="42.6583141" lon="12.348327"><ele>548.8333333333334</ele><time>2026-04-25T12:34:03.108Z</time></trkpt><trkpt lat="42.6582419" lon="12.3483684"><ele>548.6666666666666</ele><time>2026-04-25T12:34:04.106Z</time></trkpt><trkpt lat="42.6581913" lon="12.3484304"><ele>548.5</ele><time>2026-04-25T12:34:05.118Z</time></trkpt><trkpt lat="42.65814" lon="12.348517"><ele>548.3333333333333</ele><time>2026-04-25T12:34:06.104Z</time></trkpt><trkpt lat="42.6580877" lon="12.3485875"><ele>548.1666666666666</ele><time>2026-04-25T12:34:07.116Z</time></trkpt><trkpt lat="42.6580372" lon="12.3486434"><ele>548.0</ele><time>2026-04-25T12:34:08.104Z</time></trkpt><trkpt lat="42.6579552" lon="12.3487365"><ele>548.0</ele><time>2026-04-25T12:34:10.091Z</time></trkpt><trkpt lat="42.6578852" lon="12.3488036"><ele>548.0</ele><time>2026-04-25T12:34:12.099Z</time></trkpt><trkpt lat="42.6578435" lon="12.3488694"><ele>548.0</ele><time>2026-04-25T12:34:27.106Z</time></trkpt><trkpt lat="42.6578742" lon="12.3489493"><ele>548.0</ele><time>2026-04-25T12:34:29.12Z</time></trkpt><trkpt lat="42.6579555" lon="12.3490458"><ele>548.0</ele><time>2026-04-25T12:34:31.114Z</time></trkpt><trkpt lat="42.6580328" lon="12.3491503"><ele>548.0</ele><time>2026-04-25T12:34:33.109Z</time></trkpt><trkpt lat="42.6581026" lon="12.3492702"><ele>549.1999999999999</ele><time>2026-04-25T12:34:35.109Z</time></trkpt><trkpt lat="42.6581821" lon="12.3493908"><ele>550.4</ele><time>2026-04-25T12:34:37.113Z</time></trkpt><trkpt lat="42.6582742" lon="12.3495176"><ele>551.5999999999999</ele><time>2026-04-25T12:34:39.106Z</time></trkpt><trkpt lat="42.6583241" lon="12.3495863"><ele>552.8</ele><time>2026-04-25T12:34:40.099Z</time></trkpt><trkpt lat="42.6583735" lon="12.3496663"><ele>554.0</ele><time>2026-04-25T12:34:41.106Z</time></trkpt><trkpt lat="42.6584241" lon="12.3497534"><ele>555.0</ele><time>2026-04-25T12:34:42.111Z</time></trkpt><trkpt lat="42.658474" lon="12.3498377"><ele>556.0</ele><time>2026-04-25T12:34:43.1Z</time></trkpt><trkpt lat="42.6585074" lon="12.3499272"><ele>557.0</ele><time>2026-04-25T12:34:44.094Z</time></trkpt><trkpt lat="42.6585237" lon="12.3500152"><ele>558.0</ele><time>2026-04-25T12:34:45.105Z</time></trkpt><trkpt lat="42.6585405" lon="12.3501671"><ele>559.0</ele><time>2026-04-25T12:34:47.096Z</time></trkpt><trkpt lat="42.6585528" lon="12.3503164"><ele>560.0</ele><time>2026-04-25T12:34:49.099Z</time></trkpt><trkpt lat="42.6585291" lon="12.3504681"><ele>559.3333333333333</ele><time>2026-04-25T12:34:51.12Z</time></trkpt><trkpt lat="42.6584993" lon="12.3505438"><ele>558.6666666666666</ele><time>2026-04-25T12:34:52.109Z</time></trkpt><trkpt lat="42.6584114" lon="12.3506432"><ele>558.0</ele><time>2026-04-25T12:34:54.093Z</time></trkpt><trkpt lat="42.658326" lon="12.350752"><ele>557.3333333333334</ele><time>2026-04-25T12:34:56.111Z</time></trkpt><trkpt lat="42.6582743" lon="12.3508116"><ele>556.6666666666667</ele><time>2026-04-25T12:34:57.108Z</time></trkpt><trkpt lat="42.658219" lon="12.3508635"><ele>556.0</ele><time>2026-04-25T12:34:58.111Z</time></trkpt><trkpt lat="42.6581222" lon="12.350942"><ele>556.0</ele><time>2026-04-25T12:35:00.09Z</time></trkpt><trkpt lat="42.6580162" lon="12.3509806"><ele>556.0</ele><time>2026-04-25T12:35:02.124Z</time></trkpt><trkpt lat="42.6579086" lon="12.350988"><ele>556.0</ele><time>2026-04-25T12:35:04.105Z</time></trkpt><trkpt lat="42.6577937" lon="12.3509347"><ele>556.0</ele><time>2026-04-25T12:35:06.092Z</time></trkpt><trkpt lat="42.6576949" lon="12.3508408"><ele>555.25</ele><time>2026-04-25T12:35:08.106Z</time></trkpt><trkpt lat="42.6576119" lon="12.3507243"><ele>554.5</ele><time>2026-04-25T12:35:10.108Z</time></trkpt><trkpt lat="42.6575562" lon="12.3505866"><ele>553.75</ele><time>2026-04-25T12:35:12.109Z</time></trkpt><trkpt lat="42.6575298" lon="12.350426"><ele>553.0</ele><time>2026-04-25T12:35:14.124Z</time></trkpt><trkpt lat="42.6575444" lon="12.3502587"><ele>553.0</ele><time>2026-04-25T12:35:16.109Z</time></trkpt><trkpt lat="42.6575678" lon="12.3501682"><ele>553.0</ele><time>2026-04-25T12:35:17.109Z</time></trkpt><trkpt lat="42.6576008" lon="12.3500759"><ele>553.0</ele><time>2026-04-25T12:35:18.108Z</time></trkpt><trkpt lat="42.6576441" lon="12.3499892"><ele>553.0</ele><time>2026-04-25T12:35:19.109Z</time></trkpt><trkpt lat="42.657694" lon="12.3499035"><ele>553.0</ele><time>2026-04-25T12:35:20.109Z</time></trkpt><trkpt lat="42.6577389" lon="12.3498342"><ele>553.0</ele><time>2026-04-25T12:35:21.117Z</time></trkpt><trkpt lat="42.6578345" lon="12.3497504"><ele>554.4</ele><time>2026-04-25T12:35:23.093Z</time></trkpt><trkpt lat="42.657951" lon="12.3497715"><ele>555.8</ele><time>2026-04-25T12:35:25.111Z</time></trkpt><trkpt lat="42.658068" lon="12.3498033"><ele>557.2</ele><time>2026-04-25T12:35:27.096Z</time></trkpt><trkpt lat="42.6581329" lon="12.3498189"><ele>558.6</ele><time>2026-04-25T12:35:28.093Z</time></trkpt><trkpt lat="42.6581987" lon="12.3498242"><ele>560.0</ele><time>2026-04-25T12:35:29.105Z</time></trkpt><trkpt lat="42.6583001" lon="12.3498454"><ele>560.0</ele><time>2026-04-25T12:35:31.099Z</time></trkpt><trkpt lat="42.6583756" lon="12.3498763"><ele>560.0</ele><time>2026-04-25T12:35:33.094Z</time></trkpt><trkpt lat="42.6584429" lon="12.3499299"><ele>560.0</ele><time>2026-04-25T12:35:35.107Z</time></trkpt><trkpt lat="42.6584734" lon="12.3500072"><ele>560.0</ele><time>2026-04-25T12:35:37.104Z</time></trkpt><trkpt lat="42.6585164" lon="12.3500736"><ele>560.0</ele><time>2026-04-25T12:35:39.112Z</time></trkpt><trkpt lat="42.658549" lon="12.3499821"><ele>560.0</ele><time>2026-04-25T12:35:42.111Z</time></trkpt><trkpt lat="42.6585033" lon="12.3498826"><ele>560.0</ele><time>2026-04-25T12:35:44.103Z</time></trkpt><trkpt lat="42.6584651" lon="12.3498118"><ele>560.0</ele><time>2026-04-25T12:35:45.099Z</time></trkpt><trkpt lat="42.6584239" lon="12.3497449"><ele>560.0</ele><time>2026-04-25T12:35:46.1Z</time></trkpt><trkpt lat="42.6583791" lon="12.3496829"><ele>560.0</ele><time>2026-04-25T12:35:47.105Z</time></trkpt><trkpt lat="42.6583348" lon="12.3496183"><ele>560.0</ele><time>2026-04-25T12:35:48.1Z</time></trkpt><trkpt lat="42.6582851" lon="12.3495479"><ele>560.0</ele><time>2026-04-25T12:35:49.12Z</time></trkpt><trkpt lat="42.6582329" lon="12.3494736"><ele>560.0</ele><time>2026-04-25T12:35:50.115Z</time></trkpt><trkpt lat="42.6581806" lon="12.3493962"><ele>560.0</ele><time>2026-04-25T12:35:51.12Z</time></trkpt><trkpt lat="42.6581258" lon="12.3493151"><ele>558.8</ele><time>2026-04-25T12:35:52.126Z</time></trkpt><trkpt lat="42.6580649" lon="12.3492278"><ele>557.6</ele><time>2026-04-25T12:35:53.121Z</time></trkpt><trkpt lat="42.6580035" lon="12.3491338"><ele>556.4</ele><time>2026-04-25T12:35:54.101Z</time></trkpt><trkpt lat="42.6579372" lon="12.3490358"><ele>555.2</ele><time>2026-04-25T12:35:55.105Z</time></trkpt><trkpt lat="42.6578704" lon="12.3489368"><ele>554.0</ele><time>2026-04-25T12:35:56.103Z</time></trkpt><trkpt lat="42.6578067" lon="12.3488438"><ele>553.8333333333333</ele><time>2026-04-25T12:35:57.119Z</time></trkpt><trkpt lat="42.6577479" lon="12.3487503"><ele>553.6666666666666</ele><time>2026-04-25T12:35:58.109Z</time></trkpt><trkpt lat="42.6576892" lon="12.3486622"><ele>553.5</ele><time>2026-04-25T12:35:59.124Z</time></trkpt><trkpt lat="42.6576334" lon="12.3485841"><ele>553.3333333333334</ele><time>2026-04-25T12:36:00.11Z</time></trkpt><trkpt lat="42.6575847" lon="12.3485078"><ele>553.1666666666667</ele><time>2026-04-25T12:36:01.1Z</time></trkpt><trkpt lat="42.6575363" lon="12.3484375"><ele>553.0</ele><time>2026-04-25T12:36:02.106Z</time></trkpt><trkpt lat="42.6574942" lon="12.3483705"><ele>553.0</ele><time>2026-04-25T12:36:03.126Z</time></trkpt><trkpt lat="42.6574436" lon="12.3482844"><ele>553.0</ele><time>2026-04-25T12:36:05.113Z</time></trkpt><trkpt lat="42.6574003" lon="12.3481988"><ele>553.0</ele><time>2026-04-25T12:36:09.093Z</time></trkpt><trkpt lat="42.6573047" lon="12.348176"><ele>553.0</ele><time>2026-04-25T12:38:32.104Z</time></trkpt><trkpt lat="42.6572431" lon="12.3481426"><ele>553.0</ele><time>2026-04-25T12:38:33.097Z</time></trkpt><trkpt lat="42.6570674" lon="12.3481022"><ele>553.0</ele><time>2026-04-25T12:38:35.1Z</time></trkpt><trkpt lat="42.6568663" lon="12.3480726"><ele>553.0</ele><time>2026-04-25T12:38:37.102Z</time></trkpt><trkpt lat="42.6567624" lon="12.3480506"><ele>553.0</ele><time>2026-04-25T12:38:38.097Z</time></trkpt><trkpt lat="42.6565719" lon="12.3480203"><ele>553.0</ele><time>2026-04-25T12:38:40.093Z</time></trkpt><trkpt lat="42.6564869" lon="12.3480065"><ele>553.0</ele><time>2026-04-25T12:38:41.11Z</time></trkpt><trkpt lat="42.6564099" lon="12.3479913"><ele>553.0</ele><time>2026-04-25T12:38:42.106Z</time></trkpt><trkpt lat="42.6563386" lon="12.3479688"><ele>553.0</ele><time>2026-04-25T12:38:43.098Z</time></trkpt><trkpt lat="42.656269" lon="12.3479514"><ele>553.0</ele><time>2026-04-25T12:38:44.111Z</time></trkpt><trkpt lat="42.6562066" lon="12.3479359"><ele>553.0</ele><time>2026-04-25T12:38:45.101Z</time></trkpt><trkpt lat="42.6561191" lon="12.3479058"><ele>553.3333333333334</ele><time>2026-04-25T12:38:47.108Z</time></trkpt><trkpt lat="42.6560481" lon="12.3479422"><ele>553.6666666666667</ele><time>2026-04-25T12:38:49.101Z</time></trkpt><trkpt lat="42.6559936" lon="12.3479916"><ele>554.0</ele><time>2026-04-25T12:38:50.116Z</time></trkpt><trkpt lat="42.6559258" lon="12.3480587"><ele>554.3333333333334</ele><time>2026-04-25T12:38:51.113Z</time></trkpt><trkpt lat="42.6558517" lon="12.3481247"><ele>554.6666666666666</ele><time>2026-04-25T12:38:52.128Z</time></trkpt><trkpt lat="42.655777" lon="12.3481752"><ele>555.0</ele><time>2026-04-25T12:38:53.099Z</time></trkpt><trkpt lat="42.6557026" lon="12.3481918"><ele>555.0</ele><time>2026-04-25T12:38:54.119Z</time></trkpt><trkpt lat="42.6556304" lon="12.3481879"><ele>555.0</ele><time>2026-04-25T12:38:55.118Z</time></trkpt><trkpt lat="42.6555437" lon="12.348182"><ele>555.0</ele><time>2026-04-25T12:38:56.115Z</time></trkpt><trkpt lat="42.6554388" lon="12.3481801"><ele>555.0</ele><time>2026-04-25T12:38:57.12Z</time></trkpt><trkpt lat="42.6553153" lon="12.3482074"><ele>555.0</ele><time>2026-04-25T12:38:58.142Z</time></trkpt><trkpt lat="42.6551728" lon="12.3482422"><ele>558.75</ele><time>2026-04-25T12:38:59.11Z</time></trkpt><trkpt lat="42.6550437" lon="12.3482955"><ele>562.5</ele><time>2026-04-25T12:39:00.092Z</time></trkpt><trkpt lat="42.6549345" lon="12.3483533"><ele>566.25</ele><time>2026-04-25T12:39:01.113Z</time></trkpt><trkpt lat="42.6548274" lon="12.348412"><ele>570.0</ele><time>2026-04-25T12:39:02.099Z</time></trkpt><trkpt lat="42.6547243" lon="12.348477"><ele>570.0</ele><time>2026-04-25T12:39:03.101Z</time></trkpt><trkpt lat="42.6546308" lon="12.3485561"><ele>570.0</ele><time>2026-04-25T12:39:04.102Z</time></trkpt><trkpt lat="42.6545541" lon="12.3486471"><ele>570.0</ele><time>2026-04-25T12:39:05.106Z</time></trkpt><trkpt lat="42.6544827" lon="12.3487378"><ele>570.0</ele><time>2026-04-25T12:39:06.103Z</time></trkpt><trkpt lat="42.6544184" lon="12.3488216"><ele>570.0</ele><time>2026-04-25T12:39:07.099Z</time></trkpt><trkpt lat="42.6543617" lon="12.3489075"><ele>570.6666666666666</ele><time>2026-04-25T12:39:08.108Z</time></trkpt><trkpt lat="42.6543125" lon="12.3489933"><ele>571.3333333333334</ele><time>2026-04-25T12:39:09.106Z</time></trkpt><trkpt lat="42.6542622" lon="12.3490747"><ele>572.0</ele><time>2026-04-25T12:39:10.118Z</time></trkpt><trkpt lat="42.6541947" lon="12.3491425"><ele>572.6666666666667</ele><time>2026-04-25T12:39:11.13Z</time></trkpt><trkpt lat="42.6541352" lon="12.3491769"><ele>573.3333333333334</ele><time>2026-04-25T12:39:12.091Z</time></trkpt><trkpt lat="42.6540212" lon="12.3491768"><ele>574.0</ele><time>2026-04-25T12:39:14.111Z</time></trkpt><trkpt lat="42.6539381" lon="12.3491025"><ele>574.0</ele><time>2026-04-25T12:39:16.12Z</time></trkpt><trkpt lat="42.6539069" lon="12.3490261"><ele>574.0</ele><time>2026-04-25T12:39:17.12Z</time></trkpt><trkpt lat="42.6538687" lon="12.3489349"><ele>574.0</ele><time>2026-04-25T12:39:18.1Z</time></trkpt><trkpt lat="42.6538266" lon="12.3488497"><ele>574.0</ele><time>2026-04-25T12:39:19.103Z</time></trkpt><trkpt lat="42.6537788" lon="12.3487748"><ele>574.0</ele><time>2026-04-25T12:39:20.098Z</time></trkpt><trkpt lat="42.6537161" lon="12.348727"><ele>574.0</ele><time>2026-04-25T12:39:21.129Z</time></trkpt><trkpt lat="42.6536401" lon="12.3486827"><ele>574.0</ele><time>2026-04-25T12:39:22.122Z</time></trkpt><trkpt lat="42.6535642" lon="12.3486487"><ele>575.4</ele><time>2026-04-25T12:39:23.113Z</time></trkpt><trkpt lat="42.6534851" lon="12.348615"><ele>576.8</ele><time>2026-04-25T12:39:24.096Z</time></trkpt><trkpt lat="42.6533807" lon="12.3485504"><ele>578.2</ele><time>2026-04-25T12:39:25.104Z</time></trkpt><trkpt lat="42.6532704" lon="12.3484871"><ele>579.6</ele><time>2026-04-25T12:39:26.106Z</time></trkpt><trkpt lat="42.6531602" lon="12.3484302"><ele>581.0</ele><time>2026-04-25T12:39:27.107Z</time></trkpt><trkpt lat="42.6530466" lon="12.3483627"><ele>581.0</ele><time>2026-04-25T12:39:28.114Z</time></trkpt><trkpt lat="42.6529256" lon="12.3482827"><ele>581.0</ele><time>2026-04-25T12:39:29.113Z</time></trkpt><trkpt lat="42.6528254" lon="12.3481991"><ele>581.0</ele><time>2026-04-25T12:39:30.109Z</time></trkpt><trkpt lat="42.6527356" lon="12.3481199"><ele>581.0</ele><time>2026-04-25T12:39:31.107Z</time></trkpt><trkpt lat="42.6526526" lon="12.3480529"><ele>579.3333333333333</ele><time>2026-04-25T12:39:32.097Z</time></trkpt><trkpt lat="42.6525791" lon="12.3479957"><ele>577.6666666666666</ele><time>2026-04-25T12:39:33.105Z</time></trkpt><trkpt lat="42.6525051" lon="12.3479544"><ele>576.0</ele><time>2026-04-25T12:39:34.112Z</time></trkpt><trkpt lat="42.6524341" lon="12.3479328"><ele>574.3333333333334</ele><time>2026-04-25T12:39:35.101Z</time></trkpt><trkpt lat="42.652368" lon="12.3479322"><ele>572.6666666666667</ele><time>2026-04-25T12:39:36.1Z</time></trkpt><trkpt lat="42.6522626" lon="12.3480143"><ele>571.0</ele><time>2026-04-25T12:39:38.09Z</time></trkpt><trkpt lat="42.6522138" lon="12.3480816"><ele>571.0</ele><time>2026-04-25T12:39:39.111Z</time></trkpt><trkpt lat="42.6521658" lon="12.3481489"><ele>571.0</ele><time>2026-04-25T12:39:40.089Z</time></trkpt><trkpt lat="42.6520724" lon="12.3482689"><ele>571.0</ele><time>2026-04-25T12:39:42.129Z</time></trkpt><trkpt lat="42.6520031" lon="12.3483519"><ele>571.0</ele><time>2026-04-25T12:39:43.125Z</time></trkpt><trkpt lat="42.651926" lon="12.348452"><ele>571.0</ele><time>2026-04-25T12:39:44.099Z</time></trkpt><trkpt lat="42.6518385" lon="12.3485386"><ele>576.0</ele><time>2026-04-25T12:39:45.107Z</time></trkpt><trkpt lat="42.6517524" lon="12.3486026"><ele>581.0</ele><time>2026-04-25T12:39:46.106Z</time></trkpt><trkpt lat="42.6516745" lon="12.3486551"><ele>586.0</ele><time>2026-04-25T12:39:47.108Z</time></trkpt><trkpt lat="42.6515958" lon="12.3487138"><ele>591.0</ele><time>2026-04-25T12:39:48.091Z</time></trkpt><trkpt lat="42.6515147" lon="12.348789"><ele>596.0</ele><time>2026-04-25T12:39:49.129Z</time></trkpt><trkpt lat="42.6514305" lon="12.3488745"><ele>594.5</ele><time>2026-04-25T12:39:50.098Z</time></trkpt><trkpt lat="42.6513548" lon="12.3489482"><ele>593.0</ele><time>2026-04-25T12:39:51.089Z</time></trkpt><trkpt lat="42.6512873" lon="12.3490078"><ele>591.5</ele><time>2026-04-25T12:39:52.107Z</time></trkpt><trkpt lat="42.651228" lon="12.3490606"><ele>590.0</ele><time>2026-04-25T12:39:53.099Z</time></trkpt><trkpt lat="42.6511674" lon="12.3491086"><ele>588.5</ele><time>2026-04-25T12:39:54.089Z</time></trkpt><trkpt lat="42.6511036" lon="12.3491342"><ele>587.0</ele><time>2026-04-25T12:39:55.113Z</time></trkpt><trkpt lat="42.6510299" lon="12.3491461"><ele>587.0</ele><time>2026-04-25T12:39:56.101Z</time></trkpt><trkpt lat="42.6509486" lon="12.3491474"><ele>587.0</ele><time>2026-04-25T12:39:57.089Z</time></trkpt><trkpt lat="42.6508465" lon="12.3491372"><ele>587.0</ele><time>2026-04-25T12:39:58.112Z</time></trkpt><trkpt lat="42.6507281" lon="12.3491182"><ele>587.0</ele><time>2026-04-25T12:39:59.098Z</time></trkpt><trkpt lat="42.650608" lon="12.349108"><ele>587.0</ele><time>2026-04-25T12:40:00.096Z</time></trkpt><trkpt lat="42.6504801" lon="12.3491065"><ele>587.0</ele><time>2026-04-25T12:40:01.118Z</time></trkpt><trkpt lat="42.6503533" lon="12.349104"><ele>587.0</ele><time>2026-04-25T12:40:02.112Z</time></trkpt><trkpt lat="42.6502344" lon="12.3490995"><ele>587.0</ele><time>2026-04-25T12:40:03.094Z</time></trkpt><trkpt lat="42.6501174" lon="12.3490892"><ele>587.0</ele><time>2026-04-25T12:40:04.103Z</time></trkpt><trkpt lat="42.6499981" lon="12.3490778"><ele>585.0</ele><time>2026-04-25T12:40:05.099Z</time></trkpt><trkpt lat="42.6498755" lon="12.3490707"><ele>583.0</ele><time>2026-04-25T12:40:06.133Z</time></trkpt><trkpt lat="42.6497424" lon="12.349066"><ele>581.0</ele><time>2026-04-25T12:40:07.101Z</time></trkpt><trkpt lat="42.6496047" lon="12.3490582"><ele>579.0</ele><time>2026-04-25T12:40:08.091Z</time></trkpt><trkpt lat="42.6494804" lon="12.3490427"><ele>576.25</ele><time>2026-04-25T12:40:09.114Z</time></trkpt><trkpt lat="42.6493595" lon="12.3490176"><ele>573.5</ele><time>2026-04-25T12:40:10.104Z</time></trkpt><trkpt lat="42.6492249" lon="12.3489725"><ele>570.75</ele><time>2026-04-25T12:40:11.096Z</time></trkpt><trkpt lat="42.649082" lon="12.3489165"><ele>568.0</ele><time>2026-04-25T12:40:12.102Z</time></trkpt><trkpt lat="42.648945" lon="12.34886"><ele>573.0</ele><time>2026-04-25T12:40:13.095Z</time></trkpt><trkpt lat="42.6488002" lon="12.3488072"><ele>578.0</ele><time>2026-04-25T12:40:14.09Z</time></trkpt><trkpt lat="42.6486502" lon="12.3487571"><ele>583.0</ele><time>2026-04-25T12:40:15.093Z</time></trkpt><trkpt lat="42.6485108" lon="12.3487051"><ele>588.0</ele><time>2026-04-25T12:40:16.088Z</time></trkpt><trkpt lat="42.6483782" lon="12.3486574"><ele>588.0</ele><time>2026-04-25T12:40:17.118Z</time></trkpt><trkpt lat="42.6482592" lon="12.3486153"><ele>588.0</ele><time>2026-04-25T12:40:18.089Z</time></trkpt><trkpt lat="42.648145" lon="12.3485739"><ele>588.0</ele><time>2026-04-25T12:40:19.106Z</time></trkpt><trkpt lat="42.6480378" lon="12.3485307"><ele>588.0</ele><time>2026-04-25T12:40:20.096Z</time></trkpt><trkpt lat="42.6479261" lon="12.3484806"><ele>588.0</ele><time>2026-04-25T12:40:21.099Z</time></trkpt><trkpt lat="42.6478152" lon="12.3484283"><ele>588.0</ele><time>2026-04-25T12:40:22.094Z</time></trkpt><trkpt lat="42.6477162" lon="12.3483715"><ele>588.0</ele><time>2026-04-25T12:40:23.103Z</time></trkpt><trkpt lat="42.6476269" lon="12.3483115"><ele>588.0</ele><time>2026-04-25T12:40:24.107Z</time></trkpt><trkpt lat="42.6475366" lon="12.3482435"><ele>588.0</ele><time>2026-04-25T12:40:25.109Z</time></trkpt><trkpt lat="42.6474287" lon="12.3481612"><ele>591.6666666666666</ele><time>2026-04-25T12:40:26.097Z</time></trkpt><trkpt lat="42.6472978" lon="12.3480439"><ele>595.3333333333333</ele><time>2026-04-25T12:40:27.089Z</time></trkpt><trkpt lat="42.647151" lon="12.3479171"><ele>599.0</ele><time>2026-04-25T12:40:28.101Z</time></trkpt><trkpt lat="42.6470186" lon="12.3478007"><ele>592.5</ele><time>2026-04-25T12:40:29.106Z</time></trkpt><trkpt lat="42.6468938" lon="12.3476928"><ele>586.0</ele><time>2026-04-25T12:40:30.101Z</time></trkpt><trkpt lat="42.6467745" lon="12.3475888"><ele>579.5</ele><time>2026-04-25T12:40:31.089Z</time></trkpt><trkpt lat="42.6466637" lon="12.3475018"><ele>573.0</ele><time>2026-04-25T12:40:32.103Z</time></trkpt><trkpt lat="42.6465708" lon="12.3474265"><ele>573.0</ele><time>2026-04-25T12:40:33.095Z</time></trkpt><trkpt lat="42.6464996" lon="12.3473591"><ele>573.0</ele><time>2026-04-25T12:40:34.089Z</time></trkpt><trkpt lat="42.6464351" lon="12.3472898"><ele>573.0</ele><time>2026-04-25T12:40:35.096Z</time></trkpt><trkpt lat="42.6463731" lon="12.3472237"><ele>573.0</ele><time>2026-04-25T12:40:36.095Z</time></trkpt><trkpt lat="42.6463121" lon="12.3471497"><ele>573.0</ele><time>2026-04-25T12:40:37.103Z</time></trkpt><trkpt lat="42.6462594" lon="12.3470656"><ele>573.0</ele><time>2026-04-25T12:40:38.089Z</time></trkpt><trkpt lat="42.6462266" lon="12.3469734"><ele>577.4</ele><time>2026-04-25T12:40:39.102Z</time></trkpt><trkpt lat="42.6462067" lon="12.3468663"><ele>581.8</ele><time>2026-04-25T12:40:40.097Z</time></trkpt><trkpt lat="42.6461968" lon="12.3467491"><ele>586.2</ele><time>2026-04-25T12:40:41.111Z</time></trkpt><trkpt lat="42.6461995" lon="12.3465883"><ele>590.6</ele><time>2026-04-25T12:40:42.11Z</time></trkpt><trkpt lat="42.6461953" lon="12.3463942"><ele>595.0</ele><time>2026-04-25T12:40:43.108Z</time></trkpt><trkpt lat="42.6461781" lon="12.3461902"><ele>598.5</ele><time>2026-04-25T12:40:44.09Z</time></trkpt><trkpt lat="42.6461625" lon="12.3460009"><ele>602.0</ele><time>2026-04-25T12:40:45.124Z</time></trkpt><trkpt lat="42.6461476" lon="12.3458285"><ele>605.5</ele><time>2026-04-25T12:40:46.109Z</time></trkpt><trkpt lat="42.6461339" lon="12.3456599"><ele>609.0</ele><time>2026-04-25T12:40:47.09Z</time></trkpt><trkpt lat="42.6461223" lon="12.345471"><ele>609.75</ele><time>2026-04-25T12:40:48.112Z</time></trkpt><trkpt lat="42.6461171" lon="12.3452693"><ele>610.5</ele><time>2026-04-25T12:40:49.098Z</time></trkpt><trkpt lat="42.646123" lon="12.3450729"><ele>611.25</ele><time>2026-04-25T12:40:50.096Z</time></trkpt><trkpt lat="42.646127" lon="12.3448977"><ele>612.0</ele><time>2026-04-25T12:40:51.106Z</time></trkpt><trkpt lat="42.6461334" lon="12.344775"><ele>611.6666666666666</ele><time>2026-04-25T12:40:52.098Z</time></trkpt><trkpt lat="42.6461483" lon="12.3446717"><ele>611.3333333333334</ele><time>2026-04-25T12:40:53.083Z</time></trkpt><trkpt lat="42.646167" lon="12.3445769"><ele>611.0</ele><time>2026-04-25T12:40:54.106Z</time></trkpt><trkpt lat="42.6461849" lon="12.3444904"><ele>610.6666666666667</ele><time>2026-04-25T12:40:55.106Z</time></trkpt><trkpt lat="42.6461928" lon="12.3443484"><ele>610.3333333333334</ele><time>2026-04-25T12:40:57.108Z</time></trkpt><trkpt lat="42.6461637" lon="12.3442304"><ele>610.0</ele><time>2026-04-25T12:40:59.111Z</time></trkpt><trkpt lat="42.6460588" lon="12.3441833"><ele>607.1666666666667</ele><time>2026-04-25T12:41:01.105Z</time></trkpt><trkpt lat="42.6459932" lon="12.3441809"><ele>604.3333333333334</ele><time>2026-04-25T12:41:02.107Z</time></trkpt><trkpt lat="42.6459136" lon="12.3441858"><ele>601.5</ele><time>2026-04-25T12:41:03.112Z</time></trkpt><trkpt lat="42.6458262" lon="12.3441943"><ele>598.6666666666666</ele><time>2026-04-25T12:41:04.11Z</time></trkpt><trkpt lat="42.6457377" lon="12.3441884"><ele>595.8333333333333</ele><time>2026-04-25T12:41:05.113Z</time></trkpt><trkpt lat="42.6456713" lon="12.3441614"><ele>593.0</ele><time>2026-04-25T12:41:06.121Z</time></trkpt><trkpt lat="42.645618" lon="12.3441132"><ele>593.0</ele><time>2026-04-25T12:41:07.12Z</time></trkpt><trkpt lat="42.6455638" lon="12.3440435"><ele>593.0</ele><time>2026-04-25T12:41:08.103Z</time></trkpt><trkpt lat="42.6454975" lon="12.3439582"><ele>593.0</ele><time>2026-04-25T12:41:09.091Z</time></trkpt><trkpt lat="42.645422" lon="12.3438864"><ele>593.0</ele><time>2026-04-25T12:41:10.097Z</time></trkpt><trkpt lat="42.6453405" lon="12.3438452"><ele>593.0</ele><time>2026-04-25T12:41:11.102Z</time></trkpt><trkpt lat="42.645271" lon="12.343835"><ele>593.0</ele><time>2026-04-25T12:41:12.106Z</time></trkpt><trkpt lat="42.6451991" lon="12.3438432"><ele>593.3333333333333</ele><time>2026-04-25T12:41:13.108Z</time></trkpt><trkpt lat="42.6451323" lon="12.3438789"><ele>593.6666666666666</ele><time>2026-04-25T12:41:14.102Z</time></trkpt><trkpt lat="42.6450499" lon="12.3439335"><ele>594.0</ele><time>2026-04-25T12:41:15.086Z</time></trkpt><trkpt lat="42.6449748" lon="12.3440035"><ele>594.3333333333334</ele><time>2026-04-25T12:41:16.1Z</time></trkpt><trkpt lat="42.6449158" lon="12.3440751"><ele>594.6666666666667</ele><time>2026-04-25T12:41:17.109Z</time></trkpt><trkpt lat="42.6448694" lon="12.3442096"><ele>595.0</ele><time>2026-04-25T12:41:19.105Z</time></trkpt><trkpt lat="42.6448552" lon="12.3442991"><ele>595.0</ele><time>2026-04-25T12:41:20.104Z</time></trkpt><trkpt lat="42.6448629" lon="12.3444677"><ele>595.0</ele><time>2026-04-25T12:41:22.087Z</time></trkpt><trkpt lat="42.6448912" lon="12.3446323"><ele>595.0</ele><time>2026-04-25T12:41:24.094Z</time></trkpt><trkpt lat="42.6449133" lon="12.344714"><ele>595.0</ele><time>2026-04-25T12:41:25.103Z</time></trkpt><trkpt lat="42.6449388" lon="12.344879"><ele>595.0</ele><time>2026-04-25T12:41:27.094Z</time></trkpt><trkpt lat="42.6449254" lon="12.3450071"><ele>592.5</ele><time>2026-04-25T12:41:29.099Z</time></trkpt><trkpt lat="42.6448634" lon="12.3451107"><ele>590.0</ele><time>2026-04-25T12:41:31.1Z</time></trkpt><trkpt lat="42.6447911" lon="12.345175"><ele>587.5</ele><time>2026-04-25T12:41:33.092Z</time></trkpt><trkpt lat="42.644716" lon="12.3452106"><ele>585.0</ele><time>2026-04-25T12:41:37.112Z</time></trkpt><trkpt lat="42.6446523" lon="12.3452301"><ele>582.5</ele><time>2026-04-25T12:41:40.104Z</time></trkpt><trkpt lat="42.6445802" lon="12.3452481"><ele>580.0</ele><time>2026-04-25T12:41:43.106Z</time></trkpt><trkpt lat="42.6445063" lon="12.3452332"><ele>580.3333333333334</ele><time>2026-04-25T12:41:46.114Z</time></trkpt><trkpt lat="42.6444332" lon="12.3452324"><ele>580.6666666666667</ele><time>2026-04-25T12:41:49.125Z</time></trkpt><trkpt lat="42.6443683" lon="12.345206"><ele>581.0</ele><time>2026-04-25T12:41:52.089Z</time></trkpt><trkpt lat="42.6443115" lon="12.3451452"><ele>581.3333333333334</ele><time>2026-04-25T12:41:54.109Z</time></trkpt><trkpt lat="42.6442584" lon="12.345097"><ele>581.6666666666666</ele><time>2026-04-25T12:41:55.1Z</time></trkpt><trkpt lat="42.6441498" lon="12.3450015"><ele>582.0</ele><time>2026-04-25T12:41:57.095Z</time></trkpt><trkpt lat="42.6440853" lon="12.3449453"><ele>582.0</ele><time>2026-04-25T12:41:58.107Z</time></trkpt><trkpt lat="42.644024" lon="12.3448838"><ele>582.0</ele><time>2026-04-25T12:41:59.127Z</time></trkpt><trkpt lat="42.643965" lon="12.3448366"><ele>582.0</ele><time>2026-04-25T12:42:00.1Z</time></trkpt><trkpt lat="42.6439001" lon="12.3447993"><ele>582.0</ele><time>2026-04-25T12:42:01.098Z</time></trkpt><trkpt lat="42.6438209" lon="12.3447657"><ele>582.0</ele><time>2026-04-25T12:42:02.087Z</time></trkpt><trkpt lat="42.6437357" lon="12.3447315"><ele>582.0</ele><time>2026-04-25T12:42:03.109Z</time></trkpt><trkpt lat="42.6436534" lon="12.3446918"><ele>582.1666666666666</ele><time>2026-04-25T12:42:04.092Z</time></trkpt><trkpt lat="42.6435758" lon="12.344662"><ele>582.3333333333334</ele><time>2026-04-25T12:42:05.082Z</time></trkpt><trkpt lat="42.6434945" lon="12.3446665"><ele>582.5</ele><time>2026-04-25T12:42:06.091Z</time></trkpt><trkpt lat="42.6434246" lon="12.3447152"><ele>582.6666666666667</ele><time>2026-04-25T12:42:07.089Z</time></trkpt><trkpt lat="42.6433835" lon="12.3448172"><ele>582.8333333333334</ele><time>2026-04-25T12:42:08.1Z</time></trkpt><trkpt lat="42.6433845" lon="12.3449367"><ele>583.0</ele><time>2026-04-25T12:42:09.11Z</time></trkpt><trkpt lat="42.643418" lon="12.3450528"><ele>583.0</ele><time>2026-04-25T12:42:10.098Z</time></trkpt><trkpt lat="42.6434595" lon="12.345169"><ele>583.0</ele><time>2026-04-25T12:42:11.081Z</time></trkpt><trkpt lat="42.6434913" lon="12.3452633"><ele>583.0</ele><time>2026-04-25T12:42:12.109Z</time></trkpt><trkpt lat="42.64351" lon="12.3453455"><ele>583.0</ele><time>2026-04-25T12:42:13.104Z</time></trkpt><trkpt lat="42.6435363" lon="12.3454626"><ele>583.0</ele><time>2026-04-25T12:42:15.1Z</time></trkpt><trkpt lat="42.6435405" lon="12.3455738"><ele>583.0</ele><time>2026-04-25T12:42:17.105Z</time></trkpt><trkpt lat="42.6435291" lon="12.3457058"><ele>582.4</ele><time>2026-04-25T12:42:19.107Z</time></trkpt><trkpt lat="42.6435222" lon="12.3458629"><ele>581.8</ele><time>2026-04-25T12:42:21.106Z</time></trkpt><trkpt lat="42.6435431" lon="12.3459456"><ele>581.2</ele><time>2026-04-25T12:42:22.112Z</time></trkpt><trkpt lat="42.6436145" lon="12.3460742"><ele>580.6</ele><time>2026-04-25T12:42:24.101Z</time></trkpt><trkpt lat="42.6436986" lon="12.3461789"><ele>580.0</ele><time>2026-04-25T12:42:26.134Z</time></trkpt><trkpt lat="42.6437854" lon="12.3462741"><ele>577.0</ele><time>2026-04-25T12:42:28.094Z</time></trkpt><trkpt lat="42.6438316" lon="12.3463419"><ele>574.0</ele><time>2026-04-25T12:42:29.094Z</time></trkpt><trkpt lat="42.6438899" lon="12.3464237"><ele>571.0</ele><time>2026-04-25T12:42:30.105Z</time></trkpt><trkpt lat="42.6440088" lon="12.346613"><ele>568.0</ele><time>2026-04-25T12:42:32.088Z</time></trkpt><trkpt lat="42.6440668" lon="12.3467124"><ele>565.0</ele><time>2026-04-25T12:42:33.112Z</time></trkpt><trkpt lat="42.6441584" lon="12.3469494"><ele>565.0</ele><time>2026-04-25T12:42:35.088Z</time></trkpt><trkpt lat="42.644198" lon="12.3470731"><ele>565.0</ele><time>2026-04-25T12:42:36.107Z</time></trkpt><trkpt lat="42.6442395" lon="12.3471897"><ele>565.0</ele><time>2026-04-25T12:42:37.141Z</time></trkpt><trkpt lat="42.6443081" lon="12.3474193"><ele>565.0</ele><time>2026-04-25T12:42:39.091Z</time></trkpt><trkpt lat="42.644367" lon="12.3476394"><ele>567.5</ele><time>2026-04-25T12:42:41.091Z</time></trkpt><trkpt lat="42.6443959" lon="12.3477544"><ele>570.0</ele><time>2026-04-25T12:42:42.118Z</time></trkpt><trkpt lat="42.6444181" lon="12.347876"><ele>572.5</ele><time>2026-04-25T12:42:43.081Z</time></trkpt><trkpt lat="42.6444542" lon="12.3480089"><ele>575.0</ele><time>2026-04-25T12:42:44.096Z</time></trkpt><trkpt lat="42.6445716" lon="12.3482565"><ele>568.3333333333333</ele><time>2026-04-25T12:42:46.102Z</time></trkpt><trkpt lat="42.6446727" lon="12.3486564"><ele>561.6666666666666</ele><time>2026-04-25T12:42:49.098Z</time></trkpt><trkpt lat="42.6446832" lon="12.3488156"><ele>555.0</ele><time>2026-04-25T12:42:50.095Z</time></trkpt><trkpt lat="42.644706" lon="12.3491271"><ele>555.0</ele><time>2026-04-25T12:42:52.082Z</time></trkpt><trkpt lat="42.6447319" lon="12.3492728"><ele>555.0</ele><time>2026-04-25T12:42:53.094Z</time></trkpt><trkpt lat="42.6447716" lon="12.3494039"><ele>555.0</ele><time>2026-04-25T12:42:54.097Z</time></trkpt><trkpt lat="42.6448105" lon="12.3495348"><ele>555.0</ele><time>2026-04-25T12:42:55.091Z</time></trkpt><trkpt lat="42.6448899" lon="12.3498246"><ele>555.3333333333334</ele><time>2026-04-25T12:42:57.104Z</time></trkpt><trkpt lat="42.6449835" lon="12.3502398"><ele>555.6666666666667</ele><time>2026-04-25T12:43:00.084Z</time></trkpt><trkpt lat="42.6449878" lon="12.3503693"><ele>556.0</ele><time>2026-04-25T12:43:01.108Z</time></trkpt><trkpt lat="42.6449624" lon="12.3506213"><ele>554.5</ele><time>2026-04-25T12:43:03.107Z</time></trkpt><trkpt lat="42.644943" lon="12.350743"><ele>553.0</ele><time>2026-04-25T12:43:04.111Z</time></trkpt><trkpt lat="42.6448965" lon="12.3509853"><ele>551.5</ele><time>2026-04-25T12:43:06.118Z</time></trkpt><trkpt lat="42.6448702" lon="12.351111"><ele>550.0</ele><time>2026-04-25T12:43:07.128Z</time></trkpt><trkpt lat="42.6448424" lon="12.3512286"><ele>546.5</ele><time>2026-04-25T12:43:08.104Z</time></trkpt><trkpt lat="42.6447494" lon="12.3514581"><ele>543.0</ele><time>2026-04-25T12:43:10.086Z</time></trkpt><trkpt lat="42.6446888" lon="12.3515599"><ele>539.5</ele><time>2026-04-25T12:43:11.109Z</time></trkpt><trkpt lat="42.6446251" lon="12.3516504"><ele>536.0</ele><time>2026-04-25T12:43:12.09Z</time></trkpt><trkpt lat="42.6445538" lon="12.3517288"><ele>536.0</ele><time>2026-04-25T12:43:13.1Z</time></trkpt><trkpt lat="42.6444805" lon="12.3517944"><ele>536.0</ele><time>2026-04-25T12:43:14.099Z</time></trkpt><trkpt lat="42.6444131" lon="12.3518598"><ele>536.0</ele><time>2026-04-25T12:43:15.119Z</time></trkpt><trkpt lat="42.6443513" lon="12.3519909"><ele>536.0</ele><time>2026-04-25T12:43:17.111Z</time></trkpt><trkpt lat="42.6444125" lon="12.3520548"><ele>536.0</ele><time>2026-04-25T12:43:32.106Z</time></trkpt><trkpt lat="42.644527" lon="12.351965"><ele>536.0</ele><time>2026-04-25T12:43:34.103Z</time></trkpt><trkpt lat="42.6445866" lon="12.3519049"><ele>536.0</ele><time>2026-04-25T12:43:35.114Z</time></trkpt><trkpt lat="42.6446454" lon="12.3518329"><ele>536.0</ele><time>2026-04-25T12:43:36.117Z</time></trkpt><trkpt lat="42.6447219" lon="12.3517474"><ele>536.0</ele><time>2026-04-25T12:43:37.098Z</time></trkpt><trkpt lat="42.6448116" lon="12.3516284"><ele>536.0</ele><time>2026-04-25T12:43:38.107Z</time></trkpt><trkpt lat="42.6449028" lon="12.3514971"><ele>543.0</ele><time>2026-04-25T12:43:39.099Z</time></trkpt><trkpt lat="42.6450872" lon="12.3512102"><ele>550.0</ele><time>2026-04-25T12:43:41.095Z</time></trkpt><trkpt lat="42.645259" lon="12.3509421"><ele>543.0</ele><time>2026-04-25T12:43:43.111Z</time></trkpt><trkpt lat="42.6453433" lon="12.3508066"><ele>536.0</ele><time>2026-04-25T12:43:44.089Z</time></trkpt><trkpt lat="42.6455154" lon="12.3505415"><ele>529.0</ele><time>2026-04-25T12:43:46.092Z</time></trkpt><trkpt lat="42.6456706" lon="12.3503173"><ele>529.0</ele><time>2026-04-25T12:43:48.115Z</time></trkpt><trkpt lat="42.6457367" lon="12.3502209"><ele>529.0</ele><time>2026-04-25T12:43:49.103Z</time></trkpt><trkpt lat="42.645909" lon="12.3500782"><ele>529.0</ele><time>2026-04-25T12:43:51.109Z</time></trkpt><trkpt lat="42.6460233" lon="12.3500395"><ele>529.0</ele><time>2026-04-25T12:43:52.08Z</time></trkpt><trkpt lat="42.6461453" lon="12.3500302"><ele>525.0</ele><time>2026-04-25T12:43:53.1Z</time></trkpt><trkpt lat="42.6464308" lon="12.3500844"><ele>521.0</ele><time>2026-04-25T12:43:55.094Z</time></trkpt><trkpt lat="42.6468043" lon="12.350245"><ele>522.5</ele><time>2026-04-25T12:43:58.103Z</time></trkpt><trkpt lat="42.6470124" lon="12.3504238"><ele>524.0</ele><time>2026-04-25T12:44:00.092Z</time></trkpt><trkpt lat="42.6472379" lon="12.350699"><ele>520.0</ele><time>2026-04-25T12:44:02.114Z</time></trkpt><trkpt lat="42.6473499" lon="12.3508475"><ele>516.0</ele><time>2026-04-25T12:44:03.113Z</time></trkpt><trkpt lat="42.6475367" lon="12.3511312"><ele>512.0</ele><time>2026-04-25T12:44:05.098Z</time></trkpt><trkpt lat="42.6476123" lon="12.3512555"><ele>510.0</ele><time>2026-04-25T12:44:06.096Z</time></trkpt><trkpt lat="42.6477597" lon="12.3514779"><ele>508.0</ele><time>2026-04-25T12:44:08.097Z</time></trkpt><trkpt lat="42.6479091" lon="12.3516768"><ele>506.0</ele><time>2026-04-25T12:44:10.093Z</time></trkpt><trkpt lat="42.6479716" lon="12.3517567"><ele>506.0</ele><time>2026-04-25T12:44:11.11Z</time></trkpt><trkpt lat="42.6480418" lon="12.3518852"><ele>506.0</ele><time>2026-04-25T12:44:13.109Z</time></trkpt><trkpt lat="42.6480881" lon="12.3519651"><ele>506.0</ele><time>2026-04-25T12:44:16.106Z</time></trkpt><trkpt lat="42.6481943" lon="12.3520694"><ele>506.0</ele><time>2026-04-25T12:44:18.089Z</time></trkpt><trkpt lat="42.6482806" lon="12.3521487"><ele>506.0</ele><time>2026-04-25T12:44:19.102Z</time></trkpt><trkpt lat="42.6483644" lon="12.3522822"><ele>503.5</ele><time>2026-04-25T12:44:20.113Z</time></trkpt><trkpt lat="42.6484418" lon="12.3524674"><ele>501.0</ele><time>2026-04-25T12:44:21.098Z</time></trkpt><trkpt lat="42.6486165" lon="12.352909"><ele>504.0</ele><time>2026-04-25T12:44:23.099Z</time></trkpt><trkpt lat="42.6488703" lon="12.3533206"><ele>507.0</ele><time>2026-04-25T12:44:25.087Z</time></trkpt><trkpt lat="42.6490114" lon="12.3534951"><ele>507.0</ele><time>2026-04-25T12:44:26.096Z</time></trkpt><trkpt lat="42.649166" lon="12.353628"><ele>507.0</ele><time>2026-04-25T12:44:27.131Z</time></trkpt><trkpt lat="42.6493204" lon="12.3537208"><ele>507.0</ele><time>2026-04-25T12:44:28.109Z</time></trkpt><trkpt lat="42.649634" lon="12.3537186"><ele>511.0</ele><time>2026-04-25T12:44:30.108Z</time></trkpt><trkpt lat="42.6499506" lon="12.3535232"><ele>515.0</ele><time>2026-04-25T12:44:32.111Z</time></trkpt><trkpt lat="42.6501086" lon="12.3534088"><ele>509.0</ele><time>2026-04-25T12:44:33.128Z</time></trkpt><trkpt lat="42.6505117" lon="12.3531566"><ele>503.0</ele><time>2026-04-25T12:44:35.093Z</time></trkpt><trkpt lat="42.6507359" lon="12.3530224"><ele>510.5</ele><time>2026-04-25T12:44:36.101Z</time></trkpt><trkpt lat="42.6511511" lon="12.3528117"><ele>518.0</ele><time>2026-04-25T12:44:38.099Z</time></trkpt><trkpt lat="42.6513453" lon="12.3527223"><ele>518.0</ele><time>2026-04-25T12:44:39.1Z</time></trkpt><trkpt lat="42.6516903" lon="12.3524894"><ele>518.0</ele><time>2026-04-25T12:44:41.082Z</time></trkpt><trkpt lat="42.6518408" lon="12.3523604"><ele>517.6666666666666</ele><time>2026-04-25T12:44:42.094Z</time></trkpt><trkpt lat="42.6519721" lon="12.3522304"><ele>517.3333333333334</ele><time>2026-04-25T12:44:43.106Z</time></trkpt><trkpt lat="42.6520734" lon="12.3520874"><ele>517.0</ele><time>2026-04-25T12:44:44.104Z</time></trkpt><trkpt lat="42.6522211" lon="12.351821"><ele>517.0</ele><time>2026-04-25T12:44:46.087Z</time></trkpt><trkpt lat="42.6522793" lon="12.3516935"><ele>517.0</ele><time>2026-04-25T12:44:47.095Z</time></trkpt><trkpt lat="42.652349" lon="12.3514054"><ele>517.0</ele><time>2026-04-25T12:44:49.089Z</time></trkpt><trkpt lat="42.6523738" lon="12.351248"><ele>518.75</ele><time>2026-04-25T12:44:50.112Z</time></trkpt><trkpt lat="42.6523915" lon="12.3510769"><ele>520.5</ele><time>2026-04-25T12:44:51.089Z</time></trkpt><trkpt lat="42.6523976" lon="12.350884"><ele>522.25</ele><time>2026-04-25T12:44:52.102Z</time></trkpt><trkpt lat="42.6524072" lon="12.3506803"><ele>524.0</ele><time>2026-04-25T12:44:53.109Z</time></trkpt><trkpt lat="42.6524151" lon="12.3504798"><ele>526.5</ele><time>2026-04-25T12:44:54.089Z</time></trkpt><trkpt lat="42.6524303" lon="12.3502898"><ele>529.0</ele><time>2026-04-25T12:44:55.109Z</time></trkpt><trkpt lat="42.6524572" lon="12.3501218"><ele>531.5</ele><time>2026-04-25T12:44:56.099Z</time></trkpt><trkpt lat="42.6524923" lon="12.3499806"><ele>534.0</ele><time>2026-04-25T12:44:57.109Z</time></trkpt><trkpt lat="42.6525507" lon="12.3498841"><ele>534.0</ele><time>2026-04-25T12:44:58.096Z</time></trkpt><trkpt lat="42.6526434" lon="12.3498322"><ele>534.0</ele><time>2026-04-25T12:44:59.118Z</time></trkpt><trkpt lat="42.6527561" lon="12.3498363"><ele>534.0</ele><time>2026-04-25T12:45:00.098Z</time></trkpt><trkpt lat="42.6528833" lon="12.3498859"><ele>534.0</ele><time>2026-04-25T12:45:01.096Z</time></trkpt><trkpt lat="42.6530097" lon="12.3500027"><ele>536.3333333333334</ele><time>2026-04-25T12:45:02.09Z</time></trkpt><trkpt lat="42.6531406" lon="12.3501592"><ele>538.6666666666667</ele><time>2026-04-25T12:45:03.099Z</time></trkpt><trkpt lat="42.6532902" lon="12.3503229"><ele>541.0</ele><time>2026-04-25T12:45:04.112Z</time></trkpt><trkpt lat="42.6534388" lon="12.3504869"><ele>540.0</ele><time>2026-04-25T12:45:05.094Z</time></trkpt><trkpt lat="42.6535689" lon="12.3506189"><ele>539.0</ele><time>2026-04-25T12:45:06.095Z</time></trkpt><trkpt lat="42.6537007" lon="12.3507282"><ele>538.0</ele><time>2026-04-25T12:45:07.109Z</time></trkpt><trkpt lat="42.6538423" lon="12.3507919"><ele>538.0</ele><time>2026-04-25T12:45:08.103Z</time></trkpt><trkpt lat="42.6539937" lon="12.3508093"><ele>538.0</ele><time>2026-04-25T12:45:09.098Z</time></trkpt><trkpt lat="42.6541555" lon="12.3507895"><ele>538.0</ele><time>2026-04-25T12:45:10.096Z</time></trkpt><trkpt lat="42.6543113" lon="12.3507512"><ele>538.0</ele><time>2026-04-25T12:45:11.094Z</time></trkpt><trkpt lat="42.6544514" lon="12.3506828"><ele>538.0</ele><time>2026-04-25T12:45:12.098Z</time></trkpt><trkpt lat="42.6545673" lon="12.350577"><ele>538.0</ele><time>2026-04-25T12:45:13.1Z</time></trkpt><trkpt lat="42.6546504" lon="12.3504069"><ele>538.0</ele><time>2026-04-25T12:45:14.088Z</time></trkpt><trkpt lat="42.654704" lon="12.3501981"><ele>539.6666666666667</ele><time>2026-04-25T12:45:15.101Z</time></trkpt><trkpt lat="42.6547593" lon="12.3499537"><ele>541.3333333333334</ele><time>2026-04-25T12:45:16.094Z</time></trkpt><trkpt lat="42.6548215" lon="12.3497056"><ele>543.0</ele><time>2026-04-25T12:45:17.099Z</time></trkpt><trkpt lat="42.6548808" lon="12.3494604"><ele>546.3333333333334</ele><time>2026-04-25T12:45:18.116Z</time></trkpt><trkpt lat="42.6549513" lon="12.3492322"><ele>549.6666666666667</ele><time>2026-04-25T12:45:19.102Z</time></trkpt><trkpt lat="42.6550436" lon="12.349021"><ele>553.0</ele><time>2026-04-25T12:45:20.099Z</time></trkpt><trkpt lat="42.655163" lon="12.3488594"><ele>553.6666666666667</ele><time>2026-04-25T12:45:21.1Z</time></trkpt><trkpt lat="42.6553106" lon="12.3487303"><ele>554.3333333333334</ele><time>2026-04-25T12:45:22.102Z</time></trkpt><trkpt lat="42.6554659" lon="12.3486321"><ele>555.0</ele><time>2026-04-25T12:45:23.091Z</time></trkpt><trkpt lat="42.6556242" lon="12.3485413"><ele>555.0</ele><time>2026-04-25T12:45:24.105Z</time></trkpt><trkpt lat="42.6557685" lon="12.348452"><ele>555.0</ele><time>2026-04-25T12:45:25.115Z</time></trkpt><trkpt lat="42.6558847" lon="12.3483449"><ele>555.0</ele><time>2026-04-25T12:45:26.098Z</time></trkpt><trkpt lat="42.6559729" lon="12.3482032"><ele>555.0</ele><time>2026-04-25T12:45:27.108Z</time></trkpt><trkpt lat="42.6560275" lon="12.3480269"><ele>559.0</ele><time>2026-04-25T12:45:28.098Z</time></trkpt><trkpt lat="42.6560465" lon="12.347821"><ele>563.0</ele><time>2026-04-25T12:45:29.108Z</time></trkpt><trkpt lat="42.656044" lon="12.3475794"><ele>567.0</ele><time>2026-04-25T12:45:30.112Z</time></trkpt><trkpt lat="42.6560374" lon="12.3473221"><ele>567.6666666666666</ele><time>2026-04-25T12:45:31.089Z</time></trkpt><trkpt lat="42.6560372" lon="12.3470884"><ele>568.3333333333333</ele><time>2026-04-25T12:45:32.093Z</time></trkpt><trkpt lat="42.6560225" lon="12.3468679"><ele>569.0</ele><time>2026-04-25T12:45:33.094Z</time></trkpt><trkpt lat="42.655982" lon="12.3466569"><ele>569.0</ele><time>2026-04-25T12:45:34.097Z</time></trkpt><trkpt lat="42.6559068" lon="12.3464513"><ele>569.0</ele><time>2026-04-25T12:45:35.109Z</time></trkpt><trkpt lat="42.6558011" lon="12.3462584"><ele>569.0</ele><time>2026-04-25T12:45:36.098Z</time></trkpt><trkpt lat="42.6556617" lon="12.3460587"><ele>567.0</ele><time>2026-04-25T12:45:37.088Z</time></trkpt><trkpt lat="42.6555181" lon="12.3458641"><ele>565.0</ele><time>2026-04-25T12:45:38.127Z</time></trkpt><trkpt lat="42.6553907" lon="12.3456787"><ele>563.0</ele><time>2026-04-25T12:45:39.121Z</time></trkpt><trkpt lat="42.6552925" lon="12.3455084"><ele>571.3333333333333</ele><time>2026-04-25T12:45:40.116Z</time></trkpt><trkpt lat="42.6552312" lon="12.3453202"><ele>579.6666666666666</ele><time>2026-04-25T12:45:41.106Z</time></trkpt><trkpt lat="42.6552006" lon="12.3451102"><ele>588.0</ele><time>2026-04-25T12:45:42.115Z</time></trkpt><trkpt lat="42.6551991" lon="12.3448724"><ele>586.3333333333334</ele><time>2026-04-25T12:45:43.106Z</time></trkpt><trkpt lat="42.6552061" lon="12.344621"><ele>584.6666666666667</ele><time>2026-04-25T12:45:44.109Z</time></trkpt><trkpt lat="42.6552064" lon="12.3443855"><ele>583.0</ele><time>2026-04-25T12:45:45.119Z</time></trkpt><trkpt lat="42.6552045" lon="12.34417"><ele>583.0</ele><time>2026-04-25T12:45:46.097Z</time></trkpt><trkpt lat="42.6552042" lon="12.343965"><ele>583.0</ele><time>2026-04-25T12:45:47.091Z</time></trkpt><trkpt lat="42.6552086" lon="12.3437695"><ele>583.0</ele><time>2026-04-25T12:45:48.091Z</time></trkpt><trkpt lat="42.6552288" lon="12.3435801"><ele>583.0</ele><time>2026-04-25T12:45:49.096Z</time></trkpt><trkpt lat="42.6552757" lon="12.3433817"><ele>580.6666666666667</ele><time>2026-04-25T12:45:50.117Z</time></trkpt><trkpt lat="42.655358" lon="12.3431898"><ele>578.3333333333334</ele><time>2026-04-25T12:45:51.095Z</time></trkpt><trkpt lat="42.6554534" lon="12.3429933"><ele>576.0</ele><time>2026-04-25T12:45:52.102Z</time></trkpt><trkpt lat="42.65559" lon="12.3427952"><ele>576.0</ele><time>2026-04-25T12:45:53.085Z</time></trkpt><trkpt lat="42.6557426" lon="12.3425948"><ele>576.0</ele><time>2026-04-25T12:45:54.107Z</time></trkpt><trkpt lat="42.655889" lon="12.3423875"><ele>576.0</ele><time>2026-04-25T12:45:55.107Z</time></trkpt><trkpt lat="42.6560188" lon="12.3421927"><ele>573.0</ele><time>2026-04-25T12:45:56.091Z</time></trkpt><trkpt lat="42.6561421" lon="12.3420085"><ele>570.0</ele><time>2026-04-25T12:45:57.101Z</time></trkpt><trkpt lat="42.6562828" lon="12.3418508"><ele>567.0</ele><time>2026-04-25T12:45:58.098Z</time></trkpt><trkpt lat="42.6564574" lon="12.3417073"><ele>567.0</ele><time>2026-04-25T12:45:59.11Z</time></trkpt><trkpt lat="42.6566588" lon="12.3415701"><ele>567.0</ele><time>2026-04-25T12:46:00.088Z</time></trkpt><trkpt lat="42.6568734" lon="12.3414128"><ele>570.0</ele><time>2026-04-25T12:46:01.099Z</time></trkpt><trkpt lat="42.6571089" lon="12.3412465"><ele>573.0</ele><time>2026-04-25T12:46:02.112Z</time></trkpt><trkpt lat="42.6573602" lon="12.3410638"><ele>573.0</ele><time>2026-04-25T12:46:03.103Z</time></trkpt><trkpt lat="42.6576174" lon="12.3408722"><ele>573.0</ele><time>2026-04-25T12:46:04.108Z</time></trkpt><trkpt lat="42.6578686" lon="12.3406905"><ele>576.0</ele><time>2026-04-25T12:46:05.099Z</time></trkpt><trkpt lat="42.6581119" lon="12.3405163"><ele>579.0</ele><time>2026-04-25T12:46:06.101Z</time></trkpt><trkpt lat="42.6583368" lon="12.3403586"><ele>579.0</ele><time>2026-04-25T12:46:07.091Z</time></trkpt><trkpt lat="42.6585434" lon="12.3402214"><ele>579.0</ele><time>2026-04-25T12:46:08.114Z</time></trkpt><trkpt lat="42.6587385" lon="12.3400889"><ele>579.0</ele><time>2026-04-25T12:46:09.095Z</time></trkpt><trkpt lat="42.6589355" lon="12.3399491"><ele>580.0</ele><time>2026-04-25T12:46:10.094Z</time></trkpt><trkpt lat="42.6591277" lon="12.3398119"><ele>581.0</ele><time>2026-04-25T12:46:11.098Z</time></trkpt><trkpt lat="42.6593143" lon="12.3396796"><ele>582.0</ele><time>2026-04-25T12:46:12.099Z</time></trkpt><trkpt lat="42.6594965" lon="12.3395571"><ele>576.3333333333334</ele><time>2026-04-25T12:46:13.099Z</time></trkpt><trkpt lat="42.6596785" lon="12.3394322"><ele>570.6666666666667</ele><time>2026-04-25T12:46:14.091Z</time></trkpt><trkpt lat="42.6598574" lon="12.3393149"><ele>565.0</ele><time>2026-04-25T12:46:15.086Z</time></trkpt><trkpt lat="42.6600201" lon="12.3392044"><ele>565.0</ele><time>2026-04-25T12:46:16.113Z</time></trkpt><trkpt lat="42.6601695" lon="12.3391024"><ele>565.0</ele><time>2026-04-25T12:46:17.114Z</time></trkpt><trkpt lat="42.6603113" lon="12.3389878"><ele>565.0</ele><time>2026-04-25T12:46:18.093Z</time></trkpt><trkpt lat="42.6604387" lon="12.3388676"><ele>563.3333333333334</ele><time>2026-04-25T12:46:19.106Z</time></trkpt><trkpt lat="42.6605586" lon="12.3387121"><ele>561.6666666666666</ele><time>2026-04-25T12:46:20.098Z</time></trkpt><trkpt lat="42.660652" lon="12.3385188"><ele>560.0</ele><time>2026-04-25T12:46:21.117Z</time></trkpt><trkpt lat="42.6607229" lon="12.3383126"><ele>560.0</ele><time>2026-04-25T12:46:22.098Z</time></trkpt><trkpt lat="42.660791" lon="12.3381158"><ele>560.0</ele><time>2026-04-25T12:46:23.117Z</time></trkpt><trkpt lat="42.6608729" lon="12.337948"><ele>560.0</ele><time>2026-04-25T12:46:24.089Z</time></trkpt><trkpt lat="42.6609802" lon="12.3378181"><ele>561.25</ele><time>2026-04-25T12:46:25.099Z</time></trkpt><trkpt lat="42.6611202" lon="12.3377543"><ele>562.5</ele><time>2026-04-25T12:46:26.114Z</time></trkpt><trkpt lat="42.6612704" lon="12.3377576"><ele>563.75</ele><time>2026-04-25T12:46:27.097Z</time></trkpt><trkpt lat="42.6614079" lon="12.3378257"><ele>565.0</ele><time>2026-04-25T12:46:28.1Z</time></trkpt><trkpt lat="42.6615289" lon="12.3379444"><ele>563.0</ele><time>2026-04-25T12:46:29.1Z</time></trkpt><trkpt lat="42.6616429" lon="12.338087"><ele>561.0</ele><time>2026-04-25T12:46:30.095Z</time></trkpt><trkpt lat="42.6617546" lon="12.3382101"><ele>559.0</ele><time>2026-04-25T12:46:31.1Z</time></trkpt><trkpt lat="42.6618793" lon="12.3382675"><ele>557.0</ele><time>2026-04-25T12:46:32.098Z</time></trkpt><trkpt lat="42.6620184" lon="12.338259"><ele>556.5</ele><time>2026-04-25T12:46:33.093Z</time></trkpt><trkpt lat="42.6621608" lon="12.3381954"><ele>556.0</ele><time>2026-04-25T12:46:34.097Z</time></trkpt><trkpt lat="42.6622771" lon="12.3380758"><ele>555.5</ele><time>2026-04-25T12:46:35.124Z</time></trkpt><trkpt lat="42.6623564" lon="12.337901"><ele>555.0</ele><time>2026-04-25T12:46:36.093Z</time></trkpt><trkpt lat="42.662398" lon="12.3376853"><ele>558.0</ele><time>2026-04-25T12:46:37.09Z</time></trkpt><trkpt lat="42.6624301" lon="12.3374585"><ele>561.0</ele><time>2026-04-25T12:46:38.113Z</time></trkpt><trkpt lat="42.6624606" lon="12.3372415"><ele>564.0</ele><time>2026-04-25T12:46:39.105Z</time></trkpt><trkpt lat="42.6624966" lon="12.3370489"><ele>565.0</ele><time>2026-04-25T12:46:40.086Z</time></trkpt><trkpt lat="42.6625465" lon="12.3368805"><ele>566.0</ele><time>2026-04-25T12:46:41.112Z</time></trkpt><trkpt lat="42.662618" lon="12.3367195"><ele>567.0</ele><time>2026-04-25T12:46:42.097Z</time></trkpt><trkpt lat="42.6627128" lon="12.3365821"><ele>568.0</ele><time>2026-04-25T12:46:43.107Z</time></trkpt><trkpt lat="42.6628334" lon="12.3364744"><ele>568.0</ele><time>2026-04-25T12:46:44.098Z</time></trkpt><trkpt lat="42.6629804" lon="12.3364022"><ele>568.0</ele><time>2026-04-25T12:46:45.096Z</time></trkpt><trkpt lat="42.6631403" lon="12.3363553"><ele>568.0</ele><time>2026-04-25T12:46:46.104Z</time></trkpt><trkpt lat="42.6633166" lon="12.336319"><ele>575.6666666666667</ele><time>2026-04-25T12:46:47.106Z</time></trkpt><trkpt lat="42.6634946" lon="12.3362867"><ele>583.3333333333334</ele><time>2026-04-25T12:46:48.111Z</time></trkpt><trkpt lat="42.6636798" lon="12.3362491"><ele>591.0</ele><time>2026-04-25T12:46:49.101Z</time></trkpt><trkpt lat="42.6638827" lon="12.3362097"><ele>591.0</ele><time>2026-04-25T12:46:50.082Z</time></trkpt><trkpt lat="42.6640911" lon="12.336175"><ele>591.0</ele><time>2026-04-25T12:46:51.101Z</time></trkpt><trkpt lat="42.6642933" lon="12.3361449"><ele>591.0</ele><time>2026-04-25T12:46:52.089Z</time></trkpt><trkpt lat="42.6644778" lon="12.3361287"><ele>588.6666666666666</ele><time>2026-04-25T12:46:53.086Z</time></trkpt><trkpt lat="42.6646522" lon="12.3361102"><ele>586.3333333333333</ele><time>2026-04-25T12:46:54.094Z</time></trkpt><trkpt lat="42.6648078" lon="12.3360683"><ele>584.0</ele><time>2026-04-25T12:46:55.105Z</time></trkpt><trkpt lat="42.6649501" lon="12.3360103"><ele>584.0</ele><time>2026-04-25T12:46:56.105Z</time></trkpt><trkpt lat="42.665084" lon="12.3359226"><ele>584.0</ele><time>2026-04-25T12:46:57.098Z</time></trkpt><trkpt lat="42.6651977" lon="12.3358239"><ele>584.0</ele><time>2026-04-25T12:46:58.09Z</time></trkpt><trkpt lat="42.6652986" lon="12.3357239"><ele>584.0</ele><time>2026-04-25T12:46:59.099Z</time></trkpt><trkpt lat="42.6653901" lon="12.3356226"><ele>586.0</ele><time>2026-04-25T12:47:00.098Z</time></trkpt><trkpt lat="42.6654971" lon="12.3355439"><ele>588.0</ele><time>2026-04-25T12:47:01.094Z</time></trkpt><trkpt lat="42.6656188" lon="12.3354928"><ele>590.0</ele><time>2026-04-25T12:47:02.102Z</time></trkpt><trkpt lat="42.6657481" lon="12.3354815"><ele>592.0</ele><time>2026-04-25T12:47:03.094Z</time></trkpt><trkpt lat="42.6658834" lon="12.3355042"><ele>589.0</ele><time>2026-04-25T12:47:04.099Z</time></trkpt><trkpt lat="42.6660387" lon="12.3355591"><ele>586.0</ele><time>2026-04-25T12:47:05.122Z</time></trkpt><trkpt lat="42.6662063" lon="12.3356033"><ele>583.0</ele><time>2026-04-25T12:47:06.092Z</time></trkpt><trkpt lat="42.6663907" lon="12.3356358"><ele>583.0</ele><time>2026-04-25T12:47:07.094Z</time></trkpt><trkpt lat="42.6665917" lon="12.3356679"><ele>583.0</ele><time>2026-04-25T12:47:08.112Z</time></trkpt><trkpt lat="42.6668048" lon="12.3356896"><ele>583.0</ele><time>2026-04-25T12:47:09.111Z</time></trkpt><trkpt lat="42.6670227" lon="12.3357054"><ele>583.6666666666667</ele><time>2026-04-25T12:47:10.108Z</time></trkpt><trkpt lat="42.6672231" lon="12.3357195"><ele>584.3333333333334</ele><time>2026-04-25T12:47:11.12Z</time></trkpt><trkpt lat="42.6674114" lon="12.3357289"><ele>585.0</ele><time>2026-04-25T12:47:12.097Z</time></trkpt><trkpt lat="42.6675932" lon="12.3357386"><ele>585.0</ele><time>2026-04-25T12:47:13.12Z</time></trkpt><trkpt lat="42.6677708" lon="12.3357459"><ele>585.0</ele><time>2026-04-25T12:47:14.106Z</time></trkpt><trkpt lat="42.6679434" lon="12.3357496"><ele>585.0</ele><time>2026-04-25T12:47:15.085Z</time></trkpt><trkpt lat="42.6681082" lon="12.3357528"><ele>584.5</ele><time>2026-04-25T12:47:16.101Z</time></trkpt><trkpt lat="42.668259" lon="12.3357592"><ele>584.0</ele><time>2026-04-25T12:47:17.088Z</time></trkpt><trkpt lat="42.6684027" lon="12.335763"><ele>583.5</ele><time>2026-04-25T12:47:18.091Z</time></trkpt><trkpt lat="42.6685359" lon="12.3357757"><ele>583.0</ele><time>2026-04-25T12:47:19.101Z</time></trkpt><trkpt lat="42.6686604" lon="12.3358243"><ele>584.25</ele><time>2026-04-25T12:47:20.109Z</time></trkpt><trkpt lat="42.6687769" lon="12.3359093"><ele>585.5</ele><time>2026-04-25T12:47:21.096Z</time></trkpt><trkpt lat="42.6688848" lon="12.3360303"><ele>586.75</ele><time>2026-04-25T12:47:22.117Z</time></trkpt><trkpt lat="42.6689747" lon="12.3361795"><ele>588.0</ele><time>2026-04-25T12:47:23.112Z</time></trkpt><trkpt lat="42.6690499" lon="12.3363485"><ele>588.25</ele><time>2026-04-25T12:47:24.123Z</time></trkpt><trkpt lat="42.6691144" lon="12.3365158"><ele>588.5</ele><time>2026-04-25T12:47:25.128Z</time></trkpt><trkpt lat="42.6691667" lon="12.3366669"><ele>588.75</ele><time>2026-04-25T12:47:26.148Z</time></trkpt><trkpt lat="42.6692194" lon="12.3368093"><ele>589.0</ele><time>2026-04-25T12:47:27.091Z</time></trkpt><trkpt lat="42.6692874" lon="12.3369267"><ele>589.0</ele><time>2026-04-25T12:47:28.108Z</time></trkpt><trkpt lat="42.6693772" lon="12.3370165"><ele>589.0</ele><time>2026-04-25T12:47:29.093Z</time></trkpt><trkpt lat="42.6694901" lon="12.3370805"><ele>589.0</ele><time>2026-04-25T12:47:30.119Z</time></trkpt><trkpt lat="42.6696248" lon="12.3371382"><ele>589.0</ele><time>2026-04-25T12:47:31.129Z</time></trkpt><trkpt lat="42.6697598" lon="12.3372083"><ele>587.3333333333334</ele><time>2026-04-25T12:47:32.1Z</time></trkpt><trkpt lat="42.6698966" lon="12.3372921"><ele>585.6666666666666</ele><time>2026-04-25T12:47:33.124Z</time></trkpt><trkpt lat="42.6700413" lon="12.3373781"><ele>584.0</ele><time>2026-04-25T12:47:34.105Z</time></trkpt><trkpt lat="42.6701893" lon="12.337467"><ele>586.6666666666666</ele><time>2026-04-25T12:47:35.128Z</time></trkpt><trkpt lat="42.6703336" lon="12.3375625"><ele>589.3333333333334</ele><time>2026-04-25T12:47:36.122Z</time></trkpt><trkpt lat="42.6704816" lon="12.3376471"><ele>592.0</ele><time>2026-04-25T12:47:37.109Z</time></trkpt><trkpt lat="42.6706337" lon="12.3377068"><ele>592.0</ele><time>2026-04-25T12:47:38.092Z</time></trkpt><trkpt lat="42.6707945" lon="12.337742"><ele>592.0</ele><time>2026-04-25T12:47:39.111Z</time></trkpt><trkpt lat="42.6709519" lon="12.3377354"><ele>592.0</ele><time>2026-04-25T12:47:40.142Z</time></trkpt><trkpt lat="42.6711061" lon="12.3376663"><ele>591.0</ele><time>2026-04-25T12:47:41.111Z</time></trkpt><trkpt lat="42.6712436" lon="12.3375412"><ele>590.0</ele><time>2026-04-25T12:47:42.101Z</time></trkpt><trkpt lat="42.6713664" lon="12.3374141"><ele>589.0</ele><time>2026-04-25T12:47:43.112Z</time></trkpt><trkpt lat="42.6714826" lon="12.3373319"><ele>589.0</ele><time>2026-04-25T12:47:44.177Z</time></trkpt><trkpt lat="42.6715957" lon="12.3372935"><ele>589.0</ele><time>2026-04-25T12:47:45.138Z</time></trkpt><trkpt lat="42.6716948" lon="12.3373195"><ele>589.0</ele><time>2026-04-25T12:47:46.115Z</time></trkpt><trkpt lat="42.6717753" lon="12.3374101"><ele>589.0</ele><time>2026-04-25T12:47:47.095Z</time></trkpt><trkpt lat="42.6718213" lon="12.3375384"><ele>589.0</ele><time>2026-04-25T12:47:48.109Z</time></trkpt><trkpt lat="42.671845" lon="12.337722"><ele>589.0</ele><time>2026-04-25T12:47:49.094Z</time></trkpt><trkpt lat="42.6718463" lon="12.3379409"><ele>589.0</ele><time>2026-04-25T12:47:50.12Z</time></trkpt><trkpt lat="42.6718457" lon="12.3381561"><ele>589.0</ele><time>2026-04-25T12:47:51.113Z</time></trkpt><trkpt lat="42.6718594" lon="12.3383648"><ele>588.25</ele><time>2026-04-25T12:47:52.111Z</time></trkpt><trkpt lat="42.6718799" lon="12.338551"><ele>587.5</ele><time>2026-04-25T12:47:53.108Z</time></trkpt><trkpt lat="42.6719289" lon="12.3387158"><ele>586.75</ele><time>2026-04-25T12:47:54.115Z</time></trkpt><trkpt lat="42.6720064" lon="12.3388543"><ele>586.0</ele><time>2026-04-25T12:47:55.099Z</time></trkpt><trkpt lat="42.6721157" lon="12.3389528"><ele>586.0</ele><time>2026-04-25T12:47:56.108Z</time></trkpt><trkpt lat="42.6722419" lon="12.3389914"><ele>586.0</ele><time>2026-04-25T12:47:57.097Z</time></trkpt><trkpt lat="42.6723677" lon="12.338974"><ele>586.0</ele><time>2026-04-25T12:47:58.093Z</time></trkpt><trkpt lat="42.6724997" lon="12.3388823"><ele>586.0</ele><time>2026-04-25T12:47:59.103Z</time></trkpt><trkpt lat="42.6726283" lon="12.3387647"><ele>586.0</ele><time>2026-04-25T12:48:00.124Z</time></trkpt><trkpt lat="42.6727674" lon="12.3386468"><ele>586.0</ele><time>2026-04-25T12:48:01.103Z</time></trkpt><trkpt lat="42.6729054" lon="12.338538"><ele>586.0</ele><time>2026-04-25T12:48:02.118Z</time></trkpt><trkpt lat="42.6730271" lon="12.3384395"><ele>585.25</ele><time>2026-04-25T12:48:03.112Z</time></trkpt><trkpt lat="42.673151" lon="12.3383753"><ele>584.5</ele><time>2026-04-25T12:48:04.098Z</time></trkpt><trkpt lat="42.6732758" lon="12.3383764"><ele>583.75</ele><time>2026-04-25T12:48:05.107Z</time></trkpt><trkpt lat="42.6733804" lon="12.3384469"><ele>583.0</ele><time>2026-04-25T12:48:06.11Z</time></trkpt><trkpt lat="42.6734675" lon="12.3385881"><ele>583.0</ele><time>2026-04-25T12:48:07.104Z</time></trkpt><trkpt lat="42.6735182" lon="12.338771"><ele>583.0</ele><time>2026-04-25T12:48:08.126Z</time></trkpt><trkpt lat="42.6735235" lon="12.3389689"><ele>583.0</ele><time>2026-04-25T12:48:09.097Z</time></trkpt><trkpt lat="42.6735163" lon="12.3391793"><ele>583.0</ele><time>2026-04-25T12:48:10.112Z</time></trkpt><trkpt lat="42.6735455" lon="12.3393777"><ele>584.3333333333334</ele><time>2026-04-25T12:48:11.109Z</time></trkpt><trkpt lat="42.6736179" lon="12.3395725"><ele>585.6666666666666</ele><time>2026-04-25T12:48:12.094Z</time></trkpt><trkpt lat="42.6737172" lon="12.3397534"><ele>587.0</ele><time>2026-04-25T12:48:13.099Z</time></trkpt><trkpt lat="42.6738361" lon="12.33992"><ele>582.3333333333333</ele><time>2026-04-25T12:48:14.11Z</time></trkpt><trkpt lat="42.6739579" lon="12.3400627"><ele>577.6666666666666</ele><time>2026-04-25T12:48:15.107Z</time></trkpt><trkpt lat="42.6740905" lon="12.3401872"><ele>573.0</ele><time>2026-04-25T12:48:16.121Z</time></trkpt><trkpt lat="42.6742372" lon="12.3402952"><ele>573.0</ele><time>2026-04-25T12:48:17.106Z</time></trkpt><trkpt lat="42.6743769" lon="12.340379"><ele>573.0</ele><time>2026-04-25T12:48:18.112Z</time></trkpt><trkpt lat="42.6745066" lon="12.3404715"><ele>573.0</ele><time>2026-04-25T12:48:19.093Z</time></trkpt><trkpt lat="42.6746191" lon="12.3405872"><ele>573.0</ele><time>2026-04-25T12:48:20.129Z</time></trkpt><trkpt lat="42.6747104" lon="12.3407385"><ele>574.0</ele><time>2026-04-25T12:48:21.117Z</time></trkpt><trkpt lat="42.6747842" lon="12.3409291"><ele>575.0</ele><time>2026-04-25T12:48:22.093Z</time></trkpt><trkpt lat="42.6748581" lon="12.3411251"><ele>576.0</ele><time>2026-04-25T12:48:23.107Z</time></trkpt><trkpt lat="42.6749572" lon="12.3413077"><ele>576.6666666666666</ele><time>2026-04-25T12:48:24.141Z</time></trkpt><trkpt lat="42.6750645" lon="12.3414643"><ele>577.3333333333333</ele><time>2026-04-25T12:48:25.101Z</time></trkpt><trkpt lat="42.6751746" lon="12.34161"><ele>578.0</ele><time>2026-04-25T12:48:26.09Z</time></trkpt><trkpt lat="42.6752755" lon="12.3417429"><ele>578.0</ele><time>2026-04-25T12:48:27.106Z</time></trkpt><trkpt lat="42.6753692" lon="12.341866"><ele>578.0</ele><time>2026-04-25T12:48:28.09Z</time></trkpt><trkpt lat="42.675447" lon="12.3419665"><ele>578.0</ele><time>2026-04-25T12:48:29.109Z</time></trkpt><trkpt lat="42.6755046" lon="12.3420425"><ele>578.0</ele><time>2026-04-25T12:48:30.091Z</time></trkpt><trkpt lat="42.6755918" lon="12.3421623"><ele>578.0</ele><time>2026-04-25T12:48:32.092Z</time></trkpt><trkpt lat="42.675637" lon="12.3422287"><ele>575.1666666666666</ele><time>2026-04-25T12:48:33.11Z</time></trkpt><trkpt lat="42.6756875" lon="12.3422972"><ele>572.3333333333333</ele><time>2026-04-25T12:48:34.101Z</time></trkpt><trkpt lat="42.6757359" lon="12.3423667"><ele>569.5</ele><time>2026-04-25T12:48:35.104Z</time></trkpt><trkpt lat="42.6757852" lon="12.3424333"><ele>566.6666666666666</ele><time>2026-04-25T12:48:36.111Z</time></trkpt><trkpt lat="42.6758314" lon="12.3425016"><ele>563.8333333333334</ele><time>2026-04-25T12:48:37.121Z</time></trkpt><trkpt lat="42.6759159" lon="12.3426233"><ele>561.0</ele><time>2026-04-25T12:48:39.102Z</time></trkpt><trkpt lat="42.6759793" lon="12.3427399"><ele>561.0</ele><time>2026-04-25T12:48:41.104Z</time></trkpt><trkpt lat="42.6760469" lon="12.3428616"><ele>561.0</ele><time>2026-04-25T12:48:43.116Z</time></trkpt><trkpt lat="42.6760964" lon="12.3429502"><ele>561.0</ele><time>2026-04-25T12:48:45.094Z</time></trkpt><trkpt lat="42.6761305" lon="12.343056"><ele>561.0</ele><time>2026-04-25T12:48:48.118Z</time></trkpt><trkpt lat="42.6760945" lon="12.3429651"><ele>561.0</ele><time>2026-04-25T12:49:05.105Z</time></trkpt><trkpt lat="42.6760623" lon="12.3428822"><ele>561.0</ele><time>2026-04-25T12:49:06.104Z</time></trkpt><trkpt lat="42.6760162" lon="12.3427988"><ele>561.0</ele><time>2026-04-25T12:49:07.093Z</time></trkpt><trkpt lat="42.6759559" lon="12.3426789"><ele>561.0</ele><time>2026-04-25T12:49:09.108Z</time></trkpt><trkpt lat="42.6759042" lon="12.3425763"><ele>561.0</ele><time>2026-04-25T12:49:11.093Z</time></trkpt><trkpt lat="42.6758112" lon="12.3424537"><ele>561.0</ele><time>2026-04-25T12:49:13.09Z</time></trkpt><trkpt lat="42.6757497" lon="12.3423772"><ele>561.0</ele><time>2026-04-25T12:49:14.096Z</time></trkpt><trkpt lat="42.6756841" lon="12.3422936"><ele>561.0</ele><time>2026-04-25T12:49:15.133Z</time></trkpt><trkpt lat="42.6756252" lon="12.3422187"><ele>561.0</ele><time>2026-04-25T12:49:16.108Z</time></trkpt><trkpt lat="42.6755606" lon="12.3421251"><ele>561.0</ele><time>2026-04-25T12:49:18.102Z</time></trkpt><trkpt lat="42.675627" lon="12.3421001"><ele>561.0</ele><time>2026-04-25T12:49:27.097Z</time></trkpt><trkpt lat="42.6757397" lon="12.3422232"><ele>561.0</ele><time>2026-04-25T12:49:29.119Z</time></trkpt><trkpt lat="42.675827" lon="12.3423126"><ele>561.0</ele><time>2026-04-25T12:49:30.095Z</time></trkpt><trkpt lat="42.6759222" lon="12.3423964"><ele>561.0</ele><time>2026-04-25T12:49:31.092Z</time></trkpt><trkpt lat="42.6760342" lon="12.3424864"><ele>561.0</ele><time>2026-04-25T12:49:32.089Z</time></trkpt><trkpt lat="42.6761549" lon="12.3425794"><ele>561.0</ele><time>2026-04-25T12:49:33.084Z</time></trkpt><trkpt lat="42.6762906" lon="12.3426566"><ele>563.25</ele><time>2026-04-25T12:49:34.099Z</time></trkpt><trkpt lat="42.676436" lon="12.3427115"><ele>565.5</ele><time>2026-04-25T12:49:35.1Z</time></trkpt><trkpt lat="42.6765805" lon="12.342755"><ele>567.75</ele><time>2026-04-25T12:49:36.099Z</time></trkpt><trkpt lat="42.6767202" lon="12.3427852"><ele>570.0</ele><time>2026-04-25T12:49:37.104Z</time></trkpt><trkpt lat="42.6768634" lon="12.3427911"><ele>571.75</ele><time>2026-04-25T12:49:38.109Z</time></trkpt><trkpt lat="42.6770069" lon="12.3427801"><ele>573.5</ele><time>2026-04-25T12:49:39.091Z</time></trkpt><trkpt lat="42.6771386" lon="12.3427696"><ele>575.25</ele><time>2026-04-25T12:49:40.107Z</time></trkpt><trkpt lat="42.6772618" lon="12.3427781"><ele>577.0</ele><time>2026-04-25T12:49:41.092Z</time></trkpt><trkpt lat="42.6773744" lon="12.342824"><ele>577.0</ele><time>2026-04-25T12:49:42.092Z</time></trkpt><trkpt lat="42.6774736" lon="12.3429064"><ele>577.0</ele><time>2026-04-25T12:49:43.092Z</time></trkpt><trkpt lat="42.6775737" lon="12.3430171"><ele>577.0</ele><time>2026-04-25T12:49:44.092Z</time></trkpt><trkpt lat="42.6776698" lon="12.3431531"><ele>577.0</ele><time>2026-04-25T12:49:45.098Z</time></trkpt><trkpt lat="42.6777706" lon="12.3432938"><ele>575.0</ele><time>2026-04-25T12:49:46.101Z</time></trkpt><trkpt lat="42.677879" lon="12.3434247"><ele>573.0</ele><time>2026-04-25T12:49:47.093Z</time></trkpt><trkpt lat="42.6780047" lon="12.3435569"><ele>571.0</ele><time>2026-04-25T12:49:48.103Z</time></trkpt><trkpt lat="42.6781411" lon="12.3436856"><ele>571.0</ele><time>2026-04-25T12:49:49.092Z</time></trkpt><trkpt lat="42.6782859" lon="12.3438225"><ele>571.0</ele><time>2026-04-25T12:49:50.1Z</time></trkpt><trkpt lat="42.6784415" lon="12.3439573"><ele>571.0</ele><time>2026-04-25T12:49:51.105Z</time></trkpt><trkpt lat="42.6786047" lon="12.3440847"><ele>568.3333333333334</ele><time>2026-04-25T12:49:52.092Z</time></trkpt><trkpt lat="42.6787668" lon="12.3441992"><ele>565.6666666666666</ele><time>2026-04-25T12:49:53.103Z</time></trkpt><trkpt lat="42.6789229" lon="12.3442886"><ele>563.0</ele><time>2026-04-25T12:49:54.107Z</time></trkpt><trkpt lat="42.6790773" lon="12.3443557"><ele>563.0</ele><time>2026-04-25T12:49:55.097Z</time></trkpt><trkpt lat="42.6792418" lon="12.3444053"><ele>563.0</ele><time>2026-04-25T12:49:56.088Z</time></trkpt><trkpt lat="42.6794119" lon="12.34443"><ele>563.0</ele><time>2026-04-25T12:49:57.094Z</time></trkpt><trkpt lat="42.6795912" lon="12.3444354"><ele>562.0</ele><time>2026-04-25T12:49:58.1Z</time></trkpt><trkpt lat="42.6797652" lon="12.3444107"><ele>561.0</ele><time>2026-04-25T12:49:59.098Z</time></trkpt><trkpt lat="42.6799278" lon="12.3443818"><ele>560.0</ele><time>2026-04-25T12:50:00.106Z</time></trkpt><trkpt lat="42.6800793" lon="12.3443456"><ele>560.0</ele><time>2026-04-25T12:50:01.103Z</time></trkpt><trkpt lat="42.6802247" lon="12.344277"><ele>560.0</ele><time>2026-04-25T12:50:02.099Z</time></trkpt><trkpt lat="42.6803565" lon="12.344158"><ele>560.0</ele><time>2026-04-25T12:50:03.104Z</time></trkpt><trkpt lat="42.6804684" lon="12.3440353"><ele>558.6</ele><time>2026-04-25T12:50:04.09Z</time></trkpt><trkpt lat="42.6805591" lon="12.3439211"><ele>557.2</ele><time>2026-04-25T12:50:05.101Z</time></trkpt><trkpt lat="42.6806577" lon="12.3438493"><ele>555.8</ele><time>2026-04-25T12:50:06.095Z</time></trkpt><trkpt lat="42.6807584" lon="12.3438105"><ele>554.4</ele><time>2026-04-25T12:50:07.091Z</time></trkpt><trkpt lat="42.6808517" lon="12.3438343"><ele>553.0</ele><time>2026-04-25T12:50:08.088Z</time></trkpt><trkpt lat="42.6809439" lon="12.3439122"><ele>553.0</ele><time>2026-04-25T12:50:09.102Z</time></trkpt><trkpt lat="42.6810255" lon="12.3440304"><ele>553.0</ele><time>2026-04-25T12:50:10.093Z</time></trkpt><trkpt lat="42.6810959" lon="12.3441511"><ele>553.0</ele><time>2026-04-25T12:50:11.101Z</time></trkpt><trkpt lat="42.6811622" lon="12.3442639"><ele>553.0</ele><time>2026-04-25T12:50:12.102Z</time></trkpt><trkpt lat="42.6812161" lon="12.3443704"><ele>553.0</ele><time>2026-04-25T12:50:13.101Z</time></trkpt><trkpt lat="42.6812604" lon="12.344472"><ele>553.5</ele><time>2026-04-25T12:50:14.092Z</time></trkpt><trkpt lat="42.6812934" lon="12.3445638"><ele>554.0</ele><time>2026-04-25T12:50:15.099Z</time></trkpt><trkpt lat="42.6813238" lon="12.344658"><ele>554.5</ele><time>2026-04-25T12:50:16.093Z</time></trkpt><trkpt lat="42.6813619" lon="12.3447636"><ele>555.0</ele><time>2026-04-25T12:50:17.098Z</time></trkpt><trkpt lat="42.6814137" lon="12.3448779"><ele>555.5</ele><time>2026-04-25T12:50:18.107Z</time></trkpt><trkpt lat="42.6814694" lon="12.3449959"><ele>556.0</ele><time>2026-04-25T12:50:19.099Z</time></trkpt><trkpt lat="42.6815177" lon="12.345111"><ele>556.0</ele><time>2026-04-25T12:50:20.102Z</time></trkpt><trkpt lat="42.6815522" lon="12.3452122"><ele>556.0</ele><time>2026-04-25T12:50:21.108Z</time></trkpt><trkpt lat="42.6815836" lon="12.3452983"><ele>556.0</ele><time>2026-04-25T12:50:22.102Z</time></trkpt><trkpt lat="42.6816307" lon="12.3453666"><ele>556.0</ele><time>2026-04-25T12:50:23.086Z</time></trkpt><trkpt lat="42.6816808" lon="12.345423"><ele>556.0</ele><time>2026-04-25T12:50:24.118Z</time></trkpt><trkpt lat="42.6817507" lon="12.3454455"><ele>556.0</ele><time>2026-04-25T12:50:25.118Z</time></trkpt><trkpt lat="42.68184" lon="12.3454557"><ele>556.0</ele><time>2026-04-25T12:50:26.107Z</time></trkpt><trkpt lat="42.6819257" lon="12.3454612"><ele>554.6666666666667</ele><time>2026-04-25T12:50:27.099Z</time></trkpt><trkpt lat="42.6820094" lon="12.3454734"><ele>553.3333333333334</ele><time>2026-04-25T12:50:28.114Z</time></trkpt><trkpt lat="42.6820822" lon="12.3454987"><ele>552.0</ele><time>2026-04-25T12:50:29.103Z</time></trkpt><trkpt lat="42.682162" lon="12.3455319"><ele>550.6666666666666</ele><time>2026-04-25T12:50:30.097Z</time></trkpt><trkpt lat="42.6822387" lon="12.345572"><ele>549.3333333333333</ele><time>2026-04-25T12:50:31.106Z</time></trkpt><trkpt lat="42.682321" lon="12.3456116"><ele>548.0</ele><time>2026-04-25T12:50:32.113Z</time></trkpt><trkpt lat="42.6824011" lon="12.3456494"><ele>548.0</ele><time>2026-04-25T12:50:33.12Z</time></trkpt><trkpt lat="42.6824845" lon="12.3456888"><ele>548.0</ele><time>2026-04-25T12:50:34.114Z</time></trkpt><trkpt lat="42.6825658" lon="12.3457338"><ele>548.0</ele><time>2026-04-25T12:50:35.093Z</time></trkpt><trkpt lat="42.682651" lon="12.345781"><ele>548.0</ele><time>2026-04-25T12:50:36.129Z</time></trkpt><trkpt lat="42.6827406" lon="12.3458223"><ele>548.0</ele><time>2026-04-25T12:50:37.107Z</time></trkpt><trkpt lat="42.6828428" lon="12.3458611"><ele>545.4</ele><time>2026-04-25T12:50:38.1Z</time></trkpt><trkpt lat="42.6829516" lon="12.3458986"><ele>542.8</ele><time>2026-04-25T12:50:39.114Z</time></trkpt><trkpt lat="42.6830623" lon="12.3459339"><ele>540.2</ele><time>2026-04-25T12:50:40.097Z</time></trkpt><trkpt lat="42.683168" lon="12.3459614"><ele>537.6</ele><time>2026-04-25T12:50:41.094Z</time></trkpt><trkpt lat="42.6832723" lon="12.345995"><ele>535.0</ele><time>2026-04-25T12:50:42.125Z</time></trkpt><trkpt lat="42.6833752" lon="12.346033"><ele>535.0</ele><time>2026-04-25T12:50:43.094Z</time></trkpt><trkpt lat="42.683478" lon="12.3460772"><ele>535.0</ele><time>2026-04-25T12:50:44.094Z</time></trkpt><trkpt lat="42.6835834" lon="12.3461218"><ele>535.0</ele><time>2026-04-25T12:50:45.097Z</time></trkpt><trkpt lat="42.6837018" lon="12.3461729"><ele>535.0</ele><time>2026-04-25T12:50:46.101Z</time></trkpt><trkpt lat="42.6838301" lon="12.3462405"><ele>533.25</ele><time>2026-04-25T12:50:47.104Z</time></trkpt><trkpt lat="42.6839593" lon="12.3463149"><ele>531.5</ele><time>2026-04-25T12:50:48.112Z</time></trkpt><trkpt lat="42.6840869" lon="12.3463841"><ele>529.75</ele><time>2026-04-25T12:50:49.088Z</time></trkpt><trkpt lat="42.6842044" lon="12.3464555"><ele>528.0</ele><time>2026-04-25T12:50:50.119Z</time></trkpt><trkpt lat="42.6843188" lon="12.346532"><ele>528.0</ele><time>2026-04-25T12:50:51.103Z</time></trkpt><trkpt lat="42.6844296" lon="12.3465997"><ele>528.0</ele><time>2026-04-25T12:50:52.096Z</time></trkpt><trkpt lat="42.6845303" lon="12.3466678"><ele>528.0</ele><time>2026-04-25T12:50:53.097Z</time></trkpt><trkpt lat="42.6846251" lon="12.3467399"><ele>528.0</ele><time>2026-04-25T12:50:54.11Z</time></trkpt><trkpt lat="42.6847313" lon="12.3468365"><ele>526.3333333333334</ele><time>2026-04-25T12:50:55.096Z</time></trkpt><trkpt lat="42.6848525" lon="12.3469461"><ele>524.6666666666667</ele><time>2026-04-25T12:50:56.099Z</time></trkpt><trkpt lat="42.6849888" lon="12.3470656"><ele>523.0</ele><time>2026-04-25T12:50:57.104Z</time></trkpt><trkpt lat="42.6851275" lon="12.3471885"><ele>522.25</ele><time>2026-04-25T12:50:58.106Z</time></trkpt><trkpt lat="42.6852578" lon="12.347304"><ele>521.5</ele><time>2026-04-25T12:50:59.113Z</time></trkpt><trkpt lat="42.6853785" lon="12.3474015"><ele>520.75</ele><time>2026-04-25T12:51:00.117Z</time></trkpt><trkpt lat="42.6854827" lon="12.3474758"><ele>520.0</ele><time>2026-04-25T12:51:01.104Z</time></trkpt><trkpt lat="42.6855799" lon="12.3475334"><ele>519.6</ele><time>2026-04-25T12:51:02.099Z</time></trkpt><trkpt lat="42.6856691" lon="12.3475826"><ele>519.2</ele><time>2026-04-25T12:51:03.093Z</time></trkpt><trkpt lat="42.6857544" lon="12.3476235"><ele>518.8</ele><time>2026-04-25T12:51:04.102Z</time></trkpt><trkpt lat="42.6858394" lon="12.3476727"><ele>518.4</ele><time>2026-04-25T12:51:05.1Z</time></trkpt><trkpt lat="42.6859233" lon="12.3477295"><ele>518.0</ele><time>2026-04-25T12:51:06.105Z</time></trkpt><trkpt lat="42.685997" lon="12.3477952"><ele>518.0</ele><time>2026-04-25T12:51:07.1Z</time></trkpt><trkpt lat="42.6860607" lon="12.347882"><ele>518.0</ele><time>2026-04-25T12:51:08.104Z</time></trkpt><trkpt lat="42.686115" lon="12.3479712"><ele>518.0</ele><time>2026-04-25T12:51:09.099Z</time></trkpt><trkpt lat="42.6861742" lon="12.3480571"><ele>518.0</ele><time>2026-04-25T12:51:10.101Z</time></trkpt><trkpt lat="42.6862411" lon="12.3481525"><ele>518.0</ele><time>2026-04-25T12:51:11.108Z</time></trkpt><trkpt lat="42.6863136" lon="12.348254"><ele>515.4</ele><time>2026-04-25T12:51:12.101Z</time></trkpt><trkpt lat="42.6863827" lon="12.3483532"><ele>512.8</ele><time>2026-04-25T12:51:13.13Z</time></trkpt><trkpt lat="42.6864483" lon="12.3484559"><ele>510.2</ele><time>2026-04-25T12:51:14.095Z</time></trkpt><trkpt lat="42.686513" lon="12.3485683"><ele>507.6</ele><time>2026-04-25T12:51:15.101Z</time></trkpt><trkpt lat="42.6865775" lon="12.3486838"><ele>505.0</ele><time>2026-04-25T12:51:16.098Z</time></trkpt><trkpt lat="42.6866386" lon="12.3488011"><ele>504.6</ele><time>2026-04-25T12:51:17.104Z</time></trkpt><trkpt lat="42.6866896" lon="12.3489193"><ele>504.2</ele><time>2026-04-25T12:51:18.116Z</time></trkpt><trkpt lat="42.6867289" lon="12.3490507"><ele>503.79999999999995</ele><time>2026-04-25T12:51:19.101Z</time></trkpt><trkpt lat="42.686758" lon="12.3491812"><ele>503.4</ele><time>2026-04-25T12:51:20.1Z</time></trkpt><trkpt lat="42.6867788" lon="12.3493131"><ele>503.0</ele><time>2026-04-25T12:51:21.113Z</time></trkpt><trkpt lat="42.6867977" lon="12.3494495"><ele>503.0</ele><time>2026-04-25T12:51:22.108Z</time></trkpt><trkpt lat="42.6868355" lon="12.3495923"><ele>503.0</ele><time>2026-04-25T12:51:23.101Z</time></trkpt><trkpt lat="42.6868997" lon="12.349737"><ele>503.0</ele><time>2026-04-25T12:51:24.103Z</time></trkpt><trkpt lat="42.6869806" lon="12.3498558"><ele>503.0</ele><time>2026-04-25T12:51:25.107Z</time></trkpt><trkpt lat="42.6870702" lon="12.3499562"><ele>499.59999999999997</ele><time>2026-04-25T12:51:26.111Z</time></trkpt><trkpt lat="42.6871482" lon="12.3500625"><ele>496.19999999999993</ele><time>2026-04-25T12:51:27.101Z</time></trkpt><trkpt lat="42.6872147" lon="12.3501841"><ele>492.8</ele><time>2026-04-25T12:51:28.1Z</time></trkpt><trkpt lat="42.6872618" lon="12.3503188"><ele>489.4</ele><time>2026-04-25T12:51:29.098Z</time></trkpt><trkpt lat="42.6872973" lon="12.3504591"><ele>486.0</ele><time>2026-04-25T12:51:30.112Z</time></trkpt><trkpt lat="42.6873317" lon="12.350603"><ele>485.0</ele><time>2026-04-25T12:51:31.098Z</time></trkpt><trkpt lat="42.6873834" lon="12.3507354"><ele>484.0</ele><time>2026-04-25T12:51:32.105Z</time></trkpt><trkpt lat="42.6874606" lon="12.3508425"><ele>483.0</ele><time>2026-04-25T12:51:33.114Z</time></trkpt><trkpt lat="42.6875515" lon="12.3509371"><ele>482.0</ele><time>2026-04-25T12:51:34.094Z</time></trkpt><trkpt lat="42.6876436" lon="12.3510273"><ele>481.0</ele><time>2026-04-25T12:51:35.126Z</time></trkpt><trkpt lat="42.6877315" lon="12.3511193"><ele>479.8</ele><time>2026-04-25T12:51:36.095Z</time></trkpt><trkpt lat="42.6878137" lon="12.3512071"><ele>478.6</ele><time>2026-04-25T12:51:37.111Z</time></trkpt><trkpt lat="42.687893" lon="12.3512988"><ele>477.4</ele><time>2026-04-25T12:51:38.094Z</time></trkpt><trkpt lat="42.6879641" lon="12.3514065"><ele>476.2</ele><time>2026-04-25T12:51:39.093Z</time></trkpt><trkpt lat="42.68804" lon="12.3515298"><ele>475.0</ele><time>2026-04-25T12:51:40.108Z</time></trkpt><trkpt lat="42.6881275" lon="12.3516538"><ele>474.0</ele><time>2026-04-25T12:51:41.086Z</time></trkpt><trkpt lat="42.6882283" lon="12.3517733"><ele>473.0</ele><time>2026-04-25T12:51:42.094Z</time></trkpt><trkpt lat="42.6883273" lon="12.3518906"><ele>472.0</ele><time>2026-04-25T12:51:43.103Z</time></trkpt><trkpt lat="42.6884232" lon="12.3520102"><ele>471.0</ele><time>2026-04-25T12:51:44.1Z</time></trkpt><trkpt lat="42.6885074" lon="12.352138"><ele>470.0</ele><time>2026-04-25T12:51:45.117Z</time></trkpt><trkpt lat="42.6885799" lon="12.3522554"><ele>469.0</ele><time>2026-04-25T12:51:46.108Z</time></trkpt><trkpt lat="42.6886505" lon="12.352364"><ele>468.0</ele><time>2026-04-25T12:51:47.098Z</time></trkpt><trkpt lat="42.6887206" lon="12.3524586"><ele>467.0</ele><time>2026-04-25T12:51:48.104Z</time></trkpt><trkpt lat="42.6887807" lon="12.3525356"><ele>466.0</ele><time>2026-04-25T12:51:49.101Z</time></trkpt><trkpt lat="42.6888272" lon="12.3526001"><ele>466.00000000000006</ele><time>2026-04-25T12:51:50.109Z</time></trkpt><trkpt lat="42.6888857" lon="12.3526404"><ele>466.0</ele><time>2026-04-25T12:51:52.101Z</time></trkpt><trkpt lat="42.6889531" lon="12.3526169"><ele>466.0</ele><time>2026-04-25T12:51:55.103Z</time></trkpt><trkpt lat="42.6890361" lon="12.3525298"><ele>466.0</ele><time>2026-04-25T12:51:58.097Z</time></trkpt><trkpt lat="42.6891323" lon="12.3524869"><ele>466.00000000000006</ele><time>2026-04-25T12:52:00.104Z</time></trkpt><trkpt lat="42.6892033" lon="12.3524003"><ele>466.0</ele><time>2026-04-25T12:52:02.094Z</time></trkpt><trkpt lat="42.6892985" lon="12.3523333"><ele>463.6</ele><time>2026-04-25T12:52:04.107Z</time></trkpt><trkpt lat="42.6894303" lon="12.3523082"><ele>461.20000000000005</ele><time>2026-04-25T12:52:06.119Z</time></trkpt><trkpt lat="42.6895005" lon="12.3523114"><ele>458.79999999999995</ele><time>2026-04-25T12:52:07.099Z</time></trkpt><trkpt lat="42.6895768" lon="12.3523196"><ele>456.4</ele><time>2026-04-25T12:52:08.089Z</time></trkpt><trkpt lat="42.6896437" lon="12.3523253"><ele>454.0</ele><time>2026-04-25T12:52:09.114Z</time></trkpt><trkpt lat="42.6897672" lon="12.3522869"><ele>454.0</ele><time>2026-04-25T12:52:11.095Z</time></trkpt><trkpt lat="42.6898747" lon="12.3522173"><ele>454.0</ele><time>2026-04-25T12:52:13.117Z</time></trkpt><trkpt lat="42.6899358" lon="12.3521839"><ele>454.0</ele><time>2026-04-25T12:52:14.1Z</time></trkpt><trkpt lat="42.6900613" lon="12.3521599"><ele>454.0</ele><time>2026-04-25T12:52:16.117Z</time></trkpt><trkpt lat="42.6901297" lon="12.3521545"><ele>454.0</ele><time>2026-04-25T12:52:17.089Z</time></trkpt><trkpt lat="42.690202" lon="12.3521501"><ele>454.1666666666667</ele><time>2026-04-25T12:52:18.093Z</time></trkpt><trkpt lat="42.6902714" lon="12.3521478"><ele>454.33333333333337</ele><time>2026-04-25T12:52:19.111Z</time></trkpt><trkpt lat="42.6903399" lon="12.3521386"><ele>454.5</ele><time>2026-04-25T12:52:20.1Z</time></trkpt><trkpt lat="42.6904058" lon="12.3521131"><ele>454.66666666666663</ele><time>2026-04-25T12:52:21.107Z</time></trkpt><trkpt lat="42.6904633" lon="12.3520717"><ele>454.8333333333333</ele><time>2026-04-25T12:52:22.125Z</time></trkpt><trkpt lat="42.6905463" lon="12.3519733"><ele>455.0</ele><time>2026-04-25T12:52:24.082Z</time></trkpt><trkpt lat="42.6905976" lon="12.3518763"><ele>455.0</ele><time>2026-04-25T12:52:27.14Z</time></trkpt><trkpt lat="42.6906289" lon="12.3518017"><ele>455.0</ele><time>2026-04-25T12:52:29.11Z</time></trkpt><trkpt lat="42.6906336" lon="12.351685"><ele>455.0</ele><time>2026-04-25T12:52:31.105Z</time></trkpt><trkpt lat="42.6906501" lon="12.3515708"><ele>455.0</ele><time>2026-04-25T12:52:33.11Z</time></trkpt><trkpt lat="42.690713" lon="12.3514536"><ele>455.0</ele><time>2026-04-25T12:52:35.104Z</time></trkpt><trkpt lat="42.6907973" lon="12.3513372"><ele>455.49999999999994</ele><time>2026-04-25T12:52:37.098Z</time></trkpt><trkpt lat="42.6908648" lon="12.3512991"><ele>456.0</ele><time>2026-04-25T12:52:38.112Z</time></trkpt><trkpt lat="42.690943" lon="12.3512755"><ele>456.5</ele><time>2026-04-25T12:52:39.093Z</time></trkpt><trkpt lat="42.6910267" lon="12.3512515"><ele>457.0</ele><time>2026-04-25T12:52:40.112Z</time></trkpt><trkpt lat="42.6911134" lon="12.3512254"><ele>457.49999999999994</ele><time>2026-04-25T12:52:41.09Z</time></trkpt><trkpt lat="42.6912082" lon="12.3512021"><ele>458.0</ele><time>2026-04-25T12:52:42.137Z</time></trkpt><trkpt lat="42.691297" lon="12.3511811"><ele>458.16666666666663</ele><time>2026-04-25T12:52:43.12Z</time></trkpt><trkpt lat="42.6913874" lon="12.3511667"><ele>458.3333333333333</ele><time>2026-04-25T12:52:44.09Z</time></trkpt><trkpt lat="42.6914686" lon="12.3511554"><ele>458.5</ele><time>2026-04-25T12:52:45.101Z</time></trkpt><trkpt lat="42.6915825" lon="12.3511455"><ele>458.66666666666663</ele><time>2026-04-25T12:52:47.095Z</time></trkpt><trkpt lat="42.691666" lon="12.3511409"><ele>458.8333333333333</ele><time>2026-04-25T12:52:49.102Z</time></trkpt><trkpt lat="42.6917367" lon="12.3511239"><ele>459.0</ele><time>2026-04-25T12:52:51.096Z</time></trkpt><trkpt lat="42.6918429" lon="12.3510462"><ele>459.0</ele><time>2026-04-25T12:52:53.11Z</time></trkpt><trkpt lat="42.6919152" lon="12.350999"><ele>459.0</ele><time>2026-04-25T12:52:54.092Z</time></trkpt><trkpt lat="42.6919902" lon="12.3509686"><ele>459.0</ele><time>2026-04-25T12:52:55.097Z</time></trkpt><trkpt lat="42.6920634" lon="12.3509579"><ele>459.0</ele><time>2026-04-25T12:52:56.094Z</time></trkpt><trkpt lat="42.6921381" lon="12.3509681"><ele>459.0</ele><time>2026-04-25T12:52:57.114Z</time></trkpt><trkpt lat="42.6922228" lon="12.3509818"><ele>459.0</ele><time>2026-04-25T12:52:58.098Z</time></trkpt><trkpt lat="42.6923146" lon="12.350971"><ele>460.0</ele><time>2026-04-25T12:52:59.094Z</time></trkpt><trkpt lat="42.6924082" lon="12.3509486"><ele>461.0</ele><time>2026-04-25T12:53:00.092Z</time></trkpt><trkpt lat="42.6925059" lon="12.3509283"><ele>462.0</ele><time>2026-04-25T12:53:01.099Z</time></trkpt><trkpt lat="42.6925992" lon="12.3509219"><ele>463.0</ele><time>2026-04-25T12:53:02.107Z</time></trkpt><trkpt lat="42.6926781" lon="12.3509233"><ele>464.0</ele><time>2026-04-25T12:53:03.09Z</time></trkpt><trkpt lat="42.6927909" lon="12.3509095"><ele>464.3333333333333</ele><time>2026-04-25T12:53:05.114Z</time></trkpt><trkpt lat="42.6928681" lon="12.3508637"><ele>464.66666666666663</ele><time>2026-04-25T12:53:07.116Z</time></trkpt><trkpt lat="42.6929662" lon="12.3507955"><ele>465.0</ele><time>2026-04-25T12:53:09.094Z</time></trkpt><trkpt lat="42.693082" lon="12.350731"><ele>465.33333333333337</ele><time>2026-04-25T12:53:11.113Z</time></trkpt><trkpt lat="42.6931404" lon="12.3506906"><ele>465.6666666666667</ele><time>2026-04-25T12:53:12.104Z</time></trkpt><trkpt lat="42.693196" lon="12.3506482"><ele>466.0</ele><time>2026-04-25T12:53:13.094Z</time></trkpt><trkpt lat="42.6932989" lon="12.3505591"><ele>466.20000000000005</ele><time>2026-04-25T12:53:15.097Z</time></trkpt><trkpt lat="42.6933947" lon="12.3504544"><ele>466.40000000000003</ele><time>2026-04-25T12:53:17.108Z</time></trkpt><trkpt lat="42.6934697" lon="12.3503332"><ele>466.6</ele><time>2026-04-25T12:53:19.11Z</time></trkpt><trkpt lat="42.6935058" lon="12.3502591"><ele>466.8</ele><time>2026-04-25T12:53:20.087Z</time></trkpt><trkpt lat="42.6935392" lon="12.3501828"><ele>467.0</ele><time>2026-04-25T12:53:21.09Z</time></trkpt><trkpt lat="42.6936157" lon="12.3500508"><ele>466.6</ele><time>2026-04-25T12:53:23.11Z</time></trkpt><trkpt lat="42.6936644" lon="12.3499883"><ele>466.20000000000005</ele><time>2026-04-25T12:53:24.089Z</time></trkpt><trkpt lat="42.6937288" lon="12.3499116"><ele>465.8</ele><time>2026-04-25T12:53:25.107Z</time></trkpt><trkpt lat="42.6937999" lon="12.3498355"><ele>465.4</ele><time>2026-04-25T12:53:26.098Z</time></trkpt><trkpt lat="42.6938821" lon="12.3497431"><ele>465.0</ele><time>2026-04-25T12:53:27.108Z</time></trkpt><trkpt lat="42.6939657" lon="12.3496467"><ele>464.6666666666667</ele><time>2026-04-25T12:53:28.089Z</time></trkpt><trkpt lat="42.6940397" lon="12.3495636"><ele>464.33333333333337</ele><time>2026-04-25T12:53:29.106Z</time></trkpt><trkpt lat="42.6941072" lon="12.3494916"><ele>464.0</ele><time>2026-04-25T12:53:30.11Z</time></trkpt><trkpt lat="42.6941701" lon="12.3494272"><ele>463.6666666666667</ele><time>2026-04-25T12:53:31.103Z</time></trkpt><trkpt lat="42.694232" lon="12.3493622"><ele>463.33333333333337</ele><time>2026-04-25T12:53:32.094Z</time></trkpt><trkpt lat="42.6943001" lon="12.3492931"><ele>463.0</ele><time>2026-04-25T12:53:33.091Z</time></trkpt><trkpt lat="42.6943654" lon="12.3492209"><ele>462.1666666666667</ele><time>2026-04-25T12:53:34.109Z</time></trkpt><trkpt lat="42.6944295" lon="12.3491468"><ele>461.33333333333337</ele><time>2026-04-25T12:53:35.105Z</time></trkpt><trkpt lat="42.6944905" lon="12.3490792"><ele>460.5</ele><time>2026-04-25T12:53:36.09Z</time></trkpt><trkpt lat="42.6945482" lon="12.3490154"><ele>459.66666666666663</ele><time>2026-04-25T12:53:37.109Z</time></trkpt><trkpt lat="42.6946078" lon="12.3489554"><ele>458.8333333333333</ele><time>2026-04-25T12:53:38.129Z</time></trkpt><trkpt lat="42.6946678" lon="12.3489023"><ele>458.0</ele><time>2026-04-25T12:53:39.11Z</time></trkpt><trkpt lat="42.6947255" lon="12.3488526"><ele>458.0</ele><time>2026-04-25T12:53:40.094Z</time></trkpt><trkpt lat="42.6947814" lon="12.3487996"><ele>457.99999999999994</ele><time>2026-04-25T12:53:41.115Z</time></trkpt><trkpt lat="42.6948429" lon="12.3487605"><ele>457.99999999999994</ele><time>2026-04-25T12:53:42.095Z</time></trkpt><trkpt lat="42.6949561" lon="12.3487428"><ele>458.0</ele><time>2026-04-25T12:53:44.099Z</time></trkpt><trkpt lat="42.6950739" lon="12.3487348"><ele>458.0</ele><time>2026-04-25T12:53:46.122Z</time></trkpt><trkpt lat="42.6951877" lon="12.3486849"><ele>457.16666666666663</ele><time>2026-04-25T12:53:48.124Z</time></trkpt><trkpt lat="42.695286" lon="12.348597"><ele>456.3333333333333</ele><time>2026-04-25T12:53:50.108Z</time></trkpt><trkpt lat="42.6953462" lon="12.348566"><ele>455.5</ele><time>2026-04-25T12:53:51.09Z</time></trkpt><trkpt lat="42.6954192" lon="12.3485464"><ele>454.66666666666663</ele><time>2026-04-25T12:53:52.108Z</time></trkpt><trkpt lat="42.6954994" lon="12.3485205"><ele>453.8333333333333</ele><time>2026-04-25T12:53:53.111Z</time></trkpt><trkpt lat="42.6955905" lon="12.3484894"><ele>453.0</ele><time>2026-04-25T12:53:54.096Z</time></trkpt><trkpt lat="42.6956815" lon="12.3484637"><ele>453.0</ele><time>2026-04-25T12:53:55.097Z</time></trkpt><trkpt lat="42.6957651" lon="12.3484327"><ele>453.0</ele><time>2026-04-25T12:53:56.099Z</time></trkpt><trkpt lat="42.6958436" lon="12.3483968"><ele>453.0</ele><time>2026-04-25T12:53:57.112Z</time></trkpt><trkpt lat="42.695918" lon="12.3483643"><ele>453.0</ele><time>2026-04-25T12:53:58.121Z</time></trkpt><trkpt lat="42.6959908" lon="12.3483318"><ele>453.0</ele><time>2026-04-25T12:53:59.097Z</time></trkpt><trkpt lat="42.6960631" lon="12.3482976"><ele>453.0</ele><time>2026-04-25T12:54:00.092Z</time></trkpt><trkpt lat="42.6961296" lon="12.3482743"><ele>452.0</ele><time>2026-04-25T12:54:01.11Z</time></trkpt><trkpt lat="42.6961956" lon="12.3482492"><ele>450.99999999999994</ele><time>2026-04-25T12:54:02.101Z</time></trkpt><trkpt lat="42.6962598" lon="12.3482253"><ele>449.99999999999994</ele><time>2026-04-25T12:54:03.114Z</time></trkpt><trkpt lat="42.696369" lon="12.3481804"><ele>449.0</ele><time>2026-04-25T12:54:05.1Z</time></trkpt><trkpt lat="42.6964803" lon="12.3481604"><ele>448.0</ele><time>2026-04-25T12:54:07.109Z</time></trkpt><trkpt lat="42.6965912" lon="12.3481239"><ele>448.2</ele><time>2026-04-25T12:54:09.096Z</time></trkpt><trkpt lat="42.6966825" lon="12.3480252"><ele>448.4</ele><time>2026-04-25T12:54:11.116Z</time></trkpt><trkpt lat="42.6967231" lon="12.3478606"><ele>448.59999999999997</ele><time>2026-04-25T12:54:13.109Z</time></trkpt><trkpt lat="42.696732" lon="12.3477737"><ele>448.79999999999995</ele><time>2026-04-25T12:54:14.11Z</time></trkpt><trkpt lat="42.6967168" lon="12.3476189"><ele>449.0</ele><time>2026-04-25T12:54:16.095Z</time></trkpt><trkpt lat="42.6966562" lon="12.3475053"><ele>449.0</ele><time>2026-04-25T12:54:18.112Z</time></trkpt><trkpt lat="42.6966064" lon="12.3474525"><ele>448.99999999999994</ele><time>2026-04-25T12:54:19.091Z</time></trkpt><trkpt lat="42.6965594" lon="12.3473867"><ele>449.0</ele><time>2026-04-25T12:54:20.1Z</time></trkpt><trkpt lat="42.6965238" lon="12.3473158"><ele>449.0</ele><time>2026-04-25T12:54:21.094Z</time></trkpt><trkpt lat="42.6965434" lon="12.3471979"><ele>448.99999999999994</ele><time>2026-04-25T12:54:23.089Z</time></trkpt><trkpt lat="42.6966006" lon="12.3471581"><ele>449.0</ele><time>2026-04-25T12:54:24.096Z</time></trkpt><trkpt lat="42.6966843" lon="12.3471139"><ele>449.0</ele><time>2026-04-25T12:54:25.109Z</time></trkpt><trkpt lat="42.6967741" lon="12.3470541"><ele>449.49999999999994</ele><time>2026-04-25T12:54:26.104Z</time></trkpt><trkpt lat="42.6968647" lon="12.3469809"><ele>450.0</ele><time>2026-04-25T12:54:27.1Z</time></trkpt><trkpt lat="42.6969438" lon="12.3469112"><ele>450.5</ele><time>2026-04-25T12:54:28.1Z</time></trkpt><trkpt lat="42.6970131" lon="12.346837"><ele>451.0</ele><time>2026-04-25T12:54:29.114Z</time></trkpt><trkpt lat="42.6970755" lon="12.3467615"><ele>451.49999999999994</ele><time>2026-04-25T12:54:30.128Z</time></trkpt><trkpt lat="42.6971286" lon="12.3466947"><ele>452.0</ele><time>2026-04-25T12:54:31.092Z</time></trkpt><trkpt lat="42.6972231" lon="12.3465818"><ele>452.16666666666663</ele><time>2026-04-25T12:54:33.09Z</time></trkpt><trkpt lat="42.6972815" lon="12.346533"><ele>452.3333333333333</ele><time>2026-04-25T12:54:34.114Z</time></trkpt><trkpt lat="42.6973395" lon="12.3464944"><ele>452.5</ele><time>2026-04-25T12:54:35.09Z</time></trkpt><trkpt lat="42.6974262" lon="12.346443"><ele>452.66666666666663</ele><time>2026-04-25T12:54:37.121Z</time></trkpt><trkpt lat="42.6974929" lon="12.3463889"><ele>452.8333333333333</ele><time>2026-04-25T12:54:40.11Z</time></trkpt><trkpt lat="42.6975847" lon="12.3464121"><ele>453.0</ele><time>2026-04-25T12:54:43.111Z</time></trkpt><trkpt lat="42.6976497" lon="12.346439"><ele>453.0</ele><time>2026-04-25T12:54:45.122Z</time></trkpt><trkpt lat="42.6977333" lon="12.3464312"><ele>453.0</ele><time>2026-04-25T12:54:47.1Z</time></trkpt><trkpt lat="42.6978398" lon="12.3463935"><ele>453.0</ele><time>2026-04-25T12:54:49.107Z</time></trkpt><trkpt lat="42.6979051" lon="12.346368"><ele>453.0</ele><time>2026-04-25T12:54:50.09Z</time></trkpt><trkpt lat="42.6979836" lon="12.3463363"><ele>453.0</ele><time>2026-04-25T12:54:51.106Z</time></trkpt><trkpt lat="42.6980602" lon="12.3463086"><ele>453.0</ele><time>2026-04-25T12:54:52.11Z</time></trkpt><trkpt lat="42.6981288" lon="12.3462869"><ele>453.5</ele><time>2026-04-25T12:54:53.098Z</time></trkpt><trkpt lat="42.6982061" lon="12.346277"><ele>454.0</ele><time>2026-04-25T12:54:54.092Z</time></trkpt><trkpt lat="42.6982814" lon="12.3462938"><ele>454.5</ele><time>2026-04-25T12:54:55.099Z</time></trkpt><trkpt lat="42.6983477" lon="12.3463337"><ele>455.0</ele><time>2026-04-25T12:54:56.094Z</time></trkpt><trkpt lat="42.6984049" lon="12.3463891"><ele>455.5</ele><time>2026-04-25T12:54:57.089Z</time></trkpt><trkpt lat="42.6984555" lon="12.3464555"><ele>456.0</ele><time>2026-04-25T12:54:58.102Z</time></trkpt><trkpt lat="42.6985045" lon="12.3465965"><ele>456.0</ele><time>2026-04-25T12:55:00.113Z</time></trkpt><trkpt lat="42.6985438" lon="12.3467616"><ele>456.0</ele><time>2026-04-25T12:55:02.1Z</time></trkpt><trkpt lat="42.6985791" lon="12.3468336"><ele>456.0</ele><time>2026-04-25T12:55:03.109Z</time></trkpt><trkpt lat="42.6986279" lon="12.3468942"><ele>456.0</ele><time>2026-04-25T12:55:04.094Z</time></trkpt><trkpt lat="42.6987308" lon="12.3469505"><ele>456.0</ele><time>2026-04-25T12:55:06.114Z</time></trkpt><trkpt lat="42.6987995" lon="12.3469624"><ele>456.0</ele><time>2026-04-25T12:55:07.098Z</time></trkpt><trkpt lat="42.698875" lon="12.346981"><ele>457.1666666666667</ele><time>2026-04-25T12:55:08.097Z</time></trkpt><trkpt lat="42.6989543" lon="12.3469984"><ele>458.33333333333337</ele><time>2026-04-25T12:55:09.109Z</time></trkpt><trkpt lat="42.6990299" lon="12.3470199"><ele>459.5</ele><time>2026-04-25T12:55:10.09Z</time></trkpt><trkpt lat="42.699103" lon="12.3470441"><ele>460.6666666666667</ele><time>2026-04-25T12:55:11.111Z</time></trkpt><trkpt lat="42.6991745" lon="12.3470725"><ele>461.83333333333337</ele><time>2026-04-25T12:55:12.11Z</time></trkpt><trkpt lat="42.6992484" lon="12.3470985"><ele>463.0</ele><time>2026-04-25T12:55:13.09Z</time></trkpt><trkpt lat="42.6993258" lon="12.3471407"><ele>463.00000000000006</ele><time>2026-04-25T12:55:14.088Z</time></trkpt><trkpt lat="42.6994028" lon="12.3471872"><ele>463.0</ele><time>2026-04-25T12:55:15.106Z</time></trkpt><trkpt lat="42.6994656" lon="12.3472397"><ele>463.0</ele><time>2026-04-25T12:55:16.093Z</time></trkpt><trkpt lat="42.6995183" lon="12.3473087"><ele>463.0</ele><time>2026-04-25T12:55:17.109Z</time></trkpt><trkpt lat="42.6995653" lon="12.347398"><ele>463.00000000000006</ele><time>2026-04-25T12:55:18.104Z</time></trkpt><trkpt lat="42.6996011" lon="12.3474982"><ele>463.0</ele><time>2026-04-25T12:55:19.1Z</time></trkpt><trkpt lat="42.6996354" lon="12.3476015"><ele>464.57142857142856</ele><time>2026-04-25T12:55:20.091Z</time></trkpt><trkpt lat="42.6996543" lon="12.347704"><ele>466.1428571428571</ele><time>2026-04-25T12:55:21.108Z</time></trkpt><trkpt lat="42.6996636" lon="12.347806"><ele>467.71428571428567</ele><time>2026-04-25T12:55:22.109Z</time></trkpt><trkpt lat="42.699662" lon="12.3479028"><ele>469.2857142857142</ele><time>2026-04-25T12:55:23.11Z</time></trkpt><trkpt lat="42.6996662" lon="12.3479947"><ele>470.85714285714283</ele><time>2026-04-25T12:55:24.105Z</time></trkpt><trkpt lat="42.699686" lon="12.3480786"><ele>472.42857142857133</ele><time>2026-04-25T12:55:25.112Z</time></trkpt><trkpt lat="42.6997267" lon="12.3481652"><ele>473.99999999999994</ele><time>2026-04-25T12:55:26.11Z</time></trkpt><trkpt lat="42.6997715" lon="12.348246"><ele>474.0</ele><time>2026-04-25T12:55:27.095Z</time></trkpt><trkpt lat="42.6998553" lon="12.3483078"><ele>474.0</ele><time>2026-04-25T12:55:29.089Z</time></trkpt><trkpt lat="42.6999364" lon="12.3482444"><ele>474.0</ele><time>2026-04-25T12:55:31.106Z</time></trkpt><trkpt lat="42.6999795" lon="12.3481809"><ele>474.0</ele><time>2026-04-25T12:55:32.102Z</time></trkpt><trkpt lat="42.7000221" lon="12.3480845"><ele>474.0</ele><time>2026-04-25T12:55:33.122Z</time></trkpt><trkpt lat="42.7000656" lon="12.3479787"><ele>474.0</ele><time>2026-04-25T12:55:34.105Z</time></trkpt><trkpt lat="42.7001149" lon="12.3478631"><ele>474.0</ele><time>2026-04-25T12:55:35.108Z</time></trkpt><trkpt lat="42.7001656" lon="12.3477536"><ele>474.0</ele><time>2026-04-25T12:55:36.103Z</time></trkpt><trkpt lat="42.7002167" lon="12.3476619"><ele>474.0</ele><time>2026-04-25T12:55:37.1Z</time></trkpt><trkpt lat="42.7002804" lon="12.3475911"><ele>474.0</ele><time>2026-04-25T12:55:38.102Z</time></trkpt><trkpt lat="42.7003481" lon="12.3475423"><ele>474.0</ele><time>2026-04-25T12:55:39.108Z</time></trkpt><trkpt lat="42.7004169" lon="12.347521"><ele>474.0</ele><time>2026-04-25T12:55:40.104Z</time></trkpt><trkpt lat="42.7004819" lon="12.3475401"><ele>476.2</ele><time>2026-04-25T12:55:41.089Z</time></trkpt><trkpt lat="42.7005508" lon="12.34758"><ele>478.4</ele><time>2026-04-25T12:55:42.107Z</time></trkpt><trkpt lat="42.7006202" lon="12.3476513"><ele>480.6</ele><time>2026-04-25T12:55:43.094Z</time></trkpt><trkpt lat="42.7007032" lon="12.347727"><ele>482.8</ele><time>2026-04-25T12:55:44.104Z</time></trkpt><trkpt lat="42.7007904" lon="12.3477979"><ele>485.0</ele><time>2026-04-25T12:55:45.097Z</time></trkpt><trkpt lat="42.700879" lon="12.3478509"><ele>485.0</ele><time>2026-04-25T12:55:46.122Z</time></trkpt><trkpt lat="42.7009755" lon="12.3478829"><ele>485.0</ele><time>2026-04-25T12:55:47.101Z</time></trkpt><trkpt lat="42.7010755" lon="12.3479042"><ele>485.0</ele><time>2026-04-25T12:55:48.093Z</time></trkpt><trkpt lat="42.7011883" lon="12.3479127"><ele>485.0</ele><time>2026-04-25T12:55:49.111Z</time></trkpt><trkpt lat="42.7013184" lon="12.3479365"><ele>485.0</ele><time>2026-04-25T12:55:50.1Z</time></trkpt><trkpt lat="42.7014635" lon="12.3479953"><ele>490.0</ele><time>2026-04-25T12:55:51.109Z</time></trkpt><trkpt lat="42.7016201" lon="12.3480693"><ele>495.0</ele><time>2026-04-25T12:55:52.104Z</time></trkpt><trkpt lat="42.7017717" lon="12.3481446"><ele>500.0</ele><time>2026-04-25T12:55:53.097Z</time></trkpt><trkpt lat="42.7018948" lon="12.3482122"><ele>501.0</ele><time>2026-04-25T12:55:54.092Z</time></trkpt><trkpt lat="42.7019931" lon="12.3482752"><ele>502.0</ele><time>2026-04-25T12:55:55.103Z</time></trkpt><trkpt lat="42.7020802" lon="12.3483422"><ele>503.0</ele><time>2026-04-25T12:55:56.096Z</time></trkpt><trkpt lat="42.7021617" lon="12.3484211"><ele>504.0</ele><time>2026-04-25T12:55:57.087Z</time></trkpt><trkpt lat="42.7022355" lon="12.3485092"><ele>505.0</ele><time>2026-04-25T12:55:58.118Z</time></trkpt><trkpt lat="42.7023201" lon="12.3485843"><ele>505.0</ele><time>2026-04-25T12:55:59.108Z</time></trkpt><trkpt lat="42.7024113" lon="12.3486515"><ele>505.0</ele><time>2026-04-25T12:56:00.1Z</time></trkpt><trkpt lat="42.7025103" lon="12.3487207"><ele>505.0</ele><time>2026-04-25T12:56:01.125Z</time></trkpt><trkpt lat="42.7026035" lon="12.34879"><ele>505.0</ele><time>2026-04-25T12:56:02.113Z</time></trkpt><trkpt lat="42.7026844" lon="12.348852"><ele>505.0</ele><time>2026-04-25T12:56:03.103Z</time></trkpt><trkpt lat="42.7027549" lon="12.3489207"><ele>505.50000000000006</ele><time>2026-04-25T12:56:04.106Z</time></trkpt><trkpt lat="42.7028187" lon="12.3489904"><ele>506.0</ele><time>2026-04-25T12:56:05.099Z</time></trkpt><trkpt lat="42.7028902" lon="12.3491034"><ele>506.5</ele><time>2026-04-25T12:56:07.099Z</time></trkpt><trkpt lat="42.7029264" lon="12.3491856"><ele>507.0</ele><time>2026-04-25T12:56:09.109Z</time></trkpt><trkpt lat="42.7029305" lon="12.3493014"><ele>507.50000000000006</ele><time>2026-04-25T12:56:13.11Z</time></trkpt><trkpt lat="42.7029366" lon="12.3493871"><ele>508.0</ele><time>2026-04-25T12:56:14.114Z</time></trkpt><trkpt lat="42.7029672" lon="12.3494899"><ele>508.0</ele><time>2026-04-25T12:56:15.104Z</time></trkpt><trkpt lat="42.7030178" lon="12.3496168"><ele>508.0</ele><time>2026-04-25T12:56:16.1Z</time></trkpt><trkpt lat="42.7030872" lon="12.349753"><ele>508.0</ele><time>2026-04-25T12:56:17.121Z</time></trkpt><trkpt lat="42.703194" lon="12.3498577"><ele>508.0</ele><time>2026-04-25T12:56:18.102Z</time></trkpt><trkpt lat="42.7033318" lon="12.3499187"><ele>510.0</ele><time>2026-04-25T12:56:19.116Z</time></trkpt><trkpt lat="42.7034901" lon="12.3499508"><ele>512.0</ele><time>2026-04-25T12:56:20.116Z</time></trkpt><trkpt lat="42.7036534" lon="12.3499766"><ele>514.0</ele><time>2026-04-25T12:56:21.093Z</time></trkpt><trkpt lat="42.7037921" lon="12.3500168"><ele>514.0</ele><time>2026-04-25T12:56:22.098Z</time></trkpt><trkpt lat="42.7039102" lon="12.3500757"><ele>514.0</ele><time>2026-04-25T12:56:23.155Z</time></trkpt><trkpt lat="42.7040152" lon="12.3501704"><ele>514.0</ele><time>2026-04-25T12:56:24.12Z</time></trkpt><trkpt lat="42.7041083" lon="12.3502834"><ele>514.0</ele><time>2026-04-25T12:56:25.088Z</time></trkpt><trkpt lat="42.7042276" lon="12.3504061"><ele>514.0</ele><time>2026-04-25T12:56:26.124Z</time></trkpt><trkpt lat="42.7043875" lon="12.3505389"><ele>514.0</ele><time>2026-04-25T12:56:27.116Z</time></trkpt><trkpt lat="42.7045653" lon="12.3506477"><ele>514.0</ele><time>2026-04-25T12:56:28.116Z</time></trkpt><trkpt lat="42.704725" lon="12.350742"><ele>515.0</ele><time>2026-04-25T12:56:29.12Z</time></trkpt><trkpt lat="42.7048495" lon="12.3508414"><ele>516.0</ele><time>2026-04-25T12:56:30.118Z</time></trkpt><trkpt lat="42.7049654" lon="12.3509525"><ele>517.0</ele><time>2026-04-25T12:56:31.096Z</time></trkpt><trkpt lat="42.7050662" lon="12.3510733"><ele>518.0</ele><time>2026-04-25T12:56:32.102Z</time></trkpt><trkpt lat="42.7051496" lon="12.3512095"><ele>519.0</ele><time>2026-04-25T12:56:33.103Z</time></trkpt><trkpt lat="42.7052233" lon="12.3513776"><ele>520.0</ele><time>2026-04-25T12:56:34.102Z</time></trkpt><trkpt lat="42.7052957" lon="12.3515701"><ele>521.0</ele><time>2026-04-25T12:56:35.114Z</time></trkpt><trkpt lat="42.7053727" lon="12.351751"><ele>516.6666666666666</ele><time>2026-04-25T12:56:36.09Z</time></trkpt><trkpt lat="42.705455" lon="12.3519129"><ele>512.3333333333334</ele><time>2026-04-25T12:56:37.099Z</time></trkpt><trkpt lat="42.7055617" lon="12.3520443"><ele>508.0</ele><time>2026-04-25T12:56:38.088Z</time></trkpt><trkpt lat="42.705714" lon="12.3521313"><ele>508.0</ele><time>2026-04-25T12:56:39.101Z</time></trkpt><trkpt lat="42.7058814" lon="12.3521893"><ele>508.0</ele><time>2026-04-25T12:56:40.092Z</time></trkpt><trkpt lat="42.70606" lon="12.3522376"><ele>508.0</ele><time>2026-04-25T12:56:41.105Z</time></trkpt><trkpt lat="42.7062409" lon="12.3522877"><ele>507.75</ele><time>2026-04-25T12:56:42.114Z</time></trkpt><trkpt lat="42.7063921" lon="12.3523401"><ele>507.5</ele><time>2026-04-25T12:56:43.096Z</time></trkpt><trkpt lat="42.706525" lon="12.3523948"><ele>507.25</ele><time>2026-04-25T12:56:44.097Z</time></trkpt><trkpt lat="42.7066456" lon="12.3524366"><ele>507.0</ele><time>2026-04-25T12:56:45.111Z</time></trkpt><trkpt lat="42.7067794" lon="12.3524392"><ele>505.0</ele><time>2026-04-25T12:56:46.096Z</time></trkpt><trkpt lat="42.7069311" lon="12.352384"><ele>503.0</ele><time>2026-04-25T12:56:47.153Z</time></trkpt><trkpt lat="42.707086" lon="12.3523063"><ele>501.0</ele><time>2026-04-25T12:56:48.112Z</time></trkpt><trkpt lat="42.7072501" lon="12.3522286"><ele>499.66666666666663</ele><time>2026-04-25T12:56:49.11Z</time></trkpt><trkpt lat="42.7074123" lon="12.3521597"><ele>498.3333333333333</ele><time>2026-04-25T12:56:50.103Z</time></trkpt><trkpt lat="42.7075811" lon="12.3521048"><ele>497.0</ele><time>2026-04-25T12:56:51.102Z</time></trkpt><trkpt lat="42.70774" lon="12.3520718"><ele>495.66666666666663</ele><time>2026-04-25T12:56:52.132Z</time></trkpt><trkpt lat="42.7078995" lon="12.352066"><ele>494.33333333333337</ele><time>2026-04-25T12:56:53.098Z</time></trkpt><trkpt lat="42.70806" lon="12.3520658"><ele>493.0</ele><time>2026-04-25T12:56:54.104Z</time></trkpt><trkpt lat="42.70822" lon="12.3520696"><ele>493.0</ele><time>2026-04-25T12:56:55.108Z</time></trkpt><trkpt lat="42.7083799" lon="12.3520844"><ele>493.0</ele><time>2026-04-25T12:56:56.105Z</time></trkpt><trkpt lat="42.7085386" lon="12.3521122"><ele>493.0</ele><time>2026-04-25T12:56:57.089Z</time></trkpt><trkpt lat="42.7087051" lon="12.3521665"><ele>491.0</ele><time>2026-04-25T12:56:58.109Z</time></trkpt><trkpt lat="42.7088842" lon="12.3522404"><ele>489.0</ele><time>2026-04-25T12:56:59.094Z</time></trkpt><trkpt lat="42.7090745" lon="12.3523097"><ele>487.0</ele><time>2026-04-25T12:57:00.089Z</time></trkpt><trkpt lat="42.7092594" lon="12.3523565"><ele>487.0</ele><time>2026-04-25T12:57:01.111Z</time></trkpt><trkpt lat="42.7094368" lon="12.3523843"><ele>487.0</ele><time>2026-04-25T12:57:02.096Z</time></trkpt><trkpt lat="42.70961" lon="12.3524076"><ele>487.0</ele><time>2026-04-25T12:57:03.104Z</time></trkpt><trkpt lat="42.709775" lon="12.3524307"><ele>487.0</ele><time>2026-04-25T12:57:04.102Z</time></trkpt><trkpt lat="42.7099322" lon="12.3524538"><ele>487.0</ele><time>2026-04-25T12:57:05.102Z</time></trkpt><trkpt lat="42.7100876" lon="12.3525028"><ele>487.0</ele><time>2026-04-25T12:57:06.101Z</time></trkpt><trkpt lat="42.710242" lon="12.3525617"><ele>486.6666666666667</ele><time>2026-04-25T12:57:07.106Z</time></trkpt><trkpt lat="42.7104052" lon="12.3526181"><ele>486.33333333333337</ele><time>2026-04-25T12:57:08.116Z</time></trkpt><trkpt lat="42.7105749" lon="12.3526835"><ele>486.0</ele><time>2026-04-25T12:57:09.088Z</time></trkpt><trkpt lat="42.7107363" lon="12.3527587"><ele>486.0</ele><time>2026-04-25T12:57:10.112Z</time></trkpt><trkpt lat="42.7108804" lon="12.3528359"><ele>486.0</ele><time>2026-04-25T12:57:11.111Z</time></trkpt><trkpt lat="42.7110045" lon="12.3529083"><ele>486.0</ele><time>2026-04-25T12:57:12.101Z</time></trkpt><trkpt lat="42.7111194" lon="12.3529797"><ele>486.0</ele><time>2026-04-25T12:57:13.113Z</time></trkpt><trkpt lat="42.7112414" lon="12.3530526"><ele>485.25</ele><time>2026-04-25T12:57:14.111Z</time></trkpt><trkpt lat="42.7113726" lon="12.3531224"><ele>484.5</ele><time>2026-04-25T12:57:15.092Z</time></trkpt><trkpt lat="42.7115084" lon="12.3531707"><ele>483.75</ele><time>2026-04-25T12:57:16.086Z</time></trkpt><trkpt lat="42.7116427" lon="12.3532099"><ele>483.0</ele><time>2026-04-25T12:57:17.111Z</time></trkpt><trkpt lat="42.7117769" lon="12.3532502"><ele>482.0</ele><time>2026-04-25T12:57:18.111Z</time></trkpt><trkpt lat="42.7119104" lon="12.3532828"><ele>481.0</ele><time>2026-04-25T12:57:19.108Z</time></trkpt><trkpt lat="42.7120593" lon="12.353292"><ele>480.0</ele><time>2026-04-25T12:57:20.097Z</time></trkpt><trkpt lat="42.7122066" lon="12.3532869"><ele>479.0</ele><time>2026-04-25T12:57:21.105Z</time></trkpt><trkpt lat="42.7123409" lon="12.3532836"><ele>479.0</ele><time>2026-04-25T12:57:22.112Z</time></trkpt><trkpt lat="42.7124644" lon="12.3532918"><ele>479.0</ele><time>2026-04-25T12:57:23.103Z</time></trkpt><trkpt lat="42.7125832" lon="12.3533095"><ele>479.0</ele><time>2026-04-25T12:57:24.101Z</time></trkpt><trkpt lat="42.7126881" lon="12.353338"><ele>479.0</ele><time>2026-04-25T12:57:25.098Z</time></trkpt><trkpt lat="42.7127836" lon="12.3533741"><ele>479.0</ele><time>2026-04-25T12:57:26.118Z</time></trkpt><trkpt lat="42.7128706" lon="12.3534197"><ele>478.3333333333333</ele><time>2026-04-25T12:57:27.103Z</time></trkpt><trkpt lat="42.7129494" lon="12.3534751"><ele>477.66666666666663</ele><time>2026-04-25T12:57:28.089Z</time></trkpt><trkpt lat="42.7130239" lon="12.3535444"><ele>477.0</ele><time>2026-04-25T12:57:29.097Z</time></trkpt><trkpt lat="42.7130823" lon="12.3536172"><ele>476.33333333333337</ele><time>2026-04-25T12:57:30.104Z</time></trkpt><trkpt lat="42.7131307" lon="12.3536948"><ele>475.6666666666667</ele><time>2026-04-25T12:57:31.101Z</time></trkpt><trkpt lat="42.7131796" lon="12.3537799"><ele>475.0</ele><time>2026-04-25T12:57:32.107Z</time></trkpt><trkpt lat="42.7132343" lon="12.3538594"><ele>475.4</ele><time>2026-04-25T12:57:33.094Z</time></trkpt><trkpt lat="42.7132938" lon="12.3539335"><ele>475.8</ele><time>2026-04-25T12:57:34.1Z</time></trkpt><trkpt lat="42.7133607" lon="12.3540316"><ele>476.20000000000005</ele><time>2026-04-25T12:57:35.117Z</time></trkpt><trkpt lat="42.7134347" lon="12.3541244"><ele>476.6</ele><time>2026-04-25T12:57:36.093Z</time></trkpt><trkpt lat="42.7135118" lon="12.3542126"><ele>477.0</ele><time>2026-04-25T12:57:37.102Z</time></trkpt><trkpt lat="42.7135893" lon="12.3542805"><ele>475.5</ele><time>2026-04-25T12:57:38.119Z</time></trkpt><trkpt lat="42.7136706" lon="12.354342"><ele>474.0</ele><time>2026-04-25T12:57:39.104Z</time></trkpt><trkpt lat="42.7137503" lon="12.3543981"><ele>472.5</ele><time>2026-04-25T12:57:40.115Z</time></trkpt><trkpt lat="42.7138194" lon="12.3544558"><ele>471.0</ele><time>2026-04-25T12:57:41.116Z</time></trkpt><trkpt lat="42.7138903" lon="12.3545169"><ele>469.5</ele><time>2026-04-25T12:57:42.103Z</time></trkpt><trkpt lat="42.7139678" lon="12.3545879"><ele>468.0</ele><time>2026-04-25T12:57:43.102Z</time></trkpt><trkpt lat="42.7140575" lon="12.3546576"><ele>467.79999999999995</ele><time>2026-04-25T12:57:44.111Z</time></trkpt><trkpt lat="42.7141415" lon="12.3547255"><ele>467.59999999999997</ele><time>2026-04-25T12:57:45.11Z</time></trkpt><trkpt lat="42.7142252" lon="12.3548016"><ele>467.40000000000003</ele><time>2026-04-25T12:57:46.099Z</time></trkpt><trkpt lat="42.7143221" lon="12.3548636"><ele>467.20000000000005</ele><time>2026-04-25T12:57:47.117Z</time></trkpt><trkpt lat="42.7144163" lon="12.3549477"><ele>467.0</ele><time>2026-04-25T12:57:48.132Z</time></trkpt><trkpt lat="42.7145125" lon="12.3550363"><ele>462.75</ele><time>2026-04-25T12:57:49.102Z</time></trkpt><trkpt lat="42.7146112" lon="12.3551252"><ele>458.5</ele><time>2026-04-25T12:57:50.125Z</time></trkpt><trkpt lat="42.7147067" lon="12.3552267"><ele>454.25</ele><time>2026-04-25T12:57:51.115Z</time></trkpt><trkpt lat="42.7147913" lon="12.3553368"><ele>450.0</ele><time>2026-04-25T12:57:52.088Z</time></trkpt><trkpt lat="42.7148639" lon="12.3554439"><ele>450.0</ele><time>2026-04-25T12:57:53.105Z</time></trkpt><trkpt lat="42.7149472" lon="12.3555276"><ele>450.0</ele><time>2026-04-25T12:57:54.102Z</time></trkpt><trkpt lat="42.7150479" lon="12.3555771"><ele>450.0</ele><time>2026-04-25T12:57:55.102Z</time></trkpt><trkpt lat="42.7151729" lon="12.3555827"><ele>450.0</ele><time>2026-04-25T12:57:56.092Z</time></trkpt><trkpt lat="42.7153093" lon="12.3555781"><ele>449.0</ele><time>2026-04-25T12:57:57.097Z</time></trkpt><trkpt lat="42.715436" lon="12.3555943"><ele>448.0</ele><time>2026-04-25T12:57:58.092Z</time></trkpt><trkpt lat="42.7155477" lon="12.3556292"><ele>447.0</ele><time>2026-04-25T12:57:59.119Z</time></trkpt><trkpt lat="42.7156556" lon="12.355676"><ele>446.0</ele><time>2026-04-25T12:58:00.095Z</time></trkpt><trkpt lat="42.7157551" lon="12.3557309"><ele>446.0</ele><time>2026-04-25T12:58:01.112Z</time></trkpt><trkpt lat="42.7158555" lon="12.3557875"><ele>446.0</ele><time>2026-04-25T12:58:02.124Z</time></trkpt><trkpt lat="42.7159603" lon="12.3558475"><ele>446.0</ele><time>2026-04-25T12:58:03.112Z</time></trkpt><trkpt lat="42.7160651" lon="12.3559175"><ele>446.0</ele><time>2026-04-25T12:58:04.102Z</time></trkpt><trkpt lat="42.7161699" lon="12.3560052"><ele>442.75</ele><time>2026-04-25T12:58:05.109Z</time></trkpt><trkpt lat="42.7162628" lon="12.3561019"><ele>439.5</ele><time>2026-04-25T12:58:06.102Z</time></trkpt><trkpt lat="42.7163516" lon="12.3562093"><ele>436.25</ele><time>2026-04-25T12:58:07.101Z</time></trkpt><trkpt lat="42.7164345" lon="12.3563246"><ele>433.0</ele><time>2026-04-25T12:58:08.105Z</time></trkpt><trkpt lat="42.716511" lon="12.3564451"><ele>433.0</ele><time>2026-04-25T12:58:09.103Z</time></trkpt><trkpt lat="42.7165946" lon="12.3565647"><ele>432.99999999999994</ele><time>2026-04-25T12:58:10.093Z</time></trkpt><trkpt lat="42.7166654" lon="12.3566805"><ele>432.99999999999994</ele><time>2026-04-25T12:58:11.102Z</time></trkpt><trkpt lat="42.716722" lon="12.3567975"><ele>433.0</ele><time>2026-04-25T12:58:12.111Z</time></trkpt><trkpt lat="42.7167578" lon="12.356921"><ele>433.0</ele><time>2026-04-25T12:58:13.097Z</time></trkpt><trkpt lat="42.7167829" lon="12.3570445"><ele>433.0</ele><time>2026-04-25T12:58:14.11Z</time></trkpt><trkpt lat="42.7168046" lon="12.3571821"><ele>432.99999999999994</ele><time>2026-04-25T12:58:15.093Z</time></trkpt><trkpt lat="42.7168263" lon="12.3573282"><ele>432.99999999999994</ele><time>2026-04-25T12:58:16.095Z</time></trkpt><trkpt lat="42.716843" lon="12.3574704"><ele>433.0</ele><time>2026-04-25T12:58:17.127Z</time></trkpt><trkpt lat="42.7168632" lon="12.3576056"><ele>433.0</ele><time>2026-04-25T12:58:18.11Z</time></trkpt><trkpt lat="42.7168843" lon="12.3577309"><ele>430.2</ele><time>2026-04-25T12:58:19.112Z</time></trkpt><trkpt lat="42.716904" lon="12.3578472"><ele>427.4</ele><time>2026-04-25T12:58:20.106Z</time></trkpt><trkpt lat="42.7169386" lon="12.3579459"><ele>424.59999999999997</ele><time>2026-04-25T12:58:21.104Z</time></trkpt><trkpt lat="42.7170175" lon="12.3580013"><ele>421.79999999999995</ele><time>2026-04-25T12:58:22.094Z</time></trkpt><trkpt lat="42.7171208" lon="12.3579902"><ele>419.0</ele><time>2026-04-25T12:58:23.102Z</time></trkpt><trkpt lat="42.7172125" lon="12.3579179"><ele>419.0</ele><time>2026-04-25T12:58:24.13Z</time></trkpt><trkpt lat="42.7172982" lon="12.3578096"><ele>419.0</ele><time>2026-04-25T12:58:25.114Z</time></trkpt><trkpt lat="42.7173837" lon="12.357696"><ele>419.0</ele><time>2026-04-25T12:58:26.103Z</time></trkpt><trkpt lat="42.7174623" lon="12.3575811"><ele>419.0</ele><time>2026-04-25T12:58:27.095Z</time></trkpt><trkpt lat="42.717503" lon="12.3574525"><ele>419.0</ele><time>2026-04-25T12:58:28.119Z</time></trkpt><trkpt lat="42.7175126" lon="12.3573206"><ele>419.0</ele><time>2026-04-25T12:58:29.102Z</time></trkpt><trkpt lat="42.7174664" lon="12.3571914"><ele>419.0</ele><time>2026-04-25T12:58:30.099Z</time></trkpt><trkpt lat="42.7173796" lon="12.3570871"><ele>419.0</ele><time>2026-04-25T12:58:31.097Z</time></trkpt><trkpt lat="42.7172589" lon="12.3569974"><ele>416.5</ele><time>2026-04-25T12:58:32.11Z</time></trkpt><trkpt lat="42.7171539" lon="12.3569019"><ele>414.0</ele><time>2026-04-25T12:58:33.101Z</time></trkpt><trkpt lat="42.7170654" lon="12.3567895"><ele>411.5</ele><time>2026-04-25T12:58:34.105Z</time></trkpt><trkpt lat="42.7169914" lon="12.3566693"><ele>409.0</ele><time>2026-04-25T12:58:35.102Z</time></trkpt><trkpt lat="42.7169293" lon="12.3565313"><ele>412.75</ele><time>2026-04-25T12:58:36.099Z</time></trkpt><trkpt lat="42.7168928" lon="12.3563722"><ele>416.5</ele><time>2026-04-25T12:58:37.097Z</time></trkpt><trkpt lat="42.7168671" lon="12.3562004"><ele>420.25</ele><time>2026-04-25T12:58:38.096Z</time></trkpt><trkpt lat="42.7168294" lon="12.3560143"><ele>424.0</ele><time>2026-04-25T12:58:39.111Z</time></trkpt><trkpt lat="42.7167626" lon="12.3558113"><ele>424.0</ele><time>2026-04-25T12:58:40.1Z</time></trkpt><trkpt lat="42.716689" lon="12.3556108"><ele>424.0</ele><time>2026-04-25T12:58:41.096Z</time></trkpt><trkpt lat="42.71662" lon="12.3554212"><ele>424.0</ele><time>2026-04-25T12:58:42.113Z</time></trkpt><trkpt lat="42.7165586" lon="12.3552507"><ele>422.0</ele><time>2026-04-25T12:58:43.114Z</time></trkpt><trkpt lat="42.7165079" lon="12.3551164"><ele>420.0</ele><time>2026-04-25T12:58:44.096Z</time></trkpt><trkpt lat="42.7164643" lon="12.3550005"><ele>418.0</ele><time>2026-04-25T12:58:45.097Z</time></trkpt><trkpt lat="42.7164313" lon="12.3548936"><ele>416.0</ele><time>2026-04-25T12:58:46.111Z</time></trkpt><trkpt lat="42.7164102" lon="12.3547825"><ele>414.0</ele><time>2026-04-25T12:58:47.091Z</time></trkpt><trkpt lat="42.7164056" lon="12.3546612"><ele>414.0</ele><time>2026-04-25T12:58:48.11Z</time></trkpt><trkpt lat="42.7164268" lon="12.3545552"><ele>414.0</ele><time>2026-04-25T12:58:49.105Z</time></trkpt><trkpt lat="42.7164837" lon="12.3544823"><ele>414.0</ele><time>2026-04-25T12:58:50.103Z</time></trkpt><trkpt lat="42.7165597" lon="12.3544815"><ele>414.0</ele><time>2026-04-25T12:58:51.107Z</time></trkpt><trkpt lat="42.7166279" lon="12.3545485"><ele>414.0</ele><time>2026-04-25T12:58:52.1Z</time></trkpt><trkpt lat="42.7166663" lon="12.3546566"><ele>414.0</ele><time>2026-04-25T12:58:53.114Z</time></trkpt><trkpt lat="42.7166791" lon="12.3548039"><ele>414.0</ele><time>2026-04-25T12:58:54.082Z</time></trkpt><trkpt lat="42.7166869" lon="12.35496"><ele>414.0</ele><time>2026-04-25T12:58:55.15Z</time></trkpt><trkpt lat="42.7167019" lon="12.3551203"><ele>414.0</ele><time>2026-04-25T12:58:56.097Z</time></trkpt><trkpt lat="42.7167425" lon="12.3552782"><ele>414.0</ele><time>2026-04-25T12:58:57.1Z</time></trkpt><trkpt lat="42.7168062" lon="12.3554336"><ele>416.5</ele><time>2026-04-25T12:58:58.102Z</time></trkpt><trkpt lat="42.7168819" lon="12.355589"><ele>419.0</ele><time>2026-04-25T12:58:59.116Z</time></trkpt><trkpt lat="42.7169746" lon="12.3557215"><ele>421.5</ele><time>2026-04-25T12:59:00.096Z</time></trkpt><trkpt lat="42.7170876" lon="12.3558107"><ele>424.0</ele><time>2026-04-25T12:59:01.105Z</time></trkpt><trkpt lat="42.7172105" lon="12.3558746"><ele>418.0</ele><time>2026-04-25T12:59:02.111Z</time></trkpt><trkpt lat="42.7173297" lon="12.3559565"><ele>412.0</ele><time>2026-04-25T12:59:03.132Z</time></trkpt><trkpt lat="42.7174345" lon="12.3560493"><ele>406.0</ele><time>2026-04-25T12:59:04.104Z</time></trkpt><trkpt lat="42.7175326" lon="12.3561479"><ele>400.0</ele><time>2026-04-25T12:59:05.091Z</time></trkpt><trkpt lat="42.7176275" lon="12.3562361"><ele>400.0</ele><time>2026-04-25T12:59:06.101Z</time></trkpt><trkpt lat="42.7177262" lon="12.3562937"><ele>400.0</ele><time>2026-04-25T12:59:07.098Z</time></trkpt><trkpt lat="42.7178249" lon="12.3563375"><ele>400.0</ele><time>2026-04-25T12:59:08.099Z</time></trkpt><trkpt lat="42.7179324" lon="12.3563951"><ele>400.0</ele><time>2026-04-25T12:59:09.084Z</time></trkpt><trkpt lat="42.7180577" lon="12.3564711"><ele>397.25</ele><time>2026-04-25T12:59:10.109Z</time></trkpt><trkpt lat="42.7181912" lon="12.3565542"><ele>394.5</ele><time>2026-04-25T12:59:11.11Z</time></trkpt><trkpt lat="42.7183188" lon="12.3566171"><ele>391.75</ele><time>2026-04-25T12:59:12.084Z</time></trkpt><trkpt lat="42.7184497" lon="12.3566579"><ele>389.0</ele><time>2026-04-25T12:59:13.112Z</time></trkpt><trkpt lat="42.7185853" lon="12.356663"><ele>386.66666666666663</ele><time>2026-04-25T12:59:14.107Z</time></trkpt><trkpt lat="42.7187417" lon="12.3566168"><ele>384.3333333333333</ele><time>2026-04-25T12:59:15.101Z</time></trkpt><trkpt lat="42.7188977" lon="12.356546"><ele>382.0</ele><time>2026-04-25T12:59:16.112Z</time></trkpt><trkpt lat="42.7190472" lon="12.3564709"><ele>382.0</ele><time>2026-04-25T12:59:17.089Z</time></trkpt><trkpt lat="42.7191867" lon="12.3564056"><ele>382.0</ele><time>2026-04-25T12:59:18.097Z</time></trkpt><trkpt lat="42.7193211" lon="12.3563521"><ele>382.0</ele><time>2026-04-25T12:59:19.115Z</time></trkpt><trkpt lat="42.7194367" lon="12.3563075"><ele>382.0</ele><time>2026-04-25T12:59:20.104Z</time></trkpt><trkpt lat="42.7195498" lon="12.3562978"><ele>380.6</ele><time>2026-04-25T12:59:21.104Z</time></trkpt><trkpt lat="42.7196467" lon="12.356352"><ele>379.20000000000005</ele><time>2026-04-25T12:59:22.102Z</time></trkpt><trkpt lat="42.7197256" lon="12.3564598"><ele>377.8</ele><time>2026-04-25T12:59:23.113Z</time></trkpt><trkpt lat="42.7197789" lon="12.3565999"><ele>376.4</ele><time>2026-04-25T12:59:24.1Z</time></trkpt><trkpt lat="42.7197944" lon="12.3567576"><ele>375.0</ele><time>2026-04-25T12:59:25.094Z</time></trkpt><trkpt lat="42.7197686" lon="12.3569295"><ele>375.25</ele><time>2026-04-25T12:59:26.103Z</time></trkpt><trkpt lat="42.7196958" lon="12.3570776"><ele>375.5</ele><time>2026-04-25T12:59:27.105Z</time></trkpt><trkpt lat="42.7195975" lon="12.3571927"><ele>375.75</ele><time>2026-04-25T12:59:28.1Z</time></trkpt><trkpt lat="42.7194738" lon="12.3572772"><ele>376.0</ele><time>2026-04-25T12:59:29.091Z</time></trkpt><trkpt lat="42.7193399" lon="12.3573571"><ele>376.0</ele><time>2026-04-25T12:59:30.1Z</time></trkpt><trkpt lat="42.7192267" lon="12.3574499"><ele>376.0</ele><time>2026-04-25T12:59:31.101Z</time></trkpt><trkpt lat="42.7191355" lon="12.3575834"><ele>376.0</ele><time>2026-04-25T12:59:32.128Z</time></trkpt><trkpt lat="42.7190712" lon="12.3577695"><ele>376.0</ele><time>2026-04-25T12:59:33.104Z</time></trkpt><trkpt lat="42.7190267" lon="12.357986"><ele>374.0</ele><time>2026-04-25T12:59:34.102Z</time></trkpt><trkpt lat="42.7189789" lon="12.3581885"><ele>372.0</ele><time>2026-04-25T12:59:35.112Z</time></trkpt><trkpt lat="42.7189367" lon="12.3583823"><ele>370.0</ele><time>2026-04-25T12:59:36.107Z</time></trkpt><trkpt lat="42.7188975" lon="12.3585639"><ele>368.0</ele><time>2026-04-25T12:59:37.114Z</time></trkpt><trkpt lat="42.7188627" lon="12.3587448"><ele>367.0</ele><time>2026-04-25T12:59:38.101Z</time></trkpt><trkpt lat="42.7188427" lon="12.358919"><ele>366.0</ele><time>2026-04-25T12:59:39.118Z</time></trkpt><trkpt lat="42.7188512" lon="12.3591125"><ele>365.0</ele><time>2026-04-25T12:59:40.106Z</time></trkpt><trkpt lat="42.7188894" lon="12.359323"><ele>364.0</ele><time>2026-04-25T12:59:41.116Z</time></trkpt><trkpt lat="42.7189284" lon="12.3595332"><ele>365.5</ele><time>2026-04-25T12:59:42.117Z</time></trkpt><trkpt lat="42.7189725" lon="12.3597293"><ele>367.0</ele><time>2026-04-25T12:59:43.093Z</time></trkpt><trkpt lat="42.7190221" lon="12.3598995"><ele>368.5</ele><time>2026-04-25T12:59:44.089Z</time></trkpt><trkpt lat="42.7190944" lon="12.3600468"><ele>370.0</ele><time>2026-04-25T12:59:45.101Z</time></trkpt><trkpt lat="42.7191963" lon="12.360159"><ele>370.0</ele><time>2026-04-25T12:59:46.101Z</time></trkpt><trkpt lat="42.719315" lon="12.360263"><ele>370.0</ele><time>2026-04-25T12:59:47.105Z</time></trkpt><trkpt lat="42.7194625" lon="12.3603744"><ele>370.0</ele><time>2026-04-25T12:59:48.096Z</time></trkpt><trkpt lat="42.7196256" lon="12.3604908"><ele>373.3333333333333</ele><time>2026-04-25T12:59:49.102Z</time></trkpt><trkpt lat="42.7197957" lon="12.3606149"><ele>376.6666666666667</ele><time>2026-04-25T12:59:50.107Z</time></trkpt><trkpt lat="42.7199694" lon="12.3607411"><ele>380.0</ele><time>2026-04-25T12:59:51.144Z</time></trkpt><trkpt lat="42.7201494" lon="12.3608406"><ele>380.33333333333337</ele><time>2026-04-25T12:59:52.097Z</time></trkpt><trkpt lat="42.7203389" lon="12.3609077"><ele>380.6666666666667</ele><time>2026-04-25T12:59:53.101Z</time></trkpt><trkpt lat="42.7205361" lon="12.360938"><ele>381.0</ele><time>2026-04-25T12:59:54.108Z</time></trkpt><trkpt lat="42.7207291" lon="12.3609284"><ele>381.0</ele><time>2026-04-25T12:59:55.097Z</time></trkpt><trkpt lat="42.7209209" lon="12.3608814"><ele>381.0</ele><time>2026-04-25T12:59:56.093Z</time></trkpt><trkpt lat="42.7211057" lon="12.3608213"><ele>381.0</ele><time>2026-04-25T12:59:57.105Z</time></trkpt><trkpt lat="42.7212854" lon="12.3607778"><ele>382.0</ele><time>2026-04-25T12:59:58.126Z</time></trkpt><trkpt lat="42.7214484" lon="12.360767"><ele>383.0</ele><time>2026-04-25T12:59:59.1Z</time></trkpt><trkpt lat="42.7216156" lon="12.3607772"><ele>384.0</ele><time>2026-04-25T13:00:00.131Z</time></trkpt><trkpt lat="42.7217982" lon="12.360808"><ele>383.6666666666667</ele><time>2026-04-25T13:00:01.115Z</time></trkpt><trkpt lat="42.7219946" lon="12.3608579"><ele>383.33333333333337</ele><time>2026-04-25T13:00:02.121Z</time></trkpt><trkpt lat="42.722193" lon="12.3609396"><ele>383.0</ele><time>2026-04-25T13:00:03.116Z</time></trkpt><trkpt lat="42.7223996" lon="12.3610367"><ele>383.0</ele><time>2026-04-25T13:00:04.141Z</time></trkpt><trkpt lat="42.7226004" lon="12.3611242"><ele>383.0</ele><time>2026-04-25T13:00:05.097Z</time></trkpt><trkpt lat="42.7227872" lon="12.3612046"><ele>383.0</ele><time>2026-04-25T13:00:06.12Z</time></trkpt><trkpt lat="42.7229565" lon="12.3612933"><ele>385.6666666666667</ele><time>2026-04-25T13:00:07.105Z</time></trkpt><trkpt lat="42.7231163" lon="12.3614089"><ele>388.33333333333337</ele><time>2026-04-25T13:00:08.104Z</time></trkpt><trkpt lat="42.7232656" lon="12.361557"><ele>391.0</ele><time>2026-04-25T13:00:09.094Z</time></trkpt><trkpt lat="42.7234074" lon="12.3617311"><ele>391.0</ele><time>2026-04-25T13:00:10.104Z</time></trkpt><trkpt lat="42.7235471" lon="12.3619123"><ele>391.0</ele><time>2026-04-25T13:00:11.101Z</time></trkpt><trkpt lat="42.7236956" lon="12.3620889"><ele>391.0</ele><time>2026-04-25T13:00:12.111Z</time></trkpt><trkpt lat="42.7238527" lon="12.3622587"><ele>392.0</ele><time>2026-04-25T13:00:13.094Z</time></trkpt><trkpt lat="42.7240209" lon="12.3624206"><ele>393.0</ele><time>2026-04-25T13:00:14.095Z</time></trkpt><trkpt lat="42.7241898" lon="12.3625724"><ele>394.0</ele><time>2026-04-25T13:00:15.1Z</time></trkpt><trkpt lat="42.7243571" lon="12.3627116"><ele>393.33333333333337</ele><time>2026-04-25T13:00:16.093Z</time></trkpt><trkpt lat="42.7245246" lon="12.3628344"><ele>392.66666666666663</ele><time>2026-04-25T13:00:17.121Z</time></trkpt><trkpt lat="42.7246971" lon="12.3629243"><ele>392.0</ele><time>2026-04-25T13:00:18.086Z</time></trkpt><trkpt lat="42.7248736" lon="12.3629794"><ele>392.0</ele><time>2026-04-25T13:00:19.096Z</time></trkpt><trkpt lat="42.7250545" lon="12.362987"><ele>392.0</ele><time>2026-04-25T13:00:20.118Z</time></trkpt><trkpt lat="42.7252495" lon="12.3629698"><ele>392.0</ele><time>2026-04-25T13:00:21.097Z</time></trkpt><trkpt lat="42.7254466" lon="12.3629407"><ele>393.66666666666663</ele><time>2026-04-25T13:00:22.123Z</time></trkpt><trkpt lat="42.7256404" lon="12.3629166"><ele>395.33333333333337</ele><time>2026-04-25T13:00:23.112Z</time></trkpt><trkpt lat="42.7258072" lon="12.36292"><ele>397.0</ele><time>2026-04-25T13:00:24.098Z</time></trkpt><trkpt lat="42.7259669" lon="12.3629663"><ele>400.0</ele><time>2026-04-25T13:00:25.086Z</time></trkpt><trkpt lat="42.7261232" lon="12.3630465"><ele>403.0</ele><time>2026-04-25T13:00:26.102Z</time></trkpt><trkpt lat="42.7262833" lon="12.3631425"><ele>406.0</ele><time>2026-04-25T13:00:27.102Z</time></trkpt><trkpt lat="42.7264737" lon="12.3632424"><ele>406.0</ele><time>2026-04-25T13:00:28.096Z</time></trkpt><trkpt lat="42.7266812" lon="12.363344"><ele>406.0</ele><time>2026-04-25T13:00:29.107Z</time></trkpt><trkpt lat="42.7268955" lon="12.3634519"><ele>406.0</ele><time>2026-04-25T13:00:30.107Z</time></trkpt><trkpt lat="42.7271244" lon="12.3635564"><ele>406.0</ele><time>2026-04-25T13:00:31.108Z</time></trkpt><trkpt lat="42.7273518" lon="12.3636373"><ele>406.0</ele><time>2026-04-25T13:00:32.098Z</time></trkpt><trkpt lat="42.7275746" lon="12.3636991"><ele>406.0</ele><time>2026-04-25T13:00:33.101Z</time></trkpt><trkpt lat="42.7277978" lon="12.3637397"><ele>406.0</ele><time>2026-04-25T13:00:34.107Z</time></trkpt><trkpt lat="42.7280358" lon="12.3637624"><ele>406.0</ele><time>2026-04-25T13:00:35.089Z</time></trkpt><trkpt lat="42.7282711" lon="12.3637834"><ele>406.0</ele><time>2026-04-25T13:00:36.101Z</time></trkpt><trkpt lat="42.7284752" lon="12.3638019"><ele>406.0</ele><time>2026-04-25T13:00:37.101Z</time></trkpt><trkpt lat="42.7286494" lon="12.3638422"><ele>409.0</ele><time>2026-04-25T13:00:38.098Z</time></trkpt><trkpt lat="42.7288087" lon="12.3638927"><ele>412.0</ele><time>2026-04-25T13:00:39.101Z</time></trkpt><trkpt lat="42.7289592" lon="12.3639741"><ele>415.0</ele><time>2026-04-25T13:00:40.093Z</time></trkpt><trkpt lat="42.7290958" lon="12.364102"><ele>415.0</ele><time>2026-04-25T13:00:41.109Z</time></trkpt><trkpt lat="42.7292259" lon="12.3642702"><ele>415.0</ele><time>2026-04-25T13:00:42.096Z</time></trkpt><trkpt lat="42.7293757" lon="12.3644508"><ele>415.0</ele><time>2026-04-25T13:00:43.112Z</time></trkpt><trkpt lat="42.729531" lon="12.3646392"><ele>414.0</ele><time>2026-04-25T13:00:44.1Z</time></trkpt><trkpt lat="42.7296904" lon="12.3648298"><ele>413.0</ele><time>2026-04-25T13:00:45.101Z</time></trkpt><trkpt lat="42.729841" lon="12.3650157"><ele>412.0</ele><time>2026-04-25T13:00:46.084Z</time></trkpt><trkpt lat="42.72998" lon="12.3651894"><ele>412.0</ele><time>2026-04-25T13:00:47.106Z</time></trkpt><trkpt lat="42.7301062" lon="12.3653622"><ele>412.0</ele><time>2026-04-25T13:00:48.104Z</time></trkpt><trkpt lat="42.7302157" lon="12.3655446"><ele>412.0</ele><time>2026-04-25T13:00:49.093Z</time></trkpt><trkpt lat="42.7303031" lon="12.365741"><ele>412.6666666666667</ele><time>2026-04-25T13:00:50.097Z</time></trkpt><trkpt lat="42.7303609" lon="12.3659602"><ele>413.33333333333337</ele><time>2026-04-25T13:00:51.112Z</time></trkpt><trkpt lat="42.7303975" lon="12.3661897"><ele>414.0</ele><time>2026-04-25T13:00:52.095Z</time></trkpt><trkpt lat="42.7304252" lon="12.3664201"><ele>414.0</ele><time>2026-04-25T13:00:53.119Z</time></trkpt><trkpt lat="42.730482" lon="12.3666387"><ele>414.0</ele><time>2026-04-25T13:00:54.116Z</time></trkpt><trkpt lat="42.7305903" lon="12.3668374"><ele>414.0</ele><time>2026-04-25T13:00:55.096Z</time></trkpt><trkpt lat="42.7307267" lon="12.3670161"><ele>414.0</ele><time>2026-04-25T13:00:56.093Z</time></trkpt><trkpt lat="42.7308776" lon="12.3671879"><ele>414.0</ele><time>2026-04-25T13:00:57.108Z</time></trkpt><trkpt lat="42.7310231" lon="12.3673642"><ele>414.0</ele><time>2026-04-25T13:00:58.099Z</time></trkpt><trkpt lat="42.7311557" lon="12.3675275"><ele>415.33333333333337</ele><time>2026-04-25T13:00:59.103Z</time></trkpt><trkpt lat="42.731293" lon="12.3676327"><ele>416.6666666666667</ele><time>2026-04-25T13:01:00.104Z</time></trkpt><trkpt lat="42.7314502" lon="12.3676909"><ele>418.0</ele><time>2026-04-25T13:01:01.097Z</time></trkpt><trkpt lat="42.7316231" lon="12.3677032"><ele>418.0</ele><time>2026-04-25T13:01:02.088Z</time></trkpt><trkpt lat="42.7317931" lon="12.3677049"><ele>418.0</ele><time>2026-04-25T13:01:03.105Z</time></trkpt><trkpt lat="42.7319422" lon="12.3677258"><ele>418.0</ele><time>2026-04-25T13:01:04.108Z</time></trkpt><trkpt lat="42.7320624" lon="12.3677748"><ele>418.0</ele><time>2026-04-25T13:01:05.092Z</time></trkpt><trkpt lat="42.7321764" lon="12.3678674"><ele>417.5</ele><time>2026-04-25T13:01:06.123Z</time></trkpt><trkpt lat="42.7322901" lon="12.3679958"><ele>417.0</ele><time>2026-04-25T13:01:07.101Z</time></trkpt><trkpt lat="42.732389" lon="12.3681463"><ele>416.5</ele><time>2026-04-25T13:01:08.099Z</time></trkpt><trkpt lat="42.7325033" lon="12.3682835"><ele>416.0</ele><time>2026-04-25T13:01:09.116Z</time></trkpt><trkpt lat="42.7326384" lon="12.3684203"><ele>418.3333333333333</ele><time>2026-04-25T13:01:10.104Z</time></trkpt><trkpt lat="42.7327874" lon="12.3685366"><ele>420.66666666666663</ele><time>2026-04-25T13:01:11.106Z</time></trkpt><trkpt lat="42.7329545" lon="12.3686275"><ele>423.0</ele><time>2026-04-25T13:01:12.088Z</time></trkpt><trkpt lat="42.7331323" lon="12.3686836"><ele>423.0</ele><time>2026-04-25T13:01:13.115Z</time></trkpt><trkpt lat="42.733327" lon="12.3687019"><ele>423.0</ele><time>2026-04-25T13:01:14.111Z</time></trkpt><trkpt lat="42.7335347" lon="12.3686909"><ele>423.0</ele><time>2026-04-25T13:01:15.111Z</time></trkpt><trkpt lat="42.7337506" lon="12.3686677"><ele>423.66666666666663</ele><time>2026-04-25T13:01:16.098Z</time></trkpt><trkpt lat="42.7339682" lon="12.3686541"><ele>424.3333333333333</ele><time>2026-04-25T13:01:17.106Z</time></trkpt><trkpt lat="42.7341898" lon="12.3686299"><ele>425.0</ele><time>2026-04-25T13:01:18.101Z</time></trkpt><trkpt lat="42.7343933" lon="12.3686164"><ele>425.3333333333333</ele><time>2026-04-25T13:01:19.121Z</time></trkpt><trkpt lat="42.7345885" lon="12.3686149"><ele>425.66666666666663</ele><time>2026-04-25T13:01:20.127Z</time></trkpt><trkpt lat="42.73477" lon="12.3686262"><ele>426.0</ele><time>2026-04-25T13:01:21.109Z</time></trkpt><trkpt lat="42.7349352" lon="12.3686659"><ele>426.0</ele><time>2026-04-25T13:01:22.096Z</time></trkpt><trkpt lat="42.7350944" lon="12.3687301"><ele>426.0</ele><time>2026-04-25T13:01:23.12Z</time></trkpt><trkpt lat="42.7352467" lon="12.368858"><ele>426.0</ele><time>2026-04-25T13:01:24.096Z</time></trkpt><trkpt lat="42.7353935" lon="12.3690693"><ele>424.5</ele><time>2026-04-25T13:01:25.101Z</time></trkpt><trkpt lat="42.7355538" lon="12.3693026"><ele>423.0</ele><time>2026-04-25T13:01:26.1Z</time></trkpt><trkpt lat="42.7357266" lon="12.369561"><ele>425.0</ele><time>2026-04-25T13:01:27.123Z</time></trkpt><trkpt lat="42.7359083" lon="12.3698234"><ele>427.0</ele><time>2026-04-25T13:01:28.119Z</time></trkpt><trkpt lat="42.7360766" lon="12.3700782"><ele>427.0</ele><time>2026-04-25T13:01:29.093Z</time></trkpt><trkpt lat="42.736226" lon="12.3703059"><ele>427.0</ele><time>2026-04-25T13:01:30.101Z</time></trkpt><trkpt lat="42.736359" lon="12.3705042"><ele>427.0</ele><time>2026-04-25T13:01:31.108Z</time></trkpt><trkpt lat="42.7364791" lon="12.3706776"><ele>429.33333333333337</ele><time>2026-04-25T13:01:32.097Z</time></trkpt><trkpt lat="42.7366045" lon="12.3708114"><ele>431.66666666666663</ele><time>2026-04-25T13:01:33.105Z</time></trkpt><trkpt lat="42.7367491" lon="12.3708805"><ele>434.0</ele><time>2026-04-25T13:01:34.135Z</time></trkpt><trkpt lat="42.7369042" lon="12.3709008"><ele>434.0</ele><time>2026-04-25T13:01:35.119Z</time></trkpt><trkpt lat="42.7370791" lon="12.3708784"><ele>434.0</ele><time>2026-04-25T13:01:36.125Z</time></trkpt><trkpt lat="42.7372847" lon="12.3708441"><ele>434.0</ele><time>2026-04-25T13:01:37.086Z</time></trkpt><trkpt lat="42.7375077" lon="12.3707954"><ele>435.0</ele><time>2026-04-25T13:01:38.101Z</time></trkpt><trkpt lat="42.7377527" lon="12.3707511"><ele>436.0</ele><time>2026-04-25T13:01:39.099Z</time></trkpt><trkpt lat="42.7380154" lon="12.3707044"><ele>436.0</ele><time>2026-04-25T13:01:40.111Z</time></trkpt><trkpt lat="42.7382918" lon="12.3706553"><ele>436.0</ele><time>2026-04-25T13:01:41.112Z</time></trkpt><trkpt lat="42.7385829" lon="12.3705975"><ele>438.0</ele><time>2026-04-25T13:01:42.106Z</time></trkpt><trkpt lat="42.7388908" lon="12.3705373"><ele>440.0</ele><time>2026-04-25T13:01:43.101Z</time></trkpt><trkpt lat="42.7392054" lon="12.3704656"><ele>436.5</ele><time>2026-04-25T13:01:44.101Z</time></trkpt><trkpt lat="42.7395168" lon="12.370393"><ele>433.0</ele><time>2026-04-25T13:01:45.102Z</time></trkpt><trkpt lat="42.7398071" lon="12.3703168"><ele>433.0</ele><time>2026-04-25T13:01:46.09Z</time></trkpt><trkpt lat="42.7400486" lon="12.370237"><ele>433.0</ele><time>2026-04-25T13:01:47.107Z</time></trkpt><trkpt lat="42.740267" lon="12.370159"><ele>435.0</ele><time>2026-04-25T13:01:48.116Z</time></trkpt><trkpt lat="42.7404508" lon="12.370087"><ele>437.0</ele><time>2026-04-25T13:01:49.096Z</time></trkpt><trkpt lat="42.7406179" lon="12.370024"><ele>439.0</ele><time>2026-04-25T13:01:50.094Z</time></trkpt><trkpt lat="42.7407689" lon="12.36997"><ele>439.0</ele><time>2026-04-25T13:01:51.101Z</time></trkpt><trkpt lat="42.7408992" lon="12.3699461"><ele>439.0</ele><time>2026-04-25T13:01:52.091Z</time></trkpt><trkpt lat="42.7409984" lon="12.3699754"><ele>439.0</ele><time>2026-04-25T13:01:53.111Z</time></trkpt><trkpt lat="42.7410798" lon="12.3700596"><ele>439.0</ele><time>2026-04-25T13:01:54.103Z</time></trkpt><trkpt lat="42.7411352" lon="12.3701823"><ele>439.0</ele><time>2026-04-25T13:01:55.115Z</time></trkpt><trkpt lat="42.7411516" lon="12.3703362"><ele>438.75</ele><time>2026-04-25T13:01:56.098Z</time></trkpt><trkpt lat="42.7411135" lon="12.3704894"><ele>438.5</ele><time>2026-04-25T13:01:57.106Z</time></trkpt><trkpt lat="42.741045" lon="12.3706435"><ele>438.25</ele><time>2026-04-25T13:01:58.111Z</time></trkpt><trkpt lat="42.7409576" lon="12.3708164"><ele>438.0</ele><time>2026-04-25T13:01:59.094Z</time></trkpt><trkpt lat="42.7408612" lon="12.3710173"><ele>438.0</ele><time>2026-04-25T13:02:00.109Z</time></trkpt><trkpt lat="42.7407434" lon="12.3712403"><ele>438.0</ele><time>2026-04-25T13:02:01.119Z</time></trkpt><trkpt lat="42.7406109" lon="12.3714794"><ele>438.0</ele><time>2026-04-25T13:02:02.12Z</time></trkpt><trkpt lat="42.7404782" lon="12.3717187"><ele>437.0</ele><time>2026-04-25T13:02:03.1Z</time></trkpt><trkpt lat="42.7403618" lon="12.3719436"><ele>436.0</ele><time>2026-04-25T13:02:04.107Z</time></trkpt><trkpt lat="42.7402602" lon="12.3721347"><ele>435.0</ele><time>2026-04-25T13:02:05.098Z</time></trkpt><trkpt lat="42.7401801" lon="12.3722989"><ele>435.0</ele><time>2026-04-25T13:02:06.095Z</time></trkpt><trkpt lat="42.7401246" lon="12.3724623"><ele>435.0</ele><time>2026-04-25T13:02:07.109Z</time></trkpt><trkpt lat="42.7400949" lon="12.3726517"><ele>435.0</ele><time>2026-04-25T13:02:08.104Z</time></trkpt><trkpt lat="42.7400989" lon="12.3728492"><ele>435.0</ele><time>2026-04-25T13:02:09.093Z</time></trkpt><trkpt lat="42.7401445" lon="12.3730568"><ele>430.0</ele><time>2026-04-25T13:02:10.093Z</time></trkpt><trkpt lat="42.7402333" lon="12.3732517"><ele>425.0</ele><time>2026-04-25T13:02:11.125Z</time></trkpt><trkpt lat="42.7403294" lon="12.3734252"><ele>420.0</ele><time>2026-04-25T13:02:12.111Z</time></trkpt><trkpt lat="42.7404192" lon="12.3735904"><ele>420.0</ele><time>2026-04-25T13:02:13.088Z</time></trkpt><trkpt lat="42.7404964" lon="12.3737492"><ele>420.0</ele><time>2026-04-25T13:02:14.099Z</time></trkpt><trkpt lat="42.740548" lon="12.3739124"><ele>420.0</ele><time>2026-04-25T13:02:15.111Z</time></trkpt><trkpt lat="42.7405622" lon="12.3740824"><ele>420.0</ele><time>2026-04-25T13:02:16.101Z</time></trkpt><trkpt lat="42.7405295" lon="12.3742741"><ele>418.33333333333337</ele><time>2026-04-25T13:02:17.12Z</time></trkpt><trkpt lat="42.7404698" lon="12.3744626"><ele>416.6666666666667</ele><time>2026-04-25T13:02:18.1Z</time></trkpt><trkpt lat="42.7403897" lon="12.37466"><ele>415.0</ele><time>2026-04-25T13:02:19.109Z</time></trkpt><trkpt lat="42.7403221" lon="12.3748718"><ele>413.33333333333337</ele><time>2026-04-25T13:02:20.094Z</time></trkpt><trkpt lat="42.7402881" lon="12.3750825"><ele>411.66666666666663</ele><time>2026-04-25T13:02:21.101Z</time></trkpt><trkpt lat="42.7402992" lon="12.3752757"><ele>410.0</ele><time>2026-04-25T13:02:22.108Z</time></trkpt><trkpt lat="42.7403717" lon="12.3754697"><ele>409.3333333333333</ele><time>2026-04-25T13:02:23.108Z</time></trkpt><trkpt lat="42.740462" lon="12.3756674"><ele>408.66666666666663</ele><time>2026-04-25T13:02:24.088Z</time></trkpt><trkpt lat="42.7405602" lon="12.3758801"><ele>408.0</ele><time>2026-04-25T13:02:25.117Z</time></trkpt><trkpt lat="42.7406698" lon="12.3761055"><ele>408.0</ele><time>2026-04-25T13:02:26.092Z</time></trkpt><trkpt lat="42.7407768" lon="12.3763481"><ele>408.0</ele><time>2026-04-25T13:02:27.098Z</time></trkpt><trkpt lat="42.7408822" lon="12.3765881"><ele>408.0</ele><time>2026-04-25T13:02:28.105Z</time></trkpt><trkpt lat="42.740987" lon="12.3768222"><ele>404.66666666666663</ele><time>2026-04-25T13:02:29.12Z</time></trkpt><trkpt lat="42.7410863" lon="12.3770438"><ele>401.3333333333333</ele><time>2026-04-25T13:02:30.132Z</time></trkpt><trkpt lat="42.7411882" lon="12.3772497"><ele>398.0</ele><time>2026-04-25T13:02:31.136Z</time></trkpt><trkpt lat="42.7412854" lon="12.3774492"><ele>398.0</ele><time>2026-04-25T13:02:32.093Z</time></trkpt><trkpt lat="42.7413752" lon="12.3776428"><ele>398.0</ele><time>2026-04-25T13:02:33.101Z</time></trkpt><trkpt lat="42.7414643" lon="12.3778359"><ele>398.0</ele><time>2026-04-25T13:02:34.197Z</time></trkpt><trkpt lat="42.7415747" lon="12.3780242"><ele>398.3333333333333</ele><time>2026-04-25T13:02:35.167Z</time></trkpt><trkpt lat="42.7417092" lon="12.3782011"><ele>398.66666666666663</ele><time>2026-04-25T13:02:36.129Z</time></trkpt><trkpt lat="42.7418503" lon="12.3783638"><ele>399.0</ele><time>2026-04-25T13:02:37.112Z</time></trkpt><trkpt lat="42.7419833" lon="12.3785187"><ele>396.66666666666663</ele><time>2026-04-25T13:02:38.117Z</time></trkpt><trkpt lat="42.74211" lon="12.3786627"><ele>394.3333333333333</ele><time>2026-04-25T13:02:39.14Z</time></trkpt><trkpt lat="42.7422287" lon="12.3788057"><ele>392.0</ele><time>2026-04-25T13:02:40.121Z</time></trkpt><trkpt lat="42.7423364" lon="12.37894"><ele>392.0</ele><time>2026-04-25T13:02:41.129Z</time></trkpt><trkpt lat="42.7424343" lon="12.3790746"><ele>392.0</ele><time>2026-04-25T13:02:42.119Z</time></trkpt><trkpt lat="42.742523" lon="12.3792128"><ele>392.0</ele><time>2026-04-25T13:02:43.128Z</time></trkpt><trkpt lat="42.7425974" lon="12.379359"><ele>392.0</ele><time>2026-04-25T13:02:44.111Z</time></trkpt><trkpt lat="42.7426629" lon="12.3795159"><ele>390.5</ele><time>2026-04-25T13:02:45.105Z</time></trkpt><trkpt lat="42.7427275" lon="12.3796677"><ele>389.0</ele><time>2026-04-25T13:02:46.155Z</time></trkpt><trkpt lat="42.7427948" lon="12.3798008"><ele>387.5</ele><time>2026-04-25T13:02:47.124Z</time></trkpt><trkpt lat="42.7428684" lon="12.3799072"><ele>386.0</ele><time>2026-04-25T13:02:48.098Z</time></trkpt><trkpt lat="42.7429389" lon="12.3800043"><ele>385.16666666666663</ele><time>2026-04-25T13:02:49.112Z</time></trkpt><trkpt lat="42.7429958" lon="12.3800846"><ele>384.3333333333333</ele><time>2026-04-25T13:02:50.128Z</time></trkpt><trkpt lat="42.7430326" lon="12.380166"><ele>383.5</ele><time>2026-04-25T13:02:51.122Z</time></trkpt><trkpt lat="42.7430428" lon="12.3802642"><ele>382.66666666666663</ele><time>2026-04-25T13:02:52.101Z</time></trkpt><trkpt lat="42.7430201" lon="12.3803744"><ele>381.8333333333333</ele><time>2026-04-25T13:02:53.098Z</time></trkpt><trkpt lat="42.7429611" lon="12.3804818"><ele>381.0</ele><time>2026-04-25T13:02:54.103Z</time></trkpt><trkpt lat="42.7428733" lon="12.3805784"><ele>381.0</ele><time>2026-04-25T13:02:55.094Z</time></trkpt><trkpt lat="42.7427758" lon="12.3806783"><ele>381.0</ele><time>2026-04-25T13:02:56.108Z</time></trkpt><trkpt lat="42.74267" lon="12.3808094"><ele>381.0</ele><time>2026-04-25T13:02:57.109Z</time></trkpt><trkpt lat="42.7425452" lon="12.3809619"><ele>381.0</ele><time>2026-04-25T13:02:58.103Z</time></trkpt><trkpt lat="42.7424055" lon="12.3811345"><ele>381.6666666666667</ele><time>2026-04-25T13:02:59.107Z</time></trkpt><trkpt lat="42.7422538" lon="12.3813018"><ele>382.33333333333337</ele><time>2026-04-25T13:03:00.108Z</time></trkpt><trkpt lat="42.7420889" lon="12.3814687"><ele>383.0</ele><time>2026-04-25T13:03:01.11Z</time></trkpt><trkpt lat="42.7419171" lon="12.381637"><ele>383.6666666666667</ele><time>2026-04-25T13:03:02.099Z</time></trkpt><trkpt lat="42.741742" lon="12.3818175"><ele>384.33333333333337</ele><time>2026-04-25T13:03:03.126Z</time></trkpt><trkpt lat="42.7415755" lon="12.3819885"><ele>385.0</ele><time>2026-04-25T13:03:04.107Z</time></trkpt><trkpt lat="42.7414181" lon="12.3821422"><ele>385.33333333333337</ele><time>2026-04-25T13:03:05.115Z</time></trkpt><trkpt lat="42.7412668" lon="12.3822798"><ele>385.66666666666663</ele><time>2026-04-25T13:03:06.097Z</time></trkpt><trkpt lat="42.7411227" lon="12.3824131"><ele>386.0</ele><time>2026-04-25T13:03:07.102Z</time></trkpt><trkpt lat="42.7409799" lon="12.3825449"><ele>386.0</ele><time>2026-04-25T13:03:08.113Z</time></trkpt><trkpt lat="42.7408514" lon="12.3826794"><ele>386.0</ele><time>2026-04-25T13:03:09.092Z</time></trkpt><trkpt lat="42.7407441" lon="12.3828335"><ele>386.0</ele><time>2026-04-25T13:03:10.097Z</time></trkpt><trkpt lat="42.7406598" lon="12.3830154"><ele>384.66666666666663</ele><time>2026-04-25T13:03:11.121Z</time></trkpt><trkpt lat="42.7405984" lon="12.3832214"><ele>383.3333333333333</ele><time>2026-04-25T13:03:12.101Z</time></trkpt><trkpt lat="42.7405379" lon="12.3834389"><ele>382.0</ele><time>2026-04-25T13:03:13.138Z</time></trkpt><trkpt lat="42.7404772" lon="12.3836434"><ele>382.0</ele><time>2026-04-25T13:03:14.122Z</time></trkpt><trkpt lat="42.7404188" lon="12.3838294"><ele>382.0</ele><time>2026-04-25T13:03:15.1Z</time></trkpt><trkpt lat="42.7403638" lon="12.3840137"><ele>382.0</ele><time>2026-04-25T13:03:16.106Z</time></trkpt><trkpt lat="42.7403044" lon="12.3841929"><ele>382.0</ele><time>2026-04-25T13:03:17.124Z</time></trkpt><trkpt lat="42.7402333" lon="12.3843597"><ele>381.66666666666663</ele><time>2026-04-25T13:03:18.124Z</time></trkpt><trkpt lat="42.7401471" lon="12.384525"><ele>381.3333333333333</ele><time>2026-04-25T13:03:19.11Z</time></trkpt><trkpt lat="42.7400514" lon="12.3846851"><ele>381.0</ele><time>2026-04-25T13:03:20.097Z</time></trkpt><trkpt lat="42.7399315" lon="12.3848437"><ele>381.0</ele><time>2026-04-25T13:03:21.112Z</time></trkpt><trkpt lat="42.7398041" lon="12.3850068"><ele>381.0</ele><time>2026-04-25T13:03:22.123Z</time></trkpt><trkpt lat="42.7396735" lon="12.3851762"><ele>381.0</ele><time>2026-04-25T13:03:23.144Z</time></trkpt><trkpt lat="42.7395412" lon="12.3853478"><ele>381.6666666666667</ele><time>2026-04-25T13:03:24.106Z</time></trkpt><trkpt lat="42.7394046" lon="12.3855255"><ele>382.33333333333337</ele><time>2026-04-25T13:03:25.107Z</time></trkpt><trkpt lat="42.7392792" lon="12.3856972"><ele>383.0</ele><time>2026-04-25T13:03:26.113Z</time></trkpt><trkpt lat="42.7391558" lon="12.3858553"><ele>383.0</ele><time>2026-04-25T13:03:27.108Z</time></trkpt><trkpt lat="42.7390381" lon="12.3860075"><ele>383.0</ele><time>2026-04-25T13:03:28.116Z</time></trkpt><trkpt lat="42.7389187" lon="12.3861624"><ele>383.0</ele><time>2026-04-25T13:03:29.118Z</time></trkpt><trkpt lat="42.7388022" lon="12.3863127"><ele>382.0</ele><time>2026-04-25T13:03:30.11Z</time></trkpt><trkpt lat="42.738688" lon="12.3864458"><ele>381.0</ele><time>2026-04-25T13:03:31.101Z</time></trkpt><trkpt lat="42.7385762" lon="12.3865774"><ele>380.0</ele><time>2026-04-25T13:03:32.103Z</time></trkpt><trkpt lat="42.7384584" lon="12.3866968"><ele>379.0</ele><time>2026-04-25T13:03:33.107Z</time></trkpt><trkpt lat="42.7383332" lon="12.3868011"><ele>380.25</ele><time>2026-04-25T13:03:34.096Z</time></trkpt><trkpt lat="42.7382174" lon="12.386907"><ele>381.5</ele><time>2026-04-25T13:03:35.095Z</time></trkpt><trkpt lat="42.7381112" lon="12.387008"><ele>382.75</ele><time>2026-04-25T13:03:36.106Z</time></trkpt><trkpt lat="42.7380084" lon="12.3871192"><ele>384.0</ele><time>2026-04-25T13:03:37.109Z</time></trkpt><trkpt lat="42.7379056" lon="12.3872312"><ele>384.0</ele><time>2026-04-25T13:03:38.098Z</time></trkpt><trkpt lat="42.7378135" lon="12.3873363"><ele>384.0</ele><time>2026-04-25T13:03:39.105Z</time></trkpt><trkpt lat="42.7377421" lon="12.3874401"><ele>384.0</ele><time>2026-04-25T13:03:40.115Z</time></trkpt><trkpt lat="42.7376985" lon="12.3875574"><ele>384.0</ele><time>2026-04-25T13:03:41.103Z</time></trkpt><trkpt lat="42.7376838" lon="12.3876737"><ele>384.0</ele><time>2026-04-25T13:03:42.108Z</time></trkpt><trkpt lat="42.7376937" lon="12.3877799"><ele>383.79999999999995</ele><time>2026-04-25T13:03:43.108Z</time></trkpt><trkpt lat="42.737705" lon="12.3878814"><ele>383.59999999999997</ele><time>2026-04-25T13:03:44.123Z</time></trkpt><trkpt lat="42.7377144" lon="12.3880159"><ele>383.4</ele><time>2026-04-25T13:03:46.103Z</time></trkpt><trkpt lat="42.7377767" lon="12.3880952"><ele>383.2</ele><time>2026-04-25T13:03:48.109Z</time></trkpt><trkpt lat="42.7378872" lon="12.3881591"><ele>383.0</ele><time>2026-04-25T13:03:50.104Z</time></trkpt><trkpt lat="42.7379959" lon="12.3882029"><ele>383.0</ele><time>2026-04-25T13:03:52.087Z</time></trkpt><trkpt lat="42.7381005" lon="12.3882349"><ele>383.0</ele><time>2026-04-25T13:03:54.089Z</time></trkpt><trkpt lat="42.7382032" lon="12.3882754"><ele>383.0</ele><time>2026-04-25T13:03:56.101Z</time></trkpt><trkpt lat="42.738294" lon="12.3883249"><ele>383.0</ele><time>2026-04-25T13:03:58.101Z</time></trkpt><trkpt lat="42.7383758" lon="12.3883982"><ele>383.0</ele><time>2026-04-25T13:04:00.093Z</time></trkpt><trkpt lat="42.7384192" lon="12.3884634"><ele>383.0</ele><time>2026-04-25T13:04:01.111Z</time></trkpt><trkpt lat="42.7384685" lon="12.3885386"><ele>383.0</ele><time>2026-04-25T13:04:02.114Z</time></trkpt><trkpt lat="42.7385088" lon="12.3886108"><ele>383.0</ele><time>2026-04-25T13:04:03.12Z</time></trkpt><trkpt lat="42.7385557" lon="12.388669"><ele>383.0</ele><time>2026-04-25T13:04:04.133Z</time></trkpt><trkpt lat="42.7386403" lon="12.388754"><ele>383.0</ele><time>2026-04-25T13:04:06.113Z</time></trkpt><trkpt lat="42.7387309" lon="12.3888021"><ele>383.0</ele><time>2026-04-25T13:04:08.114Z</time></trkpt><trkpt lat="42.7388323" lon="12.3888124"><ele>381.59999999999997</ele><time>2026-04-25T13:04:10.103Z</time></trkpt><trkpt lat="42.7389449" lon="12.388804"><ele>380.2</ele><time>2026-04-25T13:04:12.117Z</time></trkpt><trkpt lat="42.7390411" lon="12.3887706"><ele>378.8</ele><time>2026-04-25T13:04:14.093Z</time></trkpt><trkpt lat="42.7391447" lon="12.3887822"><ele>377.4</ele><time>2026-04-25T13:04:16.105Z</time></trkpt><trkpt lat="42.7392595" lon="12.3888043"><ele>376.0</ele><time>2026-04-25T13:04:18.115Z</time></trkpt><trkpt lat="42.7393808" lon="12.3888079"><ele>374.20000000000005</ele><time>2026-04-25T13:04:20.101Z</time></trkpt><trkpt lat="42.7395051" lon="12.3888069"><ele>372.40000000000003</ele><time>2026-04-25T13:04:22.117Z</time></trkpt><trkpt lat="42.7396108" lon="12.388797"><ele>370.6</ele><time>2026-04-25T13:04:24.109Z</time></trkpt><trkpt lat="42.7396924" lon="12.3887859"><ele>368.8</ele><time>2026-04-25T13:04:26.112Z</time></trkpt><trkpt lat="42.7396327" lon="12.3888235"><ele>367.0</ele><time>2026-04-25T13:04:48.111Z</time></trkpt><trkpt lat="42.7395306" lon="12.3888318"><ele>366.0</ele><time>2026-04-25T13:04:50.104Z</time></trkpt><trkpt lat="42.7394259" lon="12.3888459"><ele>365.0</ele><time>2026-04-25T13:04:52.112Z</time></trkpt><trkpt lat="42.7393063" lon="12.3888395"><ele>364.0</ele><time>2026-04-25T13:04:54.113Z</time></trkpt><trkpt lat="42.7391917" lon="12.3888239"><ele>363.0</ele><time>2026-04-25T13:04:56.102Z</time></trkpt><trkpt lat="42.739108" lon="12.3888076"><ele>362.0</ele><time>2026-04-25T13:04:58.105Z</time></trkpt><trkpt lat="42.7390136" lon="12.3887862"><ele>364.33333333333337</ele><time>2026-04-25T13:05:00.098Z</time></trkpt><trkpt lat="42.7389433" lon="12.3887968"><ele>366.6666666666667</ele><time>2026-04-25T13:05:02.102Z</time></trkpt><trkpt lat="42.738866" lon="12.3888102"><ele>369.0</ele><time>2026-04-25T13:05:04.093Z</time></trkpt><trkpt lat="42.7387608" lon="12.3887976"><ele>371.3333333333333</ele><time>2026-04-25T13:05:06.11Z</time></trkpt><trkpt lat="42.7386747" lon="12.3887648"><ele>373.66666666666663</ele><time>2026-04-25T13:05:08.089Z</time></trkpt><trkpt lat="42.7386088" lon="12.3887603"><ele>376.0</ele><time>2026-04-25T13:05:10.098Z</time></trkpt><trkpt lat="42.7385579" lon="12.3888367"><ele>375.4</ele><time>2026-04-25T13:05:12.121Z</time></trkpt><trkpt lat="42.7385176" lon="12.3889305"><ele>374.8</ele><time>2026-04-25T13:05:14.107Z</time></trkpt><trkpt lat="42.7384743" lon="12.3890586"><ele>374.2</ele><time>2026-04-25T13:05:16.095Z</time></trkpt><trkpt lat="42.7384361" lon="12.3891933"><ele>373.59999999999997</ele><time>2026-04-25T13:05:18.115Z</time></trkpt><trkpt lat="42.7384164" lon="12.3893241"><ele>373.0</ele><time>2026-04-25T13:05:20.097Z</time></trkpt><trkpt lat="42.7384327" lon="12.3894661"><ele>373.0</ele><time>2026-04-25T13:05:22.119Z</time></trkpt><trkpt lat="42.7384883" lon="12.3896201"><ele>373.0</ele><time>2026-04-25T13:05:24.109Z</time></trkpt><trkpt lat="42.7385383" lon="12.3897698"><ele>373.0</ele><time>2026-04-25T13:05:26.108Z</time></trkpt><trkpt lat="42.7385649" lon="12.3898536"><ele>373.0</ele><time>2026-04-25T13:05:27.118Z</time></trkpt><trkpt lat="42.7385847" lon="12.3899432"><ele>373.0</ele><time>2026-04-25T13:05:28.114Z</time></trkpt><trkpt lat="42.7386016" lon="12.3900341"><ele>371.0</ele><time>2026-04-25T13:05:29.1Z</time></trkpt><trkpt lat="42.7386197" lon="12.3901258"><ele>369.0</ele><time>2026-04-25T13:05:30.104Z</time></trkpt><trkpt lat="42.7386321" lon="12.3902188"><ele>367.0</ele><time>2026-04-25T13:05:31.11Z</time></trkpt><trkpt lat="42.738641" lon="12.3903101"><ele>365.0</ele><time>2026-04-25T13:05:32.101Z</time></trkpt><trkpt lat="42.7386419" lon="12.3903989"><ele>363.0</ele><time>2026-04-25T13:05:33.1Z</time></trkpt><trkpt lat="42.7386411" lon="12.3904864"><ele>361.0</ele><time>2026-04-25T13:05:34.12Z</time></trkpt><trkpt lat="42.7386398" lon="12.3905726"><ele>359.0</ele><time>2026-04-25T13:05:35.096Z</time></trkpt><trkpt lat="42.738629" lon="12.390665"><ele>357.6666666666667</ele><time>2026-04-25T13:05:36.116Z</time></trkpt><trkpt lat="42.7386199" lon="12.3907615"><ele>356.33333333333337</ele><time>2026-04-25T13:05:37.089Z</time></trkpt><trkpt lat="42.7386208" lon="12.3908728"><ele>355.0</ele><time>2026-04-25T13:05:38.118Z</time></trkpt><trkpt lat="42.7386315" lon="12.3909882"><ele>353.6666666666667</ele><time>2026-04-25T13:05:39.13Z</time></trkpt><trkpt lat="42.7386403" lon="12.3911012"><ele>352.3333333333333</ele><time>2026-04-25T13:05:40.102Z</time></trkpt><trkpt lat="42.7386474" lon="12.3912103"><ele>351.0</ele><time>2026-04-25T13:05:41.106Z</time></trkpt><trkpt lat="42.738659" lon="12.3913268"><ele>349.1666666666667</ele><time>2026-04-25T13:05:42.098Z</time></trkpt><trkpt lat="42.7386705" lon="12.3914447"><ele>347.3333333333333</ele><time>2026-04-25T13:05:43.1Z</time></trkpt><trkpt lat="42.7386817" lon="12.3915607"><ele>345.5</ele><time>2026-04-25T13:05:44.109Z</time></trkpt><trkpt lat="42.7386967" lon="12.3916738"><ele>343.66666666666663</ele><time>2026-04-25T13:05:45.105Z</time></trkpt><trkpt lat="42.7387095" lon="12.3917777"><ele>341.8333333333333</ele><time>2026-04-25T13:05:46.103Z</time></trkpt><trkpt lat="42.7387208" lon="12.3918753"><ele>340.0</ele><time>2026-04-25T13:05:47.109Z</time></trkpt><trkpt lat="42.7387339" lon="12.3919743"><ele>340.0</ele><time>2026-04-25T13:05:48.107Z</time></trkpt><trkpt lat="42.7387464" lon="12.3920776"><ele>340.0</ele><time>2026-04-25T13:05:49.123Z</time></trkpt><trkpt lat="42.7387634" lon="12.3921824"><ele>340.0</ele><time>2026-04-25T13:05:50.104Z</time></trkpt><trkpt lat="42.738792" lon="12.3922896"><ele>340.0</ele><time>2026-04-25T13:05:51.099Z</time></trkpt><trkpt lat="42.7388286" lon="12.392391"><ele>340.0</ele><time>2026-04-25T13:05:52.101Z</time></trkpt><trkpt lat="42.7388637" lon="12.3924936"><ele>340.0</ele><time>2026-04-25T13:05:53.106Z</time></trkpt><trkpt lat="42.7388998" lon="12.3926031"><ele>338.2</ele><time>2026-04-25T13:05:54.109Z</time></trkpt><trkpt lat="42.738941" lon="12.3927127"><ele>336.4</ele><time>2026-04-25T13:05:55.124Z</time></trkpt><trkpt lat="42.7389856" lon="12.3928233"><ele>334.6</ele><time>2026-04-25T13:05:56.094Z</time></trkpt><trkpt lat="42.7390348" lon="12.3929355"><ele>332.8</ele><time>2026-04-25T13:05:57.102Z</time></trkpt><trkpt lat="42.7390831" lon="12.3930445"><ele>331.0</ele><time>2026-04-25T13:05:58.144Z</time></trkpt><trkpt lat="42.7391263" lon="12.3931457"><ele>329.5</ele><time>2026-04-25T13:05:59.121Z</time></trkpt><trkpt lat="42.7391581" lon="12.3932449"><ele>328.0</ele><time>2026-04-25T13:06:00.113Z</time></trkpt><trkpt lat="42.7391859" lon="12.3933372"><ele>326.5</ele><time>2026-04-25T13:06:01.112Z</time></trkpt><trkpt lat="42.7392099" lon="12.3934363"><ele>325.0</ele><time>2026-04-25T13:06:02.095Z</time></trkpt><trkpt lat="42.739229" lon="12.3935541"><ele>323.5</ele><time>2026-04-25T13:06:03.124Z</time></trkpt><trkpt lat="42.739246" lon="12.393676"><ele>322.0</ele><time>2026-04-25T13:06:04.116Z</time></trkpt><trkpt lat="42.7392632" lon="12.3937999"><ele>320.40000000000003</ele><time>2026-04-25T13:06:05.124Z</time></trkpt><trkpt lat="42.7392881" lon="12.3939214"><ele>318.8</ele><time>2026-04-25T13:06:06.11Z</time></trkpt><trkpt lat="42.7393229" lon="12.3940455"><ele>317.2</ele><time>2026-04-25T13:06:07.098Z</time></trkpt><trkpt lat="42.7393641" lon="12.3941855"><ele>315.6</ele><time>2026-04-25T13:06:08.109Z</time></trkpt><trkpt lat="42.7394163" lon="12.3943248"><ele>314.0</ele><time>2026-04-25T13:06:09.116Z</time></trkpt><trkpt lat="42.7394723" lon="12.3944583"><ele>313.59999999999997</ele><time>2026-04-25T13:06:10.113Z</time></trkpt><trkpt lat="42.7395305" lon="12.3945816"><ele>313.2</ele><time>2026-04-25T13:06:11.096Z</time></trkpt><trkpt lat="42.7395903" lon="12.3947024"><ele>312.79999999999995</ele><time>2026-04-25T13:06:12.112Z</time></trkpt><trkpt lat="42.7396401" lon="12.3948241"><ele>312.4</ele><time>2026-04-25T13:06:13.129Z</time></trkpt><trkpt lat="42.7396797" lon="12.3949389"><ele>312.0</ele><time>2026-04-25T13:06:14.104Z</time></trkpt><trkpt lat="42.7397059" lon="12.3950492"><ele>311.3333333333333</ele><time>2026-04-25T13:06:15.117Z</time></trkpt><trkpt lat="42.7397205" lon="12.3951576"><ele>310.6666666666667</ele><time>2026-04-25T13:06:16.1Z</time></trkpt><trkpt lat="42.739722" lon="12.3952819"><ele>310.0</ele><time>2026-04-25T13:06:17.102Z</time></trkpt><trkpt lat="42.7397178" lon="12.3954096"><ele>309.33333333333337</ele><time>2026-04-25T13:06:18.126Z</time></trkpt><trkpt lat="42.7397086" lon="12.3955346"><ele>308.6666666666667</ele><time>2026-04-25T13:06:19.11Z</time></trkpt><trkpt lat="42.7396985" lon="12.3956539"><ele>308.0</ele><time>2026-04-25T13:06:20.11Z</time></trkpt><trkpt lat="42.7396899" lon="12.3957679"><ele>307.2</ele><time>2026-04-25T13:06:21.103Z</time></trkpt><trkpt lat="42.7396861" lon="12.395877"><ele>306.4</ele><time>2026-04-25T13:06:22.114Z</time></trkpt><trkpt lat="42.7396894" lon="12.3959927"><ele>305.59999999999997</ele><time>2026-04-25T13:06:23.111Z</time></trkpt><trkpt lat="42.7396955" lon="12.3961183"><ele>304.8</ele><time>2026-04-25T13:06:24.108Z</time></trkpt><trkpt lat="42.7397074" lon="12.3962491"><ele>304.0</ele><time>2026-04-25T13:06:25.121Z</time></trkpt><trkpt lat="42.7397208" lon="12.3963843"><ele>303.0</ele><time>2026-04-25T13:06:26.116Z</time></trkpt><trkpt lat="42.7397346" lon="12.3965143"><ele>302.0</ele><time>2026-04-25T13:06:27.101Z</time></trkpt><trkpt lat="42.7397431" lon="12.3966319"><ele>301.0</ele><time>2026-04-25T13:06:28.113Z</time></trkpt><trkpt lat="42.739746" lon="12.3967416"><ele>300.0</ele><time>2026-04-25T13:06:29.103Z</time></trkpt><trkpt lat="42.7397484" lon="12.3968431"><ele>299.0</ele><time>2026-04-25T13:06:30.118Z</time></trkpt><trkpt lat="42.7397409" lon="12.3969417"><ele>298.0</ele><time>2026-04-25T13:06:31.097Z</time></trkpt><trkpt lat="42.739726" lon="12.3970366"><ele>298.0</ele><time>2026-04-25T13:06:32.133Z</time></trkpt><trkpt lat="42.7397033" lon="12.3971267"><ele>298.0</ele><time>2026-04-25T13:06:33.12Z</time></trkpt><trkpt lat="42.739679" lon="12.3972139"><ele>298.0</ele><time>2026-04-25T13:06:34.094Z</time></trkpt><trkpt lat="42.7396553" lon="12.3972994"><ele>298.0</ele><time>2026-04-25T13:06:35.13Z</time></trkpt><trkpt lat="42.7396391" lon="12.3973882"><ele>298.0</ele><time>2026-04-25T13:06:36.115Z</time></trkpt><trkpt lat="42.7396284" lon="12.3974841"><ele>298.0</ele><time>2026-04-25T13:06:37.116Z</time></trkpt><trkpt lat="42.7396284" lon="12.3975831"><ele>298.0</ele><time>2026-04-25T13:06:38.132Z</time></trkpt><trkpt lat="42.7396328" lon="12.3976863"><ele>296.4</ele><time>2026-04-25T13:06:39.113Z</time></trkpt><trkpt lat="42.7396424" lon="12.397786"><ele>294.8</ele><time>2026-04-25T13:06:40.118Z</time></trkpt><trkpt lat="42.7396592" lon="12.3978804"><ele>293.2</ele><time>2026-04-25T13:06:41.117Z</time></trkpt><trkpt lat="42.739718" lon="12.3980181"><ele>291.6</ele><time>2026-04-25T13:06:43.117Z</time></trkpt><trkpt lat="42.7398085" lon="12.3981366"><ele>290.0</ele><time>2026-04-25T13:06:45.093Z</time></trkpt><trkpt lat="42.73987" lon="12.3981839"><ele>288.6666666666667</ele><time>2026-04-25T13:06:46.114Z</time></trkpt><trkpt lat="42.7399465" lon="12.3982397"><ele>287.33333333333337</ele><time>2026-04-25T13:06:47.122Z</time></trkpt><trkpt lat="42.7400268" lon="12.398297"><ele>286.0</ele><time>2026-04-25T13:06:48.097Z</time></trkpt><trkpt lat="42.7401011" lon="12.3983551"><ele>284.6666666666667</ele><time>2026-04-25T13:06:49.12Z</time></trkpt><trkpt lat="42.7401677" lon="12.3984145"><ele>283.3333333333333</ele><time>2026-04-25T13:06:50.1Z</time></trkpt><trkpt lat="42.7402317" lon="12.3984662"><ele>282.0</ele><time>2026-04-25T13:06:51.104Z</time></trkpt><trkpt lat="42.7402914" lon="12.3985104"><ele>281.8333333333333</ele><time>2026-04-25T13:06:52.099Z</time></trkpt><trkpt lat="42.7403547" lon="12.3985357"><ele>281.6666666666667</ele><time>2026-04-25T13:06:53.103Z</time></trkpt><trkpt lat="42.740432" lon="12.3985408"><ele>281.5</ele><time>2026-04-25T13:06:54.107Z</time></trkpt><trkpt lat="42.7405231" lon="12.39854"><ele>281.33333333333337</ele><time>2026-04-25T13:06:55.126Z</time></trkpt><trkpt lat="42.7406155" lon="12.398544"><ele>281.1666666666667</ele><time>2026-04-25T13:06:56.1Z</time></trkpt><trkpt lat="42.7407033" lon="12.3985488"><ele>281.0</ele><time>2026-04-25T13:06:57.096Z</time></trkpt><trkpt lat="42.7407803" lon="12.3985589"><ele>281.0</ele><time>2026-04-25T13:06:58.118Z</time></trkpt><trkpt lat="42.7408423" lon="12.3985745"><ele>281.0</ele><time>2026-04-25T13:06:59.1Z</time></trkpt><trkpt lat="42.7409248" lon="12.3986804"><ele>281.0</ele><time>2026-04-25T13:07:01.103Z</time></trkpt><trkpt lat="42.7409621" lon="12.3987699"><ele>281.0</ele><time>2026-04-25T13:07:02.106Z</time></trkpt><trkpt lat="42.7410051" lon="12.3988816"><ele>281.0</ele><time>2026-04-25T13:07:03.098Z</time></trkpt><trkpt lat="42.7410553" lon="12.3990093"><ele>278.2</ele><time>2026-04-25T13:07:04.15Z</time></trkpt><trkpt lat="42.7411118" lon="12.3991381"><ele>275.40000000000003</ele><time>2026-04-25T13:07:05.106Z</time></trkpt><trkpt lat="42.7411664" lon="12.3992688"><ele>272.6</ele><time>2026-04-25T13:07:06.127Z</time></trkpt><trkpt lat="42.7412251" lon="12.3993839"><ele>269.8</ele><time>2026-04-25T13:07:07.122Z</time></trkpt><trkpt lat="42.7412813" lon="12.3994938"><ele>267.0</ele><time>2026-04-25T13:07:08.099Z</time></trkpt><trkpt lat="42.7413351" lon="12.3996169"><ele>266.6</ele><time>2026-04-25T13:07:09.109Z</time></trkpt><trkpt lat="42.7413757" lon="12.3997537"><ele>266.2</ele><time>2026-04-25T13:07:10.097Z</time></trkpt><trkpt lat="42.7414055" lon="12.3999016"><ele>265.8</ele><time>2026-04-25T13:07:11.11Z</time></trkpt><trkpt lat="42.7414417" lon="12.4000421"><ele>265.4</ele><time>2026-04-25T13:07:12.106Z</time></trkpt><trkpt lat="42.7414772" lon="12.4001692"><ele>265.0</ele><time>2026-04-25T13:07:13.112Z</time></trkpt><trkpt lat="42.7415103" lon="12.4002916"><ele>265.0</ele><time>2026-04-25T13:07:14.094Z</time></trkpt><trkpt lat="42.7415463" lon="12.4004167"><ele>265.0</ele><time>2026-04-25T13:07:15.113Z</time></trkpt><trkpt lat="42.7415747" lon="12.4005381"><ele>265.0</ele><time>2026-04-25T13:07:16.111Z</time></trkpt><trkpt lat="42.741592" lon="12.4006565"><ele>265.0</ele><time>2026-04-25T13:07:17.106Z</time></trkpt><trkpt lat="42.7416133" lon="12.4007699"><ele>265.0</ele><time>2026-04-25T13:07:18.113Z</time></trkpt><trkpt lat="42.7416362" lon="12.4008771"><ele>265.0</ele><time>2026-04-25T13:07:19.103Z</time></trkpt><trkpt lat="42.7416575" lon="12.4009824"><ele>264.2857142857143</ele><time>2026-04-25T13:07:20.088Z</time></trkpt><trkpt lat="42.7416819" lon="12.4010899"><ele>263.57142857142856</ele><time>2026-04-25T13:07:21.117Z</time></trkpt><trkpt lat="42.7417094" lon="12.4011884"><ele>262.8571428571429</ele><time>2026-04-25T13:07:22.123Z</time></trkpt><trkpt lat="42.7417338" lon="12.4012833"><ele>262.1428571428571</ele><time>2026-04-25T13:07:23.091Z</time></trkpt><trkpt lat="42.7417595" lon="12.4013803"><ele>261.42857142857144</ele><time>2026-04-25T13:07:24.114Z</time></trkpt><trkpt lat="42.7417885" lon="12.4014709"><ele>260.7142857142857</ele><time>2026-04-25T13:07:25.1Z</time></trkpt><trkpt lat="42.7418182" lon="12.4015467"><ele>260.0</ele><time>2026-04-25T13:07:26.111Z</time></trkpt><trkpt lat="42.7418284" lon="12.4017015"><ele>258.1666666666667</ele><time>2026-04-25T13:07:28.104Z</time></trkpt><trkpt lat="42.7418031" lon="12.4017884"><ele>256.33333333333337</ele><time>2026-04-25T13:07:29.126Z</time></trkpt><trkpt lat="42.7417714" lon="12.4018918"><ele>254.5</ele><time>2026-04-25T13:07:30.104Z</time></trkpt><trkpt lat="42.7417354" lon="12.4019921"><ele>252.66666666666669</ele><time>2026-04-25T13:07:31.112Z</time></trkpt><trkpt lat="42.7417036" lon="12.402096"><ele>250.83333333333334</ele><time>2026-04-25T13:07:32.125Z</time></trkpt><trkpt lat="42.7416806" lon="12.4021955"><ele>249.0</ele><time>2026-04-25T13:07:33.114Z</time></trkpt><trkpt lat="42.7416611" lon="12.4022917"><ele>247.16666666666666</ele><time>2026-04-25T13:07:34.111Z</time></trkpt><trkpt lat="42.7416515" lon="12.4023909"><ele>245.33333333333331</ele><time>2026-04-25T13:07:35.102Z</time></trkpt><trkpt lat="42.7416511" lon="12.4024972"><ele>243.5</ele><time>2026-04-25T13:07:36.119Z</time></trkpt><trkpt lat="42.7416618" lon="12.40261"><ele>241.66666666666666</ele><time>2026-04-25T13:07:37.105Z</time></trkpt><trkpt lat="42.741675" lon="12.4027365"><ele>239.83333333333331</ele><time>2026-04-25T13:07:38.095Z</time></trkpt><trkpt lat="42.7416871" lon="12.4028687"><ele>238.0</ele><time>2026-04-25T13:07:39.088Z</time></trkpt><trkpt lat="42.741699" lon="12.4029968"><ele>235.66666666666666</ele><time>2026-04-25T13:07:40.088Z</time></trkpt><trkpt lat="42.7417107" lon="12.4031305"><ele>233.33333333333331</ele><time>2026-04-25T13:07:41.101Z</time></trkpt><trkpt lat="42.7417204" lon="12.4032532"><ele>231.0</ele><time>2026-04-25T13:07:42.105Z</time></trkpt><trkpt lat="42.7417306" lon="12.4033519"><ele>228.66666666666669</ele><time>2026-04-25T13:07:43.142Z</time></trkpt><trkpt lat="42.7417463" lon="12.403435"><ele>226.33333333333334</ele><time>2026-04-25T13:07:44.095Z</time></trkpt><trkpt lat="42.7418056" lon="12.4035679"><ele>224.0</ele><time>2026-04-25T13:07:46.126Z</time></trkpt><trkpt lat="42.7418777" lon="12.4036284"><ele>224.2</ele><time>2026-04-25T13:07:47.101Z</time></trkpt><trkpt lat="42.7419691" lon="12.4037023"><ele>224.39999999999998</ele><time>2026-04-25T13:07:48.089Z</time></trkpt><trkpt lat="42.7420516" lon="12.4037791"><ele>224.6</ele><time>2026-04-25T13:07:49.111Z</time></trkpt><trkpt lat="42.7421284" lon="12.4038577"><ele>224.8</ele><time>2026-04-25T13:07:50.095Z</time></trkpt><trkpt lat="42.7421967" lon="12.4039268"><ele>225.0</ele><time>2026-04-25T13:07:51.091Z</time></trkpt><trkpt lat="42.7422618" lon="12.4039852"><ele>223.66666666666666</ele><time>2026-04-25T13:07:52.115Z</time></trkpt><trkpt lat="42.7423233" lon="12.4040395"><ele>222.33333333333331</ele><time>2026-04-25T13:07:53.093Z</time></trkpt><trkpt lat="42.7423822" lon="12.4040917"><ele>221.0</ele><time>2026-04-25T13:07:54.107Z</time></trkpt><trkpt lat="42.742443" lon="12.4042086"><ele>219.66666666666666</ele><time>2026-04-25T13:07:56.103Z</time></trkpt><trkpt lat="42.7424527" lon="12.4043407"><ele>218.33333333333331</ele><time>2026-04-25T13:07:58.124Z</time></trkpt><trkpt lat="42.7424672" lon="12.4044287"><ele>217.0</ele><time>2026-04-25T13:08:00.104Z</time></trkpt><trkpt lat="42.7425499" lon="12.4045228"><ele>217.0</ele><time>2026-04-25T13:08:02.098Z</time></trkpt><trkpt lat="42.7426327" lon="12.4045557"><ele>217.0</ele><time>2026-04-25T13:08:03.111Z</time></trkpt><trkpt lat="42.7427517" lon="12.4046163"><ele>217.0</ele><time>2026-04-25T13:08:04.12Z</time></trkpt><trkpt lat="42.7428962" lon="12.4046904"><ele>217.0</ele><time>2026-04-25T13:08:05.113Z</time></trkpt><trkpt lat="42.7430635" lon="12.4047987"><ele>216.33333333333331</ele><time>2026-04-25T13:08:06.109Z</time></trkpt><trkpt lat="42.7432515" lon="12.4049151"><ele>215.66666666666669</ele><time>2026-04-25T13:08:07.088Z</time></trkpt><trkpt lat="42.743448" lon="12.4050378"><ele>215.0</ele><time>2026-04-25T13:08:08.102Z</time></trkpt><trkpt lat="42.7436267" lon="12.405162"><ele>214.0</ele><time>2026-04-25T13:08:09.104Z</time></trkpt><trkpt lat="42.743784" lon="12.4052905"><ele>213.0</ele><time>2026-04-25T13:08:10.11Z</time></trkpt><trkpt lat="42.743924" lon="12.4054243"><ele>212.0</ele><time>2026-04-25T13:08:11.092Z</time></trkpt><trkpt lat="42.7440525" lon="12.4055557"><ele>212.0</ele><time>2026-04-25T13:08:12.111Z</time></trkpt><trkpt lat="42.7441682" lon="12.405678"><ele>212.0</ele><time>2026-04-25T13:08:13.102Z</time></trkpt><trkpt lat="42.7442731" lon="12.4057913"><ele>212.0</ele><time>2026-04-25T13:08:14.102Z</time></trkpt><trkpt lat="42.7443728" lon="12.4059048"><ele>212.0</ele><time>2026-04-25T13:08:15.102Z</time></trkpt><trkpt lat="42.7444707" lon="12.4060182"><ele>211.66666666666669</ele><time>2026-04-25T13:08:16.097Z</time></trkpt><trkpt lat="42.7445749" lon="12.4061382"><ele>211.33333333333331</ele><time>2026-04-25T13:08:17.095Z</time></trkpt><trkpt lat="42.7447053" lon="12.4062772"><ele>211.0</ele><time>2026-04-25T13:08:18.092Z</time></trkpt><trkpt lat="42.7448693" lon="12.4064485"><ele>211.0</ele><time>2026-04-25T13:08:19.11Z</time></trkpt><trkpt lat="42.7450265" lon="12.406613"><ele>211.0</ele><time>2026-04-25T13:08:20.123Z</time></trkpt><trkpt lat="42.745176" lon="12.4067711"><ele>211.0</ele><time>2026-04-25T13:08:21.105Z</time></trkpt><trkpt lat="42.7452997" lon="12.4069134"><ele>213.33333333333331</ele><time>2026-04-25T13:08:22.1Z</time></trkpt><trkpt lat="42.7454031" lon="12.4070751"><ele>215.66666666666669</ele><time>2026-04-25T13:08:23.106Z</time></trkpt><trkpt lat="42.7454902" lon="12.4072765"><ele>218.0</ele><time>2026-04-25T13:08:24.102Z</time></trkpt><trkpt lat="42.74557" lon="12.4075039"><ele>218.0</ele><time>2026-04-25T13:08:25.086Z</time></trkpt><trkpt lat="42.7456401" lon="12.4077468"><ele>218.0</ele><time>2026-04-25T13:08:26.089Z</time></trkpt><trkpt lat="42.7457014" lon="12.4080032"><ele>218.0</ele><time>2026-04-25T13:08:27.112Z</time></trkpt><trkpt lat="42.7457417" lon="12.4082458"><ele>215.0</ele><time>2026-04-25T13:08:28.092Z</time></trkpt><trkpt lat="42.7457719" lon="12.4084775"><ele>212.0</ele><time>2026-04-25T13:08:29.108Z</time></trkpt><trkpt lat="42.7457969" lon="12.4086907"><ele>209.0</ele><time>2026-04-25T13:08:30.121Z</time></trkpt><trkpt lat="42.7458235" lon="12.4088813"><ele>209.75</ele><time>2026-04-25T13:08:31.093Z</time></trkpt><trkpt lat="42.7458718" lon="12.4090423"><ele>210.5</ele><time>2026-04-25T13:08:32.084Z</time></trkpt><trkpt lat="42.7459405" lon="12.4091717"><ele>211.25</ele><time>2026-04-25T13:08:33.118Z</time></trkpt><trkpt lat="42.7460333" lon="12.4092776"><ele>212.0</ele><time>2026-04-25T13:08:34.11Z</time></trkpt><trkpt lat="42.7461517" lon="12.4093629"><ele>212.0</ele><time>2026-04-25T13:08:35.111Z</time></trkpt><trkpt lat="42.7462919" lon="12.4094247"><ele>212.0</ele><time>2026-04-25T13:08:36.1Z</time></trkpt><trkpt lat="42.7464504" lon="12.409461"><ele>212.0</ele><time>2026-04-25T13:08:37.109Z</time></trkpt><trkpt lat="42.7466147" lon="12.4094905"><ele>212.0</ele><time>2026-04-25T13:08:38.094Z</time></trkpt><trkpt lat="42.7467814" lon="12.4095166"><ele>212.0</ele><time>2026-04-25T13:08:39.096Z</time></trkpt><trkpt lat="42.7469573" lon="12.4095195"><ele>212.0</ele><time>2026-04-25T13:08:40.098Z</time></trkpt><trkpt lat="42.7471343" lon="12.4095149"><ele>212.0</ele><time>2026-04-25T13:08:41.119Z</time></trkpt><trkpt lat="42.7473015" lon="12.4095101"><ele>212.0</ele><time>2026-04-25T13:08:42.103Z</time></trkpt><trkpt lat="42.7474567" lon="12.4095028"><ele>212.0</ele><time>2026-04-25T13:08:43.103Z</time></trkpt><trkpt lat="42.7476041" lon="12.4094863"><ele>209.25</ele><time>2026-04-25T13:08:44.094Z</time></trkpt><trkpt lat="42.7477424" lon="12.4094699"><ele>206.5</ele><time>2026-04-25T13:08:45.1Z</time></trkpt><trkpt lat="42.7478735" lon="12.4094441"><ele>203.75</ele><time>2026-04-25T13:08:46.1Z</time></trkpt><trkpt lat="42.7479902" lon="12.4094005"><ele>201.0</ele><time>2026-04-25T13:08:47.094Z</time></trkpt><trkpt lat="42.7480969" lon="12.4093337"><ele>201.0</ele><time>2026-04-25T13:08:48.106Z</time></trkpt><trkpt lat="42.7481935" lon="12.4092563"><ele>201.0</ele><time>2026-04-25T13:08:49.109Z</time></trkpt><trkpt lat="42.7482909" lon="12.4091956"><ele>201.0</ele><time>2026-04-25T13:08:50.094Z</time></trkpt><trkpt lat="42.7483969" lon="12.4091821"><ele>201.0</ele><time>2026-04-25T13:08:51.107Z</time></trkpt><trkpt lat="42.7484974" lon="12.4092203"><ele>201.0</ele><time>2026-04-25T13:08:52.122Z</time></trkpt><trkpt lat="42.7486017" lon="12.4093175"><ele>199.0</ele><time>2026-04-25T13:08:53.118Z</time></trkpt><trkpt lat="42.7487136" lon="12.409454"><ele>197.0</ele><time>2026-04-25T13:08:54.106Z</time></trkpt><trkpt lat="42.7488211" lon="12.4096018"><ele>195.0</ele><time>2026-04-25T13:08:55.106Z</time></trkpt><trkpt lat="42.7489263" lon="12.4097213"><ele>193.0</ele><time>2026-04-25T13:08:56.111Z</time></trkpt><trkpt lat="42.7490407" lon="12.4098153"><ele>192.25</ele><time>2026-04-25T13:08:57.118Z</time></trkpt><trkpt lat="42.749162" lon="12.4098902"><ele>191.5</ele><time>2026-04-25T13:08:58.097Z</time></trkpt><trkpt lat="42.749279" lon="12.4099506"><ele>190.75</ele><time>2026-04-25T13:08:59.099Z</time></trkpt><trkpt lat="42.7493877" lon="12.4099999"><ele>190.0</ele><time>2026-04-25T13:09:00.129Z</time></trkpt><trkpt lat="42.7494829" lon="12.4100273"><ele>189.0</ele><time>2026-04-25T13:09:01.119Z</time></trkpt><trkpt lat="42.749563" lon="12.4100333"><ele>188.0</ele><time>2026-04-25T13:09:02.105Z</time></trkpt><trkpt lat="42.7496688" lon="12.4100397"><ele>187.0</ele><time>2026-04-25T13:09:04.107Z</time></trkpt><trkpt lat="42.7496929" lon="12.4101323"><ele>186.0</ele><time>2026-04-25T13:09:07.114Z</time></trkpt><trkpt lat="42.7495718" lon="12.410154"><ele>185.0</ele><time>2026-04-25T13:09:09.093Z</time></trkpt><trkpt lat="42.7494517" lon="12.410166"><ele>186.66666666666666</ele><time>2026-04-25T13:09:10.106Z</time></trkpt><trkpt lat="42.7493108" lon="12.4101763"><ele>188.33333333333334</ele><time>2026-04-25T13:09:11.106Z</time></trkpt><trkpt lat="42.7491444" lon="12.4101969"><ele>190.0</ele><time>2026-04-25T13:09:12.107Z</time></trkpt><trkpt lat="42.7489761" lon="12.4102234"><ele>190.0</ele><time>2026-04-25T13:09:13.101Z</time></trkpt><trkpt lat="42.748836" lon="12.4102446"><ele>190.0</ele><time>2026-04-25T13:09:14.104Z</time></trkpt><trkpt lat="42.7487459" lon="12.4102423"><ele>190.0</ele><time>2026-04-25T13:09:15.11Z</time></trkpt><trkpt lat="42.7486361" lon="12.4102447"><ele>190.0</ele><time>2026-04-25T13:09:17.108Z</time></trkpt><trkpt lat="42.7485442" lon="12.4102799"><ele>190.0</ele><time>2026-04-25T13:09:19.109Z</time></trkpt><trkpt lat="42.7484419" lon="12.4103343"><ele>190.0</ele><time>2026-04-25T13:09:21.094Z</time></trkpt><trkpt lat="42.7483464" lon="12.4103982"><ele>190.0</ele><time>2026-04-25T13:09:23.105Z</time></trkpt><trkpt lat="42.7482893" lon="12.4104374"><ele>190.0</ele><time>2026-04-25T13:09:24.125Z</time></trkpt><trkpt lat="42.7482173" lon="12.4105015"><ele>190.0</ele><time>2026-04-25T13:09:25.087Z</time></trkpt><trkpt lat="42.7481423" lon="12.4105848"><ele>190.0</ele><time>2026-04-25T13:09:26.102Z</time></trkpt><trkpt lat="42.7480554" lon="12.4106927"><ele>190.0</ele><time>2026-04-25T13:09:27.141Z</time></trkpt><trkpt lat="42.7479563" lon="12.4108123"><ele>190.0</ele><time>2026-04-25T13:09:28.108Z</time></trkpt><trkpt lat="42.7478577" lon="12.4109274"><ele>190.0</ele><time>2026-04-25T13:09:29.1Z</time></trkpt><trkpt lat="42.7477671" lon="12.4110366"><ele>190.0</ele><time>2026-04-25T13:09:30.115Z</time></trkpt><trkpt lat="42.747679" lon="12.4111362"><ele>190.2</ele><time>2026-04-25T13:09:31.12Z</time></trkpt><trkpt lat="42.7475922" lon="12.4112305"><ele>190.4</ele><time>2026-04-25T13:09:32.116Z</time></trkpt><trkpt lat="42.7474909" lon="12.4113084"><ele>190.60000000000002</ele><time>2026-04-25T13:09:33.105Z</time></trkpt><trkpt lat="42.7473891" lon="12.4113711"><ele>190.8</ele><time>2026-04-25T13:09:34.104Z</time></trkpt><trkpt lat="42.7472883" lon="12.4114281"><ele>191.0</ele><time>2026-04-25T13:09:35.103Z</time></trkpt><trkpt lat="42.7471955" lon="12.4114845"><ele>191.5</ele><time>2026-04-25T13:09:36.117Z</time></trkpt><trkpt lat="42.7471083" lon="12.4115323"><ele>192.0</ele><time>2026-04-25T13:09:37.105Z</time></trkpt><trkpt lat="42.7470228" lon="12.4115707"><ele>192.5</ele><time>2026-04-25T13:09:38.1Z</time></trkpt><trkpt lat="42.7469372" lon="12.4115782"><ele>193.0</ele><time>2026-04-25T13:09:39.099Z</time></trkpt><trkpt lat="42.7468586" lon="12.4115724"><ele>193.50000000000003</ele><time>2026-04-25T13:09:40.105Z</time></trkpt><trkpt lat="42.7467823" lon="12.411578"><ele>194.0</ele><time>2026-04-25T13:09:41.106Z</time></trkpt><trkpt lat="42.7467143" lon="12.4116164"><ele>194.33333333333334</ele><time>2026-04-25T13:09:42.114Z</time></trkpt><trkpt lat="42.7466437" lon="12.4117002"><ele>194.66666666666669</ele><time>2026-04-25T13:09:43.101Z</time></trkpt><trkpt lat="42.7465906" lon="12.4117878"><ele>195.0</ele><time>2026-04-25T13:09:44.108Z</time></trkpt><trkpt lat="42.7465387" lon="12.4118575"><ele>195.33333333333331</ele><time>2026-04-25T13:09:45.104Z</time></trkpt><trkpt lat="42.7464641" lon="12.4119055"><ele>195.66666666666666</ele><time>2026-04-25T13:09:46.103Z</time></trkpt><trkpt lat="42.7463563" lon="12.4119411"><ele>196.0</ele><time>2026-04-25T13:09:47.13Z</time></trkpt><trkpt lat="42.7462345" lon="12.4119737"><ele>196.0</ele><time>2026-04-25T13:09:48.105Z</time></trkpt><trkpt lat="42.746101" lon="12.4119978"><ele>196.0</ele><time>2026-04-25T13:09:49.121Z</time></trkpt><trkpt lat="42.7459743" lon="12.4120117"><ele>196.0</ele><time>2026-04-25T13:09:50.107Z</time></trkpt><trkpt lat="42.7458575" lon="12.4120093"><ele>196.0</ele><time>2026-04-25T13:09:51.103Z</time></trkpt><trkpt lat="42.7457441" lon="12.412"><ele>197.25</ele><time>2026-04-25T13:09:52.109Z</time></trkpt><trkpt lat="42.7456232" lon="12.4119749"><ele>198.5</ele><time>2026-04-25T13:09:53.104Z</time></trkpt><trkpt lat="42.7455046" lon="12.4119315"><ele>199.75</ele><time>2026-04-25T13:09:54.096Z</time></trkpt><trkpt lat="42.745388" lon="12.4118937"><ele>201.0</ele><time>2026-04-25T13:09:55.118Z</time></trkpt><trkpt lat="42.7452621" lon="12.4118808"><ele>203.5</ele><time>2026-04-25T13:09:56.108Z</time></trkpt><trkpt lat="42.7451308" lon="12.4118779"><ele>206.0</ele><time>2026-04-25T13:09:57.098Z</time></trkpt><trkpt lat="42.7449858" lon="12.4118668"><ele>208.5</ele><time>2026-04-25T13:09:58.098Z</time></trkpt><trkpt lat="42.7448191" lon="12.411844"><ele>211.0</ele><time>2026-04-25T13:09:59.116Z</time></trkpt><trkpt lat="42.7446503" lon="12.4118052"><ele>211.0</ele><time>2026-04-25T13:10:00.099Z</time></trkpt><trkpt lat="42.744499" lon="12.4117623"><ele>211.0</ele><time>2026-04-25T13:10:01.097Z</time></trkpt><trkpt lat="42.7443703" lon="12.4117122"><ele>211.0</ele><time>2026-04-25T13:10:02.102Z</time></trkpt><trkpt lat="42.7442662" lon="12.4116651"><ele>211.0</ele><time>2026-04-25T13:10:03.109Z</time></trkpt><trkpt lat="42.7441717" lon="12.4116454"><ele>213.0</ele><time>2026-04-25T13:10:04.1Z</time></trkpt><trkpt lat="42.7440774" lon="12.411658"><ele>215.0</ele><time>2026-04-25T13:10:05.107Z</time></trkpt><trkpt lat="42.7439693" lon="12.4116786"><ele>217.00000000000003</ele><time>2026-04-25T13:10:06.117Z</time></trkpt><trkpt lat="42.7438691" lon="12.4117114"><ele>219.0</ele><time>2026-04-25T13:10:07.104Z</time></trkpt><trkpt lat="42.7437902" lon="12.4117615"><ele>221.0</ele><time>2026-04-25T13:10:08.115Z</time></trkpt><trkpt lat="42.7436988" lon="12.4118404"><ele>221.0</ele><time>2026-04-25T13:10:09.122Z</time></trkpt><trkpt lat="42.7435941" lon="12.4119293"><ele>221.0</ele><time>2026-04-25T13:10:10.1Z</time></trkpt><trkpt lat="42.7434751" lon="12.4120111"><ele>221.0</ele><time>2026-04-25T13:10:11.107Z</time></trkpt><trkpt lat="42.7433342" lon="12.412079"><ele>221.0</ele><time>2026-04-25T13:10:12.098Z</time></trkpt><trkpt lat="42.7431882" lon="12.4121389"><ele>223.5</ele><time>2026-04-25T13:10:13.102Z</time></trkpt><trkpt lat="42.7430596" lon="12.4121899"><ele>226.0</ele><time>2026-04-25T13:10:14.108Z</time></trkpt><trkpt lat="42.7429516" lon="12.4122386"><ele>228.5</ele><time>2026-04-25T13:10:15.113Z</time></trkpt><trkpt lat="42.7428583" lon="12.4122966"><ele>231.0</ele><time>2026-04-25T13:10:16.105Z</time></trkpt><trkpt lat="42.7427678" lon="12.4123567"><ele>233.16666666666666</ele><time>2026-04-25T13:10:17.098Z</time></trkpt><trkpt lat="42.7426848" lon="12.4124127"><ele>235.33333333333331</ele><time>2026-04-25T13:10:18.105Z</time></trkpt><trkpt lat="42.7426042" lon="12.4124572"><ele>237.5</ele><time>2026-04-25T13:10:19.114Z</time></trkpt><trkpt lat="42.7425247" lon="12.4124976"><ele>239.66666666666666</ele><time>2026-04-25T13:10:20.113Z</time></trkpt><trkpt lat="42.7424394" lon="12.4125208"><ele>241.83333333333331</ele><time>2026-04-25T13:10:21.099Z</time></trkpt><trkpt lat="42.7423474" lon="12.412539"><ele>244.0</ele><time>2026-04-25T13:10:22.106Z</time></trkpt><trkpt lat="42.742246" lon="12.4125603"><ele>244.0</ele><time>2026-04-25T13:10:23.103Z</time></trkpt><trkpt lat="42.7421366" lon="12.4125794"><ele>243.99999999999997</ele><time>2026-04-25T13:10:24.089Z</time></trkpt><trkpt lat="42.7420235" lon="12.4125971"><ele>243.99999999999997</ele><time>2026-04-25T13:10:25.118Z</time></trkpt><trkpt lat="42.7419246" lon="12.4126151"><ele>244.0</ele><time>2026-04-25T13:10:26.122Z</time></trkpt><trkpt lat="42.7418527" lon="12.4126445"><ele>244.0</ele><time>2026-04-25T13:10:27.089Z</time></trkpt><trkpt lat="42.7417709" lon="12.4127144"><ele>245.6</ele><time>2026-04-25T13:10:29.097Z</time></trkpt><trkpt lat="42.7417342" lon="12.4128321"><ele>247.2</ele><time>2026-04-25T13:10:31.104Z</time></trkpt><trkpt lat="42.7417204" lon="12.4129423"><ele>248.79999999999998</ele><time>2026-04-25T13:10:32.103Z</time></trkpt><trkpt lat="42.7417079" lon="12.4130603"><ele>250.39999999999998</ele><time>2026-04-25T13:10:33.104Z</time></trkpt><trkpt lat="42.7416954" lon="12.4131902"><ele>252.0</ele><time>2026-04-25T13:10:34.097Z</time></trkpt><trkpt lat="42.7416796" lon="12.4133315"><ele>253.16666666666666</ele><time>2026-04-25T13:10:35.095Z</time></trkpt><trkpt lat="42.7416768" lon="12.4134656"><ele>254.33333333333331</ele><time>2026-04-25T13:10:36.119Z</time></trkpt><trkpt lat="42.7416874" lon="12.4135785"><ele>255.5</ele><time>2026-04-25T13:10:37.099Z</time></trkpt><trkpt lat="42.7416927" lon="12.4136793"><ele>256.66666666666663</ele><time>2026-04-25T13:10:38.105Z</time></trkpt><trkpt lat="42.7416764" lon="12.4137708"><ele>257.8333333333333</ele><time>2026-04-25T13:10:39.104Z</time></trkpt><trkpt lat="42.7416444" lon="12.4138535"><ele>259.0</ele><time>2026-04-25T13:10:40.116Z</time></trkpt><trkpt lat="42.7415997" lon="12.4139204"><ele>260.4</ele><time>2026-04-25T13:10:41.111Z</time></trkpt><trkpt lat="42.7415306" lon="12.4139743"><ele>261.79999999999995</ele><time>2026-04-25T13:10:42.092Z</time></trkpt><trkpt lat="42.7414443" lon="12.41403"><ele>263.20000000000005</ele><time>2026-04-25T13:10:43.103Z</time></trkpt><trkpt lat="42.7413506" lon="12.4140925"><ele>264.6</ele><time>2026-04-25T13:10:44.096Z</time></trkpt><trkpt lat="42.7412519" lon="12.4141498"><ele>266.0</ele><time>2026-04-25T13:10:45.104Z</time></trkpt><trkpt lat="42.7411488" lon="12.4142178"><ele>267.8</ele><time>2026-04-25T13:10:46.123Z</time></trkpt><trkpt lat="42.7410478" lon="12.4142948"><ele>269.6</ele><time>2026-04-25T13:10:47.103Z</time></trkpt><trkpt lat="42.7409587" lon="12.4143834"><ele>271.4</ele><time>2026-04-25T13:10:48.111Z</time></trkpt><trkpt lat="42.7408769" lon="12.4144835"><ele>273.2</ele><time>2026-04-25T13:10:49.1Z</time></trkpt><trkpt lat="42.740802" lon="12.4145877"><ele>275.0</ele><time>2026-04-25T13:10:50.1Z</time></trkpt><trkpt lat="42.7407471" lon="12.414697"><ele>276.4</ele><time>2026-04-25T13:10:51.093Z</time></trkpt><trkpt lat="42.7407179" lon="12.414807"><ele>277.8</ele><time>2026-04-25T13:10:52.114Z</time></trkpt><trkpt lat="42.7406965" lon="12.4149145"><ele>279.2</ele><time>2026-04-25T13:10:53.101Z</time></trkpt><trkpt lat="42.7406796" lon="12.4150394"><ele>280.6</ele><time>2026-04-25T13:10:54.093Z</time></trkpt><trkpt lat="42.740661" lon="12.4151845"><ele>282.0</ele><time>2026-04-25T13:10:55.102Z</time></trkpt><trkpt lat="42.7406406" lon="12.4153368"><ele>282.0</ele><time>2026-04-25T13:10:56.113Z</time></trkpt><trkpt lat="42.7406189" lon="12.4154866"><ele>282.0</ele><time>2026-04-25T13:10:57.114Z</time></trkpt><trkpt lat="42.7405909" lon="12.4156315"><ele>282.0</ele><time>2026-04-25T13:10:58.1Z</time></trkpt><trkpt lat="42.7405522" lon="12.4157784"><ele>282.0</ele><time>2026-04-25T13:10:59.11Z</time></trkpt><trkpt lat="42.7405183" lon="12.4159216"><ele>282.0</ele><time>2026-04-25T13:11:00.107Z</time></trkpt><trkpt lat="42.740498" lon="12.4160377"><ele>283.1666666666667</ele><time>2026-04-25T13:11:01.116Z</time></trkpt><trkpt lat="42.7404865" lon="12.4161351"><ele>284.3333333333333</ele><time>2026-04-25T13:11:02.1Z</time></trkpt><trkpt lat="42.7404968" lon="12.4162252"><ele>285.5</ele><time>2026-04-25T13:11:03.098Z</time></trkpt><trkpt lat="42.7405324" lon="12.4163176"><ele>286.66666666666663</ele><time>2026-04-25T13:11:04.101Z</time></trkpt><trkpt lat="42.7405863" lon="12.4164114"><ele>287.8333333333333</ele><time>2026-04-25T13:11:05.102Z</time></trkpt><trkpt lat="42.7406433" lon="12.4165084"><ele>289.0</ele><time>2026-04-25T13:11:06.115Z</time></trkpt><trkpt lat="42.7407013" lon="12.4166142"><ele>290.4</ele><time>2026-04-25T13:11:07.116Z</time></trkpt><trkpt lat="42.7407636" lon="12.4167259"><ele>291.79999999999995</ele><time>2026-04-25T13:11:08.097Z</time></trkpt><trkpt lat="42.7408273" lon="12.4168264"><ele>293.20000000000005</ele><time>2026-04-25T13:11:09.099Z</time></trkpt><trkpt lat="42.7408928" lon="12.4168984"><ele>294.6</ele><time>2026-04-25T13:11:10.118Z</time></trkpt><trkpt lat="42.7409667" lon="12.4169532"><ele>296.0</ele><time>2026-04-25T13:11:11.102Z</time></trkpt><trkpt lat="42.741043" lon="12.4170007"><ele>296.33333333333337</ele><time>2026-04-25T13:11:12.117Z</time></trkpt><trkpt lat="42.7411106" lon="12.4170569"><ele>296.6666666666667</ele><time>2026-04-25T13:11:13.099Z</time></trkpt><trkpt lat="42.7411735" lon="12.4171159"><ele>297.0</ele><time>2026-04-25T13:11:14.096Z</time></trkpt><trkpt lat="42.7412259" lon="12.4171845"><ele>297.3333333333333</ele><time>2026-04-25T13:11:15.117Z</time></trkpt><trkpt lat="42.7412719" lon="12.4172699"><ele>297.66666666666663</ele><time>2026-04-25T13:11:16.129Z</time></trkpt><trkpt lat="42.7413243" lon="12.4173791"><ele>298.0</ele><time>2026-04-25T13:11:17.095Z</time></trkpt><trkpt lat="42.7413892" lon="12.4175137"><ele>298.0</ele><time>2026-04-25T13:11:18.097Z</time></trkpt><trkpt lat="42.7414481" lon="12.4176506"><ele>298.0</ele><time>2026-04-25T13:11:19.116Z</time></trkpt><trkpt lat="42.7414937" lon="12.4177743"><ele>298.0</ele><time>2026-04-25T13:11:20.101Z</time></trkpt><trkpt lat="42.7415233" lon="12.4178773"><ele>298.0</ele><time>2026-04-25T13:11:21.106Z</time></trkpt><trkpt lat="42.7415561" lon="12.4179998"><ele>298.0</ele><time>2026-04-25T13:11:23.118Z</time></trkpt><trkpt lat="42.7415256" lon="12.4180977"><ele>298.66666666666663</ele><time>2026-04-25T13:11:25.097Z</time></trkpt><trkpt lat="42.7414492" lon="12.418168"><ele>299.3333333333333</ele><time>2026-04-25T13:11:27.117Z</time></trkpt><trkpt lat="42.7413917" lon="12.4182065"><ele>300.0</ele><time>2026-04-25T13:11:28.092Z</time></trkpt><trkpt lat="42.7413212" lon="12.4182512"><ele>300.6666666666667</ele><time>2026-04-25T13:11:29.115Z</time></trkpt><trkpt lat="42.7412423" lon="12.4183027"><ele>301.33333333333337</ele><time>2026-04-25T13:11:30.095Z</time></trkpt><trkpt lat="42.7411577" lon="12.4183593"><ele>302.0</ele><time>2026-04-25T13:11:31.1Z</time></trkpt><trkpt lat="42.741077" lon="12.418416"><ele>302.0</ele><time>2026-04-25T13:11:32.103Z</time></trkpt><trkpt lat="42.7410163" lon="12.4184536"><ele>315.0</ele><time>2026-04-25T13:11:33.099Z</time></trkpt><trkpt lat="42.7409672" lon="12.4185252"><ele>315.0</ele><time>2026-04-25T13:11:35.104Z</time></trkpt><trkpt lat="42.741002" lon="12.4186763"><ele>315.0</ele><time>2026-04-25T13:11:38.111Z</time></trkpt><trkpt lat="42.7409913" lon="12.4187966"><ele>315.0</ele><time>2026-04-25T13:11:40.101Z</time></trkpt></trkseg></trk></gpx>